<?xml version="1.0" encoding="UTF-8" standalone="no" ?>
<gpx xmlns="http://www.topografix.com/GPX/1/1" xmlns:xsi="http://www.w3.org/2001/XMLSchema-instance" xsi:schemaLocation="http://www.topografix.com/GPX/1/1 http://www.topografix.com/GPX/1/1/gpx.xsd" version="1.1" creator="VisuGPX - https://www.visugpx.com">
  <metadata>
    <name>16/05/2019 09:34:16</name>
    <desc><![CDATA[boucle départ de BEAUCENS puis suivi du gave d'Argeles Gazost aval et amont pour le retour]]></desc>
  </metadata>
  <trk>
    <name><![CDATA[16/05/2019 09:34:16]]></name>
    <trkseg>
      <trkpt lat="42.98084" lon="-0.05871">
        <ele>533.20001220703</ele>
        <time>2019-05-16T07:34:16Z</time>
      </trkpt>
      <trkpt lat="42.98084" lon="-0.05871">
        <ele>533.20001220703</ele>
        <time>2019-05-16T07:34:19Z</time>
      </trkpt>
      <trkpt lat="42.98084" lon="-0.05871">
        <ele>533.20001220703</ele>
        <time>2019-05-16T07:34:20Z</time>
      </trkpt>
      <trkpt lat="42.98084" lon="-0.05874">
        <ele>533.20001220703</ele>
        <time>2019-05-16T07:34:23Z</time>
      </trkpt>
      <trkpt lat="42.98084" lon="-0.05876">
        <ele>533.20001220703</ele>
        <time>2019-05-16T07:34:24Z</time>
      </trkpt>
      <trkpt lat="42.98082" lon="-0.05883">
        <ele>533.20001220703</ele>
        <time>2019-05-16T07:34:30Z</time>
      </trkpt>
      <trkpt lat="42.98081" lon="-0.05887">
        <ele>533.20001220703</ele>
        <time>2019-05-16T07:34:33Z</time>
      </trkpt>
      <trkpt lat="42.9808" lon="-0.05891">
        <ele>533.20001220703</ele>
        <time>2019-05-16T07:34:36Z</time>
      </trkpt>
      <trkpt lat="42.98074" lon="-0.05894">
        <ele>533.20001220703</ele>
        <time>2019-05-16T07:34:42Z</time>
      </trkpt>
      <trkpt lat="42.98071" lon="-0.05894">
        <ele>533.20001220703</ele>
        <time>2019-05-16T07:34:46Z</time>
      </trkpt>
      <trkpt lat="42.98069" lon="-0.05894">
        <ele>533.20001220703</ele>
        <time>2019-05-16T07:34:48Z</time>
      </trkpt>
      <trkpt lat="42.98064" lon="-0.05895">
        <ele>533.20001220703</ele>
        <time>2019-05-16T07:34:54Z</time>
      </trkpt>
      <trkpt lat="42.98061" lon="-0.05897">
        <ele>533.20001220703</ele>
        <time>2019-05-16T07:34:57Z</time>
      </trkpt>
      <trkpt lat="42.98057" lon="-0.05899">
        <ele>533.20001220703</ele>
        <time>2019-05-16T07:34:59Z</time>
      </trkpt>
      <trkpt lat="42.98053" lon="-0.059">
        <ele>532.79998779297</ele>
        <time>2019-05-16T07:35:01Z</time>
      </trkpt>
      <trkpt lat="42.98051" lon="-0.059">
        <ele>532.40002441406</ele>
        <time>2019-05-16T07:35:02Z</time>
      </trkpt>
      <trkpt lat="42.98049" lon="-0.059">
        <ele>532</ele>
        <time>2019-05-16T07:35:03Z</time>
      </trkpt>
      <trkpt lat="42.98047" lon="-0.059">
        <ele>531.59997558594</ele>
        <time>2019-05-16T07:35:04Z</time>
      </trkpt>
      <trkpt lat="42.98044" lon="-0.059">
        <ele>531.20001220703</ele>
        <time>2019-05-16T07:35:05Z</time>
      </trkpt>
      <trkpt lat="42.98037" lon="-0.05895">
        <ele>530.79998779297</ele>
        <time>2019-05-16T07:35:08Z</time>
      </trkpt>
      <trkpt lat="42.98034" lon="-0.05893">
        <ele>530.40002441406</ele>
        <time>2019-05-16T07:35:09Z</time>
      </trkpt>
      <trkpt lat="42.98032" lon="-0.05891">
        <ele>530</ele>
        <time>2019-05-16T07:35:10Z</time>
      </trkpt>
      <trkpt lat="42.9803" lon="-0.05889">
        <ele>529.59997558594</ele>
        <time>2019-05-16T07:35:11Z</time>
      </trkpt>
      <trkpt lat="42.98028" lon="-0.05887">
        <ele>529.20001220703</ele>
        <time>2019-05-16T07:35:12Z</time>
      </trkpt>
      <trkpt lat="42.98022" lon="-0.05882">
        <ele>529.20001220703</ele>
        <time>2019-05-16T07:35:15Z</time>
      </trkpt>
      <trkpt lat="42.98014" lon="-0.05872">
        <ele>529.20001220703</ele>
        <time>2019-05-16T07:35:21Z</time>
      </trkpt>
      <trkpt lat="42.98005" lon="-0.05858">
        <ele>529.20001220703</ele>
        <time>2019-05-16T07:35:28Z</time>
      </trkpt>
      <trkpt lat="42.97997" lon="-0.05852">
        <ele>528.59997558594</ele>
        <time>2019-05-16T07:35:33Z</time>
      </trkpt>
      <trkpt lat="42.97995" lon="-0.05851">
        <ele>528.20001220703</ele>
        <time>2019-05-16T07:35:34Z</time>
      </trkpt>
      <trkpt lat="42.97993" lon="-0.0585">
        <ele>527.79998779297</ele>
        <time>2019-05-16T07:35:35Z</time>
      </trkpt>
      <trkpt lat="42.97992" lon="-0.0585">
        <ele>527.40002441406</ele>
        <time>2019-05-16T07:35:36Z</time>
      </trkpt>
      <trkpt lat="42.9799" lon="-0.0585">
        <ele>527</ele>
        <time>2019-05-16T07:35:37Z</time>
      </trkpt>
      <trkpt lat="42.97985" lon="-0.05848">
        <ele>526.40002441406</ele>
        <time>2019-05-16T07:35:39Z</time>
      </trkpt>
      <trkpt lat="42.97983" lon="-0.05848">
        <ele>526</ele>
        <time>2019-05-16T07:35:40Z</time>
      </trkpt>
      <trkpt lat="42.97981" lon="-0.05847">
        <ele>525.59997558594</ele>
        <time>2019-05-16T07:35:41Z</time>
      </trkpt>
      <trkpt lat="42.97978" lon="-0.05846">
        <ele>525.20001220703</ele>
        <time>2019-05-16T07:35:42Z</time>
      </trkpt>
      <trkpt lat="42.97975" lon="-0.05845">
        <ele>524.59997558594</ele>
        <time>2019-05-16T07:35:43Z</time>
      </trkpt>
      <trkpt lat="42.97972" lon="-0.05845">
        <ele>524</ele>
        <time>2019-05-16T07:35:44Z</time>
      </trkpt>
      <trkpt lat="42.97968" lon="-0.05843">
        <ele>523.59997558594</ele>
        <time>2019-05-16T07:35:45Z</time>
      </trkpt>
      <trkpt lat="42.97965" lon="-0.0584">
        <ele>523</ele>
        <time>2019-05-16T07:35:46Z</time>
      </trkpt>
      <trkpt lat="42.97962" lon="-0.05837">
        <ele>522.59997558594</ele>
        <time>2019-05-16T07:35:47Z</time>
      </trkpt>
      <trkpt lat="42.97958" lon="-0.05834">
        <ele>522</ele>
        <time>2019-05-16T07:35:48Z</time>
      </trkpt>
      <trkpt lat="42.97955" lon="-0.05832">
        <ele>521.40002441406</ele>
        <time>2019-05-16T07:35:49Z</time>
      </trkpt>
      <trkpt lat="42.97951" lon="-0.05829">
        <ele>521</ele>
        <time>2019-05-16T07:35:50Z</time>
      </trkpt>
      <trkpt lat="42.97948" lon="-0.05828">
        <ele>520.40002441406</ele>
        <time>2019-05-16T07:35:51Z</time>
      </trkpt>
      <trkpt lat="42.97945" lon="-0.05826">
        <ele>519.79998779297</ele>
        <time>2019-05-16T07:35:52Z</time>
      </trkpt>
      <trkpt lat="42.97939" lon="-0.05822">
        <ele>519.40002441406</ele>
        <time>2019-05-16T07:35:54Z</time>
      </trkpt>
      <trkpt lat="42.97935" lon="-0.0582">
        <ele>519</ele>
        <time>2019-05-16T07:35:55Z</time>
      </trkpt>
      <trkpt lat="42.97931" lon="-0.05819">
        <ele>518.20001220703</ele>
        <time>2019-05-16T07:35:56Z</time>
      </trkpt>
      <trkpt lat="42.97928" lon="-0.05818">
        <ele>517.59997558594</ele>
        <time>2019-05-16T07:35:57Z</time>
      </trkpt>
      <trkpt lat="42.97924" lon="-0.05817">
        <ele>517.20001220703</ele>
        <time>2019-05-16T07:35:58Z</time>
      </trkpt>
      <trkpt lat="42.97921" lon="-0.05816">
        <ele>516.79998779297</ele>
        <time>2019-05-16T07:35:59Z</time>
      </trkpt>
      <trkpt lat="42.97918" lon="-0.05815">
        <ele>516.40002441406</ele>
        <time>2019-05-16T07:36:00Z</time>
      </trkpt>
      <trkpt lat="42.97915" lon="-0.05814">
        <ele>516</ele>
        <time>2019-05-16T07:36:01Z</time>
      </trkpt>
      <trkpt lat="42.97911" lon="-0.05813">
        <ele>515.59997558594</ele>
        <time>2019-05-16T07:36:02Z</time>
      </trkpt>
      <trkpt lat="42.97902" lon="-0.05815">
        <ele>515.20001220703</ele>
        <time>2019-05-16T07:36:05Z</time>
      </trkpt>
      <trkpt lat="42.97899" lon="-0.05816">
        <ele>514.79998779297</ele>
        <time>2019-05-16T07:36:06Z</time>
      </trkpt>
      <trkpt lat="42.97896" lon="-0.05818">
        <ele>514.20001220703</ele>
        <time>2019-05-16T07:36:07Z</time>
      </trkpt>
      <trkpt lat="42.97893" lon="-0.05819">
        <ele>513.79998779297</ele>
        <time>2019-05-16T07:36:08Z</time>
      </trkpt>
      <trkpt lat="42.9789" lon="-0.05821">
        <ele>513.40002441406</ele>
        <time>2019-05-16T07:36:09Z</time>
      </trkpt>
      <trkpt lat="42.97883" lon="-0.05823">
        <ele>513</ele>
        <time>2019-05-16T07:36:11Z</time>
      </trkpt>
      <trkpt lat="42.9788" lon="-0.05824">
        <ele>512.40002441406</ele>
        <time>2019-05-16T07:36:12Z</time>
      </trkpt>
      <trkpt lat="42.97877" lon="-0.05825">
        <ele>512</ele>
        <time>2019-05-16T07:36:13Z</time>
      </trkpt>
      <trkpt lat="42.97874" lon="-0.05827">
        <ele>511.60000610352</ele>
        <time>2019-05-16T07:36:14Z</time>
      </trkpt>
      <trkpt lat="42.97871" lon="-0.05829">
        <ele>511.20001220703</ele>
        <time>2019-05-16T07:36:15Z</time>
      </trkpt>
      <trkpt lat="42.97862" lon="-0.05833">
        <ele>510.79998779297</ele>
        <time>2019-05-16T07:36:18Z</time>
      </trkpt>
      <trkpt lat="42.97858" lon="-0.05835">
        <ele>510.20001220703</ele>
        <time>2019-05-16T07:36:19Z</time>
      </trkpt>
      <trkpt lat="42.97855" lon="-0.05837">
        <ele>509.79998779297</ele>
        <time>2019-05-16T07:36:20Z</time>
      </trkpt>
      <trkpt lat="42.97852" lon="-0.05839">
        <ele>509</ele>
        <time>2019-05-16T07:36:21Z</time>
      </trkpt>
      <trkpt lat="42.97849" lon="-0.05841">
        <ele>508.60000610352</ele>
        <time>2019-05-16T07:36:22Z</time>
      </trkpt>
      <trkpt lat="42.97845" lon="-0.05844">
        <ele>508.20001220703</ele>
        <time>2019-05-16T07:36:23Z</time>
      </trkpt>
      <trkpt lat="42.97842" lon="-0.05847">
        <ele>507.79998779297</ele>
        <time>2019-05-16T07:36:24Z</time>
      </trkpt>
      <trkpt lat="42.97838" lon="-0.0585">
        <ele>507.39999389648</ele>
        <time>2019-05-16T07:36:25Z</time>
      </trkpt>
      <trkpt lat="42.97835" lon="-0.05853">
        <ele>506.79998779297</ele>
        <time>2019-05-16T07:36:26Z</time>
      </trkpt>
      <trkpt lat="42.97831" lon="-0.05856">
        <ele>506.39999389648</ele>
        <time>2019-05-16T07:36:27Z</time>
      </trkpt>
      <trkpt lat="42.97828" lon="-0.05859">
        <ele>506</ele>
        <time>2019-05-16T07:36:28Z</time>
      </trkpt>
      <trkpt lat="42.97824" lon="-0.05862">
        <ele>505.39999389648</ele>
        <time>2019-05-16T07:36:29Z</time>
      </trkpt>
      <trkpt lat="42.97821" lon="-0.05865">
        <ele>505</ele>
        <time>2019-05-16T07:36:30Z</time>
      </trkpt>
      <trkpt lat="42.97817" lon="-0.05869">
        <ele>504.60000610352</ele>
        <time>2019-05-16T07:36:31Z</time>
      </trkpt>
      <trkpt lat="42.9781" lon="-0.05876">
        <ele>504.20001220703</ele>
        <time>2019-05-16T07:36:33Z</time>
      </trkpt>
      <trkpt lat="42.97806" lon="-0.05879">
        <ele>503.60000610352</ele>
        <time>2019-05-16T07:36:34Z</time>
      </trkpt>
      <trkpt lat="42.97803" lon="-0.05883">
        <ele>503.20001220703</ele>
        <time>2019-05-16T07:36:35Z</time>
      </trkpt>
      <trkpt lat="42.978" lon="-0.05887">
        <ele>502.79998779297</ele>
        <time>2019-05-16T07:36:36Z</time>
      </trkpt>
      <trkpt lat="42.97797" lon="-0.05892">
        <ele>502.39999389648</ele>
        <time>2019-05-16T07:36:37Z</time>
      </trkpt>
      <trkpt lat="42.97794" lon="-0.05898">
        <ele>502</ele>
        <time>2019-05-16T07:36:38Z</time>
      </trkpt>
      <trkpt lat="42.97792" lon="-0.05903">
        <ele>501.60000610352</ele>
        <time>2019-05-16T07:36:39Z</time>
      </trkpt>
      <trkpt lat="42.97789" lon="-0.05909">
        <ele>501.20001220703</ele>
        <time>2019-05-16T07:36:40Z</time>
      </trkpt>
      <trkpt lat="42.97787" lon="-0.05915">
        <ele>500.79998779297</ele>
        <time>2019-05-16T07:36:41Z</time>
      </trkpt>
      <trkpt lat="42.97785" lon="-0.0592">
        <ele>500.39999389648</ele>
        <time>2019-05-16T07:36:42Z</time>
      </trkpt>
      <trkpt lat="42.9778" lon="-0.05936">
        <ele>500</ele>
        <time>2019-05-16T07:36:45Z</time>
      </trkpt>
      <trkpt lat="42.97778" lon="-0.05942">
        <ele>499.20001220703</ele>
        <time>2019-05-16T07:36:46Z</time>
      </trkpt>
      <trkpt lat="42.97775" lon="-0.05947">
        <ele>498.60000610352</ele>
        <time>2019-05-16T07:36:47Z</time>
      </trkpt>
      <trkpt lat="42.97773" lon="-0.05952">
        <ele>498.20001220703</ele>
        <time>2019-05-16T07:36:48Z</time>
      </trkpt>
      <trkpt lat="42.97766" lon="-0.05965">
        <ele>498.20001220703</ele>
        <time>2019-05-16T07:36:51Z</time>
      </trkpt>
      <trkpt lat="42.97754" lon="-0.05985">
        <ele>498.20001220703</ele>
        <time>2019-05-16T07:36:57Z</time>
      </trkpt>
      <trkpt lat="42.97745" lon="-0.05996">
        <ele>497.79998779297</ele>
        <time>2019-05-16T07:37:01Z</time>
      </trkpt>
      <trkpt lat="42.97742" lon="-0.05999">
        <ele>497.39999389648</ele>
        <time>2019-05-16T07:37:02Z</time>
      </trkpt>
      <trkpt lat="42.9774" lon="-0.06001">
        <ele>497</ele>
        <time>2019-05-16T07:37:03Z</time>
      </trkpt>
      <trkpt lat="42.97737" lon="-0.06004">
        <ele>496.60000610352</ele>
        <time>2019-05-16T07:37:04Z</time>
      </trkpt>
      <trkpt lat="42.97735" lon="-0.06006">
        <ele>496.20001220703</ele>
        <time>2019-05-16T07:37:05Z</time>
      </trkpt>
      <trkpt lat="42.97721" lon="-0.06022">
        <ele>495.60000610352</ele>
        <time>2019-05-16T07:37:11Z</time>
      </trkpt>
      <trkpt lat="42.97719" lon="-0.06024">
        <ele>495.20001220703</ele>
        <time>2019-05-16T07:37:12Z</time>
      </trkpt>
      <trkpt lat="42.97717" lon="-0.06027">
        <ele>494.79998779297</ele>
        <time>2019-05-16T07:37:13Z</time>
      </trkpt>
      <trkpt lat="42.97714" lon="-0.06029">
        <ele>494.39999389648</ele>
        <time>2019-05-16T07:37:14Z</time>
      </trkpt>
      <trkpt lat="42.97712" lon="-0.06032">
        <ele>494</ele>
        <time>2019-05-16T07:37:15Z</time>
      </trkpt>
      <trkpt lat="42.97702" lon="-0.06043">
        <ele>494</ele>
        <time>2019-05-16T07:37:19Z</time>
      </trkpt>
      <trkpt lat="42.97699" lon="-0.06046">
        <ele>493.60000610352</ele>
        <time>2019-05-16T07:37:20Z</time>
      </trkpt>
      <trkpt lat="42.97697" lon="-0.06049">
        <ele>493</ele>
        <time>2019-05-16T07:37:21Z</time>
      </trkpt>
      <trkpt lat="42.97695" lon="-0.06053">
        <ele>492.60000610352</ele>
        <time>2019-05-16T07:37:22Z</time>
      </trkpt>
      <trkpt lat="42.97695" lon="-0.06056">
        <ele>492.20001220703</ele>
        <time>2019-05-16T07:37:23Z</time>
      </trkpt>
      <trkpt lat="42.97695" lon="-0.06059">
        <ele>491.79998779297</ele>
        <time>2019-05-16T07:37:24Z</time>
      </trkpt>
      <trkpt lat="42.97698" lon="-0.06077">
        <ele>491.39999389648</ele>
        <time>2019-05-16T07:37:29Z</time>
      </trkpt>
      <trkpt lat="42.97698" lon="-0.06081">
        <ele>491</ele>
        <time>2019-05-16T07:37:30Z</time>
      </trkpt>
      <trkpt lat="42.97698" lon="-0.06085">
        <ele>490.60000610352</ele>
        <time>2019-05-16T07:37:31Z</time>
      </trkpt>
      <trkpt lat="42.97695" lon="-0.06088">
        <ele>490.20001220703</ele>
        <time>2019-05-16T07:37:32Z</time>
      </trkpt>
      <trkpt lat="42.97692" lon="-0.06088">
        <ele>489.79998779297</ele>
        <time>2019-05-16T07:37:33Z</time>
      </trkpt>
      <trkpt lat="42.97686" lon="-0.06088">
        <ele>489.79998779297</ele>
        <time>2019-05-16T07:37:35Z</time>
      </trkpt>
      <trkpt lat="42.97677" lon="-0.06095">
        <ele>489.79998779297</ele>
        <time>2019-05-16T07:37:39Z</time>
      </trkpt>
      <trkpt lat="42.97673" lon="-0.06108">
        <ele>489.39999389648</ele>
        <time>2019-05-16T07:37:42Z</time>
      </trkpt>
      <trkpt lat="42.97672" lon="-0.06113">
        <ele>488.79998779297</ele>
        <time>2019-05-16T07:37:43Z</time>
      </trkpt>
      <trkpt lat="42.97672" lon="-0.06118">
        <ele>488.39999389648</ele>
        <time>2019-05-16T07:37:44Z</time>
      </trkpt>
      <trkpt lat="42.97671" lon="-0.06123">
        <ele>488</ele>
        <time>2019-05-16T07:37:45Z</time>
      </trkpt>
      <trkpt lat="42.97671" lon="-0.06129">
        <ele>487.60000610352</ele>
        <time>2019-05-16T07:37:46Z</time>
      </trkpt>
      <trkpt lat="42.9767" lon="-0.06139">
        <ele>487.20001220703</ele>
        <time>2019-05-16T07:37:48Z</time>
      </trkpt>
      <trkpt lat="42.97668" lon="-0.06145">
        <ele>486.79998779297</ele>
        <time>2019-05-16T07:37:49Z</time>
      </trkpt>
      <trkpt lat="42.97667" lon="-0.0615">
        <ele>486.39999389648</ele>
        <time>2019-05-16T07:37:50Z</time>
      </trkpt>
      <trkpt lat="42.97666" lon="-0.06156">
        <ele>486</ele>
        <time>2019-05-16T07:37:51Z</time>
      </trkpt>
      <trkpt lat="42.97665" lon="-0.06161">
        <ele>485.60000610352</ele>
        <time>2019-05-16T07:37:52Z</time>
      </trkpt>
      <trkpt lat="42.97664" lon="-0.06167">
        <ele>485.20001220703</ele>
        <time>2019-05-16T07:37:53Z</time>
      </trkpt>
      <trkpt lat="42.97664" lon="-0.06172">
        <ele>484.60000610352</ele>
        <time>2019-05-16T07:37:54Z</time>
      </trkpt>
      <trkpt lat="42.97664" lon="-0.06178">
        <ele>484.20001220703</ele>
        <time>2019-05-16T07:37:55Z</time>
      </trkpt>
      <trkpt lat="42.97664" lon="-0.06184">
        <ele>483.79998779297</ele>
        <time>2019-05-16T07:37:56Z</time>
      </trkpt>
      <trkpt lat="42.97663" lon="-0.0619">
        <ele>483.39999389648</ele>
        <time>2019-05-16T07:37:57Z</time>
      </trkpt>
      <trkpt lat="42.97663" lon="-0.06196">
        <ele>482.79998779297</ele>
        <time>2019-05-16T07:37:58Z</time>
      </trkpt>
      <trkpt lat="42.97662" lon="-0.06202">
        <ele>482.39999389648</ele>
        <time>2019-05-16T07:37:59Z</time>
      </trkpt>
      <trkpt lat="42.97661" lon="-0.06208">
        <ele>481.60000610352</ele>
        <time>2019-05-16T07:38:00Z</time>
      </trkpt>
      <trkpt lat="42.9766" lon="-0.06214">
        <ele>481.20001220703</ele>
        <time>2019-05-16T07:38:01Z</time>
      </trkpt>
      <trkpt lat="42.97659" lon="-0.06224">
        <ele>480.60000610352</ele>
        <time>2019-05-16T07:38:03Z</time>
      </trkpt>
      <trkpt lat="42.97658" lon="-0.06229">
        <ele>480.20001220703</ele>
        <time>2019-05-16T07:38:04Z</time>
      </trkpt>
      <trkpt lat="42.97657" lon="-0.06235">
        <ele>479.79998779297</ele>
        <time>2019-05-16T07:38:05Z</time>
      </trkpt>
      <trkpt lat="42.97656" lon="-0.0624">
        <ele>479.39999389648</ele>
        <time>2019-05-16T07:38:06Z</time>
      </trkpt>
      <trkpt lat="42.97656" lon="-0.06246">
        <ele>478.79998779297</ele>
        <time>2019-05-16T07:38:07Z</time>
      </trkpt>
      <trkpt lat="42.97655" lon="-0.06251">
        <ele>478.39999389648</ele>
        <time>2019-05-16T07:38:08Z</time>
      </trkpt>
      <trkpt lat="42.97654" lon="-0.06257">
        <ele>477.79998779297</ele>
        <time>2019-05-16T07:38:09Z</time>
      </trkpt>
      <trkpt lat="42.97653" lon="-0.06262">
        <ele>477.20001220703</ele>
        <time>2019-05-16T07:38:10Z</time>
      </trkpt>
      <trkpt lat="42.97653" lon="-0.06268">
        <ele>476.79998779297</ele>
        <time>2019-05-16T07:38:11Z</time>
      </trkpt>
      <trkpt lat="42.97652" lon="-0.06275">
        <ele>476.39999389648</ele>
        <time>2019-05-16T07:38:12Z</time>
      </trkpt>
      <trkpt lat="42.97651" lon="-0.06281">
        <ele>476</ele>
        <time>2019-05-16T07:38:13Z</time>
      </trkpt>
      <trkpt lat="42.9765" lon="-0.06287">
        <ele>475.60000610352</ele>
        <time>2019-05-16T07:38:14Z</time>
      </trkpt>
      <trkpt lat="42.9765" lon="-0.06293">
        <ele>475.20001220703</ele>
        <time>2019-05-16T07:38:15Z</time>
      </trkpt>
      <trkpt lat="42.97649" lon="-0.06299">
        <ele>474.60000610352</ele>
        <time>2019-05-16T07:38:16Z</time>
      </trkpt>
      <trkpt lat="42.97648" lon="-0.06305">
        <ele>474</ele>
        <time>2019-05-16T07:38:17Z</time>
      </trkpt>
      <trkpt lat="42.97647" lon="-0.0631">
        <ele>473.60000610352</ele>
        <time>2019-05-16T07:38:18Z</time>
      </trkpt>
      <trkpt lat="42.97646" lon="-0.06315">
        <ele>473</ele>
        <time>2019-05-16T07:38:19Z</time>
      </trkpt>
      <trkpt lat="42.97646" lon="-0.0632">
        <ele>472.60000610352</ele>
        <time>2019-05-16T07:38:20Z</time>
      </trkpt>
      <trkpt lat="42.97646" lon="-0.06325">
        <ele>472.60000610352</ele>
        <time>2019-05-16T07:38:21Z</time>
      </trkpt>
      <trkpt lat="42.97649" lon="-0.06335">
        <ele>472.20001220703</ele>
        <time>2019-05-16T07:38:23Z</time>
      </trkpt>
      <trkpt lat="42.97652" lon="-0.06339">
        <ele>471.79998779297</ele>
        <time>2019-05-16T07:38:24Z</time>
      </trkpt>
      <trkpt lat="42.97655" lon="-0.06344">
        <ele>470.79998779297</ele>
        <time>2019-05-16T07:38:25Z</time>
      </trkpt>
      <trkpt lat="42.97659" lon="-0.06349">
        <ele>470.39999389648</ele>
        <time>2019-05-16T07:38:26Z</time>
      </trkpt>
      <trkpt lat="42.97663" lon="-0.06354">
        <ele>470</ele>
        <time>2019-05-16T07:38:27Z</time>
      </trkpt>
      <trkpt lat="42.97667" lon="-0.06358">
        <ele>469.60000610352</ele>
        <time>2019-05-16T07:38:28Z</time>
      </trkpt>
      <trkpt lat="42.9767" lon="-0.06363">
        <ele>469</ele>
        <time>2019-05-16T07:38:29Z</time>
      </trkpt>
      <trkpt lat="42.97675" lon="-0.06368">
        <ele>468.60000610352</ele>
        <time>2019-05-16T07:38:30Z</time>
      </trkpt>
      <trkpt lat="42.97679" lon="-0.06372">
        <ele>468.20001220703</ele>
        <time>2019-05-16T07:38:31Z</time>
      </trkpt>
      <trkpt lat="42.97683" lon="-0.06377">
        <ele>467.79998779297</ele>
        <time>2019-05-16T07:38:32Z</time>
      </trkpt>
      <trkpt lat="42.97687" lon="-0.06382">
        <ele>467.20001220703</ele>
        <time>2019-05-16T07:38:33Z</time>
      </trkpt>
      <trkpt lat="42.97691" lon="-0.06387">
        <ele>466.79998779297</ele>
        <time>2019-05-16T07:38:34Z</time>
      </trkpt>
      <trkpt lat="42.97695" lon="-0.06393">
        <ele>466.39999389648</ele>
        <time>2019-05-16T07:38:35Z</time>
      </trkpt>
      <trkpt lat="42.977" lon="-0.06398">
        <ele>465.79998779297</ele>
        <time>2019-05-16T07:38:36Z</time>
      </trkpt>
      <trkpt lat="42.97704" lon="-0.06404">
        <ele>465.39999389648</ele>
        <time>2019-05-16T07:38:37Z</time>
      </trkpt>
      <trkpt lat="42.97708" lon="-0.06409">
        <ele>465</ele>
        <time>2019-05-16T07:38:38Z</time>
      </trkpt>
      <trkpt lat="42.97713" lon="-0.06414">
        <ele>464.60000610352</ele>
        <time>2019-05-16T07:38:39Z</time>
      </trkpt>
      <trkpt lat="42.97717" lon="-0.06419">
        <ele>464.20001220703</ele>
        <time>2019-05-16T07:38:40Z</time>
      </trkpt>
      <trkpt lat="42.97721" lon="-0.06424">
        <ele>463.60000610352</ele>
        <time>2019-05-16T07:38:41Z</time>
      </trkpt>
      <trkpt lat="42.97728" lon="-0.06434">
        <ele>463.60000610352</ele>
        <time>2019-05-16T07:38:43Z</time>
      </trkpt>
      <trkpt lat="42.97735" lon="-0.06443">
        <ele>463.20001220703</ele>
        <time>2019-05-16T07:38:45Z</time>
      </trkpt>
      <trkpt lat="42.97739" lon="-0.06448">
        <ele>462.79998779297</ele>
        <time>2019-05-16T07:38:46Z</time>
      </trkpt>
      <trkpt lat="42.97743" lon="-0.06454">
        <ele>462.39999389648</ele>
        <time>2019-05-16T07:38:47Z</time>
      </trkpt>
      <trkpt lat="42.97747" lon="-0.06459">
        <ele>462</ele>
        <time>2019-05-16T07:38:48Z</time>
      </trkpt>
      <trkpt lat="42.97751" lon="-0.06464">
        <ele>461.60000610352</ele>
        <time>2019-05-16T07:38:49Z</time>
      </trkpt>
      <trkpt lat="42.97756" lon="-0.06469">
        <ele>461.60000610352</ele>
        <time>2019-05-16T07:38:50Z</time>
      </trkpt>
      <trkpt lat="42.97768" lon="-0.06484">
        <ele>461</ele>
        <time>2019-05-16T07:38:53Z</time>
      </trkpt>
      <trkpt lat="42.97772" lon="-0.06489">
        <ele>460.60000610352</ele>
        <time>2019-05-16T07:38:54Z</time>
      </trkpt>
      <trkpt lat="42.97777" lon="-0.06495">
        <ele>460.20001220703</ele>
        <time>2019-05-16T07:38:55Z</time>
      </trkpt>
      <trkpt lat="42.97781" lon="-0.06501">
        <ele>459.79998779297</ele>
        <time>2019-05-16T07:38:56Z</time>
      </trkpt>
      <trkpt lat="42.97786" lon="-0.06506">
        <ele>459.20001220703</ele>
        <time>2019-05-16T07:38:57Z</time>
      </trkpt>
      <trkpt lat="42.9779" lon="-0.06511">
        <ele>458.79998779297</ele>
        <time>2019-05-16T07:38:58Z</time>
      </trkpt>
      <trkpt lat="42.97795" lon="-0.06517">
        <ele>458.39999389648</ele>
        <time>2019-05-16T07:38:59Z</time>
      </trkpt>
      <trkpt lat="42.97799" lon="-0.06523">
        <ele>458</ele>
        <time>2019-05-16T07:39:00Z</time>
      </trkpt>
      <trkpt lat="42.97804" lon="-0.06529">
        <ele>457.60000610352</ele>
        <time>2019-05-16T07:39:01Z</time>
      </trkpt>
      <trkpt lat="42.97808" lon="-0.06534">
        <ele>457.20001220703</ele>
        <time>2019-05-16T07:39:02Z</time>
      </trkpt>
      <trkpt lat="42.97813" lon="-0.0654">
        <ele>457.20001220703</ele>
        <time>2019-05-16T07:39:03Z</time>
      </trkpt>
      <trkpt lat="42.97834" lon="-0.06567">
        <ele>457.20001220703</ele>
        <time>2019-05-16T07:39:08Z</time>
      </trkpt>
      <trkpt lat="42.97837" lon="-0.06573">
        <ele>456.60000610352</ele>
        <time>2019-05-16T07:39:09Z</time>
      </trkpt>
      <trkpt lat="42.97842" lon="-0.06578">
        <ele>456.20001220703</ele>
        <time>2019-05-16T07:39:10Z</time>
      </trkpt>
      <trkpt lat="42.97847" lon="-0.06583">
        <ele>455.79998779297</ele>
        <time>2019-05-16T07:39:11Z</time>
      </trkpt>
      <trkpt lat="42.97852" lon="-0.06588">
        <ele>455.20001220703</ele>
        <time>2019-05-16T07:39:12Z</time>
      </trkpt>
      <trkpt lat="42.97856" lon="-0.06594">
        <ele>454.79998779297</ele>
        <time>2019-05-16T07:39:13Z</time>
      </trkpt>
      <trkpt lat="42.97882" lon="-0.06624">
        <ele>454.39999389648</ele>
        <time>2019-05-16T07:39:20Z</time>
      </trkpt>
      <trkpt lat="42.97886" lon="-0.06628">
        <ele>453.79998779297</ele>
        <time>2019-05-16T07:39:21Z</time>
      </trkpt>
      <trkpt lat="42.97888" lon="-0.06631">
        <ele>453.39999389648</ele>
        <time>2019-05-16T07:39:22Z</time>
      </trkpt>
      <trkpt lat="42.97891" lon="-0.06635">
        <ele>453</ele>
        <time>2019-05-16T07:39:23Z</time>
      </trkpt>
      <trkpt lat="42.97894" lon="-0.06638">
        <ele>452.60000610352</ele>
        <time>2019-05-16T07:39:24Z</time>
      </trkpt>
      <trkpt lat="42.979" lon="-0.06646">
        <ele>452.60000610352</ele>
        <time>2019-05-16T07:39:26Z</time>
      </trkpt>
      <trkpt lat="42.97915" lon="-0.06664">
        <ele>452.20001220703</ele>
        <time>2019-05-16T07:39:31Z</time>
      </trkpt>
      <trkpt lat="42.97918" lon="-0.06667">
        <ele>451.79998779297</ele>
        <time>2019-05-16T07:39:32Z</time>
      </trkpt>
      <trkpt lat="42.97921" lon="-0.0667">
        <ele>451.39999389648</ele>
        <time>2019-05-16T07:39:33Z</time>
      </trkpt>
      <trkpt lat="42.97924" lon="-0.06673">
        <ele>451</ele>
        <time>2019-05-16T07:39:34Z</time>
      </trkpt>
      <trkpt lat="42.97926" lon="-0.06676">
        <ele>450.60000610352</ele>
        <time>2019-05-16T07:39:35Z</time>
      </trkpt>
      <trkpt lat="42.97945" lon="-0.06698">
        <ele>450.60000610352</ele>
        <time>2019-05-16T07:39:42Z</time>
      </trkpt>
      <trkpt lat="42.97957" lon="-0.06716">
        <ele>450.20001220703</ele>
        <time>2019-05-16T07:39:47Z</time>
      </trkpt>
      <trkpt lat="42.97959" lon="-0.0672">
        <ele>449.79998779297</ele>
        <time>2019-05-16T07:39:48Z</time>
      </trkpt>
      <trkpt lat="42.97961" lon="-0.06725">
        <ele>449.39999389648</ele>
        <time>2019-05-16T07:39:49Z</time>
      </trkpt>
      <trkpt lat="42.97962" lon="-0.0673">
        <ele>449</ele>
        <time>2019-05-16T07:39:50Z</time>
      </trkpt>
      <trkpt lat="42.97963" lon="-0.06735">
        <ele>448.60000610352</ele>
        <time>2019-05-16T07:39:51Z</time>
      </trkpt>
      <trkpt lat="42.97964" lon="-0.06752">
        <ele>448.60000610352</ele>
        <time>2019-05-16T07:39:54Z</time>
      </trkpt>
      <trkpt lat="42.97962" lon="-0.06781">
        <ele>448.20001220703</ele>
        <time>2019-05-16T07:39:58Z</time>
      </trkpt>
      <trkpt lat="42.97962" lon="-0.06789">
        <ele>447.79998779297</ele>
        <time>2019-05-16T07:39:59Z</time>
      </trkpt>
      <trkpt lat="42.97962" lon="-0.06798">
        <ele>447.39999389648</ele>
        <time>2019-05-16T07:40:00Z</time>
      </trkpt>
      <trkpt lat="42.97961" lon="-0.06807">
        <ele>447</ele>
        <time>2019-05-16T07:40:01Z</time>
      </trkpt>
      <trkpt lat="42.97961" lon="-0.06816">
        <ele>446.20001220703</ele>
        <time>2019-05-16T07:40:02Z</time>
      </trkpt>
      <trkpt lat="42.9796" lon="-0.06825">
        <ele>445.60000610352</ele>
        <time>2019-05-16T07:40:03Z</time>
      </trkpt>
      <trkpt lat="42.97959" lon="-0.06835">
        <ele>444.39999389648</ele>
        <time>2019-05-16T07:40:04Z</time>
      </trkpt>
      <trkpt lat="42.97959" lon="-0.06843">
        <ele>443.79998779297</ele>
        <time>2019-05-16T07:40:05Z</time>
      </trkpt>
      <trkpt lat="42.97956" lon="-0.06889">
        <ele>443.79998779297</ele>
        <time>2019-05-16T07:40:11Z</time>
      </trkpt>
      <trkpt lat="42.97957" lon="-0.06933">
        <ele>443.79998779297</ele>
        <time>2019-05-16T07:40:17Z</time>
      </trkpt>
      <trkpt lat="42.97958" lon="-0.0694">
        <ele>443.79998779297</ele>
        <time>2019-05-16T07:40:18Z</time>
      </trkpt>
      <trkpt lat="42.97967" lon="-0.06954">
        <ele>443.79998779297</ele>
        <time>2019-05-16T07:40:21Z</time>
      </trkpt>
      <trkpt lat="42.97974" lon="-0.06962">
        <ele>443.79998779297</ele>
        <time>2019-05-16T07:40:23Z</time>
      </trkpt>
      <trkpt lat="42.97983" lon="-0.06972">
        <ele>443.79998779297</ele>
        <time>2019-05-16T07:40:26Z</time>
      </trkpt>
      <trkpt lat="42.97984" lon="-0.06984">
        <ele>443.79998779297</ele>
        <time>2019-05-16T07:40:29Z</time>
      </trkpt>
      <trkpt lat="42.97989" lon="-0.0699">
        <ele>443.79998779297</ele>
        <time>2019-05-16T07:40:32Z</time>
      </trkpt>
      <trkpt lat="42.97992" lon="-0.06992">
        <ele>443.79998779297</ele>
        <time>2019-05-16T07:40:33Z</time>
      </trkpt>
      <trkpt lat="42.97995" lon="-0.06993">
        <ele>443.39999389648</ele>
        <time>2019-05-16T07:40:34Z</time>
      </trkpt>
      <trkpt lat="42.97998" lon="-0.06994">
        <ele>443</ele>
        <time>2019-05-16T07:40:35Z</time>
      </trkpt>
      <trkpt lat="42.98001" lon="-0.06995">
        <ele>442.60000610352</ele>
        <time>2019-05-16T07:40:36Z</time>
      </trkpt>
      <trkpt lat="42.98004" lon="-0.06996">
        <ele>442.20001220703</ele>
        <time>2019-05-16T07:40:37Z</time>
      </trkpt>
      <trkpt lat="42.98007" lon="-0.06997">
        <ele>441.79998779297</ele>
        <time>2019-05-16T07:40:38Z</time>
      </trkpt>
      <trkpt lat="42.9801" lon="-0.06998">
        <ele>441.79998779297</ele>
        <time>2019-05-16T07:40:39Z</time>
      </trkpt>
      <trkpt lat="42.9803" lon="-0.0701">
        <ele>441.79998779297</ele>
        <time>2019-05-16T07:40:45Z</time>
      </trkpt>
      <trkpt lat="42.98042" lon="-0.07027">
        <ele>441.79998779297</ele>
        <time>2019-05-16T07:40:50Z</time>
      </trkpt>
      <trkpt lat="42.98056" lon="-0.07031">
        <ele>441.79998779297</ele>
        <time>2019-05-16T07:40:54Z</time>
      </trkpt>
      <trkpt lat="42.98071" lon="-0.07035">
        <ele>441.79998779297</ele>
        <time>2019-05-16T07:40:59Z</time>
      </trkpt>
      <trkpt lat="42.98083" lon="-0.07038">
        <ele>441.79998779297</ele>
        <time>2019-05-16T07:41:04Z</time>
      </trkpt>
      <trkpt lat="42.98095" lon="-0.07045">
        <ele>441.79998779297</ele>
        <time>2019-05-16T07:41:09Z</time>
      </trkpt>
      <trkpt lat="42.98109" lon="-0.07056">
        <ele>441.79998779297</ele>
        <time>2019-05-16T07:41:15Z</time>
      </trkpt>
      <trkpt lat="42.98126" lon="-0.07058">
        <ele>441.79998779297</ele>
        <time>2019-05-16T07:41:21Z</time>
      </trkpt>
      <trkpt lat="42.98146" lon="-0.07061">
        <ele>441.79998779297</ele>
        <time>2019-05-16T07:41:27Z</time>
      </trkpt>
      <trkpt lat="42.98159" lon="-0.07068">
        <ele>441.39999389648</ele>
        <time>2019-05-16T07:41:31Z</time>
      </trkpt>
      <trkpt lat="42.98162" lon="-0.0707">
        <ele>441</ele>
        <time>2019-05-16T07:41:32Z</time>
      </trkpt>
      <trkpt lat="42.98164" lon="-0.07072">
        <ele>440.60000610352</ele>
        <time>2019-05-16T07:41:33Z</time>
      </trkpt>
      <trkpt lat="42.98166" lon="-0.07074">
        <ele>440.20001220703</ele>
        <time>2019-05-16T07:41:34Z</time>
      </trkpt>
      <trkpt lat="42.98169" lon="-0.07075">
        <ele>439.79998779297</ele>
        <time>2019-05-16T07:41:35Z</time>
      </trkpt>
      <trkpt lat="42.98182" lon="-0.0708">
        <ele>439.79998779297</ele>
        <time>2019-05-16T07:41:39Z</time>
      </trkpt>
      <trkpt lat="42.98201" lon="-0.07091">
        <ele>439.79998779297</ele>
        <time>2019-05-16T07:41:45Z</time>
      </trkpt>
      <trkpt lat="42.9822" lon="-0.07101">
        <ele>439.79998779297</ele>
        <time>2019-05-16T07:41:51Z</time>
      </trkpt>
      <trkpt lat="42.98238" lon="-0.07107">
        <ele>439.79998779297</ele>
        <time>2019-05-16T07:41:57Z</time>
      </trkpt>
      <trkpt lat="42.98258" lon="-0.07115">
        <ele>439.79998779297</ele>
        <time>2019-05-16T07:42:03Z</time>
      </trkpt>
      <trkpt lat="42.9828" lon="-0.07128">
        <ele>439.79998779297</ele>
        <time>2019-05-16T07:42:10Z</time>
      </trkpt>
      <trkpt lat="42.98289" lon="-0.07134">
        <ele>439.20001220703</ele>
        <time>2019-05-16T07:42:13Z</time>
      </trkpt>
      <trkpt lat="42.98292" lon="-0.07136">
        <ele>438.79998779297</ele>
        <time>2019-05-16T07:42:14Z</time>
      </trkpt>
      <trkpt lat="42.98296" lon="-0.07138">
        <ele>438.39999389648</ele>
        <time>2019-05-16T07:42:15Z</time>
      </trkpt>
      <trkpt lat="42.98299" lon="-0.0714">
        <ele>438</ele>
        <time>2019-05-16T07:42:16Z</time>
      </trkpt>
      <trkpt lat="42.98302" lon="-0.07142">
        <ele>437.60000610352</ele>
        <time>2019-05-16T07:42:17Z</time>
      </trkpt>
      <trkpt lat="42.98319" lon="-0.07159">
        <ele>437.60000610352</ele>
        <time>2019-05-16T07:42:24Z</time>
      </trkpt>
      <trkpt lat="42.9833" lon="-0.07169">
        <ele>437.60000610352</ele>
        <time>2019-05-16T07:42:29Z</time>
      </trkpt>
      <trkpt lat="42.98346" lon="-0.0718">
        <ele>437.60000610352</ele>
        <time>2019-05-16T07:42:35Z</time>
      </trkpt>
      <trkpt lat="42.98363" lon="-0.07189">
        <ele>437.60000610352</ele>
        <time>2019-05-16T07:42:41Z</time>
      </trkpt>
      <trkpt lat="42.98389" lon="-0.072">
        <ele>437.60000610352</ele>
        <time>2019-05-16T07:42:49Z</time>
      </trkpt>
      <trkpt lat="42.98398" lon="-0.07203">
        <ele>437.60000610352</ele>
        <time>2019-05-16T07:42:55Z</time>
      </trkpt>
      <trkpt lat="42.98401" lon="-0.07204">
        <ele>437.60000610352</ele>
        <time>2019-05-16T07:43:00Z</time>
      </trkpt>
      <trkpt lat="42.98404" lon="-0.07203">
        <ele>437.60000610352</ele>
        <time>2019-05-16T07:43:03Z</time>
      </trkpt>
      <trkpt lat="42.98407" lon="-0.07203">
        <ele>437.60000610352</ele>
        <time>2019-05-16T07:43:05Z</time>
      </trkpt>
      <trkpt lat="42.98412" lon="-0.07205">
        <ele>437.60000610352</ele>
        <time>2019-05-16T07:43:09Z</time>
      </trkpt>
      <trkpt lat="42.98415" lon="-0.07206">
        <ele>437.60000610352</ele>
        <time>2019-05-16T07:43:11Z</time>
      </trkpt>
      <trkpt lat="42.98416" lon="-0.07206">
        <ele>437.60000610352</ele>
        <time>2019-05-16T07:43:12Z</time>
      </trkpt>
      <trkpt lat="42.98423" lon="-0.07208">
        <ele>437.60000610352</ele>
        <time>2019-05-16T07:43:16Z</time>
      </trkpt>
      <trkpt lat="42.98429" lon="-0.07211">
        <ele>437.60000610352</ele>
        <time>2019-05-16T07:43:22Z</time>
      </trkpt>
      <trkpt lat="42.98433" lon="-0.07213">
        <ele>437.60000610352</ele>
        <time>2019-05-16T07:43:25Z</time>
      </trkpt>
      <trkpt lat="42.98436" lon="-0.07213">
        <ele>437.60000610352</ele>
        <time>2019-05-16T07:43:27Z</time>
      </trkpt>
      <trkpt lat="42.9844" lon="-0.07216">
        <ele>437.60000610352</ele>
        <time>2019-05-16T07:43:30Z</time>
      </trkpt>
      <trkpt lat="42.98445" lon="-0.07217">
        <ele>437.60000610352</ele>
        <time>2019-05-16T07:43:33Z</time>
      </trkpt>
      <trkpt lat="42.98453" lon="-0.07219">
        <ele>437.60000610352</ele>
        <time>2019-05-16T07:43:38Z</time>
      </trkpt>
      <trkpt lat="42.98454" lon="-0.0722">
        <ele>437.60000610352</ele>
        <time>2019-05-16T07:43:40Z</time>
      </trkpt>
      <trkpt lat="42.98462" lon="-0.07224">
        <ele>437.60000610352</ele>
        <time>2019-05-16T07:43:47Z</time>
      </trkpt>
      <trkpt lat="42.9847" lon="-0.07227">
        <ele>437.60000610352</ele>
        <time>2019-05-16T07:43:54Z</time>
      </trkpt>
      <trkpt lat="42.98485" lon="-0.07228">
        <ele>437.60000610352</ele>
        <time>2019-05-16T07:44:00Z</time>
      </trkpt>
      <trkpt lat="42.98501" lon="-0.07227">
        <ele>437.20001220703</ele>
        <time>2019-05-16T07:44:04Z</time>
      </trkpt>
      <trkpt lat="42.98505" lon="-0.07228">
        <ele>436.39999389648</ele>
        <time>2019-05-16T07:44:05Z</time>
      </trkpt>
      <trkpt lat="42.98509" lon="-0.07227">
        <ele>436</ele>
        <time>2019-05-16T07:44:06Z</time>
      </trkpt>
      <trkpt lat="42.98513" lon="-0.07229">
        <ele>435.60000610352</ele>
        <time>2019-05-16T07:44:07Z</time>
      </trkpt>
      <trkpt lat="42.9852" lon="-0.0723">
        <ele>435.60000610352</ele>
        <time>2019-05-16T07:44:09Z</time>
      </trkpt>
      <trkpt lat="42.98535" lon="-0.07231">
        <ele>435.60000610352</ele>
        <time>2019-05-16T07:44:14Z</time>
      </trkpt>
      <trkpt lat="42.98556" lon="-0.07234">
        <ele>435.60000610352</ele>
        <time>2019-05-16T07:44:20Z</time>
      </trkpt>
      <trkpt lat="42.98582" lon="-0.07241">
        <ele>435.60000610352</ele>
        <time>2019-05-16T07:44:27Z</time>
      </trkpt>
      <trkpt lat="42.98591" lon="-0.07244">
        <ele>435.60000610352</ele>
        <time>2019-05-16T07:44:29Z</time>
      </trkpt>
      <trkpt lat="42.98602" lon="-0.07248">
        <ele>435.60000610352</ele>
        <time>2019-05-16T07:44:32Z</time>
      </trkpt>
      <trkpt lat="42.98614" lon="-0.07251">
        <ele>435.60000610352</ele>
        <time>2019-05-16T07:44:35Z</time>
      </trkpt>
      <trkpt lat="42.98622" lon="-0.07252">
        <ele>435.60000610352</ele>
        <time>2019-05-16T07:44:37Z</time>
      </trkpt>
      <trkpt lat="42.98641" lon="-0.07257">
        <ele>435.60000610352</ele>
        <time>2019-05-16T07:44:42Z</time>
      </trkpt>
      <trkpt lat="42.98663" lon="-0.07265">
        <ele>435.60000610352</ele>
        <time>2019-05-16T07:44:47Z</time>
      </trkpt>
      <trkpt lat="42.98671" lon="-0.07268">
        <ele>435.60000610352</ele>
        <time>2019-05-16T07:44:49Z</time>
      </trkpt>
      <trkpt lat="42.98699" lon="-0.07276">
        <ele>435.60000610352</ele>
        <time>2019-05-16T07:44:56Z</time>
      </trkpt>
      <trkpt lat="42.9873" lon="-0.07286">
        <ele>435.60000610352</ele>
        <time>2019-05-16T07:45:04Z</time>
      </trkpt>
      <trkpt lat="42.98742" lon="-0.0729">
        <ele>435.60000610352</ele>
        <time>2019-05-16T07:45:07Z</time>
      </trkpt>
      <trkpt lat="42.98747" lon="-0.07291">
        <ele>435.20001220703</ele>
        <time>2019-05-16T07:45:08Z</time>
      </trkpt>
      <trkpt lat="42.98751" lon="-0.07292">
        <ele>434.79998779297</ele>
        <time>2019-05-16T07:45:09Z</time>
      </trkpt>
      <trkpt lat="42.98755" lon="-0.07293">
        <ele>434.39999389648</ele>
        <time>2019-05-16T07:45:10Z</time>
      </trkpt>
      <trkpt lat="42.98759" lon="-0.07294">
        <ele>433.79998779297</ele>
        <time>2019-05-16T07:45:11Z</time>
      </trkpt>
      <trkpt lat="42.98763" lon="-0.07295">
        <ele>433.39999389648</ele>
        <time>2019-05-16T07:45:12Z</time>
      </trkpt>
      <trkpt lat="42.9878" lon="-0.07305">
        <ele>433.39999389648</ele>
        <time>2019-05-16T07:45:17Z</time>
      </trkpt>
      <trkpt lat="42.98798" lon="-0.0731">
        <ele>433.39999389648</ele>
        <time>2019-05-16T07:45:22Z</time>
      </trkpt>
      <trkpt lat="42.98802" lon="-0.07311">
        <ele>433.39999389648</ele>
        <time>2019-05-16T07:45:23Z</time>
      </trkpt>
      <trkpt lat="42.98824" lon="-0.07316">
        <ele>433.39999389648</ele>
        <time>2019-05-16T07:45:29Z</time>
      </trkpt>
      <trkpt lat="42.98847" lon="-0.07325">
        <ele>433.39999389648</ele>
        <time>2019-05-16T07:45:35Z</time>
      </trkpt>
      <trkpt lat="42.98876" lon="-0.07337">
        <ele>433.39999389648</ele>
        <time>2019-05-16T07:45:43Z</time>
      </trkpt>
      <trkpt lat="42.98896" lon="-0.07349">
        <ele>433.39999389648</ele>
        <time>2019-05-16T07:45:49Z</time>
      </trkpt>
      <trkpt lat="42.98918" lon="-0.07362">
        <ele>433.39999389648</ele>
        <time>2019-05-16T07:45:55Z</time>
      </trkpt>
      <trkpt lat="42.9894" lon="-0.07381">
        <ele>433.39999389648</ele>
        <time>2019-05-16T07:46:02Z</time>
      </trkpt>
      <trkpt lat="42.9896" lon="-0.07387">
        <ele>433.39999389648</ele>
        <time>2019-05-16T07:46:07Z</time>
      </trkpt>
      <trkpt lat="42.98965" lon="-0.07389">
        <ele>433</ele>
        <time>2019-05-16T07:46:08Z</time>
      </trkpt>
      <trkpt lat="42.9897" lon="-0.07392">
        <ele>432</ele>
        <time>2019-05-16T07:46:09Z</time>
      </trkpt>
      <trkpt lat="42.98974" lon="-0.07397">
        <ele>431.60000610352</ele>
        <time>2019-05-16T07:46:10Z</time>
      </trkpt>
      <trkpt lat="42.98979" lon="-0.07401">
        <ele>431.20001220703</ele>
        <time>2019-05-16T07:46:11Z</time>
      </trkpt>
      <trkpt lat="42.98984" lon="-0.07405">
        <ele>430.79998779297</ele>
        <time>2019-05-16T07:46:12Z</time>
      </trkpt>
      <trkpt lat="42.98989" lon="-0.07409">
        <ele>430.39999389648</ele>
        <time>2019-05-16T07:46:13Z</time>
      </trkpt>
      <trkpt lat="42.98994" lon="-0.07414">
        <ele>430</ele>
        <time>2019-05-16T07:46:14Z</time>
      </trkpt>
      <trkpt lat="42.98999" lon="-0.07419">
        <ele>429.39999389648</ele>
        <time>2019-05-16T07:46:15Z</time>
      </trkpt>
      <trkpt lat="42.99003" lon="-0.07424">
        <ele>429</ele>
        <time>2019-05-16T07:46:16Z</time>
      </trkpt>
      <trkpt lat="42.99008" lon="-0.07428">
        <ele>429</ele>
        <time>2019-05-16T07:46:17Z</time>
      </trkpt>
      <trkpt lat="42.99021" lon="-0.07442">
        <ele>429</ele>
        <time>2019-05-16T07:46:20Z</time>
      </trkpt>
      <trkpt lat="42.99025" lon="-0.07446">
        <ele>429</ele>
        <time>2019-05-16T07:46:21Z</time>
      </trkpt>
      <trkpt lat="42.99028" lon="-0.0745">
        <ele>429</ele>
        <time>2019-05-16T07:46:22Z</time>
      </trkpt>
      <trkpt lat="42.99054" lon="-0.07474">
        <ele>429</ele>
        <time>2019-05-16T07:46:29Z</time>
      </trkpt>
      <trkpt lat="42.99061" lon="-0.0748">
        <ele>429</ele>
        <time>2019-05-16T07:46:31Z</time>
      </trkpt>
      <trkpt lat="42.99075" lon="-0.07494">
        <ele>429</ele>
        <time>2019-05-16T07:46:35Z</time>
      </trkpt>
      <trkpt lat="42.99078" lon="-0.07497">
        <ele>429</ele>
        <time>2019-05-16T07:46:36Z</time>
      </trkpt>
      <trkpt lat="42.9909" lon="-0.07507">
        <ele>429</ele>
        <time>2019-05-16T07:46:40Z</time>
      </trkpt>
      <trkpt lat="42.99107" lon="-0.0752">
        <ele>429</ele>
        <time>2019-05-16T07:46:45Z</time>
      </trkpt>
      <trkpt lat="42.99133" lon="-0.07542">
        <ele>429</ele>
        <time>2019-05-16T07:46:52Z</time>
      </trkpt>
      <trkpt lat="42.99137" lon="-0.07547">
        <ele>429</ele>
        <time>2019-05-16T07:46:53Z</time>
      </trkpt>
      <trkpt lat="42.99151" lon="-0.07561">
        <ele>429</ele>
        <time>2019-05-16T07:46:57Z</time>
      </trkpt>
      <trkpt lat="42.99166" lon="-0.07576">
        <ele>429</ele>
        <time>2019-05-16T07:47:02Z</time>
      </trkpt>
      <trkpt lat="42.99182" lon="-0.07589">
        <ele>429</ele>
        <time>2019-05-16T07:47:07Z</time>
      </trkpt>
      <trkpt lat="42.99203" lon="-0.076">
        <ele>429</ele>
        <time>2019-05-16T07:47:13Z</time>
      </trkpt>
      <trkpt lat="42.99227" lon="-0.07612">
        <ele>429</ele>
        <time>2019-05-16T07:47:20Z</time>
      </trkpt>
      <trkpt lat="42.99248" lon="-0.07625">
        <ele>429</ele>
        <time>2019-05-16T07:47:27Z</time>
      </trkpt>
      <trkpt lat="42.99261" lon="-0.07633">
        <ele>429</ele>
        <time>2019-05-16T07:47:31Z</time>
      </trkpt>
      <trkpt lat="42.99278" lon="-0.07645">
        <ele>429</ele>
        <time>2019-05-16T07:47:37Z</time>
      </trkpt>
      <trkpt lat="42.99296" lon="-0.07658">
        <ele>429</ele>
        <time>2019-05-16T07:47:43Z</time>
      </trkpt>
      <trkpt lat="42.99311" lon="-0.07669">
        <ele>429</ele>
        <time>2019-05-16T07:47:48Z</time>
      </trkpt>
      <trkpt lat="42.9934" lon="-0.0768">
        <ele>429</ele>
        <time>2019-05-16T07:47:57Z</time>
      </trkpt>
      <trkpt lat="42.99353" lon="-0.0768">
        <ele>429</ele>
        <time>2019-05-16T07:48:01Z</time>
      </trkpt>
      <trkpt lat="42.99356" lon="-0.07677">
        <ele>429</ele>
        <time>2019-05-16T07:48:02Z</time>
      </trkpt>
      <trkpt lat="42.99359" lon="-0.07666">
        <ele>429</ele>
        <time>2019-05-16T07:48:06Z</time>
      </trkpt>
      <trkpt lat="42.99362" lon="-0.0766">
        <ele>429</ele>
        <time>2019-05-16T07:48:11Z</time>
      </trkpt>
      <trkpt lat="42.99365" lon="-0.0765">
        <ele>429</ele>
        <time>2019-05-16T07:48:16Z</time>
      </trkpt>
      <trkpt lat="42.99368" lon="-0.07637">
        <ele>429</ele>
        <time>2019-05-16T07:48:21Z</time>
      </trkpt>
      <trkpt lat="42.99368" lon="-0.07636">
        <ele>429</ele>
        <time>2019-05-16T07:48:25Z</time>
      </trkpt>
      <trkpt lat="42.99368" lon="-0.07636">
        <ele>429</ele>
        <time>2019-05-16T07:48:31Z</time>
      </trkpt>
      <trkpt lat="42.99368" lon="-0.07636">
        <ele>429</ele>
        <time>2019-05-16T07:48:41Z</time>
      </trkpt>
      <trkpt lat="42.99369" lon="-0.07633">
        <ele>429</ele>
        <time>2019-05-16T07:48:52Z</time>
      </trkpt>
      <trkpt lat="42.99372" lon="-0.07621">
        <ele>429</ele>
        <time>2019-05-16T07:48:57Z</time>
      </trkpt>
      <trkpt lat="42.9938" lon="-0.07611">
        <ele>429</ele>
        <time>2019-05-16T07:49:01Z</time>
      </trkpt>
      <trkpt lat="42.99383" lon="-0.07611">
        <ele>429</ele>
        <time>2019-05-16T07:49:02Z</time>
      </trkpt>
      <trkpt lat="42.9939" lon="-0.07615">
        <ele>429</ele>
        <time>2019-05-16T07:49:05Z</time>
      </trkpt>
      <trkpt lat="42.99396" lon="-0.07619">
        <ele>429</ele>
        <time>2019-05-16T07:49:07Z</time>
      </trkpt>
      <trkpt lat="42.99412" lon="-0.07626">
        <ele>429</ele>
        <time>2019-05-16T07:49:12Z</time>
      </trkpt>
      <trkpt lat="42.99428" lon="-0.07636">
        <ele>429</ele>
        <time>2019-05-16T07:49:19Z</time>
      </trkpt>
      <trkpt lat="42.99446" lon="-0.07643">
        <ele>429</ele>
        <time>2019-05-16T07:49:25Z</time>
      </trkpt>
      <trkpt lat="42.99474" lon="-0.07658">
        <ele>429</ele>
        <time>2019-05-16T07:49:33Z</time>
      </trkpt>
      <trkpt lat="42.99483" lon="-0.07661">
        <ele>429</ele>
        <time>2019-05-16T07:49:35Z</time>
      </trkpt>
      <trkpt lat="42.99499" lon="-0.07668">
        <ele>429</ele>
        <time>2019-05-16T07:49:39Z</time>
      </trkpt>
      <trkpt lat="42.99531" lon="-0.07683">
        <ele>428.60000610352</ele>
        <time>2019-05-16T07:49:47Z</time>
      </trkpt>
      <trkpt lat="42.99535" lon="-0.07685">
        <ele>428.20001220703</ele>
        <time>2019-05-16T07:49:48Z</time>
      </trkpt>
      <trkpt lat="42.99539" lon="-0.07686">
        <ele>427.79998779297</ele>
        <time>2019-05-16T07:49:49Z</time>
      </trkpt>
      <trkpt lat="42.99543" lon="-0.07689">
        <ele>427.39999389648</ele>
        <time>2019-05-16T07:49:50Z</time>
      </trkpt>
      <trkpt lat="42.99547" lon="-0.07691">
        <ele>427</ele>
        <time>2019-05-16T07:49:51Z</time>
      </trkpt>
      <trkpt lat="42.99558" lon="-0.07695">
        <ele>427</ele>
        <time>2019-05-16T07:49:54Z</time>
      </trkpt>
      <trkpt lat="42.99577" lon="-0.07706">
        <ele>427</ele>
        <time>2019-05-16T07:49:59Z</time>
      </trkpt>
      <trkpt lat="42.99585" lon="-0.0771">
        <ele>427</ele>
        <time>2019-05-16T07:50:01Z</time>
      </trkpt>
      <trkpt lat="42.99589" lon="-0.07713">
        <ele>427</ele>
        <time>2019-05-16T07:50:02Z</time>
      </trkpt>
      <trkpt lat="42.99607" lon="-0.07722">
        <ele>427</ele>
        <time>2019-05-16T07:50:07Z</time>
      </trkpt>
      <trkpt lat="42.99624" lon="-0.07739">
        <ele>427</ele>
        <time>2019-05-16T07:50:13Z</time>
      </trkpt>
      <trkpt lat="42.99639" lon="-0.07742">
        <ele>427</ele>
        <time>2019-05-16T07:50:17Z</time>
      </trkpt>
      <trkpt lat="42.9966" lon="-0.0774">
        <ele>427</ele>
        <time>2019-05-16T07:50:22Z</time>
      </trkpt>
      <trkpt lat="42.99687" lon="-0.07739">
        <ele>427</ele>
        <time>2019-05-16T07:50:29Z</time>
      </trkpt>
      <trkpt lat="42.997" lon="-0.07726">
        <ele>427</ele>
        <time>2019-05-16T07:50:34Z</time>
      </trkpt>
      <trkpt lat="42.99708" lon="-0.07712">
        <ele>427</ele>
        <time>2019-05-16T07:50:39Z</time>
      </trkpt>
      <trkpt lat="42.99714" lon="-0.07702">
        <ele>427</ele>
        <time>2019-05-16T07:50:44Z</time>
      </trkpt>
      <trkpt lat="42.99722" lon="-0.07684">
        <ele>427</ele>
        <time>2019-05-16T07:50:50Z</time>
      </trkpt>
      <trkpt lat="42.99732" lon="-0.07673">
        <ele>427.39999389648</ele>
        <time>2019-05-16T07:50:54Z</time>
      </trkpt>
      <trkpt lat="42.99735" lon="-0.0767">
        <ele>427.79998779297</ele>
        <time>2019-05-16T07:50:55Z</time>
      </trkpt>
      <trkpt lat="42.99738" lon="-0.07668">
        <ele>428.20001220703</ele>
        <time>2019-05-16T07:50:56Z</time>
      </trkpt>
      <trkpt lat="42.9974" lon="-0.07666">
        <ele>428.60000610352</ele>
        <time>2019-05-16T07:50:57Z</time>
      </trkpt>
      <trkpt lat="42.99743" lon="-0.07663">
        <ele>429.20001220703</ele>
        <time>2019-05-16T07:50:58Z</time>
      </trkpt>
      <trkpt lat="42.99755" lon="-0.07651">
        <ele>429.20001220703</ele>
        <time>2019-05-16T07:51:03Z</time>
      </trkpt>
      <trkpt lat="42.99769" lon="-0.07632">
        <ele>429.60000610352</ele>
        <time>2019-05-16T07:51:09Z</time>
      </trkpt>
      <trkpt lat="42.9977" lon="-0.07629">
        <ele>430</ele>
        <time>2019-05-16T07:51:10Z</time>
      </trkpt>
      <trkpt lat="42.99773" lon="-0.07625">
        <ele>430.39999389648</ele>
        <time>2019-05-16T07:51:11Z</time>
      </trkpt>
      <trkpt lat="42.99775" lon="-0.07622">
        <ele>430.79998779297</ele>
        <time>2019-05-16T07:51:12Z</time>
      </trkpt>
      <trkpt lat="42.99778" lon="-0.07618">
        <ele>431.20001220703</ele>
        <time>2019-05-16T07:51:13Z</time>
      </trkpt>
      <trkpt lat="42.99784" lon="-0.07609">
        <ele>431.20001220703</ele>
        <time>2019-05-16T07:51:16Z</time>
      </trkpt>
      <trkpt lat="42.99795" lon="-0.07594">
        <ele>431.60000610352</ele>
        <time>2019-05-16T07:51:21Z</time>
      </trkpt>
      <trkpt lat="42.99798" lon="-0.07591">
        <ele>432</ele>
        <time>2019-05-16T07:51:22Z</time>
      </trkpt>
      <trkpt lat="42.998" lon="-0.07588">
        <ele>432.39999389648</ele>
        <time>2019-05-16T07:51:23Z</time>
      </trkpt>
      <trkpt lat="42.99802" lon="-0.07585">
        <ele>432.79998779297</ele>
        <time>2019-05-16T07:51:24Z</time>
      </trkpt>
      <trkpt lat="42.99804" lon="-0.07582">
        <ele>433.20001220703</ele>
        <time>2019-05-16T07:51:25Z</time>
      </trkpt>
      <trkpt lat="42.99815" lon="-0.07567">
        <ele>433.20001220703</ele>
        <time>2019-05-16T07:51:30Z</time>
      </trkpt>
      <trkpt lat="42.99834" lon="-0.0754">
        <ele>433.20001220703</ele>
        <time>2019-05-16T07:51:39Z</time>
      </trkpt>
      <trkpt lat="42.99851" lon="-0.07517">
        <ele>433.20001220703</ele>
        <time>2019-05-16T07:51:47Z</time>
      </trkpt>
      <trkpt lat="42.99861" lon="-0.07502">
        <ele>433.60000610352</ele>
        <time>2019-05-16T07:51:52Z</time>
      </trkpt>
      <trkpt lat="42.99863" lon="-0.07499">
        <ele>434</ele>
        <time>2019-05-16T07:51:53Z</time>
      </trkpt>
      <trkpt lat="42.99865" lon="-0.07496">
        <ele>434.39999389648</ele>
        <time>2019-05-16T07:51:54Z</time>
      </trkpt>
      <trkpt lat="42.99867" lon="-0.07493">
        <ele>434.79998779297</ele>
        <time>2019-05-16T07:51:55Z</time>
      </trkpt>
      <trkpt lat="42.99869" lon="-0.0749">
        <ele>435.39999389648</ele>
        <time>2019-05-16T07:51:56Z</time>
      </trkpt>
      <trkpt lat="42.99881" lon="-0.07472">
        <ele>435.39999389648</ele>
        <time>2019-05-16T07:52:02Z</time>
      </trkpt>
      <trkpt lat="42.99894" lon="-0.07457">
        <ele>435.39999389648</ele>
        <time>2019-05-16T07:52:08Z</time>
      </trkpt>
      <trkpt lat="42.99905" lon="-0.07443">
        <ele>435.39999389648</ele>
        <time>2019-05-16T07:52:13Z</time>
      </trkpt>
      <trkpt lat="42.99916" lon="-0.07427">
        <ele>435.39999389648</ele>
        <time>2019-05-16T07:52:18Z</time>
      </trkpt>
      <trkpt lat="42.99934" lon="-0.07403">
        <ele>435.39999389648</ele>
        <time>2019-05-16T07:52:25Z</time>
      </trkpt>
      <trkpt lat="42.99954" lon="-0.07377">
        <ele>435.39999389648</ele>
        <time>2019-05-16T07:52:33Z</time>
      </trkpt>
      <trkpt lat="42.99972" lon="-0.0735">
        <ele>435.39999389648</ele>
        <time>2019-05-16T07:52:41Z</time>
      </trkpt>
      <trkpt lat="42.99989" lon="-0.07319">
        <ele>435.39999389648</ele>
        <time>2019-05-16T07:52:49Z</time>
      </trkpt>
      <trkpt lat="43" lon="-0.07297">
        <ele>435.39999389648</ele>
        <time>2019-05-16T07:52:55Z</time>
      </trkpt>
      <trkpt lat="43.00014" lon="-0.0727">
        <ele>435.39999389648</ele>
        <time>2019-05-16T07:53:03Z</time>
      </trkpt>
      <trkpt lat="43.00024" lon="-0.07249">
        <ele>435.39999389648</ele>
        <time>2019-05-16T07:53:08Z</time>
      </trkpt>
      <trkpt lat="43.00035" lon="-0.07226">
        <ele>435.39999389648</ele>
        <time>2019-05-16T07:53:14Z</time>
      </trkpt>
      <trkpt lat="43.00048" lon="-0.07196">
        <ele>435.39999389648</ele>
        <time>2019-05-16T07:53:22Z</time>
      </trkpt>
      <trkpt lat="43.00057" lon="-0.07172">
        <ele>435.39999389648</ele>
        <time>2019-05-16T07:53:29Z</time>
      </trkpt>
      <trkpt lat="43.0006" lon="-0.07166">
        <ele>435.79998779297</ele>
        <time>2019-05-16T07:53:31Z</time>
      </trkpt>
      <trkpt lat="43.00061" lon="-0.07163">
        <ele>436.20001220703</ele>
        <time>2019-05-16T07:53:32Z</time>
      </trkpt>
      <trkpt lat="43.00063" lon="-0.07161">
        <ele>436.60000610352</ele>
        <time>2019-05-16T07:53:33Z</time>
      </trkpt>
      <trkpt lat="43.00065" lon="-0.07158">
        <ele>437</ele>
        <time>2019-05-16T07:53:34Z</time>
      </trkpt>
      <trkpt lat="43.00067" lon="-0.07156">
        <ele>437.39999389648</ele>
        <time>2019-05-16T07:53:35Z</time>
      </trkpt>
      <trkpt lat="43.00079" lon="-0.07136">
        <ele>437.39999389648</ele>
        <time>2019-05-16T07:53:42Z</time>
      </trkpt>
      <trkpt lat="43.0009" lon="-0.07121">
        <ele>437.79998779297</ele>
        <time>2019-05-16T07:53:48Z</time>
      </trkpt>
      <trkpt lat="43.00091" lon="-0.07118">
        <ele>438.20001220703</ele>
        <time>2019-05-16T07:53:49Z</time>
      </trkpt>
      <trkpt lat="43.00092" lon="-0.07115">
        <ele>438.60000610352</ele>
        <time>2019-05-16T07:53:50Z</time>
      </trkpt>
      <trkpt lat="43.00093" lon="-0.07112">
        <ele>439</ele>
        <time>2019-05-16T07:53:51Z</time>
      </trkpt>
      <trkpt lat="43.00095" lon="-0.07108">
        <ele>439.39999389648</ele>
        <time>2019-05-16T07:53:52Z</time>
      </trkpt>
      <trkpt lat="43.00098" lon="-0.07098">
        <ele>439.39999389648</ele>
        <time>2019-05-16T07:53:55Z</time>
      </trkpt>
      <trkpt lat="43.00104" lon="-0.07081">
        <ele>439.79998779297</ele>
        <time>2019-05-16T07:54:00Z</time>
      </trkpt>
      <trkpt lat="43.00104" lon="-0.07078">
        <ele>440.20001220703</ele>
        <time>2019-05-16T07:54:01Z</time>
      </trkpt>
      <trkpt lat="43.00105" lon="-0.07075">
        <ele>440.60000610352</ele>
        <time>2019-05-16T07:54:02Z</time>
      </trkpt>
      <trkpt lat="43.00106" lon="-0.07071">
        <ele>441</ele>
        <time>2019-05-16T07:54:03Z</time>
      </trkpt>
      <trkpt lat="43.00108" lon="-0.07068">
        <ele>441.39999389648</ele>
        <time>2019-05-16T07:54:04Z</time>
      </trkpt>
      <trkpt lat="43.00114" lon="-0.07054">
        <ele>441.79998779297</ele>
        <time>2019-05-16T07:54:09Z</time>
      </trkpt>
      <trkpt lat="43.00115" lon="-0.07051">
        <ele>442.20001220703</ele>
        <time>2019-05-16T07:54:10Z</time>
      </trkpt>
      <trkpt lat="43.00116" lon="-0.07049">
        <ele>442.60000610352</ele>
        <time>2019-05-16T07:54:11Z</time>
      </trkpt>
      <trkpt lat="43.00118" lon="-0.07046">
        <ele>443.20001220703</ele>
        <time>2019-05-16T07:54:12Z</time>
      </trkpt>
      <trkpt lat="43.00119" lon="-0.07044">
        <ele>443.60000610352</ele>
        <time>2019-05-16T07:54:13Z</time>
      </trkpt>
      <trkpt lat="43.00124" lon="-0.07033">
        <ele>444</ele>
        <time>2019-05-16T07:54:17Z</time>
      </trkpt>
      <trkpt lat="43.00125" lon="-0.07031">
        <ele>444.39999389648</ele>
        <time>2019-05-16T07:54:18Z</time>
      </trkpt>
      <trkpt lat="43.00127" lon="-0.07029">
        <ele>444.79998779297</ele>
        <time>2019-05-16T07:54:19Z</time>
      </trkpt>
      <trkpt lat="43.00128" lon="-0.07027">
        <ele>445.20001220703</ele>
        <time>2019-05-16T07:54:20Z</time>
      </trkpt>
      <trkpt lat="43.00129" lon="-0.07024">
        <ele>445.60000610352</ele>
        <time>2019-05-16T07:54:21Z</time>
      </trkpt>
      <trkpt lat="43.00131" lon="-0.07017">
        <ele>446</ele>
        <time>2019-05-16T07:54:24Z</time>
      </trkpt>
      <trkpt lat="43.0013" lon="-0.07015">
        <ele>446.39999389648</ele>
        <time>2019-05-16T07:54:25Z</time>
      </trkpt>
      <trkpt lat="43.00129" lon="-0.07012">
        <ele>446.79998779297</ele>
        <time>2019-05-16T07:54:26Z</time>
      </trkpt>
      <trkpt lat="43.00127" lon="-0.0701">
        <ele>447.20001220703</ele>
        <time>2019-05-16T07:54:27Z</time>
      </trkpt>
      <trkpt lat="43.00126" lon="-0.07007">
        <ele>447.60000610352</ele>
        <time>2019-05-16T07:54:28Z</time>
      </trkpt>
      <trkpt lat="43.00123" lon="-0.06998">
        <ele>447.60000610352</ele>
        <time>2019-05-16T07:54:31Z</time>
      </trkpt>
      <trkpt lat="43.00116" lon="-0.0697">
        <ele>447.60000610352</ele>
        <time>2019-05-16T07:54:40Z</time>
      </trkpt>
      <trkpt lat="43.00117" lon="-0.06959">
        <ele>448.20001220703</ele>
        <time>2019-05-16T07:54:43Z</time>
      </trkpt>
      <trkpt lat="43.00118" lon="-0.06956">
        <ele>448.60000610352</ele>
        <time>2019-05-16T07:54:44Z</time>
      </trkpt>
      <trkpt lat="43.0012" lon="-0.06953">
        <ele>449</ele>
        <time>2019-05-16T07:54:45Z</time>
      </trkpt>
      <trkpt lat="43.00122" lon="-0.0695">
        <ele>449.39999389648</ele>
        <time>2019-05-16T07:54:46Z</time>
      </trkpt>
      <trkpt lat="43.00124" lon="-0.06948">
        <ele>449.79998779297</ele>
        <time>2019-05-16T07:54:47Z</time>
      </trkpt>
      <trkpt lat="43.00132" lon="-0.06943">
        <ele>449.79998779297</ele>
        <time>2019-05-16T07:54:51Z</time>
      </trkpt>
      <trkpt lat="43.00146" lon="-0.0694">
        <ele>450.39999389648</ele>
        <time>2019-05-16T07:54:57Z</time>
      </trkpt>
      <trkpt lat="43.00148" lon="-0.06939">
        <ele>450.79998779297</ele>
        <time>2019-05-16T07:54:58Z</time>
      </trkpt>
      <trkpt lat="43.00151" lon="-0.06939">
        <ele>451.20001220703</ele>
        <time>2019-05-16T07:54:59Z</time>
      </trkpt>
      <trkpt lat="43.00153" lon="-0.06938">
        <ele>451.60000610352</ele>
        <time>2019-05-16T07:55:00Z</time>
      </trkpt>
      <trkpt lat="43.00155" lon="-0.06937">
        <ele>452</ele>
        <time>2019-05-16T07:55:01Z</time>
      </trkpt>
      <trkpt lat="43.00178" lon="-0.0693">
        <ele>452.39999389648</ele>
        <time>2019-05-16T07:55:10Z</time>
      </trkpt>
      <trkpt lat="43.0018" lon="-0.06929">
        <ele>452.79998779297</ele>
        <time>2019-05-16T07:55:11Z</time>
      </trkpt>
      <trkpt lat="43.00183" lon="-0.06928">
        <ele>453.20001220703</ele>
        <time>2019-05-16T07:55:12Z</time>
      </trkpt>
      <trkpt lat="43.00185" lon="-0.06927">
        <ele>454</ele>
        <time>2019-05-16T07:55:13Z</time>
      </trkpt>
      <trkpt lat="43.00195" lon="-0.06923">
        <ele>454</ele>
        <time>2019-05-16T07:55:17Z</time>
      </trkpt>
      <trkpt lat="43.00213" lon="-0.06917">
        <ele>454</ele>
        <time>2019-05-16T07:55:25Z</time>
      </trkpt>
      <trkpt lat="43.00215" lon="-0.06916">
        <ele>454.39999389648</ele>
        <time>2019-05-16T07:55:26Z</time>
      </trkpt>
      <trkpt lat="43.00217" lon="-0.06915">
        <ele>454.79998779297</ele>
        <time>2019-05-16T07:55:27Z</time>
      </trkpt>
      <trkpt lat="43.0022" lon="-0.06915">
        <ele>455.20001220703</ele>
        <time>2019-05-16T07:55:28Z</time>
      </trkpt>
      <trkpt lat="43.00222" lon="-0.06914">
        <ele>455.60000610352</ele>
        <time>2019-05-16T07:55:29Z</time>
      </trkpt>
      <trkpt lat="43.00224" lon="-0.06913">
        <ele>456</ele>
        <time>2019-05-16T07:55:30Z</time>
      </trkpt>
      <trkpt lat="43.00231" lon="-0.06911">
        <ele>456</ele>
        <time>2019-05-16T07:55:33Z</time>
      </trkpt>
      <trkpt lat="43.00249" lon="-0.06902">
        <ele>456.60000610352</ele>
        <time>2019-05-16T07:55:42Z</time>
      </trkpt>
      <trkpt lat="43.0025" lon="-0.06899">
        <ele>457</ele>
        <time>2019-05-16T07:55:43Z</time>
      </trkpt>
      <trkpt lat="43.00252" lon="-0.06897">
        <ele>457.39999389648</ele>
        <time>2019-05-16T07:55:44Z</time>
      </trkpt>
      <trkpt lat="43.00252" lon="-0.06894">
        <ele>457.79998779297</ele>
        <time>2019-05-16T07:55:45Z</time>
      </trkpt>
      <trkpt lat="43.00253" lon="-0.06891">
        <ele>458.20001220703</ele>
        <time>2019-05-16T07:55:46Z</time>
      </trkpt>
      <trkpt lat="43.00255" lon="-0.06886">
        <ele>458.20001220703</ele>
        <time>2019-05-16T07:55:48Z</time>
      </trkpt>
      <trkpt lat="43.00258" lon="-0.06868">
        <ele>458.20001220703</ele>
        <time>2019-05-16T07:55:54Z</time>
      </trkpt>
      <trkpt lat="43.00259" lon="-0.06865">
        <ele>458.60000610352</ele>
        <time>2019-05-16T07:55:55Z</time>
      </trkpt>
      <trkpt lat="43.00259" lon="-0.06863">
        <ele>459</ele>
        <time>2019-05-16T07:55:56Z</time>
      </trkpt>
      <trkpt lat="43.0026" lon="-0.0686">
        <ele>459.39999389648</ele>
        <time>2019-05-16T07:55:57Z</time>
      </trkpt>
      <trkpt lat="43.00261" lon="-0.06857">
        <ele>459.79998779297</ele>
        <time>2019-05-16T07:55:58Z</time>
      </trkpt>
      <trkpt lat="43.00262" lon="-0.06855">
        <ele>460.20001220703</ele>
        <time>2019-05-16T07:55:59Z</time>
      </trkpt>
      <trkpt lat="43.00267" lon="-0.06845">
        <ele>460.20001220703</ele>
        <time>2019-05-16T07:56:03Z</time>
      </trkpt>
      <trkpt lat="43.00274" lon="-0.06832">
        <ele>460.60000610352</ele>
        <time>2019-05-16T07:56:08Z</time>
      </trkpt>
      <trkpt lat="43.00276" lon="-0.0683">
        <ele>461</ele>
        <time>2019-05-16T07:56:09Z</time>
      </trkpt>
      <trkpt lat="43.00278" lon="-0.06827">
        <ele>461.39999389648</ele>
        <time>2019-05-16T07:56:10Z</time>
      </trkpt>
      <trkpt lat="43.00279" lon="-0.06825">
        <ele>461.79998779297</ele>
        <time>2019-05-16T07:56:11Z</time>
      </trkpt>
      <trkpt lat="43.00281" lon="-0.06822">
        <ele>462.20001220703</ele>
        <time>2019-05-16T07:56:12Z</time>
      </trkpt>
      <trkpt lat="43.0029" lon="-0.06808">
        <ele>462.20001220703</ele>
        <time>2019-05-16T07:56:18Z</time>
      </trkpt>
      <trkpt lat="43.00301" lon="-0.06791">
        <ele>462.60000610352</ele>
        <time>2019-05-16T07:56:25Z</time>
      </trkpt>
      <trkpt lat="43.00303" lon="-0.06788">
        <ele>463</ele>
        <time>2019-05-16T07:56:26Z</time>
      </trkpt>
      <trkpt lat="43.00304" lon="-0.06786">
        <ele>463.79998779297</ele>
        <time>2019-05-16T07:56:27Z</time>
      </trkpt>
      <trkpt lat="43.00306" lon="-0.06783">
        <ele>464.20001220703</ele>
        <time>2019-05-16T07:56:28Z</time>
      </trkpt>
      <trkpt lat="43.00318" lon="-0.06766">
        <ele>464.20001220703</ele>
        <time>2019-05-16T07:56:35Z</time>
      </trkpt>
      <trkpt lat="43.00321" lon="-0.06761">
        <ele>464.79998779297</ele>
        <time>2019-05-16T07:56:37Z</time>
      </trkpt>
      <trkpt lat="43.00323" lon="-0.06759">
        <ele>465.20001220703</ele>
        <time>2019-05-16T07:56:38Z</time>
      </trkpt>
      <trkpt lat="43.00325" lon="-0.06757">
        <ele>465.60000610352</ele>
        <time>2019-05-16T07:56:39Z</time>
      </trkpt>
      <trkpt lat="43.00327" lon="-0.06754">
        <ele>466</ele>
        <time>2019-05-16T07:56:40Z</time>
      </trkpt>
      <trkpt lat="43.00328" lon="-0.06752">
        <ele>466.39999389648</ele>
        <time>2019-05-16T07:56:41Z</time>
      </trkpt>
      <trkpt lat="43.00332" lon="-0.06747">
        <ele>466.39999389648</ele>
        <time>2019-05-16T07:56:43Z</time>
      </trkpt>
      <trkpt lat="43.00345" lon="-0.06728">
        <ele>466.39999389648</ele>
        <time>2019-05-16T07:56:51Z</time>
      </trkpt>
      <trkpt lat="43.00347" lon="-0.06725">
        <ele>466.79998779297</ele>
        <time>2019-05-16T07:56:52Z</time>
      </trkpt>
      <trkpt lat="43.00349" lon="-0.06723">
        <ele>467.20001220703</ele>
        <time>2019-05-16T07:56:53Z</time>
      </trkpt>
      <trkpt lat="43.0035" lon="-0.06721">
        <ele>467.60000610352</ele>
        <time>2019-05-16T07:56:54Z</time>
      </trkpt>
      <trkpt lat="43.00352" lon="-0.06719">
        <ele>468</ele>
        <time>2019-05-16T07:56:55Z</time>
      </trkpt>
      <trkpt lat="43.00354" lon="-0.06717">
        <ele>468.39999389648</ele>
        <time>2019-05-16T07:56:56Z</time>
      </trkpt>
      <trkpt lat="43.00359" lon="-0.06711">
        <ele>468.39999389648</ele>
        <time>2019-05-16T07:56:59Z</time>
      </trkpt>
      <trkpt lat="43.00371" lon="-0.06699">
        <ele>469</ele>
        <time>2019-05-16T07:57:05Z</time>
      </trkpt>
      <trkpt lat="43.00372" lon="-0.06697">
        <ele>469.39999389648</ele>
        <time>2019-05-16T07:57:06Z</time>
      </trkpt>
      <trkpt lat="43.00374" lon="-0.06695">
        <ele>469.79998779297</ele>
        <time>2019-05-16T07:57:07Z</time>
      </trkpt>
      <trkpt lat="43.00376" lon="-0.06693">
        <ele>470.20001220703</ele>
        <time>2019-05-16T07:57:08Z</time>
      </trkpt>
      <trkpt lat="43.00378" lon="-0.06691">
        <ele>470.60000610352</ele>
        <time>2019-05-16T07:57:09Z</time>
      </trkpt>
      <trkpt lat="43.00382" lon="-0.06686">
        <ele>470.60000610352</ele>
        <time>2019-05-16T07:57:11Z</time>
      </trkpt>
      <trkpt lat="43.00395" lon="-0.06672">
        <ele>471</ele>
        <time>2019-05-16T07:57:18Z</time>
      </trkpt>
      <trkpt lat="43.00397" lon="-0.0667">
        <ele>471.39999389648</ele>
        <time>2019-05-16T07:57:19Z</time>
      </trkpt>
      <trkpt lat="43.00398" lon="-0.06668">
        <ele>471.79998779297</ele>
        <time>2019-05-16T07:57:20Z</time>
      </trkpt>
      <trkpt lat="43.004" lon="-0.06666">
        <ele>472.20001220703</ele>
        <time>2019-05-16T07:57:21Z</time>
      </trkpt>
      <trkpt lat="43.00402" lon="-0.06664">
        <ele>472.79998779297</ele>
        <time>2019-05-16T07:57:22Z</time>
      </trkpt>
      <trkpt lat="43.00411" lon="-0.06654">
        <ele>472.79998779297</ele>
        <time>2019-05-16T07:57:27Z</time>
      </trkpt>
      <trkpt lat="43.00414" lon="-0.06649">
        <ele>473.20001220703</ele>
        <time>2019-05-16T07:57:29Z</time>
      </trkpt>
      <trkpt lat="43.00416" lon="-0.06647">
        <ele>473.60000610352</ele>
        <time>2019-05-16T07:57:30Z</time>
      </trkpt>
      <trkpt lat="43.00418" lon="-0.06645">
        <ele>474</ele>
        <time>2019-05-16T07:57:31Z</time>
      </trkpt>
      <trkpt lat="43.0042" lon="-0.06642">
        <ele>474.39999389648</ele>
        <time>2019-05-16T07:57:32Z</time>
      </trkpt>
      <trkpt lat="43.00421" lon="-0.0664">
        <ele>474.79998779297</ele>
        <time>2019-05-16T07:57:33Z</time>
      </trkpt>
      <trkpt lat="43.00433" lon="-0.06621">
        <ele>475.60000610352</ele>
        <time>2019-05-16T07:57:41Z</time>
      </trkpt>
      <trkpt lat="43.00435" lon="-0.06619">
        <ele>476</ele>
        <time>2019-05-16T07:57:42Z</time>
      </trkpt>
      <trkpt lat="43.00436" lon="-0.06617">
        <ele>476.39999389648</ele>
        <time>2019-05-16T07:57:43Z</time>
      </trkpt>
      <trkpt lat="43.00437" lon="-0.06614">
        <ele>476.79998779297</ele>
        <time>2019-05-16T07:57:44Z</time>
      </trkpt>
      <trkpt lat="43.00444" lon="-0.06603">
        <ele>476.79998779297</ele>
        <time>2019-05-16T07:57:49Z</time>
      </trkpt>
      <trkpt lat="43.00447" lon="-0.06596">
        <ele>477.20001220703</ele>
        <time>2019-05-16T07:57:52Z</time>
      </trkpt>
      <trkpt lat="43.00449" lon="-0.06594">
        <ele>477.79998779297</ele>
        <time>2019-05-16T07:57:53Z</time>
      </trkpt>
      <trkpt lat="43.0045" lon="-0.06592">
        <ele>478.20001220703</ele>
        <time>2019-05-16T07:57:54Z</time>
      </trkpt>
      <trkpt lat="43.00451" lon="-0.06589">
        <ele>478.60000610352</ele>
        <time>2019-05-16T07:57:55Z</time>
      </trkpt>
      <trkpt lat="43.00452" lon="-0.06587">
        <ele>479</ele>
        <time>2019-05-16T07:57:56Z</time>
      </trkpt>
      <trkpt lat="43.0046" lon="-0.06575">
        <ele>479</ele>
        <time>2019-05-16T07:58:02Z</time>
      </trkpt>
      <trkpt lat="43.00466" lon="-0.06566">
        <ele>480</ele>
        <time>2019-05-16T07:58:06Z</time>
      </trkpt>
      <trkpt lat="43.00468" lon="-0.06564">
        <ele>480.39999389648</ele>
        <time>2019-05-16T07:58:07Z</time>
      </trkpt>
      <trkpt lat="43.00469" lon="-0.06563">
        <ele>480.79998779297</ele>
        <time>2019-05-16T07:58:08Z</time>
      </trkpt>
      <trkpt lat="43.0047" lon="-0.06561">
        <ele>481.20001220703</ele>
        <time>2019-05-16T07:58:09Z</time>
      </trkpt>
      <trkpt lat="43.00479" lon="-0.06553">
        <ele>481.20001220703</ele>
        <time>2019-05-16T07:58:15Z</time>
      </trkpt>
      <trkpt lat="43.00488" lon="-0.0654">
        <ele>481.20001220703</ele>
        <time>2019-05-16T07:58:22Z</time>
      </trkpt>
      <trkpt lat="43.00491" lon="-0.06536">
        <ele>481.60000610352</ele>
        <time>2019-05-16T07:58:24Z</time>
      </trkpt>
      <trkpt lat="43.00492" lon="-0.06534">
        <ele>482</ele>
        <time>2019-05-16T07:58:25Z</time>
      </trkpt>
      <trkpt lat="43.00493" lon="-0.06532">
        <ele>482.60000610352</ele>
        <time>2019-05-16T07:58:26Z</time>
      </trkpt>
      <trkpt lat="43.00495" lon="-0.0653">
        <ele>483</ele>
        <time>2019-05-16T07:58:27Z</time>
      </trkpt>
      <trkpt lat="43.00496" lon="-0.06528">
        <ele>483.39999389648</ele>
        <time>2019-05-16T07:58:28Z</time>
      </trkpt>
      <trkpt lat="43.00497" lon="-0.06526">
        <ele>483.39999389648</ele>
        <time>2019-05-16T07:58:29Z</time>
      </trkpt>
      <trkpt lat="43.00498" lon="-0.06524">
        <ele>483.39999389648</ele>
        <time>2019-05-16T07:58:30Z</time>
      </trkpt>
      <trkpt lat="43.00509" lon="-0.0651">
        <ele>483.39999389648</ele>
        <time>2019-05-16T07:58:38Z</time>
      </trkpt>
      <trkpt lat="43.00511" lon="-0.06508">
        <ele>483.79998779297</ele>
        <time>2019-05-16T07:58:39Z</time>
      </trkpt>
      <trkpt lat="43.00512" lon="-0.06506">
        <ele>484.20001220703</ele>
        <time>2019-05-16T07:58:40Z</time>
      </trkpt>
      <trkpt lat="43.00514" lon="-0.06504">
        <ele>484.60000610352</ele>
        <time>2019-05-16T07:58:41Z</time>
      </trkpt>
      <trkpt lat="43.00515" lon="-0.06502">
        <ele>485</ele>
        <time>2019-05-16T07:58:42Z</time>
      </trkpt>
      <trkpt lat="43.00516" lon="-0.065">
        <ele>485.39999389648</ele>
        <time>2019-05-16T07:58:43Z</time>
      </trkpt>
      <trkpt lat="43.00517" lon="-0.06498">
        <ele>485.39999389648</ele>
        <time>2019-05-16T07:58:44Z</time>
      </trkpt>
      <trkpt lat="43.00521" lon="-0.06495">
        <ele>485.79998779297</ele>
        <time>2019-05-16T07:58:47Z</time>
      </trkpt>
      <trkpt lat="43.00522" lon="-0.06494">
        <ele>486.20001220703</ele>
        <time>2019-05-16T07:58:48Z</time>
      </trkpt>
      <trkpt lat="43.00523" lon="-0.06493">
        <ele>486.60000610352</ele>
        <time>2019-05-16T07:58:49Z</time>
      </trkpt>
      <trkpt lat="43.00524" lon="-0.06492">
        <ele>487</ele>
        <time>2019-05-16T07:58:50Z</time>
      </trkpt>
      <trkpt lat="43.00525" lon="-0.06491">
        <ele>487.39999389648</ele>
        <time>2019-05-16T07:58:51Z</time>
      </trkpt>
      <trkpt lat="43.00533" lon="-0.06486">
        <ele>487.39999389648</ele>
        <time>2019-05-16T07:58:56Z</time>
      </trkpt>
      <trkpt lat="43.00542" lon="-0.06474">
        <ele>487.39999389648</ele>
        <time>2019-05-16T07:59:03Z</time>
      </trkpt>
      <trkpt lat="43.00549" lon="-0.06465">
        <ele>487.39999389648</ele>
        <time>2019-05-16T07:59:08Z</time>
      </trkpt>
      <trkpt lat="43.00556" lon="-0.06453">
        <ele>487.39999389648</ele>
        <time>2019-05-16T07:59:14Z</time>
      </trkpt>
      <trkpt lat="43.00559" lon="-0.0645">
        <ele>487.79998779297</ele>
        <time>2019-05-16T07:59:17Z</time>
      </trkpt>
      <trkpt lat="43.0056" lon="-0.0645">
        <ele>488.20001220703</ele>
        <time>2019-05-16T07:59:18Z</time>
      </trkpt>
      <trkpt lat="43.00561" lon="-0.06449">
        <ele>488.60000610352</ele>
        <time>2019-05-16T07:59:19Z</time>
      </trkpt>
      <trkpt lat="43.00562" lon="-0.06448">
        <ele>489.60000610352</ele>
        <time>2019-05-16T07:59:20Z</time>
      </trkpt>
      <trkpt lat="43.00563" lon="-0.06447">
        <ele>489.60000610352</ele>
        <time>2019-05-16T07:59:21Z</time>
      </trkpt>
      <trkpt lat="43.00565" lon="-0.06445">
        <ele>489.60000610352</ele>
        <time>2019-05-16T07:59:27Z</time>
      </trkpt>
      <trkpt lat="43.00565" lon="-0.06445">
        <ele>489.60000610352</ele>
        <time>2019-05-16T07:59:37Z</time>
      </trkpt>
      <trkpt lat="43.00565" lon="-0.06445">
        <ele>489.60000610352</ele>
        <time>2019-05-16T07:59:51Z</time>
      </trkpt>
      <trkpt lat="43.00565" lon="-0.06445">
        <ele>489.60000610352</ele>
        <time>2019-05-16T08:00:00Z</time>
      </trkpt>
      <trkpt lat="43.00565" lon="-0.06445">
        <ele>489.60000610352</ele>
        <time>2019-05-16T08:00:14Z</time>
      </trkpt>
      <trkpt lat="43.00565" lon="-0.06445">
        <ele>489.60000610352</ele>
        <time>2019-05-16T08:00:30Z</time>
      </trkpt>
      <trkpt lat="43.00565" lon="-0.06445">
        <ele>489.60000610352</ele>
        <time>2019-05-16T08:00:41Z</time>
      </trkpt>
      <trkpt lat="43.00565" lon="-0.06444">
        <ele>489.60000610352</ele>
        <time>2019-05-16T08:00:44Z</time>
      </trkpt>
      <trkpt lat="43.00566" lon="-0.06441">
        <ele>489.60000610352</ele>
        <time>2019-05-16T08:00:46Z</time>
      </trkpt>
      <trkpt lat="43.0057" lon="-0.06432">
        <ele>489.60000610352</ele>
        <time>2019-05-16T08:00:52Z</time>
      </trkpt>
      <trkpt lat="43.00571" lon="-0.06431">
        <ele>489.60000610352</ele>
        <time>2019-05-16T08:00:53Z</time>
      </trkpt>
      <trkpt lat="43.00572" lon="-0.06428">
        <ele>489.60000610352</ele>
        <time>2019-05-16T08:00:59Z</time>
      </trkpt>
      <trkpt lat="43.00572" lon="-0.06428">
        <ele>489.60000610352</ele>
        <time>2019-05-16T08:01:07Z</time>
      </trkpt>
      <trkpt lat="43.00572" lon="-0.06428">
        <ele>489.60000610352</ele>
        <time>2019-05-16T08:01:08Z</time>
      </trkpt>
      <trkpt lat="43.00578" lon="-0.06422">
        <ele>489.60000610352</ele>
        <time>2019-05-16T08:01:12Z</time>
      </trkpt>
      <trkpt lat="43.00592" lon="-0.06405">
        <ele>489.60000610352</ele>
        <time>2019-05-16T08:01:19Z</time>
      </trkpt>
      <trkpt lat="43.00601" lon="-0.06382">
        <ele>489.60000610352</ele>
        <time>2019-05-16T08:01:25Z</time>
      </trkpt>
      <trkpt lat="43.00606" lon="-0.06361">
        <ele>489.60000610352</ele>
        <time>2019-05-16T08:01:31Z</time>
      </trkpt>
      <trkpt lat="43.00616" lon="-0.06349">
        <ele>489.60000610352</ele>
        <time>2019-05-16T08:01:36Z</time>
      </trkpt>
      <trkpt lat="43.00618" lon="-0.06348">
        <ele>490</ele>
        <time>2019-05-16T08:01:37Z</time>
      </trkpt>
      <trkpt lat="43.00621" lon="-0.06346">
        <ele>490.39999389648</ele>
        <time>2019-05-16T08:01:38Z</time>
      </trkpt>
      <trkpt lat="43.00624" lon="-0.06345">
        <ele>490.79998779297</ele>
        <time>2019-05-16T08:01:39Z</time>
      </trkpt>
      <trkpt lat="43.00627" lon="-0.06345">
        <ele>491.20001220703</ele>
        <time>2019-05-16T08:01:40Z</time>
      </trkpt>
      <trkpt lat="43.00629" lon="-0.06344">
        <ele>491.60000610352</ele>
        <time>2019-05-16T08:01:41Z</time>
      </trkpt>
      <trkpt lat="43.00635" lon="-0.06342">
        <ele>491.60000610352</ele>
        <time>2019-05-16T08:01:43Z</time>
      </trkpt>
      <trkpt lat="43.00656" lon="-0.0634">
        <ele>491.60000610352</ele>
        <time>2019-05-16T08:01:50Z</time>
      </trkpt>
      <trkpt lat="43.00677" lon="-0.06345">
        <ele>491.60000610352</ele>
        <time>2019-05-16T08:01:57Z</time>
      </trkpt>
      <trkpt lat="43.00684" lon="-0.06348">
        <ele>492</ele>
        <time>2019-05-16T08:02:00Z</time>
      </trkpt>
      <trkpt lat="43.00686" lon="-0.06348">
        <ele>492.39999389648</ele>
        <time>2019-05-16T08:02:01Z</time>
      </trkpt>
      <trkpt lat="43.00688" lon="-0.06348">
        <ele>492.79998779297</ele>
        <time>2019-05-16T08:02:02Z</time>
      </trkpt>
      <trkpt lat="43.00689" lon="-0.06348">
        <ele>493.39999389648</ele>
        <time>2019-05-16T08:02:03Z</time>
      </trkpt>
      <trkpt lat="43.00691" lon="-0.06348">
        <ele>493.79998779297</ele>
        <time>2019-05-16T08:02:04Z</time>
      </trkpt>
      <trkpt lat="43.00698" lon="-0.0635">
        <ele>493.79998779297</ele>
        <time>2019-05-16T08:02:07Z</time>
      </trkpt>
      <trkpt lat="43.00708" lon="-0.06352">
        <ele>494.20001220703</ele>
        <time>2019-05-16T08:02:12Z</time>
      </trkpt>
      <trkpt lat="43.0071" lon="-0.06353">
        <ele>495</ele>
        <time>2019-05-16T08:02:13Z</time>
      </trkpt>
      <trkpt lat="43.00713" lon="-0.06354">
        <ele>495.39999389648</ele>
        <time>2019-05-16T08:02:14Z</time>
      </trkpt>
      <trkpt lat="43.00716" lon="-0.06354">
        <ele>495.79998779297</ele>
        <time>2019-05-16T08:02:15Z</time>
      </trkpt>
      <trkpt lat="43.00728" lon="-0.06355">
        <ele>495.79998779297</ele>
        <time>2019-05-16T08:02:20Z</time>
      </trkpt>
      <trkpt lat="43.00732" lon="-0.06356">
        <ele>496.39999389648</ele>
        <time>2019-05-16T08:02:22Z</time>
      </trkpt>
      <trkpt lat="43.00735" lon="-0.06355">
        <ele>496.79998779297</ele>
        <time>2019-05-16T08:02:23Z</time>
      </trkpt>
      <trkpt lat="43.00738" lon="-0.06355">
        <ele>497.20001220703</ele>
        <time>2019-05-16T08:02:24Z</time>
      </trkpt>
      <trkpt lat="43.0074" lon="-0.06355">
        <ele>497.60000610352</ele>
        <time>2019-05-16T08:02:25Z</time>
      </trkpt>
      <trkpt lat="43.00742" lon="-0.06354">
        <ele>498</ele>
        <time>2019-05-16T08:02:26Z</time>
      </trkpt>
      <trkpt lat="43.00755" lon="-0.06344">
        <ele>498</ele>
        <time>2019-05-16T08:02:32Z</time>
      </trkpt>
      <trkpt lat="43.00756" lon="-0.06335">
        <ele>498.39999389648</ele>
        <time>2019-05-16T08:02:35Z</time>
      </trkpt>
      <trkpt lat="43.00757" lon="-0.06332">
        <ele>498.79998779297</ele>
        <time>2019-05-16T08:02:36Z</time>
      </trkpt>
      <trkpt lat="43.00757" lon="-0.06329">
        <ele>499.20001220703</ele>
        <time>2019-05-16T08:02:37Z</time>
      </trkpt>
      <trkpt lat="43.00758" lon="-0.06326">
        <ele>500</ele>
        <time>2019-05-16T08:02:38Z</time>
      </trkpt>
      <trkpt lat="43.00762" lon="-0.06306">
        <ele>500</ele>
        <time>2019-05-16T08:02:45Z</time>
      </trkpt>
      <trkpt lat="43.00767" lon="-0.06298">
        <ele>500.60000610352</ele>
        <time>2019-05-16T08:02:48Z</time>
      </trkpt>
      <trkpt lat="43.00768" lon="-0.06296">
        <ele>501</ele>
        <time>2019-05-16T08:02:49Z</time>
      </trkpt>
      <trkpt lat="43.0077" lon="-0.06294">
        <ele>501.39999389648</ele>
        <time>2019-05-16T08:02:50Z</time>
      </trkpt>
      <trkpt lat="43.00771" lon="-0.06293">
        <ele>501.79998779297</ele>
        <time>2019-05-16T08:02:51Z</time>
      </trkpt>
      <trkpt lat="43.00772" lon="-0.06291">
        <ele>502.20001220703</ele>
        <time>2019-05-16T08:02:52Z</time>
      </trkpt>
      <trkpt lat="43.00781" lon="-0.06282">
        <ele>502.20001220703</ele>
        <time>2019-05-16T08:02:57Z</time>
      </trkpt>
      <trkpt lat="43.00786" lon="-0.06276">
        <ele>502.60000610352</ele>
        <time>2019-05-16T08:03:00Z</time>
      </trkpt>
      <trkpt lat="43.00788" lon="-0.06274">
        <ele>503</ele>
        <time>2019-05-16T08:03:01Z</time>
      </trkpt>
      <trkpt lat="43.0079" lon="-0.06273">
        <ele>503.79998779297</ele>
        <time>2019-05-16T08:03:02Z</time>
      </trkpt>
      <trkpt lat="43.00792" lon="-0.06272">
        <ele>504.20001220703</ele>
        <time>2019-05-16T08:03:03Z</time>
      </trkpt>
      <trkpt lat="43.00809" lon="-0.06268">
        <ele>504.20001220703</ele>
        <time>2019-05-16T08:03:10Z</time>
      </trkpt>
      <trkpt lat="43.00811" lon="-0.06268">
        <ele>504.60000610352</ele>
        <time>2019-05-16T08:03:11Z</time>
      </trkpt>
      <trkpt lat="43.00813" lon="-0.06268">
        <ele>505</ele>
        <time>2019-05-16T08:03:12Z</time>
      </trkpt>
      <trkpt lat="43.00815" lon="-0.06268">
        <ele>505.39999389648</ele>
        <time>2019-05-16T08:03:13Z</time>
      </trkpt>
      <trkpt lat="43.00817" lon="-0.06268">
        <ele>505.79998779297</ele>
        <time>2019-05-16T08:03:14Z</time>
      </trkpt>
      <trkpt lat="43.00819" lon="-0.06268">
        <ele>506.20001220703</ele>
        <time>2019-05-16T08:03:15Z</time>
      </trkpt>
      <trkpt lat="43.00823" lon="-0.06268">
        <ele>506.20001220703</ele>
        <time>2019-05-16T08:03:17Z</time>
      </trkpt>
      <trkpt lat="43.00838" lon="-0.0627">
        <ele>506.20001220703</ele>
        <time>2019-05-16T08:03:24Z</time>
      </trkpt>
      <trkpt lat="43.00843" lon="-0.0627">
        <ele>506.60000610352</ele>
        <time>2019-05-16T08:03:26Z</time>
      </trkpt>
      <trkpt lat="43.00845" lon="-0.0627">
        <ele>507.39999389648</ele>
        <time>2019-05-16T08:03:27Z</time>
      </trkpt>
      <trkpt lat="43.00847" lon="-0.0627">
        <ele>507.79998779297</ele>
        <time>2019-05-16T08:03:28Z</time>
      </trkpt>
      <trkpt lat="43.0085" lon="-0.06271">
        <ele>508.20001220703</ele>
        <time>2019-05-16T08:03:29Z</time>
      </trkpt>
      <trkpt lat="43.00854" lon="-0.06271">
        <ele>508.20001220703</ele>
        <time>2019-05-16T08:03:31Z</time>
      </trkpt>
      <trkpt lat="43.00867" lon="-0.0627">
        <ele>508.60000610352</ele>
        <time>2019-05-16T08:03:37Z</time>
      </trkpt>
      <trkpt lat="43.00869" lon="-0.0627">
        <ele>509</ele>
        <time>2019-05-16T08:03:38Z</time>
      </trkpt>
      <trkpt lat="43.00871" lon="-0.06269">
        <ele>509.39999389648</ele>
        <time>2019-05-16T08:03:39Z</time>
      </trkpt>
      <trkpt lat="43.00873" lon="-0.06269">
        <ele>509.79998779297</ele>
        <time>2019-05-16T08:03:40Z</time>
      </trkpt>
      <trkpt lat="43.00875" lon="-0.06269">
        <ele>510.39999389648</ele>
        <time>2019-05-16T08:03:41Z</time>
      </trkpt>
      <trkpt lat="43.00884" lon="-0.06268">
        <ele>510.39999389648</ele>
        <time>2019-05-16T08:03:45Z</time>
      </trkpt>
      <trkpt lat="43.00897" lon="-0.06261">
        <ele>510.79998779297</ele>
        <time>2019-05-16T08:03:51Z</time>
      </trkpt>
      <trkpt lat="43.00899" lon="-0.0626">
        <ele>511.60000610352</ele>
        <time>2019-05-16T08:03:52Z</time>
      </trkpt>
      <trkpt lat="43.00901" lon="-0.06258">
        <ele>512</ele>
        <time>2019-05-16T08:03:53Z</time>
      </trkpt>
      <trkpt lat="43.00903" lon="-0.06256">
        <ele>512.40002441406</ele>
        <time>2019-05-16T08:03:54Z</time>
      </trkpt>
      <trkpt lat="43.00907" lon="-0.0625">
        <ele>512.40002441406</ele>
        <time>2019-05-16T08:03:57Z</time>
      </trkpt>
      <trkpt lat="43.00914" lon="-0.06239">
        <ele>512.79998779297</ele>
        <time>2019-05-16T08:04:02Z</time>
      </trkpt>
      <trkpt lat="43.00915" lon="-0.06237">
        <ele>513.20001220703</ele>
        <time>2019-05-16T08:04:03Z</time>
      </trkpt>
      <trkpt lat="43.00916" lon="-0.06235">
        <ele>513.59997558594</ele>
        <time>2019-05-16T08:04:04Z</time>
      </trkpt>
      <trkpt lat="43.00918" lon="-0.06233">
        <ele>514</ele>
        <time>2019-05-16T08:04:05Z</time>
      </trkpt>
      <trkpt lat="43.00919" lon="-0.06231">
        <ele>514.59997558594</ele>
        <time>2019-05-16T08:04:06Z</time>
      </trkpt>
      <trkpt lat="43.00923" lon="-0.06225">
        <ele>514.59997558594</ele>
        <time>2019-05-16T08:04:09Z</time>
      </trkpt>
      <trkpt lat="43.00925" lon="-0.06223">
        <ele>514.59997558594</ele>
        <time>2019-05-16T08:04:10Z</time>
      </trkpt>
      <trkpt lat="43.00935" lon="-0.06216">
        <ele>515.40002441406</ele>
        <time>2019-05-16T08:04:15Z</time>
      </trkpt>
      <trkpt lat="43.00936" lon="-0.06215">
        <ele>515.79998779297</ele>
        <time>2019-05-16T08:04:16Z</time>
      </trkpt>
      <trkpt lat="43.00939" lon="-0.06214">
        <ele>516.20001220703</ele>
        <time>2019-05-16T08:04:17Z</time>
      </trkpt>
      <trkpt lat="43.00941" lon="-0.06212">
        <ele>516.59997558594</ele>
        <time>2019-05-16T08:04:18Z</time>
      </trkpt>
      <trkpt lat="43.00946" lon="-0.0621">
        <ele>516.59997558594</ele>
        <time>2019-05-16T08:04:21Z</time>
      </trkpt>
      <trkpt lat="43.00957" lon="-0.0621">
        <ele>516.59997558594</ele>
        <time>2019-05-16T08:04:26Z</time>
      </trkpt>
      <trkpt lat="43.00961" lon="-0.0621">
        <ele>517</ele>
        <time>2019-05-16T08:04:28Z</time>
      </trkpt>
      <trkpt lat="43.00963" lon="-0.06211">
        <ele>517.40002441406</ele>
        <time>2019-05-16T08:04:29Z</time>
      </trkpt>
      <trkpt lat="43.00966" lon="-0.06211">
        <ele>517.79998779297</ele>
        <time>2019-05-16T08:04:30Z</time>
      </trkpt>
      <trkpt lat="43.00968" lon="-0.06212">
        <ele>518.20001220703</ele>
        <time>2019-05-16T08:04:31Z</time>
      </trkpt>
      <trkpt lat="43.0097" lon="-0.06212">
        <ele>518.59997558594</ele>
        <time>2019-05-16T08:04:32Z</time>
      </trkpt>
      <trkpt lat="43.0099" lon="-0.06214">
        <ele>519.40002441406</ele>
        <time>2019-05-16T08:04:40Z</time>
      </trkpt>
      <trkpt lat="43.00992" lon="-0.06214">
        <ele>520</ele>
        <time>2019-05-16T08:04:41Z</time>
      </trkpt>
      <trkpt lat="43.00994" lon="-0.06214">
        <ele>520.40002441406</ele>
        <time>2019-05-16T08:04:42Z</time>
      </trkpt>
      <trkpt lat="43.00997" lon="-0.06213">
        <ele>520.79998779297</ele>
        <time>2019-05-16T08:04:43Z</time>
      </trkpt>
      <trkpt lat="43.01006" lon="-0.0621">
        <ele>520.79998779297</ele>
        <time>2019-05-16T08:04:47Z</time>
      </trkpt>
      <trkpt lat="43.01012" lon="-0.06208">
        <ele>521.20001220703</ele>
        <time>2019-05-16T08:04:50Z</time>
      </trkpt>
      <trkpt lat="43.01014" lon="-0.06207">
        <ele>521.59997558594</ele>
        <time>2019-05-16T08:04:51Z</time>
      </trkpt>
      <trkpt lat="43.01016" lon="-0.06206">
        <ele>522</ele>
        <time>2019-05-16T08:04:52Z</time>
      </trkpt>
      <trkpt lat="43.01018" lon="-0.06206">
        <ele>522.40002441406</ele>
        <time>2019-05-16T08:04:53Z</time>
      </trkpt>
      <trkpt lat="43.0102" lon="-0.06205">
        <ele>522.79998779297</ele>
        <time>2019-05-16T08:04:54Z</time>
      </trkpt>
      <trkpt lat="43.01029" lon="-0.06204">
        <ele>522.79998779297</ele>
        <time>2019-05-16T08:04:58Z</time>
      </trkpt>
      <trkpt lat="43.01043" lon="-0.06202">
        <ele>523.20001220703</ele>
        <time>2019-05-16T08:05:04Z</time>
      </trkpt>
      <trkpt lat="43.01045" lon="-0.06201">
        <ele>523.59997558594</ele>
        <time>2019-05-16T08:05:05Z</time>
      </trkpt>
      <trkpt lat="43.01047" lon="-0.062">
        <ele>524</ele>
        <time>2019-05-16T08:05:06Z</time>
      </trkpt>
      <trkpt lat="43.01049" lon="-0.06199">
        <ele>524.40002441406</ele>
        <time>2019-05-16T08:05:07Z</time>
      </trkpt>
      <trkpt lat="43.01051" lon="-0.06198">
        <ele>524.79998779297</ele>
        <time>2019-05-16T08:05:08Z</time>
      </trkpt>
      <trkpt lat="43.01061" lon="-0.06194">
        <ele>524.79998779297</ele>
        <time>2019-05-16T08:05:12Z</time>
      </trkpt>
      <trkpt lat="43.0108" lon="-0.06181">
        <ele>524.79998779297</ele>
        <time>2019-05-16T08:05:20Z</time>
      </trkpt>
      <trkpt lat="43.01097" lon="-0.0617">
        <ele>524.79998779297</ele>
        <time>2019-05-16T08:05:27Z</time>
      </trkpt>
      <trkpt lat="43.0111" lon="-0.06163">
        <ele>525.20001220703</ele>
        <time>2019-05-16T08:05:33Z</time>
      </trkpt>
      <trkpt lat="43.01112" lon="-0.06162">
        <ele>525.79998779297</ele>
        <time>2019-05-16T08:05:34Z</time>
      </trkpt>
      <trkpt lat="43.01114" lon="-0.0616">
        <ele>526.20001220703</ele>
        <time>2019-05-16T08:05:35Z</time>
      </trkpt>
      <trkpt lat="43.01116" lon="-0.06159">
        <ele>526.59997558594</ele>
        <time>2019-05-16T08:05:36Z</time>
      </trkpt>
      <trkpt lat="43.01118" lon="-0.06158">
        <ele>527</ele>
        <time>2019-05-16T08:05:37Z</time>
      </trkpt>
      <trkpt lat="43.01124" lon="-0.06152">
        <ele>527</ele>
        <time>2019-05-16T08:05:40Z</time>
      </trkpt>
      <trkpt lat="43.01135" lon="-0.06146">
        <ele>527.40002441406</ele>
        <time>2019-05-16T08:05:45Z</time>
      </trkpt>
      <trkpt lat="43.01137" lon="-0.06145">
        <ele>527.79998779297</ele>
        <time>2019-05-16T08:05:46Z</time>
      </trkpt>
      <trkpt lat="43.01139" lon="-0.06144">
        <ele>528.20001220703</ele>
        <time>2019-05-16T08:05:47Z</time>
      </trkpt>
      <trkpt lat="43.01141" lon="-0.06142">
        <ele>528.59997558594</ele>
        <time>2019-05-16T08:05:48Z</time>
      </trkpt>
      <trkpt lat="43.01143" lon="-0.0614">
        <ele>529</ele>
        <time>2019-05-16T08:05:49Z</time>
      </trkpt>
      <trkpt lat="43.01151" lon="-0.06135">
        <ele>529</ele>
        <time>2019-05-16T08:05:53Z</time>
      </trkpt>
      <trkpt lat="43.01154" lon="-0.06134">
        <ele>529.40002441406</ele>
        <time>2019-05-16T08:05:54Z</time>
      </trkpt>
      <trkpt lat="43.01156" lon="-0.06133">
        <ele>529.79998779297</ele>
        <time>2019-05-16T08:05:55Z</time>
      </trkpt>
      <trkpt lat="43.01158" lon="-0.06133">
        <ele>530.20001220703</ele>
        <time>2019-05-16T08:05:56Z</time>
      </trkpt>
      <trkpt lat="43.0116" lon="-0.06132">
        <ele>530.59997558594</ele>
        <time>2019-05-16T08:05:57Z</time>
      </trkpt>
      <trkpt lat="43.01163" lon="-0.06132">
        <ele>531</ele>
        <time>2019-05-16T08:05:58Z</time>
      </trkpt>
      <trkpt lat="43.01173" lon="-0.06127">
        <ele>531.40002441406</ele>
        <time>2019-05-16T08:06:03Z</time>
      </trkpt>
      <trkpt lat="43.01175" lon="-0.06126">
        <ele>531.79998779297</ele>
        <time>2019-05-16T08:06:04Z</time>
      </trkpt>
      <trkpt lat="43.01178" lon="-0.06125">
        <ele>532.20001220703</ele>
        <time>2019-05-16T08:06:05Z</time>
      </trkpt>
      <trkpt lat="43.0118" lon="-0.06123">
        <ele>532.59997558594</ele>
        <time>2019-05-16T08:06:06Z</time>
      </trkpt>
      <trkpt lat="43.01181" lon="-0.06121">
        <ele>533</ele>
        <time>2019-05-16T08:06:07Z</time>
      </trkpt>
      <trkpt lat="43.01185" lon="-0.06112">
        <ele>533</ele>
        <time>2019-05-16T08:06:10Z</time>
      </trkpt>
      <trkpt lat="43.01192" lon="-0.06096">
        <ele>533.59997558594</ele>
        <time>2019-05-16T08:06:16Z</time>
      </trkpt>
      <trkpt lat="43.01192" lon="-0.06093">
        <ele>534</ele>
        <time>2019-05-16T08:06:17Z</time>
      </trkpt>
      <trkpt lat="43.01193" lon="-0.0609">
        <ele>534.40002441406</ele>
        <time>2019-05-16T08:06:18Z</time>
      </trkpt>
      <trkpt lat="43.01194" lon="-0.06088">
        <ele>535.20001220703</ele>
        <time>2019-05-16T08:06:19Z</time>
      </trkpt>
      <trkpt lat="43.01197" lon="-0.0608">
        <ele>535.20001220703</ele>
        <time>2019-05-16T08:06:22Z</time>
      </trkpt>
      <trkpt lat="43.01199" lon="-0.06072">
        <ele>535.59997558594</ele>
        <time>2019-05-16T08:06:25Z</time>
      </trkpt>
      <trkpt lat="43.012" lon="-0.0607">
        <ele>536</ele>
        <time>2019-05-16T08:06:26Z</time>
      </trkpt>
      <trkpt lat="43.01201" lon="-0.06067">
        <ele>536.40002441406</ele>
        <time>2019-05-16T08:06:27Z</time>
      </trkpt>
      <trkpt lat="43.01202" lon="-0.06065">
        <ele>536.79998779297</ele>
        <time>2019-05-16T08:06:28Z</time>
      </trkpt>
      <trkpt lat="43.01203" lon="-0.06062">
        <ele>537.20001220703</ele>
        <time>2019-05-16T08:06:29Z</time>
      </trkpt>
      <trkpt lat="43.01207" lon="-0.06048">
        <ele>537.59997558594</ele>
        <time>2019-05-16T08:06:34Z</time>
      </trkpt>
      <trkpt lat="43.01208" lon="-0.06045">
        <ele>538</ele>
        <time>2019-05-16T08:06:35Z</time>
      </trkpt>
      <trkpt lat="43.01209" lon="-0.06042">
        <ele>538.40002441406</ele>
        <time>2019-05-16T08:06:36Z</time>
      </trkpt>
      <trkpt lat="43.01209" lon="-0.0604">
        <ele>538.79998779297</ele>
        <time>2019-05-16T08:06:37Z</time>
      </trkpt>
      <trkpt lat="43.0121" lon="-0.06037">
        <ele>539.20001220703</ele>
        <time>2019-05-16T08:06:38Z</time>
      </trkpt>
      <trkpt lat="43.01217" lon="-0.06024">
        <ele>539.20001220703</ele>
        <time>2019-05-16T08:06:43Z</time>
      </trkpt>
      <trkpt lat="43.01218" lon="-0.06021">
        <ele>539.59997558594</ele>
        <time>2019-05-16T08:06:44Z</time>
      </trkpt>
      <trkpt lat="43.0122" lon="-0.0602">
        <ele>540.20001220703</ele>
        <time>2019-05-16T08:06:45Z</time>
      </trkpt>
      <trkpt lat="43.01222" lon="-0.06018">
        <ele>540.59997558594</ele>
        <time>2019-05-16T08:06:46Z</time>
      </trkpt>
      <trkpt lat="43.01223" lon="-0.06015">
        <ele>541</ele>
        <time>2019-05-16T08:06:47Z</time>
      </trkpt>
      <trkpt lat="43.01225" lon="-0.06014">
        <ele>541.40002441406</ele>
        <time>2019-05-16T08:06:48Z</time>
      </trkpt>
      <trkpt lat="43.01229" lon="-0.06011">
        <ele>541.40002441406</ele>
        <time>2019-05-16T08:06:50Z</time>
      </trkpt>
      <trkpt lat="43.01242" lon="-0.06001">
        <ele>541.79998779297</ele>
        <time>2019-05-16T08:06:57Z</time>
      </trkpt>
      <trkpt lat="43.01244" lon="-0.06">
        <ele>542.20001220703</ele>
        <time>2019-05-16T08:06:58Z</time>
      </trkpt>
      <trkpt lat="43.01246" lon="-0.05999">
        <ele>542.59997558594</ele>
        <time>2019-05-16T08:06:59Z</time>
      </trkpt>
      <trkpt lat="43.01248" lon="-0.05998">
        <ele>543</ele>
        <time>2019-05-16T08:07:00Z</time>
      </trkpt>
      <trkpt lat="43.0125" lon="-0.05997">
        <ele>543.59997558594</ele>
        <time>2019-05-16T08:07:01Z</time>
      </trkpt>
      <trkpt lat="43.01255" lon="-0.05991">
        <ele>543.59997558594</ele>
        <time>2019-05-16T08:07:04Z</time>
      </trkpt>
      <trkpt lat="43.01261" lon="-0.05982">
        <ele>544.40002441406</ele>
        <time>2019-05-16T08:07:08Z</time>
      </trkpt>
      <trkpt lat="43.01262" lon="-0.0598">
        <ele>544.79998779297</ele>
        <time>2019-05-16T08:07:09Z</time>
      </trkpt>
      <trkpt lat="43.01264" lon="-0.05978">
        <ele>545.20001220703</ele>
        <time>2019-05-16T08:07:10Z</time>
      </trkpt>
      <trkpt lat="43.01265" lon="-0.05976">
        <ele>545.59997558594</ele>
        <time>2019-05-16T08:07:11Z</time>
      </trkpt>
      <trkpt lat="43.01272" lon="-0.05961">
        <ele>546</ele>
        <time>2019-05-16T08:07:17Z</time>
      </trkpt>
      <trkpt lat="43.01274" lon="-0.0596">
        <ele>546.40002441406</ele>
        <time>2019-05-16T08:07:18Z</time>
      </trkpt>
      <trkpt lat="43.01275" lon="-0.05957">
        <ele>546.79998779297</ele>
        <time>2019-05-16T08:07:19Z</time>
      </trkpt>
      <trkpt lat="43.01276" lon="-0.05955">
        <ele>547.20001220703</ele>
        <time>2019-05-16T08:07:20Z</time>
      </trkpt>
      <trkpt lat="43.01278" lon="-0.05953">
        <ele>547.59997558594</ele>
        <time>2019-05-16T08:07:21Z</time>
      </trkpt>
      <trkpt lat="43.01281" lon="-0.05949">
        <ele>547.59997558594</ele>
        <time>2019-05-16T08:07:23Z</time>
      </trkpt>
      <trkpt lat="43.0129" lon="-0.0594">
        <ele>548</ele>
        <time>2019-05-16T08:07:28Z</time>
      </trkpt>
      <trkpt lat="43.01292" lon="-0.05938">
        <ele>548.59997558594</ele>
        <time>2019-05-16T08:07:29Z</time>
      </trkpt>
      <trkpt lat="43.01293" lon="-0.05936">
        <ele>549</ele>
        <time>2019-05-16T08:07:30Z</time>
      </trkpt>
      <trkpt lat="43.01295" lon="-0.05934">
        <ele>549.40002441406</ele>
        <time>2019-05-16T08:07:31Z</time>
      </trkpt>
      <trkpt lat="43.01297" lon="-0.05932">
        <ele>549.79998779297</ele>
        <time>2019-05-16T08:07:32Z</time>
      </trkpt>
      <trkpt lat="43.01302" lon="-0.05918">
        <ele>549.79998779297</ele>
        <time>2019-05-16T08:07:37Z</time>
      </trkpt>
      <trkpt lat="43.01304" lon="-0.05909">
        <ele>550.20001220703</ele>
        <time>2019-05-16T08:07:40Z</time>
      </trkpt>
      <trkpt lat="43.01305" lon="-0.05906">
        <ele>550.59997558594</ele>
        <time>2019-05-16T08:07:41Z</time>
      </trkpt>
      <trkpt lat="43.01305" lon="-0.05903">
        <ele>551</ele>
        <time>2019-05-16T08:07:42Z</time>
      </trkpt>
      <trkpt lat="43.01306" lon="-0.059">
        <ele>551.40002441406</ele>
        <time>2019-05-16T08:07:43Z</time>
      </trkpt>
      <trkpt lat="43.01306" lon="-0.05897">
        <ele>551.79998779297</ele>
        <time>2019-05-16T08:07:44Z</time>
      </trkpt>
      <trkpt lat="43.01309" lon="-0.05882">
        <ele>551.79998779297</ele>
        <time>2019-05-16T08:07:49Z</time>
      </trkpt>
      <trkpt lat="43.01309" lon="-0.05879">
        <ele>552.40002441406</ele>
        <time>2019-05-16T08:07:50Z</time>
      </trkpt>
      <trkpt lat="43.01309" lon="-0.05876">
        <ele>552.79998779297</ele>
        <time>2019-05-16T08:07:51Z</time>
      </trkpt>
      <trkpt lat="43.0131" lon="-0.05873">
        <ele>553.20001220703</ele>
        <time>2019-05-16T08:07:52Z</time>
      </trkpt>
      <trkpt lat="43.01311" lon="-0.0587">
        <ele>553.59997558594</ele>
        <time>2019-05-16T08:07:53Z</time>
      </trkpt>
      <trkpt lat="43.01312" lon="-0.05867">
        <ele>554</ele>
        <time>2019-05-16T08:07:54Z</time>
      </trkpt>
      <trkpt lat="43.01321" lon="-0.05854">
        <ele>554.59997558594</ele>
        <time>2019-05-16T08:07:59Z</time>
      </trkpt>
      <trkpt lat="43.01323" lon="-0.05851">
        <ele>555</ele>
        <time>2019-05-16T08:08:00Z</time>
      </trkpt>
      <trkpt lat="43.01325" lon="-0.05849">
        <ele>555.40002441406</ele>
        <time>2019-05-16T08:08:01Z</time>
      </trkpt>
      <trkpt lat="43.01326" lon="-0.05846">
        <ele>555.79998779297</ele>
        <time>2019-05-16T08:08:02Z</time>
      </trkpt>
      <trkpt lat="43.01326" lon="-0.05844">
        <ele>556.20001220703</ele>
        <time>2019-05-16T08:08:03Z</time>
      </trkpt>
      <trkpt lat="43.01329" lon="-0.05839">
        <ele>556.20001220703</ele>
        <time>2019-05-16T08:08:05Z</time>
      </trkpt>
      <trkpt lat="43.01335" lon="-0.05828">
        <ele>556.59997558594</ele>
        <time>2019-05-16T08:08:09Z</time>
      </trkpt>
      <trkpt lat="43.01336" lon="-0.05825">
        <ele>557</ele>
        <time>2019-05-16T08:08:10Z</time>
      </trkpt>
      <trkpt lat="43.01337" lon="-0.05823">
        <ele>557.59997558594</ele>
        <time>2019-05-16T08:08:11Z</time>
      </trkpt>
      <trkpt lat="43.01338" lon="-0.0582">
        <ele>558</ele>
        <time>2019-05-16T08:08:12Z</time>
      </trkpt>
      <trkpt lat="43.01339" lon="-0.05816">
        <ele>558.40002441406</ele>
        <time>2019-05-16T08:08:13Z</time>
      </trkpt>
      <trkpt lat="43.01341" lon="-0.05804">
        <ele>558.40002441406</ele>
        <time>2019-05-16T08:08:17Z</time>
      </trkpt>
      <trkpt lat="43.01343" lon="-0.05789">
        <ele>558.79998779297</ele>
        <time>2019-05-16T08:08:22Z</time>
      </trkpt>
      <trkpt lat="43.01343" lon="-0.05786">
        <ele>559.20001220703</ele>
        <time>2019-05-16T08:08:23Z</time>
      </trkpt>
      <trkpt lat="43.01344" lon="-0.05782">
        <ele>559.59997558594</ele>
        <time>2019-05-16T08:08:24Z</time>
      </trkpt>
      <trkpt lat="43.01344" lon="-0.05779">
        <ele>560</ele>
        <time>2019-05-16T08:08:25Z</time>
      </trkpt>
      <trkpt lat="43.01345" lon="-0.05776">
        <ele>560.59997558594</ele>
        <time>2019-05-16T08:08:26Z</time>
      </trkpt>
      <trkpt lat="43.01347" lon="-0.05771">
        <ele>560.59997558594</ele>
        <time>2019-05-16T08:08:28Z</time>
      </trkpt>
      <trkpt lat="43.01355" lon="-0.05762">
        <ele>560.59997558594</ele>
        <time>2019-05-16T08:08:33Z</time>
      </trkpt>
      <trkpt lat="43.01363" lon="-0.05763">
        <ele>560.59997558594</ele>
        <time>2019-05-16T08:08:38Z</time>
      </trkpt>
      <trkpt lat="43.01366" lon="-0.05766">
        <ele>560.59997558594</ele>
        <time>2019-05-16T08:08:41Z</time>
      </trkpt>
      <trkpt lat="43.01368" lon="-0.0577">
        <ele>560.59997558594</ele>
        <time>2019-05-16T08:08:43Z</time>
      </trkpt>
      <trkpt lat="43.01372" lon="-0.0578">
        <ele>561</ele>
        <time>2019-05-16T08:08:47Z</time>
      </trkpt>
      <trkpt lat="43.01373" lon="-0.05782">
        <ele>561.40002441406</ele>
        <time>2019-05-16T08:08:48Z</time>
      </trkpt>
      <trkpt lat="43.01374" lon="-0.05786">
        <ele>561.79998779297</ele>
        <time>2019-05-16T08:08:49Z</time>
      </trkpt>
      <trkpt lat="43.01375" lon="-0.05789">
        <ele>562.20001220703</ele>
        <time>2019-05-16T08:08:50Z</time>
      </trkpt>
      <trkpt lat="43.01376" lon="-0.05792">
        <ele>562.59997558594</ele>
        <time>2019-05-16T08:08:51Z</time>
      </trkpt>
      <trkpt lat="43.01378" lon="-0.058">
        <ele>562.59997558594</ele>
        <time>2019-05-16T08:08:54Z</time>
      </trkpt>
      <trkpt lat="43.01381" lon="-0.05815">
        <ele>563</ele>
        <time>2019-05-16T08:08:59Z</time>
      </trkpt>
      <trkpt lat="43.01381" lon="-0.05818">
        <ele>563.59997558594</ele>
        <time>2019-05-16T08:09:00Z</time>
      </trkpt>
      <trkpt lat="43.01381" lon="-0.05821">
        <ele>564</ele>
        <time>2019-05-16T08:09:01Z</time>
      </trkpt>
      <trkpt lat="43.01381" lon="-0.05823">
        <ele>564.40002441406</ele>
        <time>2019-05-16T08:09:02Z</time>
      </trkpt>
      <trkpt lat="43.01381" lon="-0.05826">
        <ele>564.79998779297</ele>
        <time>2019-05-16T08:09:03Z</time>
      </trkpt>
      <trkpt lat="43.01382" lon="-0.05835">
        <ele>564.79998779297</ele>
        <time>2019-05-16T08:09:06Z</time>
      </trkpt>
      <trkpt lat="43.01383" lon="-0.05848">
        <ele>565.79998779297</ele>
        <time>2019-05-16T08:09:11Z</time>
      </trkpt>
      <trkpt lat="43.01384" lon="-0.05849">
        <ele>566.20001220703</ele>
        <time>2019-05-16T08:09:12Z</time>
      </trkpt>
      <trkpt lat="43.01385" lon="-0.05849">
        <ele>566.59997558594</ele>
        <time>2019-05-16T08:09:13Z</time>
      </trkpt>
      <trkpt lat="43.01386" lon="-0.0585">
        <ele>567</ele>
        <time>2019-05-16T08:09:14Z</time>
      </trkpt>
      <trkpt lat="43.01387" lon="-0.05852">
        <ele>567</ele>
        <time>2019-05-16T08:09:17Z</time>
      </trkpt>
      <trkpt lat="43.01387" lon="-0.05853">
        <ele>567</ele>
        <time>2019-05-16T08:09:22Z</time>
      </trkpt>
      <trkpt lat="43.01387" lon="-0.05853">
        <ele>567</ele>
        <time>2019-05-16T08:09:32Z</time>
      </trkpt>
      <trkpt lat="43.01387" lon="-0.05853">
        <ele>567</ele>
        <time>2019-05-16T08:09:43Z</time>
      </trkpt>
      <trkpt lat="43.01387" lon="-0.05853">
        <ele>567</ele>
        <time>2019-05-16T08:09:50Z</time>
      </trkpt>
      <trkpt lat="43.01387" lon="-0.05853">
        <ele>567</ele>
        <time>2019-05-16T08:10:02Z</time>
      </trkpt>
      <trkpt lat="43.01387" lon="-0.05853">
        <ele>567</ele>
        <time>2019-05-16T08:10:08Z</time>
      </trkpt>
      <trkpt lat="43.01387" lon="-0.05853">
        <ele>567</ele>
        <time>2019-05-16T08:10:21Z</time>
      </trkpt>
      <trkpt lat="43.01387" lon="-0.05853">
        <ele>567</ele>
        <time>2019-05-16T08:10:32Z</time>
      </trkpt>
      <trkpt lat="43.01388" lon="-0.05861">
        <ele>567</ele>
        <time>2019-05-16T08:10:38Z</time>
      </trkpt>
      <trkpt lat="43.01383" lon="-0.05864">
        <ele>567</ele>
        <time>2019-05-16T08:10:43Z</time>
      </trkpt>
      <trkpt lat="43.01382" lon="-0.05872">
        <ele>567</ele>
        <time>2019-05-16T08:10:47Z</time>
      </trkpt>
      <trkpt lat="43.01383" lon="-0.05873">
        <ele>567</ele>
        <time>2019-05-16T08:10:48Z</time>
      </trkpt>
      <trkpt lat="43.01383" lon="-0.05881">
        <ele>567.40002441406</ele>
        <time>2019-05-16T08:10:52Z</time>
      </trkpt>
      <trkpt lat="43.01383" lon="-0.05883">
        <ele>567.79998779297</ele>
        <time>2019-05-16T08:10:53Z</time>
      </trkpt>
      <trkpt lat="43.01383" lon="-0.05885">
        <ele>568.20001220703</ele>
        <time>2019-05-16T08:10:54Z</time>
      </trkpt>
      <trkpt lat="43.01383" lon="-0.05887">
        <ele>568.59997558594</ele>
        <time>2019-05-16T08:10:55Z</time>
      </trkpt>
      <trkpt lat="43.01383" lon="-0.0589">
        <ele>569</ele>
        <time>2019-05-16T08:10:56Z</time>
      </trkpt>
      <trkpt lat="43.01384" lon="-0.05908">
        <ele>569</ele>
        <time>2019-05-16T08:11:03Z</time>
      </trkpt>
      <trkpt lat="43.01385" lon="-0.05912">
        <ele>569</ele>
        <time>2019-05-16T08:11:05Z</time>
      </trkpt>
      <trkpt lat="43.01387" lon="-0.05918">
        <ele>569</ele>
        <time>2019-05-16T08:11:09Z</time>
      </trkpt>
      <trkpt lat="43.0139" lon="-0.05921">
        <ele>569</ele>
        <time>2019-05-16T08:11:12Z</time>
      </trkpt>
      <trkpt lat="43.0139" lon="-0.05922">
        <ele>569.40002441406</ele>
        <time>2019-05-16T08:11:13Z</time>
      </trkpt>
      <trkpt lat="43.01391" lon="-0.05923">
        <ele>569.79998779297</ele>
        <time>2019-05-16T08:11:14Z</time>
      </trkpt>
      <trkpt lat="43.01391" lon="-0.05923">
        <ele>570.79998779297</ele>
        <time>2019-05-16T08:11:15Z</time>
      </trkpt>
      <trkpt lat="43.01391" lon="-0.05923">
        <ele>571.20001220703</ele>
        <time>2019-05-16T08:11:16Z</time>
      </trkpt>
      <trkpt lat="43.01391" lon="-0.05923">
        <ele>571.20001220703</ele>
        <time>2019-05-16T08:11:19Z</time>
      </trkpt>
      <trkpt lat="43.01391" lon="-0.05923">
        <ele>571.20001220703</ele>
        <time>2019-05-16T08:11:30Z</time>
      </trkpt>
      <trkpt lat="43.01391" lon="-0.05923">
        <ele>571.20001220703</ele>
        <time>2019-05-16T08:11:43Z</time>
      </trkpt>
      <trkpt lat="43.0139" lon="-0.05924">
        <ele>571.20001220703</ele>
        <time>2019-05-16T08:11:48Z</time>
      </trkpt>
      <trkpt lat="43.0139" lon="-0.05924">
        <ele>571.20001220703</ele>
        <time>2019-05-16T08:11:58Z</time>
      </trkpt>
      <trkpt lat="43.0139" lon="-0.05924">
        <ele>571.20001220703</ele>
        <time>2019-05-16T08:12:11Z</time>
      </trkpt>
      <trkpt lat="43.0139" lon="-0.05924">
        <ele>571.20001220703</ele>
        <time>2019-05-16T08:12:24Z</time>
      </trkpt>
      <trkpt lat="43.0139" lon="-0.05924">
        <ele>571.20001220703</ele>
        <time>2019-05-16T08:12:35Z</time>
      </trkpt>
      <trkpt lat="43.01389" lon="-0.05923">
        <ele>571.20001220703</ele>
        <time>2019-05-16T08:12:40Z</time>
      </trkpt>
      <trkpt lat="43.01389" lon="-0.05923">
        <ele>571.20001220703</ele>
        <time>2019-05-16T08:12:50Z</time>
      </trkpt>
      <trkpt lat="43.01389" lon="-0.05923">
        <ele>571.20001220703</ele>
        <time>2019-05-16T08:13:03Z</time>
      </trkpt>
      <trkpt lat="43.01389" lon="-0.05923">
        <ele>571.20001220703</ele>
        <time>2019-05-16T08:13:10Z</time>
      </trkpt>
      <trkpt lat="43.0139" lon="-0.05923">
        <ele>571.20001220703</ele>
        <time>2019-05-16T08:13:20Z</time>
      </trkpt>
      <trkpt lat="43.01391" lon="-0.05923">
        <ele>571.20001220703</ele>
        <time>2019-05-16T08:13:25Z</time>
      </trkpt>
      <trkpt lat="43.014" lon="-0.05928">
        <ele>571.20001220703</ele>
        <time>2019-05-16T08:13:31Z</time>
      </trkpt>
      <trkpt lat="43.01409" lon="-0.0593">
        <ele>571.59997558594</ele>
        <time>2019-05-16T08:13:36Z</time>
      </trkpt>
      <trkpt lat="43.01411" lon="-0.05929">
        <ele>572</ele>
        <time>2019-05-16T08:13:37Z</time>
      </trkpt>
      <trkpt lat="43.01412" lon="-0.05927">
        <ele>572.40002441406</ele>
        <time>2019-05-16T08:13:38Z</time>
      </trkpt>
      <trkpt lat="43.01414" lon="-0.05925">
        <ele>573</ele>
        <time>2019-05-16T08:13:39Z</time>
      </trkpt>
      <trkpt lat="43.01415" lon="-0.05923">
        <ele>573.40002441406</ele>
        <time>2019-05-16T08:13:40Z</time>
      </trkpt>
      <trkpt lat="43.01417" lon="-0.0592">
        <ele>573.79998779297</ele>
        <time>2019-05-16T08:13:42Z</time>
      </trkpt>
      <trkpt lat="43.01417" lon="-0.05918">
        <ele>574.20001220703</ele>
        <time>2019-05-16T08:13:43Z</time>
      </trkpt>
      <trkpt lat="43.01418" lon="-0.05917">
        <ele>574.79998779297</ele>
        <time>2019-05-16T08:13:44Z</time>
      </trkpt>
      <trkpt lat="43.01419" lon="-0.05915">
        <ele>575.59997558594</ele>
        <time>2019-05-16T08:13:45Z</time>
      </trkpt>
      <trkpt lat="43.01419" lon="-0.05913">
        <ele>576</ele>
        <time>2019-05-16T08:13:46Z</time>
      </trkpt>
      <trkpt lat="43.0142" lon="-0.05912">
        <ele>576.59997558594</ele>
        <time>2019-05-16T08:13:47Z</time>
      </trkpt>
      <trkpt lat="43.01421" lon="-0.0591">
        <ele>577</ele>
        <time>2019-05-16T08:13:48Z</time>
      </trkpt>
      <trkpt lat="43.01422" lon="-0.05908">
        <ele>577.40002441406</ele>
        <time>2019-05-16T08:13:49Z</time>
      </trkpt>
      <trkpt lat="43.01422" lon="-0.05906">
        <ele>578</ele>
        <time>2019-05-16T08:13:50Z</time>
      </trkpt>
      <trkpt lat="43.01425" lon="-0.05902">
        <ele>578.40002441406</ele>
        <time>2019-05-16T08:13:53Z</time>
      </trkpt>
      <trkpt lat="43.01426" lon="-0.05901">
        <ele>578.79998779297</ele>
        <time>2019-05-16T08:13:54Z</time>
      </trkpt>
      <trkpt lat="43.01428" lon="-0.059">
        <ele>579.20001220703</ele>
        <time>2019-05-16T08:13:55Z</time>
      </trkpt>
      <trkpt lat="43.01429" lon="-0.05899">
        <ele>579.59997558594</ele>
        <time>2019-05-16T08:13:56Z</time>
      </trkpt>
      <trkpt lat="43.0143" lon="-0.05898">
        <ele>580</ele>
        <time>2019-05-16T08:13:57Z</time>
      </trkpt>
      <trkpt lat="43.01433" lon="-0.05896">
        <ele>580</ele>
        <time>2019-05-16T08:13:59Z</time>
      </trkpt>
      <trkpt lat="43.01438" lon="-0.05893">
        <ele>580</ele>
        <time>2019-05-16T08:14:04Z</time>
      </trkpt>
      <trkpt lat="43.01441" lon="-0.05891">
        <ele>580.40002441406</ele>
        <time>2019-05-16T08:14:07Z</time>
      </trkpt>
      <trkpt lat="43.01443" lon="-0.05891">
        <ele>580.79998779297</ele>
        <time>2019-05-16T08:14:08Z</time>
      </trkpt>
      <trkpt lat="43.01444" lon="-0.05891">
        <ele>581.59997558594</ele>
        <time>2019-05-16T08:14:09Z</time>
      </trkpt>
      <trkpt lat="43.01444" lon="-0.0589">
        <ele>582</ele>
        <time>2019-05-16T08:14:10Z</time>
      </trkpt>
      <trkpt lat="43.01446" lon="-0.05889">
        <ele>582</ele>
        <time>2019-05-16T08:14:12Z</time>
      </trkpt>
      <trkpt lat="43.01447" lon="-0.05889">
        <ele>582</ele>
        <time>2019-05-16T08:14:13Z</time>
      </trkpt>
      <trkpt lat="43.01451" lon="-0.05888">
        <ele>582</ele>
        <time>2019-05-16T08:14:17Z</time>
      </trkpt>
      <trkpt lat="43.01452" lon="-0.05887">
        <ele>582</ele>
        <time>2019-05-16T08:14:18Z</time>
      </trkpt>
      <trkpt lat="43.01454" lon="-0.05886">
        <ele>582</ele>
        <time>2019-05-16T08:14:20Z</time>
      </trkpt>
      <trkpt lat="43.01458" lon="-0.05884">
        <ele>582</ele>
        <time>2019-05-16T08:14:25Z</time>
      </trkpt>
      <trkpt lat="43.01459" lon="-0.05882">
        <ele>581.59997558594</ele>
        <time>2019-05-16T08:14:27Z</time>
      </trkpt>
      <trkpt lat="43.01461" lon="-0.05881">
        <ele>581.20001220703</ele>
        <time>2019-05-16T08:14:28Z</time>
      </trkpt>
      <trkpt lat="43.01462" lon="-0.0588">
        <ele>580.79998779297</ele>
        <time>2019-05-16T08:14:29Z</time>
      </trkpt>
      <trkpt lat="43.01464" lon="-0.0588">
        <ele>580.40002441406</ele>
        <time>2019-05-16T08:14:30Z</time>
      </trkpt>
      <trkpt lat="43.01466" lon="-0.05878">
        <ele>580</ele>
        <time>2019-05-16T08:14:31Z</time>
      </trkpt>
      <trkpt lat="43.01473" lon="-0.05873">
        <ele>580</ele>
        <time>2019-05-16T08:14:35Z</time>
      </trkpt>
      <trkpt lat="43.01474" lon="-0.05872">
        <ele>579.59997558594</ele>
        <time>2019-05-16T08:14:36Z</time>
      </trkpt>
      <trkpt lat="43.01475" lon="-0.05871">
        <ele>579.20001220703</ele>
        <time>2019-05-16T08:14:37Z</time>
      </trkpt>
      <trkpt lat="43.01475" lon="-0.0587">
        <ele>578.79998779297</ele>
        <time>2019-05-16T08:14:38Z</time>
      </trkpt>
      <trkpt lat="43.01476" lon="-0.05869">
        <ele>578.40002441406</ele>
        <time>2019-05-16T08:14:39Z</time>
      </trkpt>
      <trkpt lat="43.01477" lon="-0.05868">
        <ele>578</ele>
        <time>2019-05-16T08:14:40Z</time>
      </trkpt>
      <trkpt lat="43.01478" lon="-0.05867">
        <ele>578</ele>
        <time>2019-05-16T08:14:41Z</time>
      </trkpt>
      <trkpt lat="43.01485" lon="-0.05863">
        <ele>578</ele>
        <time>2019-05-16T08:14:46Z</time>
      </trkpt>
      <trkpt lat="43.01486" lon="-0.05862">
        <ele>577.59997558594</ele>
        <time>2019-05-16T08:14:47Z</time>
      </trkpt>
      <trkpt lat="43.01488" lon="-0.05861">
        <ele>577.20001220703</ele>
        <time>2019-05-16T08:14:48Z</time>
      </trkpt>
      <trkpt lat="43.01489" lon="-0.0586">
        <ele>576.59997558594</ele>
        <time>2019-05-16T08:14:49Z</time>
      </trkpt>
      <trkpt lat="43.0149" lon="-0.05859">
        <ele>576.20001220703</ele>
        <time>2019-05-16T08:14:50Z</time>
      </trkpt>
      <trkpt lat="43.01491" lon="-0.05857">
        <ele>575.79998779297</ele>
        <time>2019-05-16T08:14:51Z</time>
      </trkpt>
      <trkpt lat="43.01493" lon="-0.05857">
        <ele>575.79998779297</ele>
        <time>2019-05-16T08:14:52Z</time>
      </trkpt>
      <trkpt lat="43.01496" lon="-0.05857">
        <ele>575.40002441406</ele>
        <time>2019-05-16T08:14:53Z</time>
      </trkpt>
      <trkpt lat="43.01498" lon="-0.05856">
        <ele>575</ele>
        <time>2019-05-16T08:14:54Z</time>
      </trkpt>
      <trkpt lat="43.015" lon="-0.05856">
        <ele>574.59997558594</ele>
        <time>2019-05-16T08:14:55Z</time>
      </trkpt>
      <trkpt lat="43.01501" lon="-0.05855">
        <ele>574</ele>
        <time>2019-05-16T08:14:56Z</time>
      </trkpt>
      <trkpt lat="43.01504" lon="-0.05853">
        <ele>573.59997558594</ele>
        <time>2019-05-16T08:14:57Z</time>
      </trkpt>
      <trkpt lat="43.0151" lon="-0.05848">
        <ele>572.59997558594</ele>
        <time>2019-05-16T08:14:59Z</time>
      </trkpt>
      <trkpt lat="43.01515" lon="-0.05845">
        <ele>572</ele>
        <time>2019-05-16T08:15:00Z</time>
      </trkpt>
      <trkpt lat="43.0152" lon="-0.05843">
        <ele>571.40002441406</ele>
        <time>2019-05-16T08:15:01Z</time>
      </trkpt>
      <trkpt lat="43.01525" lon="-0.05842">
        <ele>570.59997558594</ele>
        <time>2019-05-16T08:15:02Z</time>
      </trkpt>
      <trkpt lat="43.01529" lon="-0.05841">
        <ele>570</ele>
        <time>2019-05-16T08:15:03Z</time>
      </trkpt>
      <trkpt lat="43.01534" lon="-0.05841">
        <ele>569.40002441406</ele>
        <time>2019-05-16T08:15:04Z</time>
      </trkpt>
      <trkpt lat="43.01538" lon="-0.05841">
        <ele>568.59997558594</ele>
        <time>2019-05-16T08:15:05Z</time>
      </trkpt>
      <trkpt lat="43.0155" lon="-0.05845">
        <ele>568.59997558594</ele>
        <time>2019-05-16T08:15:08Z</time>
      </trkpt>
      <trkpt lat="43.01565" lon="-0.05847">
        <ele>568.59997558594</ele>
        <time>2019-05-16T08:15:11Z</time>
      </trkpt>
      <trkpt lat="43.01576" lon="-0.05844">
        <ele>568.59997558594</ele>
        <time>2019-05-16T08:15:13Z</time>
      </trkpt>
      <trkpt lat="43.01586" lon="-0.0584">
        <ele>568.20001220703</ele>
        <time>2019-05-16T08:15:15Z</time>
      </trkpt>
      <trkpt lat="43.01592" lon="-0.05839">
        <ele>567.59997558594</ele>
        <time>2019-05-16T08:15:16Z</time>
      </trkpt>
      <trkpt lat="43.01596" lon="-0.05838">
        <ele>567.20001220703</ele>
        <time>2019-05-16T08:15:17Z</time>
      </trkpt>
      <trkpt lat="43.016" lon="-0.05837">
        <ele>566.59997558594</ele>
        <time>2019-05-16T08:15:18Z</time>
      </trkpt>
      <trkpt lat="43.01604" lon="-0.05836">
        <ele>566.20001220703</ele>
        <time>2019-05-16T08:15:19Z</time>
      </trkpt>
      <trkpt lat="43.01609" lon="-0.05835">
        <ele>565.79998779297</ele>
        <time>2019-05-16T08:15:20Z</time>
      </trkpt>
      <trkpt lat="43.01615" lon="-0.05834">
        <ele>565.40002441406</ele>
        <time>2019-05-16T08:15:21Z</time>
      </trkpt>
      <trkpt lat="43.0162" lon="-0.05833">
        <ele>565</ele>
        <time>2019-05-16T08:15:22Z</time>
      </trkpt>
      <trkpt lat="43.01624" lon="-0.05832">
        <ele>564</ele>
        <time>2019-05-16T08:15:23Z</time>
      </trkpt>
      <trkpt lat="43.01638" lon="-0.05826">
        <ele>564</ele>
        <time>2019-05-16T08:15:26Z</time>
      </trkpt>
      <trkpt lat="43.01643" lon="-0.05823">
        <ele>563.59997558594</ele>
        <time>2019-05-16T08:15:27Z</time>
      </trkpt>
      <trkpt lat="43.01648" lon="-0.05817">
        <ele>563.20001220703</ele>
        <time>2019-05-16T08:15:28Z</time>
      </trkpt>
      <trkpt lat="43.01654" lon="-0.05811">
        <ele>562.59997558594</ele>
        <time>2019-05-16T08:15:29Z</time>
      </trkpt>
      <trkpt lat="43.01659" lon="-0.05804">
        <ele>561.79998779297</ele>
        <time>2019-05-16T08:15:30Z</time>
      </trkpt>
      <trkpt lat="43.01664" lon="-0.05799">
        <ele>561.20001220703</ele>
        <time>2019-05-16T08:15:31Z</time>
      </trkpt>
      <trkpt lat="43.01668" lon="-0.05795">
        <ele>560.59997558594</ele>
        <time>2019-05-16T08:15:32Z</time>
      </trkpt>
      <trkpt lat="43.01671" lon="-0.05793">
        <ele>559.79998779297</ele>
        <time>2019-05-16T08:15:33Z</time>
      </trkpt>
      <trkpt lat="43.01675" lon="-0.05791">
        <ele>559.79998779297</ele>
        <time>2019-05-16T08:15:34Z</time>
      </trkpt>
      <trkpt lat="43.01683" lon="-0.05787">
        <ele>559.79998779297</ele>
        <time>2019-05-16T08:15:36Z</time>
      </trkpt>
      <trkpt lat="43.01695" lon="-0.05783">
        <ele>559.79998779297</ele>
        <time>2019-05-16T08:15:40Z</time>
      </trkpt>
      <trkpt lat="43.01711" lon="-0.05777">
        <ele>559.79998779297</ele>
        <time>2019-05-16T08:15:46Z</time>
      </trkpt>
      <trkpt lat="43.01724" lon="-0.05769">
        <ele>559.79998779297</ele>
        <time>2019-05-16T08:15:52Z</time>
      </trkpt>
      <trkpt lat="43.01737" lon="-0.05764">
        <ele>559.79998779297</ele>
        <time>2019-05-16T08:15:57Z</time>
      </trkpt>
      <trkpt lat="43.01752" lon="-0.0576">
        <ele>559.79998779297</ele>
        <time>2019-05-16T08:16:02Z</time>
      </trkpt>
      <trkpt lat="43.01763" lon="-0.05759">
        <ele>559.79998779297</ele>
        <time>2019-05-16T08:16:07Z</time>
      </trkpt>
      <trkpt lat="43.01778" lon="-0.05752">
        <ele>559.79998779297</ele>
        <time>2019-05-16T08:16:13Z</time>
      </trkpt>
      <trkpt lat="43.0178" lon="-0.05749">
        <ele>559.40002441406</ele>
        <time>2019-05-16T08:16:14Z</time>
      </trkpt>
      <trkpt lat="43.01783" lon="-0.05746">
        <ele>559</ele>
        <time>2019-05-16T08:16:15Z</time>
      </trkpt>
      <trkpt lat="43.01786" lon="-0.05744">
        <ele>558.59997558594</ele>
        <time>2019-05-16T08:16:16Z</time>
      </trkpt>
      <trkpt lat="43.0179" lon="-0.05742">
        <ele>558</ele>
        <time>2019-05-16T08:16:17Z</time>
      </trkpt>
      <trkpt lat="43.01794" lon="-0.0574">
        <ele>557.59997558594</ele>
        <time>2019-05-16T08:16:18Z</time>
      </trkpt>
      <trkpt lat="43.01798" lon="-0.05738">
        <ele>557.59997558594</ele>
        <time>2019-05-16T08:16:19Z</time>
      </trkpt>
      <trkpt lat="43.01818" lon="-0.0573">
        <ele>557.59997558594</ele>
        <time>2019-05-16T08:16:25Z</time>
      </trkpt>
      <trkpt lat="43.01827" lon="-0.05731">
        <ele>557.59997558594</ele>
        <time>2019-05-16T08:16:29Z</time>
      </trkpt>
      <trkpt lat="43.01831" lon="-0.0573">
        <ele>557.59997558594</ele>
        <time>2019-05-16T08:16:30Z</time>
      </trkpt>
      <trkpt lat="43.01836" lon="-0.05727">
        <ele>557.20001220703</ele>
        <time>2019-05-16T08:16:32Z</time>
      </trkpt>
      <trkpt lat="43.01838" lon="-0.05726">
        <ele>556.79998779297</ele>
        <time>2019-05-16T08:16:33Z</time>
      </trkpt>
      <trkpt lat="43.01841" lon="-0.05725">
        <ele>556.20001220703</ele>
        <time>2019-05-16T08:16:34Z</time>
      </trkpt>
      <trkpt lat="43.01845" lon="-0.05723">
        <ele>555.79998779297</ele>
        <time>2019-05-16T08:16:35Z</time>
      </trkpt>
      <trkpt lat="43.01848" lon="-0.05721">
        <ele>555.40002441406</ele>
        <time>2019-05-16T08:16:36Z</time>
      </trkpt>
      <trkpt lat="43.01854" lon="-0.05721">
        <ele>555.40002441406</ele>
        <time>2019-05-16T08:16:38Z</time>
      </trkpt>
      <trkpt lat="43.01868" lon="-0.05724">
        <ele>555.40002441406</ele>
        <time>2019-05-16T08:16:43Z</time>
      </trkpt>
      <trkpt lat="43.0188" lon="-0.05729">
        <ele>555.40002441406</ele>
        <time>2019-05-16T08:16:48Z</time>
      </trkpt>
      <trkpt lat="43.01889" lon="-0.05733">
        <ele>555.79998779297</ele>
        <time>2019-05-16T08:16:53Z</time>
      </trkpt>
      <trkpt lat="43.01891" lon="-0.05734">
        <ele>556.20001220703</ele>
        <time>2019-05-16T08:16:54Z</time>
      </trkpt>
      <trkpt lat="43.01893" lon="-0.05735">
        <ele>556.59997558594</ele>
        <time>2019-05-16T08:16:55Z</time>
      </trkpt>
      <trkpt lat="43.01895" lon="-0.05736">
        <ele>557</ele>
        <time>2019-05-16T08:16:56Z</time>
      </trkpt>
      <trkpt lat="43.01897" lon="-0.05737">
        <ele>557.40002441406</ele>
        <time>2019-05-16T08:16:57Z</time>
      </trkpt>
      <trkpt lat="43.01906" lon="-0.05743">
        <ele>557.40002441406</ele>
        <time>2019-05-16T08:17:03Z</time>
      </trkpt>
      <trkpt lat="43.01916" lon="-0.05751">
        <ele>557.40002441406</ele>
        <time>2019-05-16T08:17:09Z</time>
      </trkpt>
      <trkpt lat="43.01918" lon="-0.05752">
        <ele>557.40002441406</ele>
        <time>2019-05-16T08:17:10Z</time>
      </trkpt>
      <trkpt lat="43.01923" lon="-0.05756">
        <ele>558</ele>
        <time>2019-05-16T08:17:13Z</time>
      </trkpt>
      <trkpt lat="43.01924" lon="-0.05756">
        <ele>558.40002441406</ele>
        <time>2019-05-16T08:17:14Z</time>
      </trkpt>
      <trkpt lat="43.01926" lon="-0.05757">
        <ele>558.79998779297</ele>
        <time>2019-05-16T08:17:15Z</time>
      </trkpt>
      <trkpt lat="43.01928" lon="-0.05758">
        <ele>559.20001220703</ele>
        <time>2019-05-16T08:17:16Z</time>
      </trkpt>
      <trkpt lat="43.01929" lon="-0.05758">
        <ele>559.59997558594</ele>
        <time>2019-05-16T08:17:17Z</time>
      </trkpt>
      <trkpt lat="43.01936" lon="-0.05759">
        <ele>559.59997558594</ele>
        <time>2019-05-16T08:17:20Z</time>
      </trkpt>
      <trkpt lat="43.01939" lon="-0.0576">
        <ele>559.59997558594</ele>
        <time>2019-05-16T08:17:21Z</time>
      </trkpt>
      <trkpt lat="43.01943" lon="-0.05759">
        <ele>560</ele>
        <time>2019-05-16T08:17:23Z</time>
      </trkpt>
      <trkpt lat="43.01946" lon="-0.05759">
        <ele>560.59997558594</ele>
        <time>2019-05-16T08:17:24Z</time>
      </trkpt>
      <trkpt lat="43.01947" lon="-0.05758">
        <ele>561</ele>
        <time>2019-05-16T08:17:25Z</time>
      </trkpt>
      <trkpt lat="43.01949" lon="-0.05758">
        <ele>562</ele>
        <time>2019-05-16T08:17:26Z</time>
      </trkpt>
      <trkpt lat="43.01951" lon="-0.05758">
        <ele>562</ele>
        <time>2019-05-16T08:17:27Z</time>
      </trkpt>
      <trkpt lat="43.01955" lon="-0.05759">
        <ele>562.40002441406</ele>
        <time>2019-05-16T08:17:29Z</time>
      </trkpt>
      <trkpt lat="43.01957" lon="-0.05759">
        <ele>562.79998779297</ele>
        <time>2019-05-16T08:17:30Z</time>
      </trkpt>
      <trkpt lat="43.01959" lon="-0.0576">
        <ele>563.40002441406</ele>
        <time>2019-05-16T08:17:31Z</time>
      </trkpt>
      <trkpt lat="43.0196" lon="-0.05761">
        <ele>563.79998779297</ele>
        <time>2019-05-16T08:17:32Z</time>
      </trkpt>
      <trkpt lat="43.01962" lon="-0.05762">
        <ele>564.20001220703</ele>
        <time>2019-05-16T08:17:33Z</time>
      </trkpt>
      <trkpt lat="43.01963" lon="-0.05763">
        <ele>564.20001220703</ele>
        <time>2019-05-16T08:17:34Z</time>
      </trkpt>
      <trkpt lat="43.01968" lon="-0.05768">
        <ele>564.59997558594</ele>
        <time>2019-05-16T08:17:38Z</time>
      </trkpt>
      <trkpt lat="43.01969" lon="-0.05769">
        <ele>565.20001220703</ele>
        <time>2019-05-16T08:17:39Z</time>
      </trkpt>
      <trkpt lat="43.0197" lon="-0.05771">
        <ele>565.59997558594</ele>
        <time>2019-05-16T08:17:40Z</time>
      </trkpt>
      <trkpt lat="43.01972" lon="-0.05772">
        <ele>566</ele>
        <time>2019-05-16T08:17:41Z</time>
      </trkpt>
      <trkpt lat="43.01973" lon="-0.05774">
        <ele>566.40002441406</ele>
        <time>2019-05-16T08:17:42Z</time>
      </trkpt>
      <trkpt lat="43.01978" lon="-0.05779">
        <ele>566.40002441406</ele>
        <time>2019-05-16T08:17:45Z</time>
      </trkpt>
      <trkpt lat="43.01979" lon="-0.05781">
        <ele>566.79998779297</ele>
        <time>2019-05-16T08:17:46Z</time>
      </trkpt>
      <trkpt lat="43.01981" lon="-0.05782">
        <ele>567.20001220703</ele>
        <time>2019-05-16T08:17:47Z</time>
      </trkpt>
      <trkpt lat="43.01982" lon="-0.05783">
        <ele>567.79998779297</ele>
        <time>2019-05-16T08:17:48Z</time>
      </trkpt>
      <trkpt lat="43.01984" lon="-0.05784">
        <ele>568.20001220703</ele>
        <time>2019-05-16T08:17:49Z</time>
      </trkpt>
      <trkpt lat="43.01985" lon="-0.05785">
        <ele>568.59997558594</ele>
        <time>2019-05-16T08:17:50Z</time>
      </trkpt>
      <trkpt lat="43.01989" lon="-0.05784">
        <ele>569</ele>
        <time>2019-05-16T08:17:53Z</time>
      </trkpt>
      <trkpt lat="43.01991" lon="-0.05784">
        <ele>569.40002441406</ele>
        <time>2019-05-16T08:17:54Z</time>
      </trkpt>
      <trkpt lat="43.01993" lon="-0.05784">
        <ele>569.79998779297</ele>
        <time>2019-05-16T08:17:55Z</time>
      </trkpt>
      <trkpt lat="43.01995" lon="-0.05784">
        <ele>570.20001220703</ele>
        <time>2019-05-16T08:17:56Z</time>
      </trkpt>
      <trkpt lat="43.01997" lon="-0.05784">
        <ele>570.79998779297</ele>
        <time>2019-05-16T08:17:57Z</time>
      </trkpt>
      <trkpt lat="43.02006" lon="-0.05785">
        <ele>570.79998779297</ele>
        <time>2019-05-16T08:18:03Z</time>
      </trkpt>
      <trkpt lat="43.0201" lon="-0.05787">
        <ele>571.20001220703</ele>
        <time>2019-05-16T08:18:06Z</time>
      </trkpt>
      <trkpt lat="43.02012" lon="-0.05788">
        <ele>571.59997558594</ele>
        <time>2019-05-16T08:18:07Z</time>
      </trkpt>
      <trkpt lat="43.02012" lon="-0.05789">
        <ele>572</ele>
        <time>2019-05-16T08:18:08Z</time>
      </trkpt>
      <trkpt lat="43.02013" lon="-0.05789">
        <ele>572.40002441406</ele>
        <time>2019-05-16T08:18:09Z</time>
      </trkpt>
      <trkpt lat="43.02014" lon="-0.0579">
        <ele>572.79998779297</ele>
        <time>2019-05-16T08:18:10Z</time>
      </trkpt>
      <trkpt lat="43.02019" lon="-0.05794">
        <ele>572.79998779297</ele>
        <time>2019-05-16T08:18:15Z</time>
      </trkpt>
      <trkpt lat="43.02029" lon="-0.058">
        <ele>572.79998779297</ele>
        <time>2019-05-16T08:18:24Z</time>
      </trkpt>
      <trkpt lat="43.02039" lon="-0.05807">
        <ele>572.79998779297</ele>
        <time>2019-05-16T08:18:31Z</time>
      </trkpt>
      <trkpt lat="43.02046" lon="-0.05812">
        <ele>572.79998779297</ele>
        <time>2019-05-16T08:18:37Z</time>
      </trkpt>
      <trkpt lat="43.02046" lon="-0.05812">
        <ele>572.79998779297</ele>
        <time>2019-05-16T08:18:43Z</time>
      </trkpt>
      <trkpt lat="43.02047" lon="-0.05813">
        <ele>572.79998779297</ele>
        <time>2019-05-16T08:18:50Z</time>
      </trkpt>
      <trkpt lat="43.02047" lon="-0.05813">
        <ele>572.79998779297</ele>
        <time>2019-05-16T08:19:01Z</time>
      </trkpt>
      <trkpt lat="43.02047" lon="-0.05813">
        <ele>572.79998779297</ele>
        <time>2019-05-16T08:19:15Z</time>
      </trkpt>
      <trkpt lat="43.02047" lon="-0.05813">
        <ele>572.79998779297</ele>
        <time>2019-05-16T08:19:23Z</time>
      </trkpt>
      <trkpt lat="43.02052" lon="-0.05817">
        <ele>572.79998779297</ele>
        <time>2019-05-16T08:19:27Z</time>
      </trkpt>
      <trkpt lat="43.02056" lon="-0.0582">
        <ele>572.79998779297</ele>
        <time>2019-05-16T08:19:32Z</time>
      </trkpt>
      <trkpt lat="43.02057" lon="-0.05821">
        <ele>572.79998779297</ele>
        <time>2019-05-16T08:19:33Z</time>
      </trkpt>
      <trkpt lat="43.02063" lon="-0.05826">
        <ele>572.79998779297</ele>
        <time>2019-05-16T08:19:39Z</time>
      </trkpt>
      <trkpt lat="43.02073" lon="-0.05834">
        <ele>572.79998779297</ele>
        <time>2019-05-16T08:19:46Z</time>
      </trkpt>
      <trkpt lat="43.02081" lon="-0.0584">
        <ele>572.79998779297</ele>
        <time>2019-05-16T08:19:51Z</time>
      </trkpt>
      <trkpt lat="43.02084" lon="-0.05842">
        <ele>573.20001220703</ele>
        <time>2019-05-16T08:19:53Z</time>
      </trkpt>
      <trkpt lat="43.02086" lon="-0.05843">
        <ele>573.59997558594</ele>
        <time>2019-05-16T08:19:54Z</time>
      </trkpt>
      <trkpt lat="43.02088" lon="-0.05845">
        <ele>574.40002441406</ele>
        <time>2019-05-16T08:19:55Z</time>
      </trkpt>
      <trkpt lat="43.02091" lon="-0.05847">
        <ele>574.79998779297</ele>
        <time>2019-05-16T08:19:56Z</time>
      </trkpt>
      <trkpt lat="43.021" lon="-0.05852">
        <ele>574.79998779297</ele>
        <time>2019-05-16T08:20:02Z</time>
      </trkpt>
      <trkpt lat="43.02108" lon="-0.05859">
        <ele>574.79998779297</ele>
        <time>2019-05-16T08:20:08Z</time>
      </trkpt>
      <trkpt lat="43.0211" lon="-0.0586">
        <ele>574.79998779297</ele>
        <time>2019-05-16T08:20:09Z</time>
      </trkpt>
      <trkpt lat="43.02114" lon="-0.0586">
        <ele>575.20001220703</ele>
        <time>2019-05-16T08:20:11Z</time>
      </trkpt>
      <trkpt lat="43.02118" lon="-0.05861">
        <ele>575.79998779297</ele>
        <time>2019-05-16T08:20:12Z</time>
      </trkpt>
      <trkpt lat="43.02119" lon="-0.05861">
        <ele>576.20001220703</ele>
        <time>2019-05-16T08:20:13Z</time>
      </trkpt>
      <trkpt lat="43.02122" lon="-0.05861">
        <ele>576.59997558594</ele>
        <time>2019-05-16T08:20:14Z</time>
      </trkpt>
      <trkpt lat="43.02123" lon="-0.05862">
        <ele>577</ele>
        <time>2019-05-16T08:20:15Z</time>
      </trkpt>
      <trkpt lat="43.02132" lon="-0.05862">
        <ele>577</ele>
        <time>2019-05-16T08:20:19Z</time>
      </trkpt>
      <trkpt lat="43.02141" lon="-0.0586">
        <ele>577.40002441406</ele>
        <time>2019-05-16T08:20:24Z</time>
      </trkpt>
      <trkpt lat="43.02143" lon="-0.0586">
        <ele>577.79998779297</ele>
        <time>2019-05-16T08:20:25Z</time>
      </trkpt>
      <trkpt lat="43.02145" lon="-0.05859">
        <ele>578.40002441406</ele>
        <time>2019-05-16T08:20:26Z</time>
      </trkpt>
      <trkpt lat="43.02146" lon="-0.05858">
        <ele>578.79998779297</ele>
        <time>2019-05-16T08:20:27Z</time>
      </trkpt>
      <trkpt lat="43.02148" lon="-0.05857">
        <ele>579.20001220703</ele>
        <time>2019-05-16T08:20:28Z</time>
      </trkpt>
      <trkpt lat="43.02151" lon="-0.05855">
        <ele>579.59997558594</ele>
        <time>2019-05-16T08:20:30Z</time>
      </trkpt>
      <trkpt lat="43.02153" lon="-0.05854">
        <ele>580</ele>
        <time>2019-05-16T08:20:31Z</time>
      </trkpt>
      <trkpt lat="43.02154" lon="-0.05852">
        <ele>580.40002441406</ele>
        <time>2019-05-16T08:20:32Z</time>
      </trkpt>
      <trkpt lat="43.02154" lon="-0.05853">
        <ele>580.79998779297</ele>
        <time>2019-05-16T08:20:33Z</time>
      </trkpt>
      <trkpt lat="43.02154" lon="-0.05853">
        <ele>581.20001220703</ele>
        <time>2019-05-16T08:20:34Z</time>
      </trkpt>
      <trkpt lat="43.02154" lon="-0.05853">
        <ele>581.20001220703</ele>
        <time>2019-05-16T08:20:36Z</time>
      </trkpt>
      <trkpt lat="43.02154" lon="-0.05853">
        <ele>581.20001220703</ele>
        <time>2019-05-16T08:20:50Z</time>
      </trkpt>
      <trkpt lat="43.02154" lon="-0.05853">
        <ele>581.20001220703</ele>
        <time>2019-05-16T08:21:01Z</time>
      </trkpt>
      <trkpt lat="43.02154" lon="-0.05853">
        <ele>581.20001220703</ele>
        <time>2019-05-16T08:21:12Z</time>
      </trkpt>
      <trkpt lat="43.02154" lon="-0.05853">
        <ele>581.20001220703</ele>
        <time>2019-05-16T08:21:23Z</time>
      </trkpt>
      <trkpt lat="43.02154" lon="-0.05853">
        <ele>581.20001220703</ele>
        <time>2019-05-16T08:21:34Z</time>
      </trkpt>
      <trkpt lat="43.02154" lon="-0.05853">
        <ele>581.20001220703</ele>
        <time>2019-05-16T08:21:48Z</time>
      </trkpt>
      <trkpt lat="43.02154" lon="-0.05853">
        <ele>581.20001220703</ele>
        <time>2019-05-16T08:22:01Z</time>
      </trkpt>
      <trkpt lat="43.02155" lon="-0.05853">
        <ele>581.20001220703</ele>
        <time>2019-05-16T08:22:16Z</time>
      </trkpt>
      <trkpt lat="43.02156" lon="-0.05854">
        <ele>581.20001220703</ele>
        <time>2019-05-16T08:22:17Z</time>
      </trkpt>
      <trkpt lat="43.02163" lon="-0.05855">
        <ele>581.20001220703</ele>
        <time>2019-05-16T08:22:20Z</time>
      </trkpt>
      <trkpt lat="43.0217" lon="-0.05856">
        <ele>581.20001220703</ele>
        <time>2019-05-16T08:22:25Z</time>
      </trkpt>
      <trkpt lat="43.02176" lon="-0.05858">
        <ele>580.79998779297</ele>
        <time>2019-05-16T08:22:28Z</time>
      </trkpt>
      <trkpt lat="43.02179" lon="-0.05859">
        <ele>580.40002441406</ele>
        <time>2019-05-16T08:22:29Z</time>
      </trkpt>
      <trkpt lat="43.02182" lon="-0.0586">
        <ele>580</ele>
        <time>2019-05-16T08:22:30Z</time>
      </trkpt>
      <trkpt lat="43.02185" lon="-0.05861">
        <ele>579.59997558594</ele>
        <time>2019-05-16T08:22:31Z</time>
      </trkpt>
      <trkpt lat="43.02187" lon="-0.05862">
        <ele>579.20001220703</ele>
        <time>2019-05-16T08:22:32Z</time>
      </trkpt>
      <trkpt lat="43.02195" lon="-0.05865">
        <ele>579.20001220703</ele>
        <time>2019-05-16T08:22:36Z</time>
      </trkpt>
      <trkpt lat="43.02205" lon="-0.05865">
        <ele>579.20001220703</ele>
        <time>2019-05-16T08:22:40Z</time>
      </trkpt>
      <trkpt lat="43.02207" lon="-0.05866">
        <ele>579.20001220703</ele>
        <time>2019-05-16T08:22:41Z</time>
      </trkpt>
      <trkpt lat="43.02216" lon="-0.05872">
        <ele>579.20001220703</ele>
        <time>2019-05-16T08:22:46Z</time>
      </trkpt>
      <trkpt lat="43.02223" lon="-0.05876">
        <ele>579.20001220703</ele>
        <time>2019-05-16T08:22:49Z</time>
      </trkpt>
      <trkpt lat="43.02226" lon="-0.05876">
        <ele>579.20001220703</ele>
        <time>2019-05-16T08:22:50Z</time>
      </trkpt>
      <trkpt lat="43.02228" lon="-0.05877">
        <ele>579.20001220703</ele>
        <time>2019-05-16T08:22:51Z</time>
      </trkpt>
      <trkpt lat="43.02229" lon="-0.05877">
        <ele>579.59997558594</ele>
        <time>2019-05-16T08:22:52Z</time>
      </trkpt>
      <trkpt lat="43.02232" lon="-0.05878">
        <ele>580</ele>
        <time>2019-05-16T08:22:53Z</time>
      </trkpt>
      <trkpt lat="43.02234" lon="-0.05879">
        <ele>580.40002441406</ele>
        <time>2019-05-16T08:22:54Z</time>
      </trkpt>
      <trkpt lat="43.02237" lon="-0.0588">
        <ele>580.79998779297</ele>
        <time>2019-05-16T08:22:55Z</time>
      </trkpt>
      <trkpt lat="43.0224" lon="-0.0588">
        <ele>581.40002441406</ele>
        <time>2019-05-16T08:22:56Z</time>
      </trkpt>
      <trkpt lat="43.02253" lon="-0.05883">
        <ele>581.79998779297</ele>
        <time>2019-05-16T08:23:02Z</time>
      </trkpt>
      <trkpt lat="43.02254" lon="-0.05885">
        <ele>582.20001220703</ele>
        <time>2019-05-16T08:23:03Z</time>
      </trkpt>
      <trkpt lat="43.02256" lon="-0.05885">
        <ele>582.59997558594</ele>
        <time>2019-05-16T08:23:04Z</time>
      </trkpt>
      <trkpt lat="43.02258" lon="-0.05886">
        <ele>583</ele>
        <time>2019-05-16T08:23:05Z</time>
      </trkpt>
      <trkpt lat="43.0226" lon="-0.05888">
        <ele>583.40002441406</ele>
        <time>2019-05-16T08:23:06Z</time>
      </trkpt>
      <trkpt lat="43.02274" lon="-0.05898">
        <ele>583.40002441406</ele>
        <time>2019-05-16T08:23:12Z</time>
      </trkpt>
      <trkpt lat="43.0229" lon="-0.05906">
        <ele>583.40002441406</ele>
        <time>2019-05-16T08:23:16Z</time>
      </trkpt>
      <trkpt lat="43.02292" lon="-0.05908">
        <ele>583.40002441406</ele>
        <time>2019-05-16T08:23:19Z</time>
      </trkpt>
      <trkpt lat="43.02292" lon="-0.05908">
        <ele>583.40002441406</ele>
        <time>2019-05-16T08:23:32Z</time>
      </trkpt>
      <trkpt lat="43.02292" lon="-0.05908">
        <ele>583.40002441406</ele>
        <time>2019-05-16T08:23:46Z</time>
      </trkpt>
      <trkpt lat="43.02293" lon="-0.05908">
        <ele>583.40002441406</ele>
        <time>2019-05-16T08:24:02Z</time>
      </trkpt>
      <trkpt lat="43.02294" lon="-0.05908">
        <ele>583.40002441406</ele>
        <time>2019-05-16T08:24:06Z</time>
      </trkpt>
      <trkpt lat="43.02296" lon="-0.05909">
        <ele>583.40002441406</ele>
        <time>2019-05-16T08:24:07Z</time>
      </trkpt>
      <trkpt lat="43.02302" lon="-0.05911">
        <ele>583.40002441406</ele>
        <time>2019-05-16T08:24:09Z</time>
      </trkpt>
      <trkpt lat="43.02307" lon="-0.05913">
        <ele>583.40002441406</ele>
        <time>2019-05-16T08:24:12Z</time>
      </trkpt>
      <trkpt lat="43.02315" lon="-0.05917">
        <ele>583.40002441406</ele>
        <time>2019-05-16T08:24:18Z</time>
      </trkpt>
      <trkpt lat="43.02324" lon="-0.05922">
        <ele>583.40002441406</ele>
        <time>2019-05-16T08:24:24Z</time>
      </trkpt>
      <trkpt lat="43.02325" lon="-0.05923">
        <ele>583.40002441406</ele>
        <time>2019-05-16T08:24:25Z</time>
      </trkpt>
      <trkpt lat="43.0233" lon="-0.05926">
        <ele>583.79998779297</ele>
        <time>2019-05-16T08:24:26Z</time>
      </trkpt>
      <trkpt lat="43.02333" lon="-0.05928">
        <ele>584.20001220703</ele>
        <time>2019-05-16T08:24:27Z</time>
      </trkpt>
      <trkpt lat="43.02336" lon="-0.05929">
        <ele>584.59997558594</ele>
        <time>2019-05-16T08:24:28Z</time>
      </trkpt>
      <trkpt lat="43.02337" lon="-0.0593">
        <ele>585</ele>
        <time>2019-05-16T08:24:29Z</time>
      </trkpt>
      <trkpt lat="43.02338" lon="-0.05931">
        <ele>585.40002441406</ele>
        <time>2019-05-16T08:24:30Z</time>
      </trkpt>
      <trkpt lat="43.02341" lon="-0.05932">
        <ele>585.40002441406</ele>
        <time>2019-05-16T08:24:32Z</time>
      </trkpt>
      <trkpt lat="43.02342" lon="-0.05932">
        <ele>585.40002441406</ele>
        <time>2019-05-16T08:24:33Z</time>
      </trkpt>
      <trkpt lat="43.02345" lon="-0.05935">
        <ele>585.40002441406</ele>
        <time>2019-05-16T08:24:37Z</time>
      </trkpt>
      <trkpt lat="43.02352" lon="-0.05939">
        <ele>585.40002441406</ele>
        <time>2019-05-16T08:24:41Z</time>
      </trkpt>
      <trkpt lat="43.02358" lon="-0.0595">
        <ele>585.79998779297</ele>
        <time>2019-05-16T08:24:46Z</time>
      </trkpt>
      <trkpt lat="43.02359" lon="-0.05951">
        <ele>586.20001220703</ele>
        <time>2019-05-16T08:24:47Z</time>
      </trkpt>
      <trkpt lat="43.02361" lon="-0.05953">
        <ele>586.59997558594</ele>
        <time>2019-05-16T08:24:48Z</time>
      </trkpt>
      <trkpt lat="43.02363" lon="-0.05955">
        <ele>587</ele>
        <time>2019-05-16T08:24:49Z</time>
      </trkpt>
      <trkpt lat="43.02366" lon="-0.05956">
        <ele>587.40002441406</ele>
        <time>2019-05-16T08:24:50Z</time>
      </trkpt>
      <trkpt lat="43.02371" lon="-0.05959">
        <ele>587.40002441406</ele>
        <time>2019-05-16T08:24:52Z</time>
      </trkpt>
      <trkpt lat="43.02373" lon="-0.05961">
        <ele>587.40002441406</ele>
        <time>2019-05-16T08:24:53Z</time>
      </trkpt>
      <trkpt lat="43.02379" lon="-0.0597">
        <ele>587.40002441406</ele>
        <time>2019-05-16T08:24:57Z</time>
      </trkpt>
      <trkpt lat="43.02386" lon="-0.0598">
        <ele>587.40002441406</ele>
        <time>2019-05-16T08:25:00Z</time>
      </trkpt>
      <trkpt lat="43.02397" lon="-0.05998">
        <ele>587.40002441406</ele>
        <time>2019-05-16T08:25:04Z</time>
      </trkpt>
      <trkpt lat="43.02403" lon="-0.06006">
        <ele>587.40002441406</ele>
        <time>2019-05-16T08:25:08Z</time>
      </trkpt>
      <trkpt lat="43.02405" lon="-0.06008">
        <ele>587.79998779297</ele>
        <time>2019-05-16T08:25:10Z</time>
      </trkpt>
      <trkpt lat="43.02407" lon="-0.0601">
        <ele>588.20001220703</ele>
        <time>2019-05-16T08:25:11Z</time>
      </trkpt>
      <trkpt lat="43.02408" lon="-0.06011">
        <ele>588.59997558594</ele>
        <time>2019-05-16T08:25:12Z</time>
      </trkpt>
      <trkpt lat="43.02409" lon="-0.06012">
        <ele>589</ele>
        <time>2019-05-16T08:25:13Z</time>
      </trkpt>
      <trkpt lat="43.0241" lon="-0.06013">
        <ele>589.59997558594</ele>
        <time>2019-05-16T08:25:14Z</time>
      </trkpt>
      <trkpt lat="43.02412" lon="-0.06016">
        <ele>589.59997558594</ele>
        <time>2019-05-16T08:25:16Z</time>
      </trkpt>
      <trkpt lat="43.02421" lon="-0.06032">
        <ele>589.59997558594</ele>
        <time>2019-05-16T08:25:21Z</time>
      </trkpt>
      <trkpt lat="43.02422" lon="-0.06034">
        <ele>589.59997558594</ele>
        <time>2019-05-16T08:25:22Z</time>
      </trkpt>
      <trkpt lat="43.02427" lon="-0.06043">
        <ele>589.59997558594</ele>
        <time>2019-05-16T08:25:25Z</time>
      </trkpt>
      <trkpt lat="43.02431" lon="-0.0605">
        <ele>589.59997558594</ele>
        <time>2019-05-16T08:25:28Z</time>
      </trkpt>
      <trkpt lat="43.02433" lon="-0.06056">
        <ele>589.59997558594</ele>
        <time>2019-05-16T08:25:30Z</time>
      </trkpt>
      <trkpt lat="43.02441" lon="-0.06069">
        <ele>589.59997558594</ele>
        <time>2019-05-16T08:25:36Z</time>
      </trkpt>
      <trkpt lat="43.02453" lon="-0.06077">
        <ele>589.59997558594</ele>
        <time>2019-05-16T08:25:40Z</time>
      </trkpt>
      <trkpt lat="43.02467" lon="-0.06082">
        <ele>589.59997558594</ele>
        <time>2019-05-16T08:25:46Z</time>
      </trkpt>
      <trkpt lat="43.02476" lon="-0.06083">
        <ele>589.59997558594</ele>
        <time>2019-05-16T08:25:51Z</time>
      </trkpt>
      <trkpt lat="43.02483" lon="-0.0608">
        <ele>590</ele>
        <time>2019-05-16T08:25:55Z</time>
      </trkpt>
      <trkpt lat="43.02484" lon="-0.06079">
        <ele>590.40002441406</ele>
        <time>2019-05-16T08:25:56Z</time>
      </trkpt>
      <trkpt lat="43.02485" lon="-0.06078">
        <ele>590.79998779297</ele>
        <time>2019-05-16T08:25:57Z</time>
      </trkpt>
      <trkpt lat="43.02487" lon="-0.06078">
        <ele>591.20001220703</ele>
        <time>2019-05-16T08:25:58Z</time>
      </trkpt>
      <trkpt lat="43.02489" lon="-0.06078">
        <ele>591.59997558594</ele>
        <time>2019-05-16T08:25:59Z</time>
      </trkpt>
      <trkpt lat="43.02495" lon="-0.06076">
        <ele>591.59997558594</ele>
        <time>2019-05-16T08:26:01Z</time>
      </trkpt>
      <trkpt lat="43.02504" lon="-0.06072">
        <ele>591.20001220703</ele>
        <time>2019-05-16T08:26:05Z</time>
      </trkpt>
      <trkpt lat="43.02506" lon="-0.06072">
        <ele>590.79998779297</ele>
        <time>2019-05-16T08:26:06Z</time>
      </trkpt>
      <trkpt lat="43.02507" lon="-0.06073">
        <ele>590.40002441406</ele>
        <time>2019-05-16T08:26:07Z</time>
      </trkpt>
      <trkpt lat="43.02509" lon="-0.06073">
        <ele>590</ele>
        <time>2019-05-16T08:26:08Z</time>
      </trkpt>
      <trkpt lat="43.0251" lon="-0.06073">
        <ele>589.59997558594</ele>
        <time>2019-05-16T08:26:09Z</time>
      </trkpt>
      <trkpt lat="43.02512" lon="-0.06074">
        <ele>589.59997558594</ele>
        <time>2019-05-16T08:26:13Z</time>
      </trkpt>
      <trkpt lat="43.02512" lon="-0.06074">
        <ele>589.59997558594</ele>
        <time>2019-05-16T08:26:25Z</time>
      </trkpt>
      <trkpt lat="43.02517" lon="-0.06074">
        <ele>589.59997558594</ele>
        <time>2019-05-16T08:26:38Z</time>
      </trkpt>
      <trkpt lat="43.02522" lon="-0.06073">
        <ele>589.20001220703</ele>
        <time>2019-05-16T08:26:41Z</time>
      </trkpt>
      <trkpt lat="43.02524" lon="-0.06073">
        <ele>588.79998779297</ele>
        <time>2019-05-16T08:26:42Z</time>
      </trkpt>
      <trkpt lat="43.02525" lon="-0.06073">
        <ele>588.40002441406</ele>
        <time>2019-05-16T08:26:43Z</time>
      </trkpt>
      <trkpt lat="43.02528" lon="-0.06073">
        <ele>588</ele>
        <time>2019-05-16T08:26:44Z</time>
      </trkpt>
      <trkpt lat="43.02531" lon="-0.06071">
        <ele>587.59997558594</ele>
        <time>2019-05-16T08:26:45Z</time>
      </trkpt>
      <trkpt lat="43.0254" lon="-0.06066">
        <ele>587.59997558594</ele>
        <time>2019-05-16T08:26:49Z</time>
      </trkpt>
      <trkpt lat="43.02555" lon="-0.06057">
        <ele>587.59997558594</ele>
        <time>2019-05-16T08:26:56Z</time>
      </trkpt>
      <trkpt lat="43.02565" lon="-0.0605">
        <ele>587.59997558594</ele>
        <time>2019-05-16T08:27:02Z</time>
      </trkpt>
      <trkpt lat="43.02575" lon="-0.06042">
        <ele>587.59997558594</ele>
        <time>2019-05-16T08:27:08Z</time>
      </trkpt>
      <trkpt lat="43.02581" lon="-0.06035">
        <ele>587.59997558594</ele>
        <time>2019-05-16T08:27:13Z</time>
      </trkpt>
      <trkpt lat="43.02589" lon="-0.06027">
        <ele>588.40002441406</ele>
        <time>2019-05-16T08:27:19Z</time>
      </trkpt>
      <trkpt lat="43.0259" lon="-0.06025">
        <ele>588.79998779297</ele>
        <time>2019-05-16T08:27:20Z</time>
      </trkpt>
      <trkpt lat="43.02591" lon="-0.06023">
        <ele>589.20001220703</ele>
        <time>2019-05-16T08:27:21Z</time>
      </trkpt>
      <trkpt lat="43.02591" lon="-0.06023">
        <ele>589.79998779297</ele>
        <time>2019-05-16T08:27:22Z</time>
      </trkpt>
      <trkpt lat="43.02594" lon="-0.0602">
        <ele>589.79998779297</ele>
        <time>2019-05-16T08:27:24Z</time>
      </trkpt>
      <trkpt lat="43.02595" lon="-0.06018">
        <ele>589.79998779297</ele>
        <time>2019-05-16T08:27:25Z</time>
      </trkpt>
      <trkpt lat="43.026" lon="-0.06008">
        <ele>589.79998779297</ele>
        <time>2019-05-16T08:27:31Z</time>
      </trkpt>
      <trkpt lat="43.02601" lon="-0.06007">
        <ele>590.20001220703</ele>
        <time>2019-05-16T08:27:32Z</time>
      </trkpt>
      <trkpt lat="43.02603" lon="-0.06005">
        <ele>590.59997558594</ele>
        <time>2019-05-16T08:27:33Z</time>
      </trkpt>
      <trkpt lat="43.02605" lon="-0.06003">
        <ele>591</ele>
        <time>2019-05-16T08:27:34Z</time>
      </trkpt>
      <trkpt lat="43.02606" lon="-0.06001">
        <ele>591.40002441406</ele>
        <time>2019-05-16T08:27:35Z</time>
      </trkpt>
      <trkpt lat="43.02607" lon="-0.05999">
        <ele>591.79998779297</ele>
        <time>2019-05-16T08:27:36Z</time>
      </trkpt>
      <trkpt lat="43.02609" lon="-0.05996">
        <ele>591.79998779297</ele>
        <time>2019-05-16T08:27:37Z</time>
      </trkpt>
      <trkpt lat="43.02623" lon="-0.05985">
        <ele>591.79998779297</ele>
        <time>2019-05-16T08:27:44Z</time>
      </trkpt>
      <trkpt lat="43.02627" lon="-0.0598">
        <ele>592.20001220703</ele>
        <time>2019-05-16T08:27:47Z</time>
      </trkpt>
      <trkpt lat="43.02628" lon="-0.05979">
        <ele>592.59997558594</ele>
        <time>2019-05-16T08:27:48Z</time>
      </trkpt>
      <trkpt lat="43.02629" lon="-0.05977">
        <ele>593</ele>
        <time>2019-05-16T08:27:49Z</time>
      </trkpt>
      <trkpt lat="43.0263" lon="-0.05975">
        <ele>593.40002441406</ele>
        <time>2019-05-16T08:27:50Z</time>
      </trkpt>
      <trkpt lat="43.02632" lon="-0.05974">
        <ele>593.79998779297</ele>
        <time>2019-05-16T08:27:51Z</time>
      </trkpt>
      <trkpt lat="43.02636" lon="-0.05972">
        <ele>594.40002441406</ele>
        <time>2019-05-16T08:27:55Z</time>
      </trkpt>
      <trkpt lat="43.0264" lon="-0.05971">
        <ele>594.79998779297</ele>
        <time>2019-05-16T08:27:56Z</time>
      </trkpt>
      <trkpt lat="43.02642" lon="-0.0597">
        <ele>595.20001220703</ele>
        <time>2019-05-16T08:27:57Z</time>
      </trkpt>
      <trkpt lat="43.02644" lon="-0.05969">
        <ele>595.59997558594</ele>
        <time>2019-05-16T08:27:58Z</time>
      </trkpt>
      <trkpt lat="43.02645" lon="-0.05966">
        <ele>596</ele>
        <time>2019-05-16T08:27:59Z</time>
      </trkpt>
      <trkpt lat="43.02647" lon="-0.05965">
        <ele>596</ele>
        <time>2019-05-16T08:28:00Z</time>
      </trkpt>
      <trkpt lat="43.02654" lon="-0.05959">
        <ele>596.40002441406</ele>
        <time>2019-05-16T08:28:06Z</time>
      </trkpt>
      <trkpt lat="43.02656" lon="-0.05956">
        <ele>596.79998779297</ele>
        <time>2019-05-16T08:28:07Z</time>
      </trkpt>
      <trkpt lat="43.02657" lon="-0.05956">
        <ele>597.20001220703</ele>
        <time>2019-05-16T08:28:08Z</time>
      </trkpt>
      <trkpt lat="43.02657" lon="-0.05955">
        <ele>598</ele>
        <time>2019-05-16T08:28:09Z</time>
      </trkpt>
      <trkpt lat="43.02659" lon="-0.05951">
        <ele>598</ele>
        <time>2019-05-16T08:28:11Z</time>
      </trkpt>
      <trkpt lat="43.02663" lon="-0.05943">
        <ele>598</ele>
        <time>2019-05-16T08:28:15Z</time>
      </trkpt>
      <trkpt lat="43.02668" lon="-0.05934">
        <ele>598</ele>
        <time>2019-05-16T08:28:20Z</time>
      </trkpt>
      <trkpt lat="43.02672" lon="-0.05929">
        <ele>598</ele>
        <time>2019-05-16T08:28:24Z</time>
      </trkpt>
      <trkpt lat="43.0268" lon="-0.0592">
        <ele>598</ele>
        <time>2019-05-16T08:28:29Z</time>
      </trkpt>
      <trkpt lat="43.02685" lon="-0.05918">
        <ele>598.40002441406</ele>
        <time>2019-05-16T08:28:32Z</time>
      </trkpt>
      <trkpt lat="43.02688" lon="-0.05917">
        <ele>599.20001220703</ele>
        <time>2019-05-16T08:28:33Z</time>
      </trkpt>
      <trkpt lat="43.0269" lon="-0.05917">
        <ele>599.59997558594</ele>
        <time>2019-05-16T08:28:34Z</time>
      </trkpt>
      <trkpt lat="43.02692" lon="-0.05916">
        <ele>600</ele>
        <time>2019-05-16T08:28:35Z</time>
      </trkpt>
      <trkpt lat="43.02702" lon="-0.05915">
        <ele>600</ele>
        <time>2019-05-16T08:28:39Z</time>
      </trkpt>
      <trkpt lat="43.0272" lon="-0.0591">
        <ele>600</ele>
        <time>2019-05-16T08:28:47Z</time>
      </trkpt>
      <trkpt lat="43.02737" lon="-0.05904">
        <ele>600</ele>
        <time>2019-05-16T08:28:52Z</time>
      </trkpt>
      <trkpt lat="43.02745" lon="-0.05892">
        <ele>600</ele>
        <time>2019-05-16T08:28:55Z</time>
      </trkpt>
      <trkpt lat="43.02759" lon="-0.05875">
        <ele>599.59997558594</ele>
        <time>2019-05-16T08:29:01Z</time>
      </trkpt>
      <trkpt lat="43.02762" lon="-0.05872">
        <ele>599.20001220703</ele>
        <time>2019-05-16T08:29:02Z</time>
      </trkpt>
      <trkpt lat="43.02764" lon="-0.05869">
        <ele>598.79998779297</ele>
        <time>2019-05-16T08:29:03Z</time>
      </trkpt>
      <trkpt lat="43.02767" lon="-0.05866">
        <ele>598.20001220703</ele>
        <time>2019-05-16T08:29:04Z</time>
      </trkpt>
      <trkpt lat="43.0277" lon="-0.05864">
        <ele>597.59997558594</ele>
        <time>2019-05-16T08:29:05Z</time>
      </trkpt>
      <trkpt lat="43.02774" lon="-0.05861">
        <ele>597.20001220703</ele>
        <time>2019-05-16T08:29:06Z</time>
      </trkpt>
      <trkpt lat="43.02779" lon="-0.05859">
        <ele>596.59997558594</ele>
        <time>2019-05-16T08:29:07Z</time>
      </trkpt>
      <trkpt lat="43.02783" lon="-0.05857">
        <ele>596</ele>
        <time>2019-05-16T08:29:08Z</time>
      </trkpt>
      <trkpt lat="43.02787" lon="-0.05856">
        <ele>595.40002441406</ele>
        <time>2019-05-16T08:29:09Z</time>
      </trkpt>
      <trkpt lat="43.02789" lon="-0.05855">
        <ele>594.79998779297</ele>
        <time>2019-05-16T08:29:10Z</time>
      </trkpt>
      <trkpt lat="43.02792" lon="-0.05854">
        <ele>594.40002441406</ele>
        <time>2019-05-16T08:29:11Z</time>
      </trkpt>
      <trkpt lat="43.02794" lon="-0.05852">
        <ele>593.79998779297</ele>
        <time>2019-05-16T08:29:12Z</time>
      </trkpt>
      <trkpt lat="43.02796" lon="-0.05851">
        <ele>593.40002441406</ele>
        <time>2019-05-16T08:29:13Z</time>
      </trkpt>
      <trkpt lat="43.02799" lon="-0.0585">
        <ele>593.40002441406</ele>
        <time>2019-05-16T08:29:16Z</time>
      </trkpt>
      <trkpt lat="43.02806" lon="-0.05846">
        <ele>593.40002441406</ele>
        <time>2019-05-16T08:29:22Z</time>
      </trkpt>
      <trkpt lat="43.02811" lon="-0.05843">
        <ele>592.79998779297</ele>
        <time>2019-05-16T08:29:29Z</time>
      </trkpt>
      <trkpt lat="43.02813" lon="-0.05843">
        <ele>592.40002441406</ele>
        <time>2019-05-16T08:29:30Z</time>
      </trkpt>
      <trkpt lat="43.02816" lon="-0.05842">
        <ele>592</ele>
        <time>2019-05-16T08:29:31Z</time>
      </trkpt>
      <trkpt lat="43.02819" lon="-0.05841">
        <ele>591.59997558594</ele>
        <time>2019-05-16T08:29:32Z</time>
      </trkpt>
      <trkpt lat="43.02822" lon="-0.0584">
        <ele>591.20001220703</ele>
        <time>2019-05-16T08:29:33Z</time>
      </trkpt>
      <trkpt lat="43.02824" lon="-0.05838">
        <ele>591.20001220703</ele>
        <time>2019-05-16T08:29:34Z</time>
      </trkpt>
      <trkpt lat="43.02829" lon="-0.05835">
        <ele>591.20001220703</ele>
        <time>2019-05-16T08:29:36Z</time>
      </trkpt>
      <trkpt lat="43.02837" lon="-0.05831">
        <ele>591.20001220703</ele>
        <time>2019-05-16T08:29:39Z</time>
      </trkpt>
      <trkpt lat="43.02851" lon="-0.05823">
        <ele>591.20001220703</ele>
        <time>2019-05-16T08:29:44Z</time>
      </trkpt>
      <trkpt lat="43.02856" lon="-0.05817">
        <ele>590.20001220703</ele>
        <time>2019-05-16T08:29:48Z</time>
      </trkpt>
      <trkpt lat="43.0286" lon="-0.05816">
        <ele>589.79998779297</ele>
        <time>2019-05-16T08:29:49Z</time>
      </trkpt>
      <trkpt lat="43.02862" lon="-0.05814">
        <ele>589.40002441406</ele>
        <time>2019-05-16T08:29:50Z</time>
      </trkpt>
      <trkpt lat="43.02864" lon="-0.05813">
        <ele>589</ele>
        <time>2019-05-16T08:29:51Z</time>
      </trkpt>
      <trkpt lat="43.02867" lon="-0.05809">
        <ele>589</ele>
        <time>2019-05-16T08:29:54Z</time>
      </trkpt>
      <trkpt lat="43.02879" lon="-0.05799">
        <ele>589</ele>
        <time>2019-05-16T08:30:01Z</time>
      </trkpt>
      <trkpt lat="43.02886" lon="-0.05793">
        <ele>589</ele>
        <time>2019-05-16T08:30:04Z</time>
      </trkpt>
      <trkpt lat="43.02895" lon="-0.05787">
        <ele>589</ele>
        <time>2019-05-16T08:30:08Z</time>
      </trkpt>
      <trkpt lat="43.02907" lon="-0.05778">
        <ele>589</ele>
        <time>2019-05-16T08:30:14Z</time>
      </trkpt>
      <trkpt lat="43.0291" lon="-0.05776">
        <ele>589.40002441406</ele>
        <time>2019-05-16T08:30:16Z</time>
      </trkpt>
      <trkpt lat="43.02911" lon="-0.05774">
        <ele>589.79998779297</ele>
        <time>2019-05-16T08:30:17Z</time>
      </trkpt>
      <trkpt lat="43.02913" lon="-0.05774">
        <ele>590.20001220703</ele>
        <time>2019-05-16T08:30:18Z</time>
      </trkpt>
      <trkpt lat="43.02914" lon="-0.05773">
        <ele>590.59997558594</ele>
        <time>2019-05-16T08:30:19Z</time>
      </trkpt>
      <trkpt lat="43.02916" lon="-0.05772">
        <ele>591</ele>
        <time>2019-05-16T08:30:20Z</time>
      </trkpt>
      <trkpt lat="43.02925" lon="-0.05765">
        <ele>591</ele>
        <time>2019-05-16T08:30:26Z</time>
      </trkpt>
      <trkpt lat="43.02936" lon="-0.05761">
        <ele>591</ele>
        <time>2019-05-16T08:30:32Z</time>
      </trkpt>
      <trkpt lat="43.02951" lon="-0.05756">
        <ele>591</ele>
        <time>2019-05-16T08:30:37Z</time>
      </trkpt>
      <trkpt lat="43.02968" lon="-0.05752">
        <ele>591</ele>
        <time>2019-05-16T08:30:43Z</time>
      </trkpt>
      <trkpt lat="43.02975" lon="-0.05752">
        <ele>591</ele>
        <time>2019-05-16T08:30:51Z</time>
      </trkpt>
      <trkpt lat="43.02975" lon="-0.05752">
        <ele>591</ele>
        <time>2019-05-16T08:31:06Z</time>
      </trkpt>
      <trkpt lat="43.02976" lon="-0.05751">
        <ele>591</ele>
        <time>2019-05-16T08:31:16Z</time>
      </trkpt>
      <trkpt lat="43.02976" lon="-0.05751">
        <ele>591.40002441406</ele>
        <time>2019-05-16T08:31:18Z</time>
      </trkpt>
      <trkpt lat="43.02976" lon="-0.05751">
        <ele>591.79998779297</ele>
        <time>2019-05-16T08:31:19Z</time>
      </trkpt>
      <trkpt lat="43.02976" lon="-0.05751">
        <ele>592.20001220703</ele>
        <time>2019-05-16T08:31:20Z</time>
      </trkpt>
      <trkpt lat="43.02976" lon="-0.05751">
        <ele>592.59997558594</ele>
        <time>2019-05-16T08:31:21Z</time>
      </trkpt>
      <trkpt lat="43.02976" lon="-0.05751">
        <ele>593</ele>
        <time>2019-05-16T08:31:22Z</time>
      </trkpt>
      <trkpt lat="43.02976" lon="-0.05751">
        <ele>593</ele>
        <time>2019-05-16T08:31:28Z</time>
      </trkpt>
      <trkpt lat="43.0298" lon="-0.0575">
        <ele>593</ele>
        <time>2019-05-16T08:31:36Z</time>
      </trkpt>
      <trkpt lat="43.02982" lon="-0.0575">
        <ele>593</ele>
        <time>2019-05-16T08:31:43Z</time>
      </trkpt>
      <trkpt lat="43.02988" lon="-0.05751">
        <ele>593</ele>
        <time>2019-05-16T08:31:48Z</time>
      </trkpt>
      <trkpt lat="43.02989" lon="-0.05751">
        <ele>593.59997558594</ele>
        <time>2019-05-16T08:31:49Z</time>
      </trkpt>
      <trkpt lat="43.0299" lon="-0.05751">
        <ele>594</ele>
        <time>2019-05-16T08:31:50Z</time>
      </trkpt>
      <trkpt lat="43.02991" lon="-0.05751">
        <ele>594.79998779297</ele>
        <time>2019-05-16T08:31:51Z</time>
      </trkpt>
      <trkpt lat="43.02992" lon="-0.05751">
        <ele>595.20001220703</ele>
        <time>2019-05-16T08:31:52Z</time>
      </trkpt>
      <trkpt lat="43.02992" lon="-0.05751">
        <ele>595.20001220703</ele>
        <time>2019-05-16T08:31:53Z</time>
      </trkpt>
      <trkpt lat="43.02993" lon="-0.05751">
        <ele>595.20001220703</ele>
        <time>2019-05-16T08:32:00Z</time>
      </trkpt>
      <trkpt lat="43.02994" lon="-0.05752">
        <ele>595.20001220703</ele>
        <time>2019-05-16T08:32:02Z</time>
      </trkpt>
      <trkpt lat="43.02998" lon="-0.05754">
        <ele>595.20001220703</ele>
        <time>2019-05-16T08:32:04Z</time>
      </trkpt>
      <trkpt lat="43.02999" lon="-0.05755">
        <ele>595.59997558594</ele>
        <time>2019-05-16T08:32:05Z</time>
      </trkpt>
      <trkpt lat="43.03" lon="-0.05755">
        <ele>596</ele>
        <time>2019-05-16T08:32:06Z</time>
      </trkpt>
      <trkpt lat="43.03002" lon="-0.05755">
        <ele>596.59997558594</ele>
        <time>2019-05-16T08:32:07Z</time>
      </trkpt>
      <trkpt lat="43.03003" lon="-0.05755">
        <ele>597</ele>
        <time>2019-05-16T08:32:08Z</time>
      </trkpt>
      <trkpt lat="43.03005" lon="-0.05755">
        <ele>597.40002441406</ele>
        <time>2019-05-16T08:32:09Z</time>
      </trkpt>
      <trkpt lat="43.03006" lon="-0.05755">
        <ele>597.40002441406</ele>
        <time>2019-05-16T08:32:10Z</time>
      </trkpt>
      <trkpt lat="43.03008" lon="-0.05756">
        <ele>597.79998779297</ele>
        <time>2019-05-16T08:32:12Z</time>
      </trkpt>
      <trkpt lat="43.03009" lon="-0.05756">
        <ele>598.20001220703</ele>
        <time>2019-05-16T08:32:13Z</time>
      </trkpt>
      <trkpt lat="43.0301" lon="-0.05756">
        <ele>598.59997558594</ele>
        <time>2019-05-16T08:32:14Z</time>
      </trkpt>
      <trkpt lat="43.03012" lon="-0.05757">
        <ele>599</ele>
        <time>2019-05-16T08:32:15Z</time>
      </trkpt>
      <trkpt lat="43.03013" lon="-0.05757">
        <ele>599.59997558594</ele>
        <time>2019-05-16T08:32:16Z</time>
      </trkpt>
      <trkpt lat="43.03014" lon="-0.05757">
        <ele>600</ele>
        <time>2019-05-16T08:32:17Z</time>
      </trkpt>
      <trkpt lat="43.03015" lon="-0.05758">
        <ele>600.40002441406</ele>
        <time>2019-05-16T08:32:18Z</time>
      </trkpt>
      <trkpt lat="43.03016" lon="-0.05758">
        <ele>600.79998779297</ele>
        <time>2019-05-16T08:32:19Z</time>
      </trkpt>
      <trkpt lat="43.03018" lon="-0.05759">
        <ele>601.40002441406</ele>
        <time>2019-05-16T08:32:20Z</time>
      </trkpt>
      <trkpt lat="43.0302" lon="-0.0576">
        <ele>601.79998779297</ele>
        <time>2019-05-16T08:32:21Z</time>
      </trkpt>
      <trkpt lat="43.03024" lon="-0.05761">
        <ele>601.79998779297</ele>
        <time>2019-05-16T08:32:24Z</time>
      </trkpt>
      <trkpt lat="43.03034" lon="-0.05763">
        <ele>601.79998779297</ele>
        <time>2019-05-16T08:32:30Z</time>
      </trkpt>
      <trkpt lat="43.03034" lon="-0.05763">
        <ele>601.79998779297</ele>
        <time>2019-05-16T08:32:41Z</time>
      </trkpt>
      <trkpt lat="43.03034" lon="-0.05763">
        <ele>601.79998779297</ele>
        <time>2019-05-16T08:32:51Z</time>
      </trkpt>
      <trkpt lat="43.03034" lon="-0.05763">
        <ele>601.79998779297</ele>
        <time>2019-05-16T08:33:06Z</time>
      </trkpt>
      <trkpt lat="43.03034" lon="-0.05763">
        <ele>601.79998779297</ele>
        <time>2019-05-16T08:33:20Z</time>
      </trkpt>
      <trkpt lat="43.03034" lon="-0.05763">
        <ele>601.79998779297</ele>
        <time>2019-05-16T08:33:35Z</time>
      </trkpt>
      <trkpt lat="43.03034" lon="-0.05763">
        <ele>601.79998779297</ele>
        <time>2019-05-16T08:33:47Z</time>
      </trkpt>
      <trkpt lat="43.03036" lon="-0.05763">
        <ele>601.79998779297</ele>
        <time>2019-05-16T08:34:04Z</time>
      </trkpt>
      <trkpt lat="43.03048" lon="-0.05766">
        <ele>601.79998779297</ele>
        <time>2019-05-16T08:34:09Z</time>
      </trkpt>
      <trkpt lat="43.03054" lon="-0.05768">
        <ele>601.79998779297</ele>
        <time>2019-05-16T08:34:11Z</time>
      </trkpt>
      <trkpt lat="43.03064" lon="-0.05772">
        <ele>601.79998779297</ele>
        <time>2019-05-16T08:34:14Z</time>
      </trkpt>
      <trkpt lat="43.03077" lon="-0.05775">
        <ele>601.79998779297</ele>
        <time>2019-05-16T08:34:18Z</time>
      </trkpt>
      <trkpt lat="43.03085" lon="-0.05777">
        <ele>601.79998779297</ele>
        <time>2019-05-16T08:34:23Z</time>
      </trkpt>
      <trkpt lat="43.0309" lon="-0.05778">
        <ele>601.79998779297</ele>
        <time>2019-05-16T08:34:31Z</time>
      </trkpt>
      <trkpt lat="43.03092" lon="-0.05779">
        <ele>601.79998779297</ele>
        <time>2019-05-16T08:34:38Z</time>
      </trkpt>
      <trkpt lat="43.03093" lon="-0.05779">
        <ele>601.79998779297</ele>
        <time>2019-05-16T08:34:39Z</time>
      </trkpt>
      <trkpt lat="43.03094" lon="-0.05779">
        <ele>601.79998779297</ele>
        <time>2019-05-16T08:34:42Z</time>
      </trkpt>
      <trkpt lat="43.03096" lon="-0.0578">
        <ele>601.79998779297</ele>
        <time>2019-05-16T08:34:50Z</time>
      </trkpt>
      <trkpt lat="43.031" lon="-0.05782">
        <ele>601.40002441406</ele>
        <time>2019-05-16T08:35:00Z</time>
      </trkpt>
      <trkpt lat="43.03101" lon="-0.05783">
        <ele>601</ele>
        <time>2019-05-16T08:35:01Z</time>
      </trkpt>
      <trkpt lat="43.03102" lon="-0.05784">
        <ele>600.40002441406</ele>
        <time>2019-05-16T08:35:02Z</time>
      </trkpt>
      <trkpt lat="43.03102" lon="-0.05784">
        <ele>600</ele>
        <time>2019-05-16T08:35:03Z</time>
      </trkpt>
      <trkpt lat="43.03102" lon="-0.05784">
        <ele>599.59997558594</ele>
        <time>2019-05-16T08:35:04Z</time>
      </trkpt>
      <trkpt lat="43.03103" lon="-0.05786">
        <ele>599.59997558594</ele>
        <time>2019-05-16T08:35:05Z</time>
      </trkpt>
      <trkpt lat="43.03104" lon="-0.05788">
        <ele>599.20001220703</ele>
        <time>2019-05-16T08:35:06Z</time>
      </trkpt>
      <trkpt lat="43.03105" lon="-0.0579">
        <ele>598.79998779297</ele>
        <time>2019-05-16T08:35:07Z</time>
      </trkpt>
      <trkpt lat="43.03107" lon="-0.05791">
        <ele>598</ele>
        <time>2019-05-16T08:35:08Z</time>
      </trkpt>
      <trkpt lat="43.03109" lon="-0.05793">
        <ele>597.59997558594</ele>
        <time>2019-05-16T08:35:09Z</time>
      </trkpt>
      <trkpt lat="43.03111" lon="-0.05793">
        <ele>597.20001220703</ele>
        <time>2019-05-16T08:35:10Z</time>
      </trkpt>
      <trkpt lat="43.03112" lon="-0.05794">
        <ele>596.59997558594</ele>
        <time>2019-05-16T08:35:11Z</time>
      </trkpt>
      <trkpt lat="43.03112" lon="-0.05794">
        <ele>596.20001220703</ele>
        <time>2019-05-16T08:35:12Z</time>
      </trkpt>
      <trkpt lat="43.03113" lon="-0.05794">
        <ele>595.79998779297</ele>
        <time>2019-05-16T08:35:13Z</time>
      </trkpt>
      <trkpt lat="43.03114" lon="-0.05795">
        <ele>595.40002441406</ele>
        <time>2019-05-16T08:35:14Z</time>
      </trkpt>
      <trkpt lat="43.03117" lon="-0.05794">
        <ele>595.40002441406</ele>
        <time>2019-05-16T08:35:17Z</time>
      </trkpt>
      <trkpt lat="43.0312" lon="-0.05792">
        <ele>595.40002441406</ele>
        <time>2019-05-16T08:35:23Z</time>
      </trkpt>
      <trkpt lat="43.03122" lon="-0.0579">
        <ele>595.40002441406</ele>
        <time>2019-05-16T08:35:29Z</time>
      </trkpt>
      <trkpt lat="43.03124" lon="-0.05788">
        <ele>595.40002441406</ele>
        <time>2019-05-16T08:35:33Z</time>
      </trkpt>
      <trkpt lat="43.0313" lon="-0.0578">
        <ele>595.40002441406</ele>
        <time>2019-05-16T08:35:39Z</time>
      </trkpt>
      <trkpt lat="43.03131" lon="-0.05779">
        <ele>595.40002441406</ele>
        <time>2019-05-16T08:35:40Z</time>
      </trkpt>
      <trkpt lat="43.03139" lon="-0.05777">
        <ele>595</ele>
        <time>2019-05-16T08:35:44Z</time>
      </trkpt>
      <trkpt lat="43.03141" lon="-0.05776">
        <ele>594.40002441406</ele>
        <time>2019-05-16T08:35:45Z</time>
      </trkpt>
      <trkpt lat="43.03142" lon="-0.05776">
        <ele>594</ele>
        <time>2019-05-16T08:35:46Z</time>
      </trkpt>
      <trkpt lat="43.03143" lon="-0.05775">
        <ele>593.59997558594</ele>
        <time>2019-05-16T08:35:47Z</time>
      </trkpt>
      <trkpt lat="43.03145" lon="-0.05774">
        <ele>593.20001220703</ele>
        <time>2019-05-16T08:35:48Z</time>
      </trkpt>
      <trkpt lat="43.03147" lon="-0.05773">
        <ele>593.20001220703</ele>
        <time>2019-05-16T08:35:49Z</time>
      </trkpt>
      <trkpt lat="43.0315" lon="-0.05772">
        <ele>593.20001220703</ele>
        <time>2019-05-16T08:35:56Z</time>
      </trkpt>
      <trkpt lat="43.03154" lon="-0.0577">
        <ele>593.20001220703</ele>
        <time>2019-05-16T08:36:02Z</time>
      </trkpt>
      <trkpt lat="43.03159" lon="-0.05767">
        <ele>593.20001220703</ele>
        <time>2019-05-16T08:36:10Z</time>
      </trkpt>
      <trkpt lat="43.03168" lon="-0.05759">
        <ele>593.20001220703</ele>
        <time>2019-05-16T08:36:16Z</time>
      </trkpt>
      <trkpt lat="43.03176" lon="-0.05752">
        <ele>593.20001220703</ele>
        <time>2019-05-16T08:36:21Z</time>
      </trkpt>
      <trkpt lat="43.03186" lon="-0.05743">
        <ele>593.20001220703</ele>
        <time>2019-05-16T08:36:25Z</time>
      </trkpt>
      <trkpt lat="43.03189" lon="-0.0574">
        <ele>592.79998779297</ele>
        <time>2019-05-16T08:36:26Z</time>
      </trkpt>
      <trkpt lat="43.03191" lon="-0.05738">
        <ele>592.40002441406</ele>
        <time>2019-05-16T08:36:27Z</time>
      </trkpt>
      <trkpt lat="43.03194" lon="-0.05737">
        <ele>592</ele>
        <time>2019-05-16T08:36:28Z</time>
      </trkpt>
      <trkpt lat="43.03197" lon="-0.05735">
        <ele>591.59997558594</ele>
        <time>2019-05-16T08:36:29Z</time>
      </trkpt>
      <trkpt lat="43.03199" lon="-0.05734">
        <ele>591</ele>
        <time>2019-05-16T08:36:30Z</time>
      </trkpt>
      <trkpt lat="43.03201" lon="-0.05733">
        <ele>591</ele>
        <time>2019-05-16T08:36:31Z</time>
      </trkpt>
      <trkpt lat="43.03209" lon="-0.05728">
        <ele>590.59997558594</ele>
        <time>2019-05-16T08:36:36Z</time>
      </trkpt>
      <trkpt lat="43.0321" lon="-0.05728">
        <ele>590.20001220703</ele>
        <time>2019-05-16T08:36:37Z</time>
      </trkpt>
      <trkpt lat="43.03211" lon="-0.05726">
        <ele>589.79998779297</ele>
        <time>2019-05-16T08:36:38Z</time>
      </trkpt>
      <trkpt lat="43.03212" lon="-0.05726">
        <ele>589.40002441406</ele>
        <time>2019-05-16T08:36:39Z</time>
      </trkpt>
      <trkpt lat="43.03212" lon="-0.05725">
        <ele>589</ele>
        <time>2019-05-16T08:36:40Z</time>
      </trkpt>
      <trkpt lat="43.03213" lon="-0.05724">
        <ele>589</ele>
        <time>2019-05-16T08:36:42Z</time>
      </trkpt>
      <trkpt lat="43.03216" lon="-0.05721">
        <ele>589</ele>
        <time>2019-05-16T08:36:48Z</time>
      </trkpt>
      <trkpt lat="43.03216" lon="-0.05721">
        <ele>589</ele>
        <time>2019-05-16T08:36:59Z</time>
      </trkpt>
      <trkpt lat="43.0322" lon="-0.0572">
        <ele>589</ele>
        <time>2019-05-16T08:37:02Z</time>
      </trkpt>
      <trkpt lat="43.03222" lon="-0.0572">
        <ele>589</ele>
        <time>2019-05-16T08:37:03Z</time>
      </trkpt>
      <trkpt lat="43.03228" lon="-0.05715">
        <ele>589</ele>
        <time>2019-05-16T08:37:08Z</time>
      </trkpt>
      <trkpt lat="43.03228" lon="-0.05715">
        <ele>588.59997558594</ele>
        <time>2019-05-16T08:37:09Z</time>
      </trkpt>
      <trkpt lat="43.03229" lon="-0.05714">
        <ele>588.20001220703</ele>
        <time>2019-05-16T08:37:10Z</time>
      </trkpt>
      <trkpt lat="43.0323" lon="-0.05714">
        <ele>587.40002441406</ele>
        <time>2019-05-16T08:37:11Z</time>
      </trkpt>
      <trkpt lat="43.0323" lon="-0.05713">
        <ele>587</ele>
        <time>2019-05-16T08:37:12Z</time>
      </trkpt>
      <trkpt lat="43.03231" lon="-0.05713">
        <ele>587</ele>
        <time>2019-05-16T08:37:13Z</time>
      </trkpt>
      <trkpt lat="43.03233" lon="-0.05711">
        <ele>587</ele>
        <time>2019-05-16T08:37:17Z</time>
      </trkpt>
      <trkpt lat="43.03242" lon="-0.05708">
        <ele>587</ele>
        <time>2019-05-16T08:37:24Z</time>
      </trkpt>
      <trkpt lat="43.03252" lon="-0.05707">
        <ele>587</ele>
        <time>2019-05-16T08:37:31Z</time>
      </trkpt>
      <trkpt lat="43.03258" lon="-0.05704">
        <ele>587</ele>
        <time>2019-05-16T08:37:38Z</time>
      </trkpt>
      <trkpt lat="43.03259" lon="-0.05704">
        <ele>587</ele>
        <time>2019-05-16T08:37:45Z</time>
      </trkpt>
      <trkpt lat="43.0327" lon="-0.05707">
        <ele>587</ele>
        <time>2019-05-16T08:37:51Z</time>
      </trkpt>
      <trkpt lat="43.03284" lon="-0.05713">
        <ele>586.40002441406</ele>
        <time>2019-05-16T08:37:57Z</time>
      </trkpt>
      <trkpt lat="43.03286" lon="-0.05714">
        <ele>586</ele>
        <time>2019-05-16T08:37:58Z</time>
      </trkpt>
      <trkpt lat="43.03287" lon="-0.05714">
        <ele>585.59997558594</ele>
        <time>2019-05-16T08:37:59Z</time>
      </trkpt>
      <trkpt lat="43.03289" lon="-0.05714">
        <ele>584.79998779297</ele>
        <time>2019-05-16T08:38:00Z</time>
      </trkpt>
      <trkpt lat="43.03289" lon="-0.05714">
        <ele>584.79998779297</ele>
        <time>2019-05-16T08:38:05Z</time>
      </trkpt>
      <trkpt lat="43.03289" lon="-0.05714">
        <ele>584.79998779297</ele>
        <time>2019-05-16T08:38:20Z</time>
      </trkpt>
      <trkpt lat="43.03294" lon="-0.05719">
        <ele>583.79998779297</ele>
        <time>2019-05-16T08:38:25Z</time>
      </trkpt>
      <trkpt lat="43.03296" lon="-0.0572">
        <ele>583.40002441406</ele>
        <time>2019-05-16T08:38:26Z</time>
      </trkpt>
      <trkpt lat="43.03296" lon="-0.05721">
        <ele>583</ele>
        <time>2019-05-16T08:38:27Z</time>
      </trkpt>
      <trkpt lat="43.03297" lon="-0.05722">
        <ele>582.59997558594</ele>
        <time>2019-05-16T08:38:28Z</time>
      </trkpt>
      <trkpt lat="43.03299" lon="-0.05722">
        <ele>582.59997558594</ele>
        <time>2019-05-16T08:38:30Z</time>
      </trkpt>
      <trkpt lat="43.033" lon="-0.05723">
        <ele>582.59997558594</ele>
        <time>2019-05-16T08:38:36Z</time>
      </trkpt>
      <trkpt lat="43.033" lon="-0.05723">
        <ele>582.20001220703</ele>
        <time>2019-05-16T08:38:37Z</time>
      </trkpt>
      <trkpt lat="43.03301" lon="-0.05724">
        <ele>581.59997558594</ele>
        <time>2019-05-16T08:38:38Z</time>
      </trkpt>
      <trkpt lat="43.03301" lon="-0.05724">
        <ele>581.20001220703</ele>
        <time>2019-05-16T08:38:39Z</time>
      </trkpt>
      <trkpt lat="43.03303" lon="-0.05725">
        <ele>580.79998779297</ele>
        <time>2019-05-16T08:38:40Z</time>
      </trkpt>
      <trkpt lat="43.03304" lon="-0.05726">
        <ele>580.40002441406</ele>
        <time>2019-05-16T08:38:41Z</time>
      </trkpt>
      <trkpt lat="43.03311" lon="-0.05733">
        <ele>580.40002441406</ele>
        <time>2019-05-16T08:38:44Z</time>
      </trkpt>
      <trkpt lat="43.03316" lon="-0.0574">
        <ele>580</ele>
        <time>2019-05-16T08:38:46Z</time>
      </trkpt>
      <trkpt lat="43.03317" lon="-0.05744">
        <ele>579.59997558594</ele>
        <time>2019-05-16T08:38:47Z</time>
      </trkpt>
      <trkpt lat="43.03321" lon="-0.05749">
        <ele>579</ele>
        <time>2019-05-16T08:38:48Z</time>
      </trkpt>
      <trkpt lat="43.03325" lon="-0.05755">
        <ele>578.59997558594</ele>
        <time>2019-05-16T08:38:49Z</time>
      </trkpt>
      <trkpt lat="43.03328" lon="-0.0576">
        <ele>577.59997558594</ele>
        <time>2019-05-16T08:38:50Z</time>
      </trkpt>
      <trkpt lat="43.0333" lon="-0.05763">
        <ele>577.20001220703</ele>
        <time>2019-05-16T08:38:51Z</time>
      </trkpt>
      <trkpt lat="43.03332" lon="-0.05768">
        <ele>576.59997558594</ele>
        <time>2019-05-16T08:38:52Z</time>
      </trkpt>
      <trkpt lat="43.03333" lon="-0.05772">
        <ele>576</ele>
        <time>2019-05-16T08:38:53Z</time>
      </trkpt>
      <trkpt lat="43.03334" lon="-0.05775">
        <ele>576</ele>
        <time>2019-05-16T08:38:56Z</time>
      </trkpt>
      <trkpt lat="43.0334" lon="-0.05783">
        <ele>576</ele>
        <time>2019-05-16T08:39:03Z</time>
      </trkpt>
      <trkpt lat="43.03341" lon="-0.05784">
        <ele>576</ele>
        <time>2019-05-16T08:39:11Z</time>
      </trkpt>
      <trkpt lat="43.03342" lon="-0.05786">
        <ele>576</ele>
        <time>2019-05-16T08:39:18Z</time>
      </trkpt>
      <trkpt lat="43.03343" lon="-0.05789">
        <ele>576</ele>
        <time>2019-05-16T08:39:23Z</time>
      </trkpt>
      <trkpt lat="43.03347" lon="-0.05798">
        <ele>576</ele>
        <time>2019-05-16T08:39:29Z</time>
      </trkpt>
      <trkpt lat="43.03349" lon="-0.05804">
        <ele>576</ele>
        <time>2019-05-16T08:39:35Z</time>
      </trkpt>
      <trkpt lat="43.03349" lon="-0.05805">
        <ele>576</ele>
        <time>2019-05-16T08:39:41Z</time>
      </trkpt>
      <trkpt lat="43.03348" lon="-0.05806">
        <ele>576</ele>
        <time>2019-05-16T08:39:51Z</time>
      </trkpt>
      <trkpt lat="43.03348" lon="-0.05816">
        <ele>576</ele>
        <time>2019-05-16T08:39:58Z</time>
      </trkpt>
      <trkpt lat="43.03347" lon="-0.05818">
        <ele>576</ele>
        <time>2019-05-16T08:40:04Z</time>
      </trkpt>
      <trkpt lat="43.03347" lon="-0.05818">
        <ele>576</ele>
        <time>2019-05-16T08:40:15Z</time>
      </trkpt>
      <trkpt lat="43.03347" lon="-0.05818">
        <ele>576</ele>
        <time>2019-05-16T08:40:28Z</time>
      </trkpt>
      <trkpt lat="43.03347" lon="-0.05818">
        <ele>576</ele>
        <time>2019-05-16T08:40:39Z</time>
      </trkpt>
      <trkpt lat="43.03347" lon="-0.05818">
        <ele>576</ele>
        <time>2019-05-16T08:40:50Z</time>
      </trkpt>
      <trkpt lat="43.03347" lon="-0.05818">
        <ele>576</ele>
        <time>2019-05-16T08:41:04Z</time>
      </trkpt>
      <trkpt lat="43.03347" lon="-0.05818">
        <ele>576</ele>
        <time>2019-05-16T08:41:19Z</time>
      </trkpt>
      <trkpt lat="43.03347" lon="-0.05818">
        <ele>576</ele>
        <time>2019-05-16T08:41:36Z</time>
      </trkpt>
      <trkpt lat="43.03347" lon="-0.05818">
        <ele>576</ele>
        <time>2019-05-16T08:41:48Z</time>
      </trkpt>
      <trkpt lat="43.03345" lon="-0.05828">
        <ele>576</ele>
        <time>2019-05-16T08:41:54Z</time>
      </trkpt>
      <trkpt lat="43.03343" lon="-0.05841">
        <ele>576</ele>
        <time>2019-05-16T08:42:00Z</time>
      </trkpt>
      <trkpt lat="43.03338" lon="-0.05855">
        <ele>575.20001220703</ele>
        <time>2019-05-16T08:42:07Z</time>
      </trkpt>
      <trkpt lat="43.03337" lon="-0.05857">
        <ele>574.79998779297</ele>
        <time>2019-05-16T08:42:08Z</time>
      </trkpt>
      <trkpt lat="43.03335" lon="-0.0586">
        <ele>574.20001220703</ele>
        <time>2019-05-16T08:42:09Z</time>
      </trkpt>
      <trkpt lat="43.03333" lon="-0.05863">
        <ele>573.59997558594</ele>
        <time>2019-05-16T08:42:10Z</time>
      </trkpt>
      <trkpt lat="43.03332" lon="-0.05865">
        <ele>573</ele>
        <time>2019-05-16T08:42:11Z</time>
      </trkpt>
      <trkpt lat="43.0333" lon="-0.05868">
        <ele>572.40002441406</ele>
        <time>2019-05-16T08:42:12Z</time>
      </trkpt>
      <trkpt lat="43.03329" lon="-0.05871">
        <ele>571.59997558594</ele>
        <time>2019-05-16T08:42:13Z</time>
      </trkpt>
      <trkpt lat="43.03329" lon="-0.05873">
        <ele>571</ele>
        <time>2019-05-16T08:42:14Z</time>
      </trkpt>
      <trkpt lat="43.0333" lon="-0.05876">
        <ele>570.20001220703</ele>
        <time>2019-05-16T08:42:15Z</time>
      </trkpt>
      <trkpt lat="43.03331" lon="-0.05878">
        <ele>569.59997558594</ele>
        <time>2019-05-16T08:42:16Z</time>
      </trkpt>
      <trkpt lat="43.03333" lon="-0.0588">
        <ele>569</ele>
        <time>2019-05-16T08:42:17Z</time>
      </trkpt>
      <trkpt lat="43.03335" lon="-0.05882">
        <ele>568.40002441406</ele>
        <time>2019-05-16T08:42:18Z</time>
      </trkpt>
      <trkpt lat="43.03338" lon="-0.05885">
        <ele>567.59997558594</ele>
        <time>2019-05-16T08:42:19Z</time>
      </trkpt>
      <trkpt lat="43.03343" lon="-0.05887">
        <ele>567</ele>
        <time>2019-05-16T08:42:20Z</time>
      </trkpt>
      <trkpt lat="43.03359" lon="-0.05889">
        <ele>564</ele>
        <time>2019-05-16T08:42:21Z</time>
      </trkpt>
      <trkpt lat="43.03359" lon="-0.05889">
        <ele>564</ele>
        <time>2019-05-16T08:42:24Z</time>
      </trkpt>
      <trkpt lat="43.03365" lon="-0.05887">
        <ele>562.79998779297</ele>
        <time>2019-05-16T08:42:25Z</time>
      </trkpt>
      <trkpt lat="43.0337" lon="-0.05887">
        <ele>561.79998779297</ele>
        <time>2019-05-16T08:42:26Z</time>
      </trkpt>
      <trkpt lat="43.03375" lon="-0.05885">
        <ele>560.59997558594</ele>
        <time>2019-05-16T08:42:27Z</time>
      </trkpt>
      <trkpt lat="43.0338" lon="-0.05883">
        <ele>559.40002441406</ele>
        <time>2019-05-16T08:42:28Z</time>
      </trkpt>
      <trkpt lat="43.03384" lon="-0.0588">
        <ele>558.40002441406</ele>
        <time>2019-05-16T08:42:29Z</time>
      </trkpt>
      <trkpt lat="43.03386" lon="-0.05878">
        <ele>557.59997558594</ele>
        <time>2019-05-16T08:42:30Z</time>
      </trkpt>
      <trkpt lat="43.03387" lon="-0.05876">
        <ele>556.79998779297</ele>
        <time>2019-05-16T08:42:31Z</time>
      </trkpt>
      <trkpt lat="43.03388" lon="-0.05873">
        <ele>555.79998779297</ele>
        <time>2019-05-16T08:42:32Z</time>
      </trkpt>
      <trkpt lat="43.03389" lon="-0.05872">
        <ele>555</ele>
        <time>2019-05-16T08:42:33Z</time>
      </trkpt>
      <trkpt lat="43.0339" lon="-0.05871">
        <ele>555</ele>
        <time>2019-05-16T08:42:35Z</time>
      </trkpt>
      <trkpt lat="43.0339" lon="-0.05871">
        <ele>555</ele>
        <time>2019-05-16T08:42:45Z</time>
      </trkpt>
      <trkpt lat="43.0339" lon="-0.05871">
        <ele>555</ele>
        <time>2019-05-16T08:42:54Z</time>
      </trkpt>
      <trkpt lat="43.0339" lon="-0.05871">
        <ele>555</ele>
        <time>2019-05-16T08:43:07Z</time>
      </trkpt>
      <trkpt lat="43.0339" lon="-0.05871">
        <ele>555</ele>
        <time>2019-05-16T08:43:21Z</time>
      </trkpt>
      <trkpt lat="43.0339" lon="-0.05871">
        <ele>555</ele>
        <time>2019-05-16T08:43:36Z</time>
      </trkpt>
      <trkpt lat="43.0339" lon="-0.05871">
        <ele>555</ele>
        <time>2019-05-16T08:43:50Z</time>
      </trkpt>
      <trkpt lat="43.03393" lon="-0.05867">
        <ele>555</ele>
        <time>2019-05-16T08:43:58Z</time>
      </trkpt>
      <trkpt lat="43.034" lon="-0.05856">
        <ele>555</ele>
        <time>2019-05-16T08:44:02Z</time>
      </trkpt>
      <trkpt lat="43.03402" lon="-0.0585">
        <ele>554.40002441406</ele>
        <time>2019-05-16T08:44:04Z</time>
      </trkpt>
      <trkpt lat="43.03404" lon="-0.05845">
        <ele>553.59997558594</ele>
        <time>2019-05-16T08:44:05Z</time>
      </trkpt>
      <trkpt lat="43.03407" lon="-0.05841">
        <ele>552.79998779297</ele>
        <time>2019-05-16T08:44:06Z</time>
      </trkpt>
      <trkpt lat="43.03408" lon="-0.05837">
        <ele>551.79998779297</ele>
        <time>2019-05-16T08:44:07Z</time>
      </trkpt>
      <trkpt lat="43.0341" lon="-0.05833">
        <ele>551</ele>
        <time>2019-05-16T08:44:08Z</time>
      </trkpt>
      <trkpt lat="43.03412" lon="-0.05829">
        <ele>550</ele>
        <time>2019-05-16T08:44:09Z</time>
      </trkpt>
      <trkpt lat="43.03414" lon="-0.05826">
        <ele>549</ele>
        <time>2019-05-16T08:44:10Z</time>
      </trkpt>
      <trkpt lat="43.03416" lon="-0.05823">
        <ele>548.20001220703</ele>
        <time>2019-05-16T08:44:11Z</time>
      </trkpt>
      <trkpt lat="43.03417" lon="-0.05819">
        <ele>546.59997558594</ele>
        <time>2019-05-16T08:44:12Z</time>
      </trkpt>
      <trkpt lat="43.03418" lon="-0.05817">
        <ele>546</ele>
        <time>2019-05-16T08:44:13Z</time>
      </trkpt>
      <trkpt lat="43.03419" lon="-0.05813">
        <ele>545.20001220703</ele>
        <time>2019-05-16T08:44:14Z</time>
      </trkpt>
      <trkpt lat="43.03422" lon="-0.05807">
        <ele>544.59997558594</ele>
        <time>2019-05-16T08:44:15Z</time>
      </trkpt>
      <trkpt lat="43.03424" lon="-0.05802">
        <ele>544.20001220703</ele>
        <time>2019-05-16T08:44:16Z</time>
      </trkpt>
      <trkpt lat="43.03425" lon="-0.05796">
        <ele>543.40002441406</ele>
        <time>2019-05-16T08:44:17Z</time>
      </trkpt>
      <trkpt lat="43.03428" lon="-0.0579">
        <ele>542.79998779297</ele>
        <time>2019-05-16T08:44:18Z</time>
      </trkpt>
      <trkpt lat="43.03431" lon="-0.05785">
        <ele>541.79998779297</ele>
        <time>2019-05-16T08:44:19Z</time>
      </trkpt>
      <trkpt lat="43.03434" lon="-0.0578">
        <ele>541</ele>
        <time>2019-05-16T08:44:20Z</time>
      </trkpt>
      <trkpt lat="43.03437" lon="-0.05776">
        <ele>540</ele>
        <time>2019-05-16T08:44:21Z</time>
      </trkpt>
      <trkpt lat="43.0344" lon="-0.05771">
        <ele>539</ele>
        <time>2019-05-16T08:44:22Z</time>
      </trkpt>
      <trkpt lat="43.03443" lon="-0.05766">
        <ele>538</ele>
        <time>2019-05-16T08:44:23Z</time>
      </trkpt>
      <trkpt lat="43.03446" lon="-0.05761">
        <ele>537.20001220703</ele>
        <time>2019-05-16T08:44:24Z</time>
      </trkpt>
      <trkpt lat="43.03449" lon="-0.05757">
        <ele>536.20001220703</ele>
        <time>2019-05-16T08:44:25Z</time>
      </trkpt>
      <trkpt lat="43.03453" lon="-0.0575">
        <ele>535.79998779297</ele>
        <time>2019-05-16T08:44:27Z</time>
      </trkpt>
      <trkpt lat="43.03455" lon="-0.05747">
        <ele>535.20001220703</ele>
        <time>2019-05-16T08:44:28Z</time>
      </trkpt>
      <trkpt lat="43.03456" lon="-0.05744">
        <ele>534.79998779297</ele>
        <time>2019-05-16T08:44:29Z</time>
      </trkpt>
      <trkpt lat="43.03459" lon="-0.05742">
        <ele>534.40002441406</ele>
        <time>2019-05-16T08:44:30Z</time>
      </trkpt>
      <trkpt lat="43.03462" lon="-0.05739">
        <ele>534</ele>
        <time>2019-05-16T08:44:31Z</time>
      </trkpt>
      <trkpt lat="43.03465" lon="-0.05736">
        <ele>533.40002441406</ele>
        <time>2019-05-16T08:44:32Z</time>
      </trkpt>
      <trkpt lat="43.03467" lon="-0.05733">
        <ele>532.79998779297</ele>
        <time>2019-05-16T08:44:33Z</time>
      </trkpt>
      <trkpt lat="43.0347" lon="-0.05729">
        <ele>532.20001220703</ele>
        <time>2019-05-16T08:44:34Z</time>
      </trkpt>
      <trkpt lat="43.03473" lon="-0.05726">
        <ele>531.59997558594</ele>
        <time>2019-05-16T08:44:35Z</time>
      </trkpt>
      <trkpt lat="43.03476" lon="-0.05722">
        <ele>530.79998779297</ele>
        <time>2019-05-16T08:44:36Z</time>
      </trkpt>
      <trkpt lat="43.03479" lon="-0.05718">
        <ele>529.20001220703</ele>
        <time>2019-05-16T08:44:37Z</time>
      </trkpt>
      <trkpt lat="43.03482" lon="-0.05711">
        <ele>528.20001220703</ele>
        <time>2019-05-16T08:44:38Z</time>
      </trkpt>
      <trkpt lat="43.03486" lon="-0.05703">
        <ele>527.20001220703</ele>
        <time>2019-05-16T08:44:39Z</time>
      </trkpt>
      <trkpt lat="43.0349" lon="-0.05694">
        <ele>526.20001220703</ele>
        <time>2019-05-16T08:44:40Z</time>
      </trkpt>
      <trkpt lat="43.03494" lon="-0.05686">
        <ele>525.20001220703</ele>
        <time>2019-05-16T08:44:41Z</time>
      </trkpt>
      <trkpt lat="43.03498" lon="-0.05681">
        <ele>524.20001220703</ele>
        <time>2019-05-16T08:44:42Z</time>
      </trkpt>
      <trkpt lat="43.03502" lon="-0.05676">
        <ele>523.20001220703</ele>
        <time>2019-05-16T08:44:43Z</time>
      </trkpt>
      <trkpt lat="43.03507" lon="-0.05672">
        <ele>522.20001220703</ele>
        <time>2019-05-16T08:44:44Z</time>
      </trkpt>
      <trkpt lat="43.03512" lon="-0.05667">
        <ele>521</ele>
        <time>2019-05-16T08:44:45Z</time>
      </trkpt>
      <trkpt lat="43.03518" lon="-0.05661">
        <ele>519.79998779297</ele>
        <time>2019-05-16T08:44:46Z</time>
      </trkpt>
      <trkpt lat="43.03525" lon="-0.05655">
        <ele>518.59997558594</ele>
        <time>2019-05-16T08:44:47Z</time>
      </trkpt>
      <trkpt lat="43.03531" lon="-0.05649">
        <ele>517.40002441406</ele>
        <time>2019-05-16T08:44:48Z</time>
      </trkpt>
      <trkpt lat="43.03537" lon="-0.05643">
        <ele>516.20001220703</ele>
        <time>2019-05-16T08:44:49Z</time>
      </trkpt>
      <trkpt lat="43.03542" lon="-0.05637">
        <ele>515</ele>
        <time>2019-05-16T08:44:50Z</time>
      </trkpt>
      <trkpt lat="43.03548" lon="-0.05631">
        <ele>513.79998779297</ele>
        <time>2019-05-16T08:44:51Z</time>
      </trkpt>
      <trkpt lat="43.03554" lon="-0.05625">
        <ele>512.59997558594</ele>
        <time>2019-05-16T08:44:52Z</time>
      </trkpt>
      <trkpt lat="43.03561" lon="-0.05619">
        <ele>511.39999389648</ele>
        <time>2019-05-16T08:44:53Z</time>
      </trkpt>
      <trkpt lat="43.03568" lon="-0.05612">
        <ele>510.20001220703</ele>
        <time>2019-05-16T08:44:54Z</time>
      </trkpt>
      <trkpt lat="43.03575" lon="-0.05606">
        <ele>508.79998779297</ele>
        <time>2019-05-16T08:44:55Z</time>
      </trkpt>
      <trkpt lat="43.03582" lon="-0.05601">
        <ele>507.20001220703</ele>
        <time>2019-05-16T08:44:56Z</time>
      </trkpt>
      <trkpt lat="43.03588" lon="-0.05595">
        <ele>505.79998779297</ele>
        <time>2019-05-16T08:44:57Z</time>
      </trkpt>
      <trkpt lat="43.03594" lon="-0.0559">
        <ele>504.39999389648</ele>
        <time>2019-05-16T08:44:58Z</time>
      </trkpt>
      <trkpt lat="43.036" lon="-0.05584">
        <ele>503</ele>
        <time>2019-05-16T08:44:59Z</time>
      </trkpt>
      <trkpt lat="43.03605" lon="-0.05579">
        <ele>501.79998779297</ele>
        <time>2019-05-16T08:45:00Z</time>
      </trkpt>
      <trkpt lat="43.0361" lon="-0.05575">
        <ele>500.60000610352</ele>
        <time>2019-05-16T08:45:01Z</time>
      </trkpt>
      <trkpt lat="43.03616" lon="-0.0557">
        <ele>498.20001220703</ele>
        <time>2019-05-16T08:45:02Z</time>
      </trkpt>
      <trkpt lat="43.03621" lon="-0.05565">
        <ele>496.79998779297</ele>
        <time>2019-05-16T08:45:03Z</time>
      </trkpt>
      <trkpt lat="43.03625" lon="-0.0556">
        <ele>495.39999389648</ele>
        <time>2019-05-16T08:45:04Z</time>
      </trkpt>
      <trkpt lat="43.0363" lon="-0.05552">
        <ele>493.79998779297</ele>
        <time>2019-05-16T08:45:05Z</time>
      </trkpt>
      <trkpt lat="43.03635" lon="-0.05544">
        <ele>492.20001220703</ele>
        <time>2019-05-16T08:45:06Z</time>
      </trkpt>
      <trkpt lat="43.03639" lon="-0.05536">
        <ele>490.60000610352</ele>
        <time>2019-05-16T08:45:07Z</time>
      </trkpt>
      <trkpt lat="43.03645" lon="-0.05528">
        <ele>489</ele>
        <time>2019-05-16T08:45:08Z</time>
      </trkpt>
      <trkpt lat="43.0365" lon="-0.0552">
        <ele>487.60000610352</ele>
        <time>2019-05-16T08:45:09Z</time>
      </trkpt>
      <trkpt lat="43.03655" lon="-0.05513">
        <ele>486</ele>
        <time>2019-05-16T08:45:10Z</time>
      </trkpt>
      <trkpt lat="43.0366" lon="-0.05505">
        <ele>484.60000610352</ele>
        <time>2019-05-16T08:45:11Z</time>
      </trkpt>
      <trkpt lat="43.03665" lon="-0.05498">
        <ele>483.20001220703</ele>
        <time>2019-05-16T08:45:12Z</time>
      </trkpt>
      <trkpt lat="43.0367" lon="-0.05491">
        <ele>482.39999389648</ele>
        <time>2019-05-16T08:45:13Z</time>
      </trkpt>
      <trkpt lat="43.03674" lon="-0.05482">
        <ele>481.79998779297</ele>
        <time>2019-05-16T08:45:14Z</time>
      </trkpt>
      <trkpt lat="43.03679" lon="-0.05475">
        <ele>481</ele>
        <time>2019-05-16T08:45:15Z</time>
      </trkpt>
      <trkpt lat="43.03684" lon="-0.05467">
        <ele>480.20001220703</ele>
        <time>2019-05-16T08:45:16Z</time>
      </trkpt>
      <trkpt lat="43.03688" lon="-0.05459">
        <ele>479.39999389648</ele>
        <time>2019-05-16T08:45:17Z</time>
      </trkpt>
      <trkpt lat="43.03694" lon="-0.05451">
        <ele>478.39999389648</ele>
        <time>2019-05-16T08:45:18Z</time>
      </trkpt>
      <trkpt lat="43.037" lon="-0.05442">
        <ele>477.39999389648</ele>
        <time>2019-05-16T08:45:19Z</time>
      </trkpt>
      <trkpt lat="43.03706" lon="-0.05434">
        <ele>476.60000610352</ele>
        <time>2019-05-16T08:45:20Z</time>
      </trkpt>
      <trkpt lat="43.03711" lon="-0.05425">
        <ele>475.60000610352</ele>
        <time>2019-05-16T08:45:21Z</time>
      </trkpt>
      <trkpt lat="43.03717" lon="-0.05417">
        <ele>474.79998779297</ele>
        <time>2019-05-16T08:45:22Z</time>
      </trkpt>
      <trkpt lat="43.03722" lon="-0.05409">
        <ele>474</ele>
        <time>2019-05-16T08:45:23Z</time>
      </trkpt>
      <trkpt lat="43.03727" lon="-0.05399">
        <ele>473.20001220703</ele>
        <time>2019-05-16T08:45:24Z</time>
      </trkpt>
      <trkpt lat="43.03732" lon="-0.05391">
        <ele>472.39999389648</ele>
        <time>2019-05-16T08:45:25Z</time>
      </trkpt>
      <trkpt lat="43.03737" lon="-0.05384">
        <ele>472.39999389648</ele>
        <time>2019-05-16T08:45:26Z</time>
      </trkpt>
      <trkpt lat="43.03742" lon="-0.05377">
        <ele>471.39999389648</ele>
        <time>2019-05-16T08:45:27Z</time>
      </trkpt>
      <trkpt lat="43.03746" lon="-0.0537">
        <ele>471</ele>
        <time>2019-05-16T08:45:28Z</time>
      </trkpt>
      <trkpt lat="43.03751" lon="-0.05364">
        <ele>470.60000610352</ele>
        <time>2019-05-16T08:45:29Z</time>
      </trkpt>
      <trkpt lat="43.03756" lon="-0.05357">
        <ele>470</ele>
        <time>2019-05-16T08:45:30Z</time>
      </trkpt>
      <trkpt lat="43.03761" lon="-0.05351">
        <ele>469.60000610352</ele>
        <time>2019-05-16T08:45:31Z</time>
      </trkpt>
      <trkpt lat="43.03765" lon="-0.05346">
        <ele>469</ele>
        <time>2019-05-16T08:45:32Z</time>
      </trkpt>
      <trkpt lat="43.03768" lon="-0.05341">
        <ele>468.20001220703</ele>
        <time>2019-05-16T08:45:33Z</time>
      </trkpt>
      <trkpt lat="43.03772" lon="-0.05336">
        <ele>467.60000610352</ele>
        <time>2019-05-16T08:45:34Z</time>
      </trkpt>
      <trkpt lat="43.03776" lon="-0.0533">
        <ele>466.60000610352</ele>
        <time>2019-05-16T08:45:35Z</time>
      </trkpt>
      <trkpt lat="43.03781" lon="-0.05324">
        <ele>465.60000610352</ele>
        <time>2019-05-16T08:45:36Z</time>
      </trkpt>
      <trkpt lat="43.03786" lon="-0.05318">
        <ele>464.39999389648</ele>
        <time>2019-05-16T08:45:37Z</time>
      </trkpt>
      <trkpt lat="43.03792" lon="-0.05311">
        <ele>463.39999389648</ele>
        <time>2019-05-16T08:45:38Z</time>
      </trkpt>
      <trkpt lat="43.03799" lon="-0.05303">
        <ele>462.20001220703</ele>
        <time>2019-05-16T08:45:39Z</time>
      </trkpt>
      <trkpt lat="43.03806" lon="-0.05296">
        <ele>461.20001220703</ele>
        <time>2019-05-16T08:45:40Z</time>
      </trkpt>
      <trkpt lat="43.03812" lon="-0.05289">
        <ele>460</ele>
        <time>2019-05-16T08:45:41Z</time>
      </trkpt>
      <trkpt lat="43.03817" lon="-0.05283">
        <ele>459</ele>
        <time>2019-05-16T08:45:42Z</time>
      </trkpt>
      <trkpt lat="43.03822" lon="-0.05276">
        <ele>457.79998779297</ele>
        <time>2019-05-16T08:45:43Z</time>
      </trkpt>
      <trkpt lat="43.03826" lon="-0.05269">
        <ele>456.60000610352</ele>
        <time>2019-05-16T08:45:44Z</time>
      </trkpt>
      <trkpt lat="43.0383" lon="-0.05261">
        <ele>455.39999389648</ele>
        <time>2019-05-16T08:45:45Z</time>
      </trkpt>
      <trkpt lat="43.03835" lon="-0.05253">
        <ele>454.20001220703</ele>
        <time>2019-05-16T08:45:46Z</time>
      </trkpt>
      <trkpt lat="43.03839" lon="-0.05246">
        <ele>452.79998779297</ele>
        <time>2019-05-16T08:45:47Z</time>
      </trkpt>
      <trkpt lat="43.03843" lon="-0.05237">
        <ele>451.39999389648</ele>
        <time>2019-05-16T08:45:48Z</time>
      </trkpt>
      <trkpt lat="43.03847" lon="-0.05228">
        <ele>450.20001220703</ele>
        <time>2019-05-16T08:45:49Z</time>
      </trkpt>
      <trkpt lat="43.03851" lon="-0.0522">
        <ele>448.79998779297</ele>
        <time>2019-05-16T08:45:50Z</time>
      </trkpt>
      <trkpt lat="43.03855" lon="-0.05213">
        <ele>447.39999389648</ele>
        <time>2019-05-16T08:45:51Z</time>
      </trkpt>
      <trkpt lat="43.03859" lon="-0.05208">
        <ele>445.39999389648</ele>
        <time>2019-05-16T08:45:52Z</time>
      </trkpt>
      <trkpt lat="43.03862" lon="-0.05203">
        <ele>444.79998779297</ele>
        <time>2019-05-16T08:45:53Z</time>
      </trkpt>
      <trkpt lat="43.03866" lon="-0.05199">
        <ele>444</ele>
        <time>2019-05-16T08:45:54Z</time>
      </trkpt>
      <trkpt lat="43.03869" lon="-0.05195">
        <ele>443.20001220703</ele>
        <time>2019-05-16T08:45:55Z</time>
      </trkpt>
      <trkpt lat="43.03873" lon="-0.05191">
        <ele>442.60000610352</ele>
        <time>2019-05-16T08:45:56Z</time>
      </trkpt>
      <trkpt lat="43.03877" lon="-0.05186">
        <ele>441.60000610352</ele>
        <time>2019-05-16T08:45:57Z</time>
      </trkpt>
      <trkpt lat="43.03882" lon="-0.05181">
        <ele>440.79998779297</ele>
        <time>2019-05-16T08:45:58Z</time>
      </trkpt>
      <trkpt lat="43.03885" lon="-0.05175">
        <ele>439.60000610352</ele>
        <time>2019-05-16T08:45:59Z</time>
      </trkpt>
      <trkpt lat="43.0389" lon="-0.05168">
        <ele>438.39999389648</ele>
        <time>2019-05-16T08:46:00Z</time>
      </trkpt>
      <trkpt lat="43.03895" lon="-0.0516">
        <ele>437.20001220703</ele>
        <time>2019-05-16T08:46:01Z</time>
      </trkpt>
      <trkpt lat="43.03901" lon="-0.0515">
        <ele>436</ele>
        <time>2019-05-16T08:46:02Z</time>
      </trkpt>
      <trkpt lat="43.03906" lon="-0.0514">
        <ele>434.79998779297</ele>
        <time>2019-05-16T08:46:03Z</time>
      </trkpt>
      <trkpt lat="43.03911" lon="-0.05128">
        <ele>433.39999389648</ele>
        <time>2019-05-16T08:46:04Z</time>
      </trkpt>
      <trkpt lat="43.03913" lon="-0.05116">
        <ele>432.79998779297</ele>
        <time>2019-05-16T08:46:05Z</time>
      </trkpt>
      <trkpt lat="43.03916" lon="-0.05104">
        <ele>432.20001220703</ele>
        <time>2019-05-16T08:46:06Z</time>
      </trkpt>
      <trkpt lat="43.03918" lon="-0.05092">
        <ele>431.39999389648</ele>
        <time>2019-05-16T08:46:07Z</time>
      </trkpt>
      <trkpt lat="43.03919" lon="-0.05079">
        <ele>430.79998779297</ele>
        <time>2019-05-16T08:46:08Z</time>
      </trkpt>
      <trkpt lat="43.0392" lon="-0.05066">
        <ele>430</ele>
        <time>2019-05-16T08:46:09Z</time>
      </trkpt>
      <trkpt lat="43.03923" lon="-0.05043">
        <ele>430</ele>
        <time>2019-05-16T08:46:11Z</time>
      </trkpt>
      <trkpt lat="43.03927" lon="-0.05013">
        <ele>430</ele>
        <time>2019-05-16T08:46:14Z</time>
      </trkpt>
      <trkpt lat="43.03926" lon="-0.05006">
        <ele>430</ele>
        <time>2019-05-16T08:46:15Z</time>
      </trkpt>
      <trkpt lat="43.03933" lon="-0.04989">
        <ele>430</ele>
        <time>2019-05-16T08:46:18Z</time>
      </trkpt>
      <trkpt lat="43.03933" lon="-0.04987">
        <ele>430</ele>
        <time>2019-05-16T08:46:19Z</time>
      </trkpt>
      <trkpt lat="43.03931" lon="-0.04985">
        <ele>430</ele>
        <time>2019-05-16T08:46:20Z</time>
      </trkpt>
      <trkpt lat="43.03927" lon="-0.04981">
        <ele>430</ele>
        <time>2019-05-16T08:46:24Z</time>
      </trkpt>
      <trkpt lat="43.03925" lon="-0.04978">
        <ele>430</ele>
        <time>2019-05-16T08:46:25Z</time>
      </trkpt>
      <trkpt lat="43.03923" lon="-0.04977">
        <ele>430</ele>
        <time>2019-05-16T08:46:26Z</time>
      </trkpt>
      <trkpt lat="43.0392" lon="-0.04977">
        <ele>430</ele>
        <time>2019-05-16T08:46:29Z</time>
      </trkpt>
      <trkpt lat="43.03919" lon="-0.04976">
        <ele>430</ele>
        <time>2019-05-16T08:46:38Z</time>
      </trkpt>
      <trkpt lat="43.03906" lon="-0.04973">
        <ele>430</ele>
        <time>2019-05-16T08:46:44Z</time>
      </trkpt>
      <trkpt lat="43.03904" lon="-0.04972">
        <ele>430</ele>
        <time>2019-05-16T08:46:51Z</time>
      </trkpt>
      <trkpt lat="43.03903" lon="-0.04971">
        <ele>430</ele>
        <time>2019-05-16T08:46:56Z</time>
      </trkpt>
      <trkpt lat="43.03903" lon="-0.04971">
        <ele>430.39999389648</ele>
        <time>2019-05-16T08:47:01Z</time>
      </trkpt>
      <trkpt lat="43.03903" lon="-0.04971">
        <ele>430.79998779297</ele>
        <time>2019-05-16T08:47:02Z</time>
      </trkpt>
      <trkpt lat="43.03903" lon="-0.04971">
        <ele>431.20001220703</ele>
        <time>2019-05-16T08:47:03Z</time>
      </trkpt>
      <trkpt lat="43.03903" lon="-0.04971">
        <ele>431.60000610352</ele>
        <time>2019-05-16T08:47:04Z</time>
      </trkpt>
      <trkpt lat="43.03903" lon="-0.04971">
        <ele>432</ele>
        <time>2019-05-16T08:47:05Z</time>
      </trkpt>
      <trkpt lat="43.03903" lon="-0.04971">
        <ele>432</ele>
        <time>2019-05-16T08:47:15Z</time>
      </trkpt>
      <trkpt lat="43.03903" lon="-0.04971">
        <ele>432</ele>
        <time>2019-05-16T08:47:28Z</time>
      </trkpt>
      <trkpt lat="43.03903" lon="-0.0497">
        <ele>432</ele>
        <time>2019-05-16T08:47:39Z</time>
      </trkpt>
      <trkpt lat="43.03903" lon="-0.0497">
        <ele>432</ele>
        <time>2019-05-16T08:47:48Z</time>
      </trkpt>
      <trkpt lat="43.03903" lon="-0.0497">
        <ele>432</ele>
        <time>2019-05-16T08:48:00Z</time>
      </trkpt>
      <trkpt lat="43.03903" lon="-0.0497">
        <ele>432</ele>
        <time>2019-05-16T08:48:10Z</time>
      </trkpt>
      <trkpt lat="43.03902" lon="-0.0497">
        <ele>432</ele>
        <time>2019-05-16T08:48:20Z</time>
      </trkpt>
      <trkpt lat="43.03902" lon="-0.0497">
        <ele>432</ele>
        <time>2019-05-16T08:48:29Z</time>
      </trkpt>
      <trkpt lat="43.03902" lon="-0.0497">
        <ele>432</ele>
        <time>2019-05-16T08:48:40Z</time>
      </trkpt>
      <trkpt lat="43.03902" lon="-0.0497">
        <ele>432</ele>
        <time>2019-05-16T08:48:52Z</time>
      </trkpt>
      <trkpt lat="43.03902" lon="-0.0497">
        <ele>432</ele>
        <time>2019-05-16T08:49:03Z</time>
      </trkpt>
      <trkpt lat="43.03902" lon="-0.0497">
        <ele>432.79998779297</ele>
        <time>2019-05-16T08:49:09Z</time>
      </trkpt>
      <trkpt lat="43.03902" lon="-0.0497">
        <ele>433.20001220703</ele>
        <time>2019-05-16T08:49:10Z</time>
      </trkpt>
      <trkpt lat="43.03902" lon="-0.0497">
        <ele>433.60000610352</ele>
        <time>2019-05-16T08:49:11Z</time>
      </trkpt>
      <trkpt lat="43.03902" lon="-0.0497">
        <ele>434</ele>
        <time>2019-05-16T08:49:12Z</time>
      </trkpt>
      <trkpt lat="43.03902" lon="-0.0497">
        <ele>434</ele>
        <time>2019-05-16T08:49:18Z</time>
      </trkpt>
      <trkpt lat="43.03902" lon="-0.0497">
        <ele>434</ele>
        <time>2019-05-16T08:49:34Z</time>
      </trkpt>
      <trkpt lat="43.03901" lon="-0.04971">
        <ele>434</ele>
        <time>2019-05-16T08:49:43Z</time>
      </trkpt>
      <trkpt lat="43.03901" lon="-0.04971">
        <ele>434</ele>
        <time>2019-05-16T08:49:57Z</time>
      </trkpt>
      <trkpt lat="43.03901" lon="-0.04971">
        <ele>434</ele>
        <time>2019-05-16T08:50:11Z</time>
      </trkpt>
      <trkpt lat="43.03901" lon="-0.04971">
        <ele>434</ele>
        <time>2019-05-16T08:50:24Z</time>
      </trkpt>
      <trkpt lat="43.03901" lon="-0.04971">
        <ele>434</ele>
        <time>2019-05-16T08:50:34Z</time>
      </trkpt>
      <trkpt lat="43.03905" lon="-0.04977">
        <ele>434</ele>
        <time>2019-05-16T08:50:41Z</time>
      </trkpt>
      <trkpt lat="43.03917" lon="-0.04986">
        <ele>434</ele>
        <time>2019-05-16T08:50:45Z</time>
      </trkpt>
      <trkpt lat="43.03922" lon="-0.04989">
        <ele>434</ele>
        <time>2019-05-16T08:50:46Z</time>
      </trkpt>
      <trkpt lat="43.0393" lon="-0.04994">
        <ele>433.20001220703</ele>
        <time>2019-05-16T08:50:48Z</time>
      </trkpt>
      <trkpt lat="43.03934" lon="-0.04995">
        <ele>432.79998779297</ele>
        <time>2019-05-16T08:50:49Z</time>
      </trkpt>
      <trkpt lat="43.03937" lon="-0.04997">
        <ele>432.39999389648</ele>
        <time>2019-05-16T08:50:50Z</time>
      </trkpt>
      <trkpt lat="43.03941" lon="-0.04999">
        <ele>432</ele>
        <time>2019-05-16T08:50:51Z</time>
      </trkpt>
      <trkpt lat="43.03944" lon="-0.05">
        <ele>432</ele>
        <time>2019-05-16T08:50:52Z</time>
      </trkpt>
      <trkpt lat="43.03951" lon="-0.05005">
        <ele>432</ele>
        <time>2019-05-16T08:50:54Z</time>
      </trkpt>
      <trkpt lat="43.03961" lon="-0.05017">
        <ele>431.60000610352</ele>
        <time>2019-05-16T08:50:57Z</time>
      </trkpt>
      <trkpt lat="43.03964" lon="-0.05021">
        <ele>431.20001220703</ele>
        <time>2019-05-16T08:50:58Z</time>
      </trkpt>
      <trkpt lat="43.03967" lon="-0.05025">
        <ele>430.79998779297</ele>
        <time>2019-05-16T08:50:59Z</time>
      </trkpt>
      <trkpt lat="43.0397" lon="-0.05029">
        <ele>430.39999389648</ele>
        <time>2019-05-16T08:51:00Z</time>
      </trkpt>
      <trkpt lat="43.03973" lon="-0.05033">
        <ele>430</ele>
        <time>2019-05-16T08:51:01Z</time>
      </trkpt>
      <trkpt lat="43.03975" lon="-0.05036">
        <ele>430</ele>
        <time>2019-05-16T08:51:02Z</time>
      </trkpt>
      <trkpt lat="43.03982" lon="-0.05049">
        <ele>430</ele>
        <time>2019-05-16T08:51:05Z</time>
      </trkpt>
      <trkpt lat="43.03988" lon="-0.05059">
        <ele>430</ele>
        <time>2019-05-16T08:51:07Z</time>
      </trkpt>
      <trkpt lat="43.04003" lon="-0.0507">
        <ele>429.60000610352</ele>
        <time>2019-05-16T08:51:11Z</time>
      </trkpt>
      <trkpt lat="43.04007" lon="-0.05071">
        <ele>429.20001220703</ele>
        <time>2019-05-16T08:51:12Z</time>
      </trkpt>
      <trkpt lat="43.04011" lon="-0.05072">
        <ele>428.20001220703</ele>
        <time>2019-05-16T08:51:13Z</time>
      </trkpt>
      <trkpt lat="43.04016" lon="-0.05073">
        <ele>427.79998779297</ele>
        <time>2019-05-16T08:51:14Z</time>
      </trkpt>
      <trkpt lat="43.04036" lon="-0.05078">
        <ele>427.79998779297</ele>
        <time>2019-05-16T08:51:18Z</time>
      </trkpt>
      <trkpt lat="43.04058" lon="-0.05082">
        <ele>427.39999389648</ele>
        <time>2019-05-16T08:51:23Z</time>
      </trkpt>
      <trkpt lat="43.04061" lon="-0.05082">
        <ele>427</ele>
        <time>2019-05-16T08:51:24Z</time>
      </trkpt>
      <trkpt lat="43.04064" lon="-0.05083">
        <ele>426.60000610352</ele>
        <time>2019-05-16T08:51:25Z</time>
      </trkpt>
      <trkpt lat="43.04066" lon="-0.05083">
        <ele>426.20001220703</ele>
        <time>2019-05-16T08:51:26Z</time>
      </trkpt>
      <trkpt lat="43.04069" lon="-0.05084">
        <ele>425.79998779297</ele>
        <time>2019-05-16T08:51:27Z</time>
      </trkpt>
      <trkpt lat="43.04071" lon="-0.05085">
        <ele>425.79998779297</ele>
        <time>2019-05-16T08:51:28Z</time>
      </trkpt>
      <trkpt lat="43.04073" lon="-0.05089">
        <ele>425.79998779297</ele>
        <time>2019-05-16T08:51:29Z</time>
      </trkpt>
      <trkpt lat="43.04074" lon="-0.05097">
        <ele>425.79998779297</ele>
        <time>2019-05-16T08:51:31Z</time>
      </trkpt>
      <trkpt lat="43.04068" lon="-0.05118">
        <ele>425.79998779297</ele>
        <time>2019-05-16T08:51:35Z</time>
      </trkpt>
      <trkpt lat="43.04066" lon="-0.05124">
        <ele>425.79998779297</ele>
        <time>2019-05-16T08:51:36Z</time>
      </trkpt>
      <trkpt lat="43.04065" lon="-0.05131">
        <ele>425.39999389648</ele>
        <time>2019-05-16T08:51:37Z</time>
      </trkpt>
      <trkpt lat="43.04063" lon="-0.05138">
        <ele>425</ele>
        <time>2019-05-16T08:51:38Z</time>
      </trkpt>
      <trkpt lat="43.0406" lon="-0.05144">
        <ele>424.60000610352</ele>
        <time>2019-05-16T08:51:39Z</time>
      </trkpt>
      <trkpt lat="43.04056" lon="-0.0515">
        <ele>424.20001220703</ele>
        <time>2019-05-16T08:51:40Z</time>
      </trkpt>
      <trkpt lat="43.04053" lon="-0.05155">
        <ele>423.60000610352</ele>
        <time>2019-05-16T08:51:41Z</time>
      </trkpt>
      <trkpt lat="43.0405" lon="-0.05161">
        <ele>423.60000610352</ele>
        <time>2019-05-16T08:51:42Z</time>
      </trkpt>
      <trkpt lat="43.04039" lon="-0.05182">
        <ele>423.60000610352</ele>
        <time>2019-05-16T08:51:46Z</time>
      </trkpt>
      <trkpt lat="43.04035" lon="-0.05187">
        <ele>423.60000610352</ele>
        <time>2019-05-16T08:51:47Z</time>
      </trkpt>
      <trkpt lat="43.04031" lon="-0.05201">
        <ele>423.20001220703</ele>
        <time>2019-05-16T08:51:49Z</time>
      </trkpt>
      <trkpt lat="43.04029" lon="-0.05208">
        <ele>422.79998779297</ele>
        <time>2019-05-16T08:51:50Z</time>
      </trkpt>
      <trkpt lat="43.04027" lon="-0.05215">
        <ele>422.39999389648</ele>
        <time>2019-05-16T08:51:51Z</time>
      </trkpt>
      <trkpt lat="43.04026" lon="-0.05223">
        <ele>422</ele>
        <time>2019-05-16T08:51:52Z</time>
      </trkpt>
      <trkpt lat="43.04024" lon="-0.0523">
        <ele>421.60000610352</ele>
        <time>2019-05-16T08:51:53Z</time>
      </trkpt>
      <trkpt lat="43.04021" lon="-0.05237">
        <ele>421.60000610352</ele>
        <time>2019-05-16T08:51:54Z</time>
      </trkpt>
      <trkpt lat="43.04005" lon="-0.05281">
        <ele>421.60000610352</ele>
        <time>2019-05-16T08:52:00Z</time>
      </trkpt>
      <trkpt lat="43.04001" lon="-0.05289">
        <ele>421.60000610352</ele>
        <time>2019-05-16T08:52:01Z</time>
      </trkpt>
      <trkpt lat="43.03989" lon="-0.05307">
        <ele>421.20001220703</ele>
        <time>2019-05-16T08:52:04Z</time>
      </trkpt>
      <trkpt lat="43.03985" lon="-0.05313">
        <ele>420.79998779297</ele>
        <time>2019-05-16T08:52:05Z</time>
      </trkpt>
      <trkpt lat="43.03982" lon="-0.05319">
        <ele>420.39999389648</ele>
        <time>2019-05-16T08:52:06Z</time>
      </trkpt>
      <trkpt lat="43.03977" lon="-0.05325">
        <ele>420</ele>
        <time>2019-05-16T08:52:07Z</time>
      </trkpt>
      <trkpt lat="43.03972" lon="-0.0533">
        <ele>419.60000610352</ele>
        <time>2019-05-16T08:52:08Z</time>
      </trkpt>
      <trkpt lat="43.03959" lon="-0.05346">
        <ele>419.60000610352</ele>
        <time>2019-05-16T08:52:11Z</time>
      </trkpt>
      <trkpt lat="43.03934" lon="-0.05378">
        <ele>419.60000610352</ele>
        <time>2019-05-16T08:52:17Z</time>
      </trkpt>
      <trkpt lat="43.03913" lon="-0.05403">
        <ele>419.60000610352</ele>
        <time>2019-05-16T08:52:23Z</time>
      </trkpt>
      <trkpt lat="43.03901" lon="-0.05413">
        <ele>420</ele>
        <time>2019-05-16T08:52:27Z</time>
      </trkpt>
      <trkpt lat="43.03899" lon="-0.05416">
        <ele>420.39999389648</ele>
        <time>2019-05-16T08:52:28Z</time>
      </trkpt>
      <trkpt lat="43.03897" lon="-0.05418">
        <ele>420.79998779297</ele>
        <time>2019-05-16T08:52:29Z</time>
      </trkpt>
      <trkpt lat="43.03894" lon="-0.05422">
        <ele>421.39999389648</ele>
        <time>2019-05-16T08:52:30Z</time>
      </trkpt>
      <trkpt lat="43.03891" lon="-0.05428">
        <ele>421.79998779297</ele>
        <time>2019-05-16T08:52:31Z</time>
      </trkpt>
      <trkpt lat="43.03888" lon="-0.05435">
        <ele>421.79998779297</ele>
        <time>2019-05-16T08:52:32Z</time>
      </trkpt>
      <trkpt lat="43.03884" lon="-0.05444">
        <ele>421.39999389648</ele>
        <time>2019-05-16T08:52:33Z</time>
      </trkpt>
      <trkpt lat="43.03881" lon="-0.05453">
        <ele>421</ele>
        <time>2019-05-16T08:52:34Z</time>
      </trkpt>
      <trkpt lat="43.03879" lon="-0.05463">
        <ele>420.39999389648</ele>
        <time>2019-05-16T08:52:35Z</time>
      </trkpt>
      <trkpt lat="43.03878" lon="-0.05473">
        <ele>420</ele>
        <time>2019-05-16T08:52:36Z</time>
      </trkpt>
      <trkpt lat="43.03877" lon="-0.05483">
        <ele>419.60000610352</ele>
        <time>2019-05-16T08:52:37Z</time>
      </trkpt>
      <trkpt lat="43.03878" lon="-0.05494">
        <ele>419</ele>
        <time>2019-05-16T08:52:38Z</time>
      </trkpt>
      <trkpt lat="43.03878" lon="-0.05505">
        <ele>418.39999389648</ele>
        <time>2019-05-16T08:52:39Z</time>
      </trkpt>
      <trkpt lat="43.03879" lon="-0.05516">
        <ele>417.79998779297</ele>
        <time>2019-05-16T08:52:40Z</time>
      </trkpt>
      <trkpt lat="43.03879" lon="-0.05527">
        <ele>417.39999389648</ele>
        <time>2019-05-16T08:52:41Z</time>
      </trkpt>
      <trkpt lat="43.03879" lon="-0.05538">
        <ele>417</ele>
        <time>2019-05-16T08:52:42Z</time>
      </trkpt>
      <trkpt lat="43.0388" lon="-0.0555">
        <ele>416.60000610352</ele>
        <time>2019-05-16T08:52:43Z</time>
      </trkpt>
      <trkpt lat="43.03882" lon="-0.05562">
        <ele>416</ele>
        <time>2019-05-16T08:52:44Z</time>
      </trkpt>
      <trkpt lat="43.03884" lon="-0.05574">
        <ele>415.60000610352</ele>
        <time>2019-05-16T08:52:45Z</time>
      </trkpt>
      <trkpt lat="43.03887" lon="-0.05586">
        <ele>415.20001220703</ele>
        <time>2019-05-16T08:52:46Z</time>
      </trkpt>
      <trkpt lat="43.0389" lon="-0.05597">
        <ele>414.79998779297</ele>
        <time>2019-05-16T08:52:47Z</time>
      </trkpt>
      <trkpt lat="43.03892" lon="-0.05609">
        <ele>414.20001220703</ele>
        <time>2019-05-16T08:52:48Z</time>
      </trkpt>
      <trkpt lat="43.03892" lon="-0.0562">
        <ele>413.79998779297</ele>
        <time>2019-05-16T08:52:49Z</time>
      </trkpt>
      <trkpt lat="43.03893" lon="-0.05632">
        <ele>413.39999389648</ele>
        <time>2019-05-16T08:52:50Z</time>
      </trkpt>
      <trkpt lat="43.03894" lon="-0.05643">
        <ele>412.79998779297</ele>
        <time>2019-05-16T08:52:51Z</time>
      </trkpt>
      <trkpt lat="43.03894" lon="-0.05654">
        <ele>412.79998779297</ele>
        <time>2019-05-16T08:52:52Z</time>
      </trkpt>
      <trkpt lat="43.03896" lon="-0.05687">
        <ele>412.79998779297</ele>
        <time>2019-05-16T08:52:56Z</time>
      </trkpt>
      <trkpt lat="43.03898" lon="-0.05691">
        <ele>412.79998779297</ele>
        <time>2019-05-16T08:52:57Z</time>
      </trkpt>
      <trkpt lat="43.03906" lon="-0.05694">
        <ele>412.79998779297</ele>
        <time>2019-05-16T08:52:59Z</time>
      </trkpt>
      <trkpt lat="43.03915" lon="-0.0569">
        <ele>412.79998779297</ele>
        <time>2019-05-16T08:53:01Z</time>
      </trkpt>
      <trkpt lat="43.03919" lon="-0.05688">
        <ele>412.79998779297</ele>
        <time>2019-05-16T08:53:02Z</time>
      </trkpt>
      <trkpt lat="43.03924" lon="-0.05687">
        <ele>412.79998779297</ele>
        <time>2019-05-16T08:53:03Z</time>
      </trkpt>
      <trkpt lat="43.03932" lon="-0.05685">
        <ele>412.79998779297</ele>
        <time>2019-05-16T08:53:05Z</time>
      </trkpt>
      <trkpt lat="43.03941" lon="-0.05685">
        <ele>412.79998779297</ele>
        <time>2019-05-16T08:53:07Z</time>
      </trkpt>
      <trkpt lat="43.0396" lon="-0.05689">
        <ele>412.79998779297</ele>
        <time>2019-05-16T08:53:12Z</time>
      </trkpt>
      <trkpt lat="43.03963" lon="-0.05691">
        <ele>412.79998779297</ele>
        <time>2019-05-16T08:53:13Z</time>
      </trkpt>
      <trkpt lat="43.0398" lon="-0.05696">
        <ele>412.79998779297</ele>
        <time>2019-05-16T08:53:17Z</time>
      </trkpt>
      <trkpt lat="43.03997" lon="-0.05702">
        <ele>412.79998779297</ele>
        <time>2019-05-16T08:53:22Z</time>
      </trkpt>
      <trkpt lat="43.04014" lon="-0.05701">
        <ele>412.79998779297</ele>
        <time>2019-05-16T08:53:28Z</time>
      </trkpt>
      <trkpt lat="43.04032" lon="-0.05699">
        <ele>412.79998779297</ele>
        <time>2019-05-16T08:53:34Z</time>
      </trkpt>
      <trkpt lat="43.04036" lon="-0.05698">
        <ele>412.39999389648</ele>
        <time>2019-05-16T08:53:35Z</time>
      </trkpt>
      <trkpt lat="43.0404" lon="-0.05697">
        <ele>412</ele>
        <time>2019-05-16T08:53:36Z</time>
      </trkpt>
      <trkpt lat="43.04044" lon="-0.05695">
        <ele>411.60000610352</ele>
        <time>2019-05-16T08:53:37Z</time>
      </trkpt>
      <trkpt lat="43.04049" lon="-0.05693">
        <ele>411.20001220703</ele>
        <time>2019-05-16T08:53:38Z</time>
      </trkpt>
      <trkpt lat="43.04054" lon="-0.05692">
        <ele>410.79998779297</ele>
        <time>2019-05-16T08:53:39Z</time>
      </trkpt>
      <trkpt lat="43.04063" lon="-0.05693">
        <ele>410.79998779297</ele>
        <time>2019-05-16T08:53:41Z</time>
      </trkpt>
      <trkpt lat="43.04071" lon="-0.05695">
        <ele>410.79998779297</ele>
        <time>2019-05-16T08:53:43Z</time>
      </trkpt>
      <trkpt lat="43.04075" lon="-0.05698">
        <ele>410.79998779297</ele>
        <time>2019-05-16T08:53:44Z</time>
      </trkpt>
      <trkpt lat="43.04093" lon="-0.0571">
        <ele>410.79998779297</ele>
        <time>2019-05-16T08:53:48Z</time>
      </trkpt>
      <trkpt lat="43.04101" lon="-0.05717">
        <ele>410.79998779297</ele>
        <time>2019-05-16T08:53:50Z</time>
      </trkpt>
      <trkpt lat="43.04105" lon="-0.0572">
        <ele>410.39999389648</ele>
        <time>2019-05-16T08:53:51Z</time>
      </trkpt>
      <trkpt lat="43.04109" lon="-0.05723">
        <ele>410</ele>
        <time>2019-05-16T08:53:52Z</time>
      </trkpt>
      <trkpt lat="43.04113" lon="-0.05726">
        <ele>409.60000610352</ele>
        <time>2019-05-16T08:53:53Z</time>
      </trkpt>
      <trkpt lat="43.04117" lon="-0.0573">
        <ele>409.20001220703</ele>
        <time>2019-05-16T08:53:54Z</time>
      </trkpt>
      <trkpt lat="43.04121" lon="-0.05734">
        <ele>408.79998779297</ele>
        <time>2019-05-16T08:53:55Z</time>
      </trkpt>
      <trkpt lat="43.04125" lon="-0.05737">
        <ele>408.79998779297</ele>
        <time>2019-05-16T08:53:56Z</time>
      </trkpt>
      <trkpt lat="43.04148" lon="-0.05761">
        <ele>408.79998779297</ele>
        <time>2019-05-16T08:54:02Z</time>
      </trkpt>
      <trkpt lat="43.04156" lon="-0.05765">
        <ele>408.79998779297</ele>
        <time>2019-05-16T08:54:04Z</time>
      </trkpt>
      <trkpt lat="43.04168" lon="-0.05766">
        <ele>408.39999389648</ele>
        <time>2019-05-16T08:54:07Z</time>
      </trkpt>
      <trkpt lat="43.04171" lon="-0.05768">
        <ele>408</ele>
        <time>2019-05-16T08:54:08Z</time>
      </trkpt>
      <trkpt lat="43.04175" lon="-0.05771">
        <ele>407.60000610352</ele>
        <time>2019-05-16T08:54:09Z</time>
      </trkpt>
      <trkpt lat="43.04178" lon="-0.05776">
        <ele>407.20001220703</ele>
        <time>2019-05-16T08:54:10Z</time>
      </trkpt>
      <trkpt lat="43.04182" lon="-0.0578">
        <ele>406.79998779297</ele>
        <time>2019-05-16T08:54:11Z</time>
      </trkpt>
      <trkpt lat="43.04196" lon="-0.05798">
        <ele>406.79998779297</ele>
        <time>2019-05-16T08:54:15Z</time>
      </trkpt>
      <trkpt lat="43.04204" lon="-0.05804">
        <ele>406.79998779297</ele>
        <time>2019-05-16T08:54:17Z</time>
      </trkpt>
      <trkpt lat="43.04213" lon="-0.05809">
        <ele>406.79998779297</ele>
        <time>2019-05-16T08:54:20Z</time>
      </trkpt>
      <trkpt lat="43.04218" lon="-0.05813">
        <ele>406.79998779297</ele>
        <time>2019-05-16T08:54:22Z</time>
      </trkpt>
      <trkpt lat="43.04224" lon="-0.05817">
        <ele>406.79998779297</ele>
        <time>2019-05-16T08:54:27Z</time>
      </trkpt>
      <trkpt lat="43.04227" lon="-0.05818">
        <ele>406.79998779297</ele>
        <time>2019-05-16T08:54:30Z</time>
      </trkpt>
      <trkpt lat="43.04227" lon="-0.05818">
        <ele>406.79998779297</ele>
        <time>2019-05-16T08:54:33Z</time>
      </trkpt>
      <trkpt lat="43.04227" lon="-0.05818">
        <ele>406.79998779297</ele>
        <time>2019-05-16T08:54:44Z</time>
      </trkpt>
      <trkpt lat="43.04227" lon="-0.05818">
        <ele>406.79998779297</ele>
        <time>2019-05-16T08:54:45Z</time>
      </trkpt>
      <trkpt lat="43.04228" lon="-0.05818">
        <ele>406.79998779297</ele>
        <time>2019-05-16T08:54:51Z</time>
      </trkpt>
      <trkpt lat="43.04228" lon="-0.05818">
        <ele>406.79998779297</ele>
        <time>2019-05-16T08:55:01Z</time>
      </trkpt>
      <trkpt lat="43.04228" lon="-0.05818">
        <ele>406.79998779297</ele>
        <time>2019-05-16T08:55:13Z</time>
      </trkpt>
      <trkpt lat="43.04228" lon="-0.05818">
        <ele>406.79998779297</ele>
        <time>2019-05-16T08:55:23Z</time>
      </trkpt>
      <trkpt lat="43.04228" lon="-0.05818">
        <ele>406.79998779297</ele>
        <time>2019-05-16T08:55:32Z</time>
      </trkpt>
      <trkpt lat="43.04228" lon="-0.05819">
        <ele>406.79998779297</ele>
        <time>2019-05-16T08:55:35Z</time>
      </trkpt>
      <trkpt lat="43.0423" lon="-0.05822">
        <ele>406.79998779297</ele>
        <time>2019-05-16T08:55:36Z</time>
      </trkpt>
      <trkpt lat="43.04234" lon="-0.05825">
        <ele>406.79998779297</ele>
        <time>2019-05-16T08:55:38Z</time>
      </trkpt>
      <trkpt lat="43.04234" lon="-0.05822">
        <ele>406.39999389648</ele>
        <time>2019-05-16T08:55:39Z</time>
      </trkpt>
      <trkpt lat="43.04237" lon="-0.05821">
        <ele>406</ele>
        <time>2019-05-16T08:55:40Z</time>
      </trkpt>
      <trkpt lat="43.0424" lon="-0.05819">
        <ele>405.60000610352</ele>
        <time>2019-05-16T08:55:41Z</time>
      </trkpt>
      <trkpt lat="43.04242" lon="-0.05816">
        <ele>405.20001220703</ele>
        <time>2019-05-16T08:55:42Z</time>
      </trkpt>
      <trkpt lat="43.04243" lon="-0.05813">
        <ele>404.60000610352</ele>
        <time>2019-05-16T08:55:43Z</time>
      </trkpt>
      <trkpt lat="43.04255" lon="-0.05811">
        <ele>404.60000610352</ele>
        <time>2019-05-16T08:55:47Z</time>
      </trkpt>
      <trkpt lat="43.04259" lon="-0.05812">
        <ele>404.20001220703</ele>
        <time>2019-05-16T08:55:48Z</time>
      </trkpt>
      <trkpt lat="43.04263" lon="-0.05813">
        <ele>403.79998779297</ele>
        <time>2019-05-16T08:55:49Z</time>
      </trkpt>
      <trkpt lat="43.04267" lon="-0.05814">
        <ele>403.20001220703</ele>
        <time>2019-05-16T08:55:50Z</time>
      </trkpt>
      <trkpt lat="43.0427" lon="-0.05815">
        <ele>402.79998779297</ele>
        <time>2019-05-16T08:55:51Z</time>
      </trkpt>
      <trkpt lat="43.04275" lon="-0.05815">
        <ele>402.39999389648</ele>
        <time>2019-05-16T08:55:52Z</time>
      </trkpt>
      <trkpt lat="43.04288" lon="-0.05815">
        <ele>402.39999389648</ele>
        <time>2019-05-16T08:55:56Z</time>
      </trkpt>
      <trkpt lat="43.0431" lon="-0.05812">
        <ele>402.39999389648</ele>
        <time>2019-05-16T08:56:03Z</time>
      </trkpt>
      <trkpt lat="43.04314" lon="-0.05813">
        <ele>402.39999389648</ele>
        <time>2019-05-16T08:56:06Z</time>
      </trkpt>
      <trkpt lat="43.04315" lon="-0.05815">
        <ele>402.39999389648</ele>
        <time>2019-05-16T08:56:07Z</time>
      </trkpt>
      <trkpt lat="43.04317" lon="-0.05826">
        <ele>402.39999389648</ele>
        <time>2019-05-16T08:56:10Z</time>
      </trkpt>
      <trkpt lat="43.04316" lon="-0.05831">
        <ele>402.39999389648</ele>
        <time>2019-05-16T08:56:11Z</time>
      </trkpt>
      <trkpt lat="43.04313" lon="-0.05858">
        <ele>402.39999389648</ele>
        <time>2019-05-16T08:56:16Z</time>
      </trkpt>
      <trkpt lat="43.04312" lon="-0.05864">
        <ele>402.39999389648</ele>
        <time>2019-05-16T08:56:17Z</time>
      </trkpt>
      <trkpt lat="43.04308" lon="-0.05886">
        <ele>402.39999389648</ele>
        <time>2019-05-16T08:56:21Z</time>
      </trkpt>
      <trkpt lat="43.04302" lon="-0.05923">
        <ele>402.39999389648</ele>
        <time>2019-05-16T08:56:28Z</time>
      </trkpt>
      <trkpt lat="43.04297" lon="-0.05951">
        <ele>402.39999389648</ele>
        <time>2019-05-16T08:56:33Z</time>
      </trkpt>
      <trkpt lat="43.04294" lon="-0.05961">
        <ele>402.39999389648</ele>
        <time>2019-05-16T08:56:35Z</time>
      </trkpt>
      <trkpt lat="43.04293" lon="-0.05967">
        <ele>402.39999389648</ele>
        <time>2019-05-16T08:56:36Z</time>
      </trkpt>
      <trkpt lat="43.04289" lon="-0.05989">
        <ele>402.39999389648</ele>
        <time>2019-05-16T08:56:40Z</time>
      </trkpt>
      <trkpt lat="43.04292" lon="-0.06007">
        <ele>402.39999389648</ele>
        <time>2019-05-16T08:56:43Z</time>
      </trkpt>
      <trkpt lat="43.04293" lon="-0.06012">
        <ele>402.39999389648</ele>
        <time>2019-05-16T08:56:44Z</time>
      </trkpt>
      <trkpt lat="43.04292" lon="-0.06024">
        <ele>402.39999389648</ele>
        <time>2019-05-16T08:56:46Z</time>
      </trkpt>
      <trkpt lat="43.0429" lon="-0.06035">
        <ele>402.39999389648</ele>
        <time>2019-05-16T08:56:48Z</time>
      </trkpt>
      <trkpt lat="43.04287" lon="-0.06041">
        <ele>402.39999389648</ele>
        <time>2019-05-16T08:56:49Z</time>
      </trkpt>
      <trkpt lat="43.04279" lon="-0.06062">
        <ele>402.39999389648</ele>
        <time>2019-05-16T08:56:53Z</time>
      </trkpt>
      <trkpt lat="43.04263" lon="-0.06086">
        <ele>402.39999389648</ele>
        <time>2019-05-16T08:56:59Z</time>
      </trkpt>
      <trkpt lat="43.04259" lon="-0.0609">
        <ele>402.39999389648</ele>
        <time>2019-05-16T08:57:00Z</time>
      </trkpt>
      <trkpt lat="43.04249" lon="-0.06099">
        <ele>402.39999389648</ele>
        <time>2019-05-16T08:57:03Z</time>
      </trkpt>
      <trkpt lat="43.04238" lon="-0.06105">
        <ele>402.39999389648</ele>
        <time>2019-05-16T08:57:06Z</time>
      </trkpt>
      <trkpt lat="43.04224" lon="-0.06114">
        <ele>402.79998779297</ele>
        <time>2019-05-16T08:57:10Z</time>
      </trkpt>
      <trkpt lat="43.04221" lon="-0.06117">
        <ele>403.20001220703</ele>
        <time>2019-05-16T08:57:11Z</time>
      </trkpt>
      <trkpt lat="43.04218" lon="-0.0612">
        <ele>403.60000610352</ele>
        <time>2019-05-16T08:57:12Z</time>
      </trkpt>
      <trkpt lat="43.04215" lon="-0.06122">
        <ele>404</ele>
        <time>2019-05-16T08:57:13Z</time>
      </trkpt>
      <trkpt lat="43.04213" lon="-0.06125">
        <ele>404.39999389648</ele>
        <time>2019-05-16T08:57:14Z</time>
      </trkpt>
      <trkpt lat="43.04195" lon="-0.06135">
        <ele>404.39999389648</ele>
        <time>2019-05-16T08:57:19Z</time>
      </trkpt>
      <trkpt lat="43.04177" lon="-0.06134">
        <ele>404.39999389648</ele>
        <time>2019-05-16T08:57:24Z</time>
      </trkpt>
      <trkpt lat="43.0415" lon="-0.06122">
        <ele>404.39999389648</ele>
        <time>2019-05-16T08:57:31Z</time>
      </trkpt>
      <trkpt lat="43.04129" lon="-0.06108">
        <ele>404.39999389648</ele>
        <time>2019-05-16T08:57:37Z</time>
      </trkpt>
      <trkpt lat="43.04102" lon="-0.06096">
        <ele>404.39999389648</ele>
        <time>2019-05-16T08:57:45Z</time>
      </trkpt>
      <trkpt lat="43.04082" lon="-0.06104">
        <ele>404.39999389648</ele>
        <time>2019-05-16T08:57:51Z</time>
      </trkpt>
      <trkpt lat="43.04064" lon="-0.06116">
        <ele>404.39999389648</ele>
        <time>2019-05-16T08:57:57Z</time>
      </trkpt>
      <trkpt lat="43.04051" lon="-0.06125">
        <ele>404.79998779297</ele>
        <time>2019-05-16T08:58:03Z</time>
      </trkpt>
      <trkpt lat="43.04049" lon="-0.06126">
        <ele>405.20001220703</ele>
        <time>2019-05-16T08:58:04Z</time>
      </trkpt>
      <trkpt lat="43.04046" lon="-0.06126">
        <ele>405.60000610352</ele>
        <time>2019-05-16T08:58:05Z</time>
      </trkpt>
      <trkpt lat="43.04044" lon="-0.06126">
        <ele>406</ele>
        <time>2019-05-16T08:58:06Z</time>
      </trkpt>
      <trkpt lat="43.04042" lon="-0.06127">
        <ele>406.39999389648</ele>
        <time>2019-05-16T08:58:07Z</time>
      </trkpt>
      <trkpt lat="43.0404" lon="-0.06128">
        <ele>406.39999389648</ele>
        <time>2019-05-16T08:58:09Z</time>
      </trkpt>
      <trkpt lat="43.04036" lon="-0.06131">
        <ele>406.39999389648</ele>
        <time>2019-05-16T08:58:14Z</time>
      </trkpt>
      <trkpt lat="43.04031" lon="-0.06133">
        <ele>406</ele>
        <time>2019-05-16T08:58:21Z</time>
      </trkpt>
      <trkpt lat="43.04031" lon="-0.06133">
        <ele>405.60000610352</ele>
        <time>2019-05-16T08:58:22Z</time>
      </trkpt>
      <trkpt lat="43.04031" lon="-0.06133">
        <ele>405.20001220703</ele>
        <time>2019-05-16T08:58:23Z</time>
      </trkpt>
      <trkpt lat="43.04031" lon="-0.06133">
        <ele>404.79998779297</ele>
        <time>2019-05-16T08:58:24Z</time>
      </trkpt>
      <trkpt lat="43.04031" lon="-0.06133">
        <ele>404.39999389648</ele>
        <time>2019-05-16T08:58:25Z</time>
      </trkpt>
      <trkpt lat="43.04031" lon="-0.06133">
        <ele>404.39999389648</ele>
        <time>2019-05-16T08:58:28Z</time>
      </trkpt>
      <trkpt lat="43.04031" lon="-0.06133">
        <ele>404.39999389648</ele>
        <time>2019-05-16T08:58:29Z</time>
      </trkpt>
      <trkpt lat="43.04029" lon="-0.06135">
        <ele>404.39999389648</ele>
        <time>2019-05-16T08:58:32Z</time>
      </trkpt>
      <trkpt lat="43.04028" lon="-0.06136">
        <ele>404.39999389648</ele>
        <time>2019-05-16T08:58:34Z</time>
      </trkpt>
      <trkpt lat="43.04023" lon="-0.06141">
        <ele>404.39999389648</ele>
        <time>2019-05-16T08:58:41Z</time>
      </trkpt>
      <trkpt lat="43.04022" lon="-0.06141">
        <ele>404.39999389648</ele>
        <time>2019-05-16T08:58:47Z</time>
      </trkpt>
      <trkpt lat="43.04022" lon="-0.06141">
        <ele>404.39999389648</ele>
        <time>2019-05-16T08:58:57Z</time>
      </trkpt>
      <trkpt lat="43.04022" lon="-0.06141">
        <ele>404.39999389648</ele>
        <time>2019-05-16T08:59:05Z</time>
      </trkpt>
      <trkpt lat="43.04021" lon="-0.06142">
        <ele>404.39999389648</ele>
        <time>2019-05-16T08:59:11Z</time>
      </trkpt>
      <trkpt lat="43.04018" lon="-0.06144">
        <ele>404.39999389648</ele>
        <time>2019-05-16T08:59:17Z</time>
      </trkpt>
      <trkpt lat="43.04008" lon="-0.0615">
        <ele>404.39999389648</ele>
        <time>2019-05-16T08:59:23Z</time>
      </trkpt>
      <trkpt lat="43.04001" lon="-0.06152">
        <ele>404.39999389648</ele>
        <time>2019-05-16T08:59:28Z</time>
      </trkpt>
      <trkpt lat="43.03993" lon="-0.06158">
        <ele>404.39999389648</ele>
        <time>2019-05-16T08:59:33Z</time>
      </trkpt>
      <trkpt lat="43.03982" lon="-0.0616">
        <ele>404.39999389648</ele>
        <time>2019-05-16T08:59:38Z</time>
      </trkpt>
      <trkpt lat="43.03978" lon="-0.06161">
        <ele>404.39999389648</ele>
        <time>2019-05-16T08:59:41Z</time>
      </trkpt>
      <trkpt lat="43.03974" lon="-0.06165">
        <ele>404.39999389648</ele>
        <time>2019-05-16T08:59:43Z</time>
      </trkpt>
      <trkpt lat="43.0397" lon="-0.0617">
        <ele>404.39999389648</ele>
        <time>2019-05-16T08:59:45Z</time>
      </trkpt>
      <trkpt lat="43.03967" lon="-0.0617">
        <ele>404.39999389648</ele>
        <time>2019-05-16T08:59:47Z</time>
      </trkpt>
      <trkpt lat="43.03964" lon="-0.0617">
        <ele>404.39999389648</ele>
        <time>2019-05-16T08:59:48Z</time>
      </trkpt>
      <trkpt lat="43.03955" lon="-0.0617">
        <ele>404.39999389648</ele>
        <time>2019-05-16T08:59:53Z</time>
      </trkpt>
      <trkpt lat="43.03944" lon="-0.06168">
        <ele>404.39999389648</ele>
        <time>2019-05-16T08:59:58Z</time>
      </trkpt>
      <trkpt lat="43.03934" lon="-0.06169">
        <ele>404.39999389648</ele>
        <time>2019-05-16T09:00:01Z</time>
      </trkpt>
      <trkpt lat="43.03923" lon="-0.06175">
        <ele>404.39999389648</ele>
        <time>2019-05-16T09:00:06Z</time>
      </trkpt>
      <trkpt lat="43.03913" lon="-0.06181">
        <ele>404.39999389648</ele>
        <time>2019-05-16T09:00:10Z</time>
      </trkpt>
      <trkpt lat="43.03911" lon="-0.06181">
        <ele>404.39999389648</ele>
        <time>2019-05-16T09:00:11Z</time>
      </trkpt>
      <trkpt lat="43.03907" lon="-0.06181">
        <ele>404.39999389648</ele>
        <time>2019-05-16T09:00:13Z</time>
      </trkpt>
      <trkpt lat="43.03905" lon="-0.06184">
        <ele>404.39999389648</ele>
        <time>2019-05-16T09:00:14Z</time>
      </trkpt>
      <trkpt lat="43.03895" lon="-0.06187">
        <ele>404.39999389648</ele>
        <time>2019-05-16T09:00:19Z</time>
      </trkpt>
      <trkpt lat="43.03886" lon="-0.06191">
        <ele>404.39999389648</ele>
        <time>2019-05-16T09:00:24Z</time>
      </trkpt>
      <trkpt lat="43.0388" lon="-0.06192">
        <ele>404.39999389648</ele>
        <time>2019-05-16T09:00:27Z</time>
      </trkpt>
      <trkpt lat="43.03877" lon="-0.06193">
        <ele>404.39999389648</ele>
        <time>2019-05-16T09:00:28Z</time>
      </trkpt>
      <trkpt lat="43.03863" lon="-0.06196">
        <ele>404.39999389648</ele>
        <time>2019-05-16T09:00:33Z</time>
      </trkpt>
      <trkpt lat="43.03861" lon="-0.06197">
        <ele>404.39999389648</ele>
        <time>2019-05-16T09:00:34Z</time>
      </trkpt>
      <trkpt lat="43.03853" lon="-0.06199">
        <ele>404.39999389648</ele>
        <time>2019-05-16T09:00:37Z</time>
      </trkpt>
      <trkpt lat="43.03839" lon="-0.062">
        <ele>404.39999389648</ele>
        <time>2019-05-16T09:00:41Z</time>
      </trkpt>
      <trkpt lat="43.03836" lon="-0.062">
        <ele>404.39999389648</ele>
        <time>2019-05-16T09:00:42Z</time>
      </trkpt>
      <trkpt lat="43.03829" lon="-0.06196">
        <ele>404.39999389648</ele>
        <time>2019-05-16T09:00:45Z</time>
      </trkpt>
      <trkpt lat="43.03828" lon="-0.06193">
        <ele>404.39999389648</ele>
        <time>2019-05-16T09:00:46Z</time>
      </trkpt>
      <trkpt lat="43.03825" lon="-0.06176">
        <ele>404.39999389648</ele>
        <time>2019-05-16T09:00:51Z</time>
      </trkpt>
      <trkpt lat="43.03822" lon="-0.06167">
        <ele>404.39999389648</ele>
        <time>2019-05-16T09:00:55Z</time>
      </trkpt>
      <trkpt lat="43.03821" lon="-0.06166">
        <ele>404.39999389648</ele>
        <time>2019-05-16T09:00:56Z</time>
      </trkpt>
      <trkpt lat="43.03817" lon="-0.06163">
        <ele>404.39999389648</ele>
        <time>2019-05-16T09:00:58Z</time>
      </trkpt>
      <trkpt lat="43.03812" lon="-0.06161">
        <ele>404.39999389648</ele>
        <time>2019-05-16T09:01:01Z</time>
      </trkpt>
      <trkpt lat="43.03808" lon="-0.06161">
        <ele>404.39999389648</ele>
        <time>2019-05-16T09:01:03Z</time>
      </trkpt>
      <trkpt lat="43.03802" lon="-0.06166">
        <ele>404.39999389648</ele>
        <time>2019-05-16T09:01:06Z</time>
      </trkpt>
      <trkpt lat="43.03799" lon="-0.06172">
        <ele>404.39999389648</ele>
        <time>2019-05-16T09:01:08Z</time>
      </trkpt>
      <trkpt lat="43.03795" lon="-0.06179">
        <ele>404.39999389648</ele>
        <time>2019-05-16T09:01:11Z</time>
      </trkpt>
      <trkpt lat="43.03791" lon="-0.06186">
        <ele>404.39999389648</ele>
        <time>2019-05-16T09:01:14Z</time>
      </trkpt>
      <trkpt lat="43.03788" lon="-0.06185">
        <ele>404.39999389648</ele>
        <time>2019-05-16T09:01:16Z</time>
      </trkpt>
      <trkpt lat="43.0378" lon="-0.06191">
        <ele>404.39999389648</ele>
        <time>2019-05-16T09:01:21Z</time>
      </trkpt>
      <trkpt lat="43.03769" lon="-0.06201">
        <ele>404.39999389648</ele>
        <time>2019-05-16T09:01:27Z</time>
      </trkpt>
      <trkpt lat="43.03767" lon="-0.062">
        <ele>404.39999389648</ele>
        <time>2019-05-16T09:01:28Z</time>
      </trkpt>
      <trkpt lat="43.03759" lon="-0.06203">
        <ele>404.39999389648</ele>
        <time>2019-05-16T09:01:31Z</time>
      </trkpt>
      <trkpt lat="43.03751" lon="-0.06208">
        <ele>404.39999389648</ele>
        <time>2019-05-16T09:01:34Z</time>
      </trkpt>
      <trkpt lat="43.03744" lon="-0.06213">
        <ele>404.39999389648</ele>
        <time>2019-05-16T09:01:36Z</time>
      </trkpt>
      <trkpt lat="43.03731" lon="-0.06214">
        <ele>404.39999389648</ele>
        <time>2019-05-16T09:01:40Z</time>
      </trkpt>
      <trkpt lat="43.03723" lon="-0.0622">
        <ele>404.39999389648</ele>
        <time>2019-05-16T09:01:44Z</time>
      </trkpt>
      <trkpt lat="43.03716" lon="-0.06218">
        <ele>404.39999389648</ele>
        <time>2019-05-16T09:01:48Z</time>
      </trkpt>
      <trkpt lat="43.03703" lon="-0.0622">
        <ele>404.39999389648</ele>
        <time>2019-05-16T09:01:52Z</time>
      </trkpt>
      <trkpt lat="43.03696" lon="-0.06215">
        <ele>404.39999389648</ele>
        <time>2019-05-16T09:01:55Z</time>
      </trkpt>
      <trkpt lat="43.03694" lon="-0.06214">
        <ele>404.39999389648</ele>
        <time>2019-05-16T09:01:56Z</time>
      </trkpt>
      <trkpt lat="43.03691" lon="-0.06209">
        <ele>404.39999389648</ele>
        <time>2019-05-16T09:01:58Z</time>
      </trkpt>
      <trkpt lat="43.03688" lon="-0.06206">
        <ele>404.39999389648</ele>
        <time>2019-05-16T09:02:00Z</time>
      </trkpt>
      <trkpt lat="43.03684" lon="-0.06204">
        <ele>404.39999389648</ele>
        <time>2019-05-16T09:02:03Z</time>
      </trkpt>
      <trkpt lat="43.03681" lon="-0.06205">
        <ele>404.39999389648</ele>
        <time>2019-05-16T09:02:05Z</time>
      </trkpt>
      <trkpt lat="43.03674" lon="-0.06211">
        <ele>404.39999389648</ele>
        <time>2019-05-16T09:02:09Z</time>
      </trkpt>
      <trkpt lat="43.0367" lon="-0.06211">
        <ele>404.39999389648</ele>
        <time>2019-05-16T09:02:11Z</time>
      </trkpt>
      <trkpt lat="43.03667" lon="-0.06211">
        <ele>404.39999389648</ele>
        <time>2019-05-16T09:02:13Z</time>
      </trkpt>
      <trkpt lat="43.03664" lon="-0.06209">
        <ele>404.39999389648</ele>
        <time>2019-05-16T09:02:15Z</time>
      </trkpt>
      <trkpt lat="43.03658" lon="-0.06205">
        <ele>404.39999389648</ele>
        <time>2019-05-16T09:02:17Z</time>
      </trkpt>
      <trkpt lat="43.03646" lon="-0.06202">
        <ele>404.39999389648</ele>
        <time>2019-05-16T09:02:21Z</time>
      </trkpt>
      <trkpt lat="43.03636" lon="-0.06197">
        <ele>404.39999389648</ele>
        <time>2019-05-16T09:02:25Z</time>
      </trkpt>
      <trkpt lat="43.03632" lon="-0.06198">
        <ele>404.39999389648</ele>
        <time>2019-05-16T09:02:26Z</time>
      </trkpt>
      <trkpt lat="43.03618" lon="-0.06196">
        <ele>404.39999389648</ele>
        <time>2019-05-16T09:02:29Z</time>
      </trkpt>
      <trkpt lat="43.03616" lon="-0.06201">
        <ele>404.39999389648</ele>
        <time>2019-05-16T09:02:30Z</time>
      </trkpt>
      <trkpt lat="43.03613" lon="-0.06203">
        <ele>404.39999389648</ele>
        <time>2019-05-16T09:02:33Z</time>
      </trkpt>
      <trkpt lat="43.03605" lon="-0.06207">
        <ele>404.39999389648</ele>
        <time>2019-05-16T09:02:37Z</time>
      </trkpt>
      <trkpt lat="43.03602" lon="-0.06206">
        <ele>404.39999389648</ele>
        <time>2019-05-16T09:02:38Z</time>
      </trkpt>
      <trkpt lat="43.03599" lon="-0.06206">
        <ele>404.39999389648</ele>
        <time>2019-05-16T09:02:43Z</time>
      </trkpt>
      <trkpt lat="43.03599" lon="-0.06206">
        <ele>404.39999389648</ele>
        <time>2019-05-16T09:02:55Z</time>
      </trkpt>
      <trkpt lat="43.03599" lon="-0.06206">
        <ele>404.39999389648</ele>
        <time>2019-05-16T09:03:07Z</time>
      </trkpt>
      <trkpt lat="43.03599" lon="-0.06206">
        <ele>404.39999389648</ele>
        <time>2019-05-16T09:03:24Z</time>
      </trkpt>
      <trkpt lat="43.03599" lon="-0.06206">
        <ele>404.39999389648</ele>
        <time>2019-05-16T09:03:42Z</time>
      </trkpt>
      <trkpt lat="43.03597" lon="-0.06206">
        <ele>404.39999389648</ele>
        <time>2019-05-16T09:03:50Z</time>
      </trkpt>
      <trkpt lat="43.03597" lon="-0.06206">
        <ele>404.39999389648</ele>
        <time>2019-05-16T09:04:00Z</time>
      </trkpt>
      <trkpt lat="43.03597" lon="-0.06206">
        <ele>404.39999389648</ele>
        <time>2019-05-16T09:04:10Z</time>
      </trkpt>
      <trkpt lat="43.03597" lon="-0.06206">
        <ele>404.39999389648</ele>
        <time>2019-05-16T09:04:26Z</time>
      </trkpt>
      <trkpt lat="43.03596" lon="-0.06207">
        <ele>404.39999389648</ele>
        <time>2019-05-16T09:04:35Z</time>
      </trkpt>
      <trkpt lat="43.03596" lon="-0.06207">
        <ele>404.39999389648</ele>
        <time>2019-05-16T09:04:50Z</time>
      </trkpt>
      <trkpt lat="43.03596" lon="-0.06207">
        <ele>404.39999389648</ele>
        <time>2019-05-16T09:05:05Z</time>
      </trkpt>
      <trkpt lat="43.03596" lon="-0.06206">
        <ele>404.39999389648</ele>
        <time>2019-05-16T09:05:19Z</time>
      </trkpt>
      <trkpt lat="43.03596" lon="-0.06206">
        <ele>404.39999389648</ele>
        <time>2019-05-16T09:05:35Z</time>
      </trkpt>
      <trkpt lat="43.03596" lon="-0.06206">
        <ele>404.39999389648</ele>
        <time>2019-05-16T09:05:48Z</time>
      </trkpt>
      <trkpt lat="43.03595" lon="-0.06207">
        <ele>404.39999389648</ele>
        <time>2019-05-16T09:06:00Z</time>
      </trkpt>
      <trkpt lat="43.03592" lon="-0.06209">
        <ele>404.39999389648</ele>
        <time>2019-05-16T09:06:06Z</time>
      </trkpt>
      <trkpt lat="43.03591" lon="-0.0621">
        <ele>404.39999389648</ele>
        <time>2019-05-16T09:06:07Z</time>
      </trkpt>
      <trkpt lat="43.03579" lon="-0.06212">
        <ele>404.39999389648</ele>
        <time>2019-05-16T09:06:12Z</time>
      </trkpt>
      <trkpt lat="43.03569" lon="-0.06213">
        <ele>404.39999389648</ele>
        <time>2019-05-16T09:06:16Z</time>
      </trkpt>
      <trkpt lat="43.03563" lon="-0.06215">
        <ele>404.39999389648</ele>
        <time>2019-05-16T09:06:19Z</time>
      </trkpt>
      <trkpt lat="43.03561" lon="-0.06215">
        <ele>404.39999389648</ele>
        <time>2019-05-16T09:06:20Z</time>
      </trkpt>
      <trkpt lat="43.03554" lon="-0.06212">
        <ele>404.39999389648</ele>
        <time>2019-05-16T09:06:25Z</time>
      </trkpt>
      <trkpt lat="43.03553" lon="-0.06209">
        <ele>404.39999389648</ele>
        <time>2019-05-16T09:06:26Z</time>
      </trkpt>
      <trkpt lat="43.03547" lon="-0.06199">
        <ele>404.39999389648</ele>
        <time>2019-05-16T09:06:29Z</time>
      </trkpt>
      <trkpt lat="43.03544" lon="-0.06199">
        <ele>404.39999389648</ele>
        <time>2019-05-16T09:06:30Z</time>
      </trkpt>
      <trkpt lat="43.0354" lon="-0.06202">
        <ele>404.39999389648</ele>
        <time>2019-05-16T09:06:33Z</time>
      </trkpt>
      <trkpt lat="43.03538" lon="-0.06203">
        <ele>404.39999389648</ele>
        <time>2019-05-16T09:06:34Z</time>
      </trkpt>
      <trkpt lat="43.03537" lon="-0.06204">
        <ele>404.39999389648</ele>
        <time>2019-05-16T09:06:35Z</time>
      </trkpt>
      <trkpt lat="43.03529" lon="-0.06208">
        <ele>404.39999389648</ele>
        <time>2019-05-16T09:06:38Z</time>
      </trkpt>
      <trkpt lat="43.0352" lon="-0.06207">
        <ele>404.39999389648</ele>
        <time>2019-05-16T09:06:43Z</time>
      </trkpt>
      <trkpt lat="43.0352" lon="-0.06204">
        <ele>404.39999389648</ele>
        <time>2019-05-16T09:06:44Z</time>
      </trkpt>
      <trkpt lat="43.03515" lon="-0.06189">
        <ele>404.39999389648</ele>
        <time>2019-05-16T09:06:49Z</time>
      </trkpt>
      <trkpt lat="43.0351" lon="-0.06183">
        <ele>404.39999389648</ele>
        <time>2019-05-16T09:06:52Z</time>
      </trkpt>
      <trkpt lat="43.03506" lon="-0.06178">
        <ele>404.39999389648</ele>
        <time>2019-05-16T09:06:54Z</time>
      </trkpt>
      <trkpt lat="43.03497" lon="-0.06174">
        <ele>404.39999389648</ele>
        <time>2019-05-16T09:06:58Z</time>
      </trkpt>
      <trkpt lat="43.03489" lon="-0.06174">
        <ele>404.39999389648</ele>
        <time>2019-05-16T09:07:01Z</time>
      </trkpt>
      <trkpt lat="43.03487" lon="-0.06174">
        <ele>404.39999389648</ele>
        <time>2019-05-16T09:07:02Z</time>
      </trkpt>
      <trkpt lat="43.03482" lon="-0.06175">
        <ele>404.39999389648</ele>
        <time>2019-05-16T09:07:04Z</time>
      </trkpt>
      <trkpt lat="43.03476" lon="-0.06176">
        <ele>404.39999389648</ele>
        <time>2019-05-16T09:07:06Z</time>
      </trkpt>
      <trkpt lat="43.03469" lon="-0.0618">
        <ele>404.39999389648</ele>
        <time>2019-05-16T09:07:09Z</time>
      </trkpt>
      <trkpt lat="43.03467" lon="-0.06182">
        <ele>404.39999389648</ele>
        <time>2019-05-16T09:07:10Z</time>
      </trkpt>
      <trkpt lat="43.03465" lon="-0.06183">
        <ele>404.39999389648</ele>
        <time>2019-05-16T09:07:11Z</time>
      </trkpt>
      <trkpt lat="43.0346" lon="-0.06185">
        <ele>404.39999389648</ele>
        <time>2019-05-16T09:07:13Z</time>
      </trkpt>
      <trkpt lat="43.03452" lon="-0.06186">
        <ele>404.39999389648</ele>
        <time>2019-05-16T09:07:16Z</time>
      </trkpt>
      <trkpt lat="43.03448" lon="-0.06185">
        <ele>404.39999389648</ele>
        <time>2019-05-16T09:07:17Z</time>
      </trkpt>
      <trkpt lat="43.0344" lon="-0.06179">
        <ele>404.39999389648</ele>
        <time>2019-05-16T09:07:21Z</time>
      </trkpt>
      <trkpt lat="43.03438" lon="-0.06176">
        <ele>404.39999389648</ele>
        <time>2019-05-16T09:07:23Z</time>
      </trkpt>
      <trkpt lat="43.03438" lon="-0.06167">
        <ele>404.39999389648</ele>
        <time>2019-05-16T09:07:25Z</time>
      </trkpt>
      <trkpt lat="43.03437" lon="-0.06159">
        <ele>404.39999389648</ele>
        <time>2019-05-16T09:07:29Z</time>
      </trkpt>
      <trkpt lat="43.03437" lon="-0.06159">
        <ele>404.39999389648</ele>
        <time>2019-05-16T09:07:38Z</time>
      </trkpt>
      <trkpt lat="43.03437" lon="-0.06153">
        <ele>404.79998779297</ele>
        <time>2019-05-16T09:07:44Z</time>
      </trkpt>
      <trkpt lat="43.03437" lon="-0.06153">
        <ele>405.20001220703</ele>
        <time>2019-05-16T09:07:45Z</time>
      </trkpt>
      <trkpt lat="43.03437" lon="-0.06152">
        <ele>405.60000610352</ele>
        <time>2019-05-16T09:07:46Z</time>
      </trkpt>
      <trkpt lat="43.03437" lon="-0.0615">
        <ele>406</ele>
        <time>2019-05-16T09:07:47Z</time>
      </trkpt>
      <trkpt lat="43.03437" lon="-0.06149">
        <ele>406.39999389648</ele>
        <time>2019-05-16T09:07:48Z</time>
      </trkpt>
      <trkpt lat="43.03436" lon="-0.06145">
        <ele>406.39999389648</ele>
        <time>2019-05-16T09:07:51Z</time>
      </trkpt>
      <trkpt lat="43.03436" lon="-0.06143">
        <ele>406.39999389648</ele>
        <time>2019-05-16T09:07:55Z</time>
      </trkpt>
      <trkpt lat="43.03435" lon="-0.06143">
        <ele>406.39999389648</ele>
        <time>2019-05-16T09:08:00Z</time>
      </trkpt>
      <trkpt lat="43.03434" lon="-0.06143">
        <ele>406.39999389648</ele>
        <time>2019-05-16T09:08:07Z</time>
      </trkpt>
      <trkpt lat="43.03433" lon="-0.06144">
        <ele>406.39999389648</ele>
        <time>2019-05-16T09:08:12Z</time>
      </trkpt>
      <trkpt lat="43.03433" lon="-0.06144">
        <ele>406.39999389648</ele>
        <time>2019-05-16T09:08:23Z</time>
      </trkpt>
      <trkpt lat="43.03433" lon="-0.06144">
        <ele>406.39999389648</ele>
        <time>2019-05-16T09:08:34Z</time>
      </trkpt>
      <trkpt lat="43.03433" lon="-0.06144">
        <ele>406.39999389648</ele>
        <time>2019-05-16T09:08:45Z</time>
      </trkpt>
      <trkpt lat="43.03433" lon="-0.06143">
        <ele>406.39999389648</ele>
        <time>2019-05-16T09:08:59Z</time>
      </trkpt>
      <trkpt lat="43.03433" lon="-0.06143">
        <ele>406.39999389648</ele>
        <time>2019-05-16T09:09:10Z</time>
      </trkpt>
      <trkpt lat="43.03432" lon="-0.06143">
        <ele>406.39999389648</ele>
        <time>2019-05-16T09:09:20Z</time>
      </trkpt>
      <trkpt lat="43.03428" lon="-0.06146">
        <ele>406.39999389648</ele>
        <time>2019-05-16T09:09:23Z</time>
      </trkpt>
      <trkpt lat="43.03424" lon="-0.06147">
        <ele>406.39999389648</ele>
        <time>2019-05-16T09:09:25Z</time>
      </trkpt>
      <trkpt lat="43.03408" lon="-0.06152">
        <ele>406.39999389648</ele>
        <time>2019-05-16T09:09:32Z</time>
      </trkpt>
      <trkpt lat="43.03388" lon="-0.06157">
        <ele>406.39999389648</ele>
        <time>2019-05-16T09:09:39Z</time>
      </trkpt>
      <trkpt lat="43.03366" lon="-0.06165">
        <ele>406.39999389648</ele>
        <time>2019-05-16T09:09:46Z</time>
      </trkpt>
      <trkpt lat="43.03342" lon="-0.06172">
        <ele>406.39999389648</ele>
        <time>2019-05-16T09:09:53Z</time>
      </trkpt>
      <trkpt lat="43.03322" lon="-0.06179">
        <ele>406.39999389648</ele>
        <time>2019-05-16T09:09:59Z</time>
      </trkpt>
      <trkpt lat="43.03291" lon="-0.06188">
        <ele>406.39999389648</ele>
        <time>2019-05-16T09:10:07Z</time>
      </trkpt>
      <trkpt lat="43.03266" lon="-0.06197">
        <ele>406.39999389648</ele>
        <time>2019-05-16T09:10:14Z</time>
      </trkpt>
      <trkpt lat="43.03241" lon="-0.06207">
        <ele>406.39999389648</ele>
        <time>2019-05-16T09:10:21Z</time>
      </trkpt>
      <trkpt lat="43.03212" lon="-0.06215">
        <ele>406.39999389648</ele>
        <time>2019-05-16T09:10:29Z</time>
      </trkpt>
      <trkpt lat="43.03182" lon="-0.06227">
        <ele>406.39999389648</ele>
        <time>2019-05-16T09:10:37Z</time>
      </trkpt>
      <trkpt lat="43.03154" lon="-0.06236">
        <ele>406.39999389648</ele>
        <time>2019-05-16T09:10:44Z</time>
      </trkpt>
      <trkpt lat="43.03131" lon="-0.06244">
        <ele>406.39999389648</ele>
        <time>2019-05-16T09:10:50Z</time>
      </trkpt>
      <trkpt lat="43.03104" lon="-0.06254">
        <ele>406.39999389648</ele>
        <time>2019-05-16T09:10:57Z</time>
      </trkpt>
      <trkpt lat="43.0307" lon="-0.06266">
        <ele>406.39999389648</ele>
        <time>2019-05-16T09:11:06Z</time>
      </trkpt>
      <trkpt lat="43.03049" lon="-0.06273">
        <ele>406.39999389648</ele>
        <time>2019-05-16T09:11:12Z</time>
      </trkpt>
      <trkpt lat="43.03033" lon="-0.06276">
        <ele>406.39999389648</ele>
        <time>2019-05-16T09:11:18Z</time>
      </trkpt>
      <trkpt lat="43.0303" lon="-0.06279">
        <ele>406.39999389648</ele>
        <time>2019-05-16T09:11:20Z</time>
      </trkpt>
      <trkpt lat="43.03029" lon="-0.06283">
        <ele>406.39999389648</ele>
        <time>2019-05-16T09:11:22Z</time>
      </trkpt>
      <trkpt lat="43.03028" lon="-0.06289">
        <ele>406.39999389648</ele>
        <time>2019-05-16T09:11:24Z</time>
      </trkpt>
      <trkpt lat="43.03026" lon="-0.06302">
        <ele>406.39999389648</ele>
        <time>2019-05-16T09:11:27Z</time>
      </trkpt>
      <trkpt lat="43.03022" lon="-0.06311">
        <ele>406.39999389648</ele>
        <time>2019-05-16T09:11:29Z</time>
      </trkpt>
      <trkpt lat="43.03017" lon="-0.06319">
        <ele>406.39999389648</ele>
        <time>2019-05-16T09:11:31Z</time>
      </trkpt>
      <trkpt lat="43.03009" lon="-0.06338">
        <ele>406.39999389648</ele>
        <time>2019-05-16T09:11:36Z</time>
      </trkpt>
      <trkpt lat="43.03005" lon="-0.06354">
        <ele>406.39999389648</ele>
        <time>2019-05-16T09:11:40Z</time>
      </trkpt>
      <trkpt lat="43.02997" lon="-0.06374">
        <ele>406.39999389648</ele>
        <time>2019-05-16T09:11:45Z</time>
      </trkpt>
      <trkpt lat="43.02988" lon="-0.06393">
        <ele>406.39999389648</ele>
        <time>2019-05-16T09:11:50Z</time>
      </trkpt>
      <trkpt lat="43.02982" lon="-0.06413">
        <ele>406.39999389648</ele>
        <time>2019-05-16T09:11:54Z</time>
      </trkpt>
      <trkpt lat="43.02979" lon="-0.06425">
        <ele>406.39999389648</ele>
        <time>2019-05-16T09:11:57Z</time>
      </trkpt>
      <trkpt lat="43.02976" lon="-0.06428">
        <ele>406.39999389648</ele>
        <time>2019-05-16T09:11:58Z</time>
      </trkpt>
      <trkpt lat="43.02968" lon="-0.06435">
        <ele>406.39999389648</ele>
        <time>2019-05-16T09:12:01Z</time>
      </trkpt>
      <trkpt lat="43.02961" lon="-0.0644">
        <ele>406.39999389648</ele>
        <time>2019-05-16T09:12:03Z</time>
      </trkpt>
      <trkpt lat="43.02946" lon="-0.06453">
        <ele>406.39999389648</ele>
        <time>2019-05-16T09:12:08Z</time>
      </trkpt>
      <trkpt lat="43.02933" lon="-0.06483">
        <ele>406.39999389648</ele>
        <time>2019-05-16T09:12:14Z</time>
      </trkpt>
      <trkpt lat="43.02922" lon="-0.06518">
        <ele>406.39999389648</ele>
        <time>2019-05-16T09:12:21Z</time>
      </trkpt>
      <trkpt lat="43.02911" lon="-0.06539">
        <ele>406.39999389648</ele>
        <time>2019-05-16T09:12:26Z</time>
      </trkpt>
      <trkpt lat="43.02901" lon="-0.06562">
        <ele>406.39999389648</ele>
        <time>2019-05-16T09:12:31Z</time>
      </trkpt>
      <trkpt lat="43.02886" lon="-0.06575">
        <ele>406.39999389648</ele>
        <time>2019-05-16T09:12:36Z</time>
      </trkpt>
      <trkpt lat="43.02876" lon="-0.06582">
        <ele>406.39999389648</ele>
        <time>2019-05-16T09:12:39Z</time>
      </trkpt>
      <trkpt lat="43.02872" lon="-0.06584">
        <ele>406.39999389648</ele>
        <time>2019-05-16T09:12:40Z</time>
      </trkpt>
      <trkpt lat="43.0286" lon="-0.0659">
        <ele>406.39999389648</ele>
        <time>2019-05-16T09:12:43Z</time>
      </trkpt>
      <trkpt lat="43.02851" lon="-0.066">
        <ele>406.39999389648</ele>
        <time>2019-05-16T09:12:46Z</time>
      </trkpt>
      <trkpt lat="43.02836" lon="-0.06618">
        <ele>406.39999389648</ele>
        <time>2019-05-16T09:12:52Z</time>
      </trkpt>
      <trkpt lat="43.02813" lon="-0.0664">
        <ele>406.39999389648</ele>
        <time>2019-05-16T09:13:00Z</time>
      </trkpt>
      <trkpt lat="43.02801" lon="-0.06654">
        <ele>406.39999389648</ele>
        <time>2019-05-16T09:13:05Z</time>
      </trkpt>
      <trkpt lat="43.02786" lon="-0.06667">
        <ele>406.39999389648</ele>
        <time>2019-05-16T09:13:10Z</time>
      </trkpt>
      <trkpt lat="43.02774" lon="-0.06683">
        <ele>406.39999389648</ele>
        <time>2019-05-16T09:13:15Z</time>
      </trkpt>
      <trkpt lat="43.02759" lon="-0.06707">
        <ele>406.39999389648</ele>
        <time>2019-05-16T09:13:21Z</time>
      </trkpt>
      <trkpt lat="43.02744" lon="-0.06733">
        <ele>406.39999389648</ele>
        <time>2019-05-16T09:13:27Z</time>
      </trkpt>
      <trkpt lat="43.02729" lon="-0.06759">
        <ele>406.39999389648</ele>
        <time>2019-05-16T09:13:33Z</time>
      </trkpt>
      <trkpt lat="43.02716" lon="-0.06784">
        <ele>406.39999389648</ele>
        <time>2019-05-16T09:13:39Z</time>
      </trkpt>
      <trkpt lat="43.02706" lon="-0.06812">
        <ele>406.39999389648</ele>
        <time>2019-05-16T09:13:45Z</time>
      </trkpt>
      <trkpt lat="43.02699" lon="-0.0683">
        <ele>406.39999389648</ele>
        <time>2019-05-16T09:13:49Z</time>
      </trkpt>
      <trkpt lat="43.02695" lon="-0.06853">
        <ele>407</ele>
        <time>2019-05-16T09:13:53Z</time>
      </trkpt>
      <trkpt lat="43.02694" lon="-0.06859">
        <ele>407.39999389648</ele>
        <time>2019-05-16T09:13:54Z</time>
      </trkpt>
      <trkpt lat="43.02694" lon="-0.06865">
        <ele>407.79998779297</ele>
        <time>2019-05-16T09:13:55Z</time>
      </trkpt>
      <trkpt lat="43.02694" lon="-0.06871">
        <ele>408.20001220703</ele>
        <time>2019-05-16T09:13:56Z</time>
      </trkpt>
      <trkpt lat="43.02694" lon="-0.06877">
        <ele>408.60000610352</ele>
        <time>2019-05-16T09:13:57Z</time>
      </trkpt>
      <trkpt lat="43.02693" lon="-0.06905">
        <ele>408.60000610352</ele>
        <time>2019-05-16T09:14:02Z</time>
      </trkpt>
      <trkpt lat="43.02692" lon="-0.06921">
        <ele>408.60000610352</ele>
        <time>2019-05-16T09:14:05Z</time>
      </trkpt>
      <trkpt lat="43.0269" lon="-0.06937">
        <ele>408.60000610352</ele>
        <time>2019-05-16T09:14:08Z</time>
      </trkpt>
      <trkpt lat="43.02689" lon="-0.0696">
        <ele>408.60000610352</ele>
        <time>2019-05-16T09:14:12Z</time>
      </trkpt>
      <trkpt lat="43.0269" lon="-0.06971">
        <ele>408.60000610352</ele>
        <time>2019-05-16T09:14:14Z</time>
      </trkpt>
      <trkpt lat="43.02695" lon="-0.06999">
        <ele>408.60000610352</ele>
        <time>2019-05-16T09:14:19Z</time>
      </trkpt>
      <trkpt lat="43.02695" lon="-0.07004">
        <ele>408.60000610352</ele>
        <time>2019-05-16T09:14:20Z</time>
      </trkpt>
      <trkpt lat="43.02694" lon="-0.07028">
        <ele>408.60000610352</ele>
        <time>2019-05-16T09:14:24Z</time>
      </trkpt>
      <trkpt lat="43.02688" lon="-0.07055">
        <ele>408.60000610352</ele>
        <time>2019-05-16T09:14:29Z</time>
      </trkpt>
      <trkpt lat="43.02688" lon="-0.07082">
        <ele>408.60000610352</ele>
        <time>2019-05-16T09:14:34Z</time>
      </trkpt>
      <trkpt lat="43.02694" lon="-0.07107">
        <ele>408.60000610352</ele>
        <time>2019-05-16T09:14:39Z</time>
      </trkpt>
      <trkpt lat="43.02696" lon="-0.07111">
        <ele>408.60000610352</ele>
        <time>2019-05-16T09:14:40Z</time>
      </trkpt>
      <trkpt lat="43.02706" lon="-0.07127">
        <ele>408.60000610352</ele>
        <time>2019-05-16T09:14:44Z</time>
      </trkpt>
      <trkpt lat="43.0271" lon="-0.07136">
        <ele>408.60000610352</ele>
        <time>2019-05-16T09:14:46Z</time>
      </trkpt>
      <trkpt lat="43.02715" lon="-0.07145">
        <ele>408.60000610352</ele>
        <time>2019-05-16T09:14:48Z</time>
      </trkpt>
      <trkpt lat="43.0272" lon="-0.07159">
        <ele>408.60000610352</ele>
        <time>2019-05-16T09:14:51Z</time>
      </trkpt>
      <trkpt lat="43.02721" lon="-0.07165">
        <ele>408.60000610352</ele>
        <time>2019-05-16T09:14:52Z</time>
      </trkpt>
      <trkpt lat="43.02724" lon="-0.07188">
        <ele>408.60000610352</ele>
        <time>2019-05-16T09:14:56Z</time>
      </trkpt>
      <trkpt lat="43.0273" lon="-0.07209">
        <ele>408.60000610352</ele>
        <time>2019-05-16T09:15:00Z</time>
      </trkpt>
      <trkpt lat="43.02734" lon="-0.07219">
        <ele>408.60000610352</ele>
        <time>2019-05-16T09:15:02Z</time>
      </trkpt>
      <trkpt lat="43.02734" lon="-0.07241">
        <ele>408.60000610352</ele>
        <time>2019-05-16T09:15:06Z</time>
      </trkpt>
      <trkpt lat="43.02725" lon="-0.07261">
        <ele>408.60000610352</ele>
        <time>2019-05-16T09:15:10Z</time>
      </trkpt>
      <trkpt lat="43.0271" lon="-0.07272">
        <ele>408.60000610352</ele>
        <time>2019-05-16T09:15:15Z</time>
      </trkpt>
      <trkpt lat="43.02699" lon="-0.07277">
        <ele>408.60000610352</ele>
        <time>2019-05-16T09:15:18Z</time>
      </trkpt>
      <trkpt lat="43.02695" lon="-0.07278">
        <ele>408.60000610352</ele>
        <time>2019-05-16T09:15:19Z</time>
      </trkpt>
      <trkpt lat="43.02673" lon="-0.07288">
        <ele>408.60000610352</ele>
        <time>2019-05-16T09:15:25Z</time>
      </trkpt>
      <trkpt lat="43.02655" lon="-0.07293">
        <ele>408.60000610352</ele>
        <time>2019-05-16T09:15:30Z</time>
      </trkpt>
      <trkpt lat="43.02638" lon="-0.07297">
        <ele>408.60000610352</ele>
        <time>2019-05-16T09:15:35Z</time>
      </trkpt>
      <trkpt lat="43.02623" lon="-0.07304">
        <ele>408.60000610352</ele>
        <time>2019-05-16T09:15:40Z</time>
      </trkpt>
      <trkpt lat="43.02613" lon="-0.07309">
        <ele>408.60000610352</ele>
        <time>2019-05-16T09:15:43Z</time>
      </trkpt>
      <trkpt lat="43.02595" lon="-0.07319">
        <ele>408.60000610352</ele>
        <time>2019-05-16T09:15:48Z</time>
      </trkpt>
      <trkpt lat="43.02577" lon="-0.07335">
        <ele>408.60000610352</ele>
        <time>2019-05-16T09:15:53Z</time>
      </trkpt>
      <trkpt lat="43.02566" lon="-0.07352">
        <ele>408.60000610352</ele>
        <time>2019-05-16T09:15:57Z</time>
      </trkpt>
      <trkpt lat="43.02553" lon="-0.0737">
        <ele>408.60000610352</ele>
        <time>2019-05-16T09:16:03Z</time>
      </trkpt>
      <trkpt lat="43.0255" lon="-0.07376">
        <ele>408.60000610352</ele>
        <time>2019-05-16T09:16:05Z</time>
      </trkpt>
      <trkpt lat="43.02553" lon="-0.07383">
        <ele>408.60000610352</ele>
        <time>2019-05-16T09:16:07Z</time>
      </trkpt>
      <trkpt lat="43.02559" lon="-0.07396">
        <ele>408.60000610352</ele>
        <time>2019-05-16T09:16:11Z</time>
      </trkpt>
      <trkpt lat="43.02576" lon="-0.07421">
        <ele>408.60000610352</ele>
        <time>2019-05-16T09:16:18Z</time>
      </trkpt>
      <trkpt lat="43.02586" lon="-0.07442">
        <ele>408.60000610352</ele>
        <time>2019-05-16T09:16:24Z</time>
      </trkpt>
      <trkpt lat="43.02583" lon="-0.07465">
        <ele>408.60000610352</ele>
        <time>2019-05-16T09:16:28Z</time>
      </trkpt>
      <trkpt lat="43.02576" lon="-0.07491">
        <ele>408.60000610352</ele>
        <time>2019-05-16T09:16:33Z</time>
      </trkpt>
      <trkpt lat="43.02569" lon="-0.07521">
        <ele>408.60000610352</ele>
        <time>2019-05-16T09:16:39Z</time>
      </trkpt>
      <trkpt lat="43.02568" lon="-0.07546">
        <ele>408.60000610352</ele>
        <time>2019-05-16T09:16:45Z</time>
      </trkpt>
      <trkpt lat="43.02571" lon="-0.07571">
        <ele>408.60000610352</ele>
        <time>2019-05-16T09:16:50Z</time>
      </trkpt>
      <trkpt lat="43.02572" lon="-0.07593">
        <ele>408.60000610352</ele>
        <time>2019-05-16T09:16:55Z</time>
      </trkpt>
      <trkpt lat="43.02564" lon="-0.07611">
        <ele>408.60000610352</ele>
        <time>2019-05-16T09:16:59Z</time>
      </trkpt>
      <trkpt lat="43.02558" lon="-0.07623">
        <ele>408.60000610352</ele>
        <time>2019-05-16T09:17:02Z</time>
      </trkpt>
      <trkpt lat="43.02557" lon="-0.07627">
        <ele>408.60000610352</ele>
        <time>2019-05-16T09:17:03Z</time>
      </trkpt>
      <trkpt lat="43.02561" lon="-0.07645">
        <ele>408.60000610352</ele>
        <time>2019-05-16T09:17:07Z</time>
      </trkpt>
      <trkpt lat="43.02567" lon="-0.07671">
        <ele>408.60000610352</ele>
        <time>2019-05-16T09:17:12Z</time>
      </trkpt>
      <trkpt lat="43.02575" lon="-0.07697">
        <ele>408.60000610352</ele>
        <time>2019-05-16T09:17:17Z</time>
      </trkpt>
      <trkpt lat="43.02581" lon="-0.07726">
        <ele>408.60000610352</ele>
        <time>2019-05-16T09:17:23Z</time>
      </trkpt>
      <trkpt lat="43.02587" lon="-0.07745">
        <ele>408.60000610352</ele>
        <time>2019-05-16T09:17:28Z</time>
      </trkpt>
      <trkpt lat="43.02592" lon="-0.07753">
        <ele>408.60000610352</ele>
        <time>2019-05-16T09:17:31Z</time>
      </trkpt>
      <trkpt lat="43.02594" lon="-0.07754">
        <ele>408.60000610352</ele>
        <time>2019-05-16T09:17:32Z</time>
      </trkpt>
      <trkpt lat="43.02606" lon="-0.07758">
        <ele>408.60000610352</ele>
        <time>2019-05-16T09:17:37Z</time>
      </trkpt>
      <trkpt lat="43.02609" lon="-0.0776">
        <ele>409</ele>
        <time>2019-05-16T09:17:38Z</time>
      </trkpt>
      <trkpt lat="43.02613" lon="-0.07763">
        <ele>409.39999389648</ele>
        <time>2019-05-16T09:17:39Z</time>
      </trkpt>
      <trkpt lat="43.02617" lon="-0.07766">
        <ele>409.79998779297</ele>
        <time>2019-05-16T09:17:40Z</time>
      </trkpt>
      <trkpt lat="43.0262" lon="-0.07768">
        <ele>410.20001220703</ele>
        <time>2019-05-16T09:17:41Z</time>
      </trkpt>
      <trkpt lat="43.02622" lon="-0.0777">
        <ele>410.60000610352</ele>
        <time>2019-05-16T09:17:42Z</time>
      </trkpt>
      <trkpt lat="43.02636" lon="-0.07777">
        <ele>410.60000610352</ele>
        <time>2019-05-16T09:17:46Z</time>
      </trkpt>
      <trkpt lat="43.02652" lon="-0.07784">
        <ele>410.60000610352</ele>
        <time>2019-05-16T09:17:51Z</time>
      </trkpt>
      <trkpt lat="43.02663" lon="-0.07796">
        <ele>410.60000610352</ele>
        <time>2019-05-16T09:17:56Z</time>
      </trkpt>
      <trkpt lat="43.0266" lon="-0.0781">
        <ele>410.60000610352</ele>
        <time>2019-05-16T09:18:00Z</time>
      </trkpt>
      <trkpt lat="43.02656" lon="-0.07816">
        <ele>410.60000610352</ele>
        <time>2019-05-16T09:18:02Z</time>
      </trkpt>
      <trkpt lat="43.02649" lon="-0.07826">
        <ele>410.60000610352</ele>
        <time>2019-05-16T09:18:05Z</time>
      </trkpt>
      <trkpt lat="43.02639" lon="-0.07842">
        <ele>410.60000610352</ele>
        <time>2019-05-16T09:18:10Z</time>
      </trkpt>
      <trkpt lat="43.02635" lon="-0.07859">
        <ele>410.60000610352</ele>
        <time>2019-05-16T09:18:15Z</time>
      </trkpt>
      <trkpt lat="43.02627" lon="-0.07879">
        <ele>410.60000610352</ele>
        <time>2019-05-16T09:18:20Z</time>
      </trkpt>
      <trkpt lat="43.02614" lon="-0.07903">
        <ele>410.60000610352</ele>
        <time>2019-05-16T09:18:26Z</time>
      </trkpt>
      <trkpt lat="43.02598" lon="-0.07932">
        <ele>410.60000610352</ele>
        <time>2019-05-16T09:18:32Z</time>
      </trkpt>
      <trkpt lat="43.02586" lon="-0.0795">
        <ele>410.60000610352</ele>
        <time>2019-05-16T09:18:37Z</time>
      </trkpt>
      <trkpt lat="43.02578" lon="-0.07969">
        <ele>410.60000610352</ele>
        <time>2019-05-16T09:18:41Z</time>
      </trkpt>
      <trkpt lat="43.0257" lon="-0.07977">
        <ele>410.60000610352</ele>
        <time>2019-05-16T09:18:44Z</time>
      </trkpt>
      <trkpt lat="43.02554" lon="-0.07996">
        <ele>410.60000610352</ele>
        <time>2019-05-16T09:18:50Z</time>
      </trkpt>
      <trkpt lat="43.02543" lon="-0.08013">
        <ele>410.60000610352</ele>
        <time>2019-05-16T09:18:56Z</time>
      </trkpt>
      <trkpt lat="43.02531" lon="-0.08029">
        <ele>410.60000610352</ele>
        <time>2019-05-16T09:19:02Z</time>
      </trkpt>
      <trkpt lat="43.02521" lon="-0.08043">
        <ele>410.60000610352</ele>
        <time>2019-05-16T09:19:07Z</time>
      </trkpt>
      <trkpt lat="43.02508" lon="-0.08058">
        <ele>410.60000610352</ele>
        <time>2019-05-16T09:19:12Z</time>
      </trkpt>
      <trkpt lat="43.02492" lon="-0.08075">
        <ele>410.60000610352</ele>
        <time>2019-05-16T09:19:18Z</time>
      </trkpt>
      <trkpt lat="43.02471" lon="-0.08096">
        <ele>410.60000610352</ele>
        <time>2019-05-16T09:19:24Z</time>
      </trkpt>
      <trkpt lat="43.02454" lon="-0.08113">
        <ele>410.60000610352</ele>
        <time>2019-05-16T09:19:29Z</time>
      </trkpt>
      <trkpt lat="43.02436" lon="-0.08129">
        <ele>410.60000610352</ele>
        <time>2019-05-16T09:19:35Z</time>
      </trkpt>
      <trkpt lat="43.02423" lon="-0.08139">
        <ele>410.60000610352</ele>
        <time>2019-05-16T09:19:40Z</time>
      </trkpt>
      <trkpt lat="43.0241" lon="-0.08149">
        <ele>411</ele>
        <time>2019-05-16T09:19:44Z</time>
      </trkpt>
      <trkpt lat="43.02407" lon="-0.08152">
        <ele>411.39999389648</ele>
        <time>2019-05-16T09:19:45Z</time>
      </trkpt>
      <trkpt lat="43.02403" lon="-0.08155">
        <ele>411.79998779297</ele>
        <time>2019-05-16T09:19:46Z</time>
      </trkpt>
      <trkpt lat="43.024" lon="-0.08157">
        <ele>412.20001220703</ele>
        <time>2019-05-16T09:19:47Z</time>
      </trkpt>
      <trkpt lat="43.02396" lon="-0.08158">
        <ele>412.60000610352</ele>
        <time>2019-05-16T09:19:48Z</time>
      </trkpt>
      <trkpt lat="43.02393" lon="-0.0816">
        <ele>412.60000610352</ele>
        <time>2019-05-16T09:19:49Z</time>
      </trkpt>
      <trkpt lat="43.02381" lon="-0.08171">
        <ele>412.60000610352</ele>
        <time>2019-05-16T09:19:53Z</time>
      </trkpt>
      <trkpt lat="43.02366" lon="-0.08181">
        <ele>412.60000610352</ele>
        <time>2019-05-16T09:19:57Z</time>
      </trkpt>
      <trkpt lat="43.02347" lon="-0.0819">
        <ele>412.60000610352</ele>
        <time>2019-05-16T09:20:02Z</time>
      </trkpt>
      <trkpt lat="43.02333" lon="-0.08198">
        <ele>412.60000610352</ele>
        <time>2019-05-16T09:20:07Z</time>
      </trkpt>
      <trkpt lat="43.0231" lon="-0.08212">
        <ele>412.60000610352</ele>
        <time>2019-05-16T09:20:14Z</time>
      </trkpt>
      <trkpt lat="43.02302" lon="-0.08216">
        <ele>412.60000610352</ele>
        <time>2019-05-16T09:20:18Z</time>
      </trkpt>
      <trkpt lat="43.02301" lon="-0.08217">
        <ele>412.60000610352</ele>
        <time>2019-05-16T09:20:19Z</time>
      </trkpt>
      <trkpt lat="43.02299" lon="-0.0822">
        <ele>412.60000610352</ele>
        <time>2019-05-16T09:20:23Z</time>
      </trkpt>
      <trkpt lat="43.02294" lon="-0.08224">
        <ele>412.60000610352</ele>
        <time>2019-05-16T09:20:27Z</time>
      </trkpt>
      <trkpt lat="43.02291" lon="-0.08224">
        <ele>412.60000610352</ele>
        <time>2019-05-16T09:20:30Z</time>
      </trkpt>
      <trkpt lat="43.02279" lon="-0.08228">
        <ele>412.60000610352</ele>
        <time>2019-05-16T09:20:36Z</time>
      </trkpt>
      <trkpt lat="43.0227" lon="-0.08229">
        <ele>412.60000610352</ele>
        <time>2019-05-16T09:20:40Z</time>
      </trkpt>
      <trkpt lat="43.02267" lon="-0.08229">
        <ele>413</ele>
        <time>2019-05-16T09:20:43Z</time>
      </trkpt>
      <trkpt lat="43.02265" lon="-0.08229">
        <ele>413.60000610352</ele>
        <time>2019-05-16T09:20:44Z</time>
      </trkpt>
      <trkpt lat="43.02264" lon="-0.08228">
        <ele>414</ele>
        <time>2019-05-16T09:20:45Z</time>
      </trkpt>
      <trkpt lat="43.02263" lon="-0.08228">
        <ele>414.39999389648</ele>
        <time>2019-05-16T09:20:46Z</time>
      </trkpt>
      <trkpt lat="43.02262" lon="-0.08229">
        <ele>414.79998779297</ele>
        <time>2019-05-16T09:20:47Z</time>
      </trkpt>
      <trkpt lat="43.02261" lon="-0.0823">
        <ele>414.79998779297</ele>
        <time>2019-05-16T09:20:50Z</time>
      </trkpt>
      <trkpt lat="43.02256" lon="-0.0823">
        <ele>414.79998779297</ele>
        <time>2019-05-16T09:20:54Z</time>
      </trkpt>
      <trkpt lat="43.02251" lon="-0.08232">
        <ele>414.79998779297</ele>
        <time>2019-05-16T09:20:57Z</time>
      </trkpt>
      <trkpt lat="43.02247" lon="-0.0823">
        <ele>414.79998779297</ele>
        <time>2019-05-16T09:20:59Z</time>
      </trkpt>
      <trkpt lat="43.02243" lon="-0.08226">
        <ele>415.20001220703</ele>
        <time>2019-05-16T09:21:01Z</time>
      </trkpt>
      <trkpt lat="43.02241" lon="-0.08224">
        <ele>415.60000610352</ele>
        <time>2019-05-16T09:21:02Z</time>
      </trkpt>
      <trkpt lat="43.02239" lon="-0.08222">
        <ele>416</ele>
        <time>2019-05-16T09:21:03Z</time>
      </trkpt>
      <trkpt lat="43.02237" lon="-0.08222">
        <ele>416.39999389648</ele>
        <time>2019-05-16T09:21:04Z</time>
      </trkpt>
      <trkpt lat="43.02235" lon="-0.08222">
        <ele>417</ele>
        <time>2019-05-16T09:21:05Z</time>
      </trkpt>
      <trkpt lat="43.02233" lon="-0.08224">
        <ele>417</ele>
        <time>2019-05-16T09:21:09Z</time>
      </trkpt>
      <trkpt lat="43.02233" lon="-0.08225">
        <ele>417</ele>
        <time>2019-05-16T09:21:10Z</time>
      </trkpt>
      <trkpt lat="43.02231" lon="-0.08235">
        <ele>417</ele>
        <time>2019-05-16T09:21:15Z</time>
      </trkpt>
      <trkpt lat="43.0223" lon="-0.08241">
        <ele>417</ele>
        <time>2019-05-16T09:21:20Z</time>
      </trkpt>
      <trkpt lat="43.02229" lon="-0.08247">
        <ele>417</ele>
        <time>2019-05-16T09:21:26Z</time>
      </trkpt>
      <trkpt lat="43.02228" lon="-0.08259">
        <ele>417</ele>
        <time>2019-05-16T09:21:31Z</time>
      </trkpt>
      <trkpt lat="43.02229" lon="-0.0827">
        <ele>417</ele>
        <time>2019-05-16T09:21:35Z</time>
      </trkpt>
      <trkpt lat="43.02229" lon="-0.08272">
        <ele>417</ele>
        <time>2019-05-16T09:21:36Z</time>
      </trkpt>
      <trkpt lat="43.0223" lon="-0.08284">
        <ele>417</ele>
        <time>2019-05-16T09:21:41Z</time>
      </trkpt>
      <trkpt lat="43.02228" lon="-0.08294">
        <ele>417</ele>
        <time>2019-05-16T09:21:45Z</time>
      </trkpt>
      <trkpt lat="43.02228" lon="-0.08297">
        <ele>417</ele>
        <time>2019-05-16T09:21:46Z</time>
      </trkpt>
      <trkpt lat="43.02228" lon="-0.08302">
        <ele>417</ele>
        <time>2019-05-16T09:21:48Z</time>
      </trkpt>
      <trkpt lat="43.0223" lon="-0.08303">
        <ele>417</ele>
        <time>2019-05-16T09:21:50Z</time>
      </trkpt>
      <trkpt lat="43.02238" lon="-0.08302">
        <ele>417</ele>
        <time>2019-05-16T09:21:53Z</time>
      </trkpt>
      <trkpt lat="43.0224" lon="-0.08303">
        <ele>417</ele>
        <time>2019-05-16T09:21:54Z</time>
      </trkpt>
      <trkpt lat="43.02245" lon="-0.08302">
        <ele>416.60000610352</ele>
        <time>2019-05-16T09:21:56Z</time>
      </trkpt>
      <trkpt lat="43.02249" lon="-0.08299">
        <ele>416</ele>
        <time>2019-05-16T09:21:57Z</time>
      </trkpt>
      <trkpt lat="43.02252" lon="-0.08298">
        <ele>415.60000610352</ele>
        <time>2019-05-16T09:21:58Z</time>
      </trkpt>
      <trkpt lat="43.02255" lon="-0.08299">
        <ele>415.20001220703</ele>
        <time>2019-05-16T09:21:59Z</time>
      </trkpt>
      <trkpt lat="43.02258" lon="-0.08299">
        <ele>414.79998779297</ele>
        <time>2019-05-16T09:22:00Z</time>
      </trkpt>
      <trkpt lat="43.02263" lon="-0.08302">
        <ele>414.79998779297</ele>
        <time>2019-05-16T09:22:02Z</time>
      </trkpt>
      <trkpt lat="43.02265" lon="-0.08304">
        <ele>414.79998779297</ele>
        <time>2019-05-16T09:22:03Z</time>
      </trkpt>
      <trkpt lat="43.02278" lon="-0.08307">
        <ele>414.79998779297</ele>
        <time>2019-05-16T09:22:08Z</time>
      </trkpt>
      <trkpt lat="43.02291" lon="-0.08308">
        <ele>414.79998779297</ele>
        <time>2019-05-16T09:22:13Z</time>
      </trkpt>
      <trkpt lat="43.02304" lon="-0.08306">
        <ele>414.79998779297</ele>
        <time>2019-05-16T09:22:18Z</time>
      </trkpt>
      <trkpt lat="43.02316" lon="-0.08305">
        <ele>414.79998779297</ele>
        <time>2019-05-16T09:22:22Z</time>
      </trkpt>
      <trkpt lat="43.0233" lon="-0.08301">
        <ele>414.79998779297</ele>
        <time>2019-05-16T09:22:27Z</time>
      </trkpt>
      <trkpt lat="43.02349" lon="-0.08294">
        <ele>414.79998779297</ele>
        <time>2019-05-16T09:22:33Z</time>
      </trkpt>
      <trkpt lat="43.02365" lon="-0.08289">
        <ele>414.39999389648</ele>
        <time>2019-05-16T09:22:38Z</time>
      </trkpt>
      <trkpt lat="43.02368" lon="-0.08287">
        <ele>414</ele>
        <time>2019-05-16T09:22:39Z</time>
      </trkpt>
      <trkpt lat="43.02372" lon="-0.08285">
        <ele>413.60000610352</ele>
        <time>2019-05-16T09:22:40Z</time>
      </trkpt>
      <trkpt lat="43.02376" lon="-0.08283">
        <ele>413.20001220703</ele>
        <time>2019-05-16T09:22:41Z</time>
      </trkpt>
      <trkpt lat="43.02379" lon="-0.08281">
        <ele>412.79998779297</ele>
        <time>2019-05-16T09:22:42Z</time>
      </trkpt>
      <trkpt lat="43.02383" lon="-0.08279">
        <ele>412.79998779297</ele>
        <time>2019-05-16T09:22:43Z</time>
      </trkpt>
      <trkpt lat="43.02406" lon="-0.08267">
        <ele>412.79998779297</ele>
        <time>2019-05-16T09:22:49Z</time>
      </trkpt>
      <trkpt lat="43.02424" lon="-0.08257">
        <ele>412.79998779297</ele>
        <time>2019-05-16T09:22:54Z</time>
      </trkpt>
      <trkpt lat="43.02447" lon="-0.08244">
        <ele>412.79998779297</ele>
        <time>2019-05-16T09:23:01Z</time>
      </trkpt>
      <trkpt lat="43.02465" lon="-0.08235">
        <ele>412.79998779297</ele>
        <time>2019-05-16T09:23:06Z</time>
      </trkpt>
      <trkpt lat="43.02494" lon="-0.0822">
        <ele>412.79998779297</ele>
        <time>2019-05-16T09:23:13Z</time>
      </trkpt>
      <trkpt lat="43.0251" lon="-0.08207">
        <ele>412.79998779297</ele>
        <time>2019-05-16T09:23:18Z</time>
      </trkpt>
      <trkpt lat="43.02515" lon="-0.082">
        <ele>412.39999389648</ele>
        <time>2019-05-16T09:23:20Z</time>
      </trkpt>
      <trkpt lat="43.02518" lon="-0.08197">
        <ele>412</ele>
        <time>2019-05-16T09:23:21Z</time>
      </trkpt>
      <trkpt lat="43.0252" lon="-0.08194">
        <ele>411.60000610352</ele>
        <time>2019-05-16T09:23:22Z</time>
      </trkpt>
      <trkpt lat="43.02522" lon="-0.08191">
        <ele>411.20001220703</ele>
        <time>2019-05-16T09:23:23Z</time>
      </trkpt>
      <trkpt lat="43.02525" lon="-0.08188">
        <ele>410.60000610352</ele>
        <time>2019-05-16T09:23:24Z</time>
      </trkpt>
      <trkpt lat="43.02533" lon="-0.08174">
        <ele>410.60000610352</ele>
        <time>2019-05-16T09:23:28Z</time>
      </trkpt>
      <trkpt lat="43.02534" lon="-0.0817">
        <ele>410.60000610352</ele>
        <time>2019-05-16T09:23:29Z</time>
      </trkpt>
      <trkpt lat="43.02547" lon="-0.08152">
        <ele>410.60000610352</ele>
        <time>2019-05-16T09:23:34Z</time>
      </trkpt>
      <trkpt lat="43.02562" lon="-0.08132">
        <ele>410.60000610352</ele>
        <time>2019-05-16T09:23:39Z</time>
      </trkpt>
      <trkpt lat="43.02567" lon="-0.08124">
        <ele>410.60000610352</ele>
        <time>2019-05-16T09:23:42Z</time>
      </trkpt>
      <trkpt lat="43.02569" lon="-0.08122">
        <ele>410.60000610352</ele>
        <time>2019-05-16T09:23:43Z</time>
      </trkpt>
      <trkpt lat="43.02588" lon="-0.08102">
        <ele>410.60000610352</ele>
        <time>2019-05-16T09:23:49Z</time>
      </trkpt>
      <trkpt lat="43.02612" lon="-0.08076">
        <ele>410.60000610352</ele>
        <time>2019-05-16T09:23:55Z</time>
      </trkpt>
      <trkpt lat="43.02627" lon="-0.08071">
        <ele>410.60000610352</ele>
        <time>2019-05-16T09:23:59Z</time>
      </trkpt>
      <trkpt lat="43.02631" lon="-0.08068">
        <ele>410.60000610352</ele>
        <time>2019-05-16T09:24:01Z</time>
      </trkpt>
      <trkpt lat="43.02632" lon="-0.08064">
        <ele>410.60000610352</ele>
        <time>2019-05-16T09:24:02Z</time>
      </trkpt>
      <trkpt lat="43.02641" lon="-0.08043">
        <ele>410.60000610352</ele>
        <time>2019-05-16T09:24:08Z</time>
      </trkpt>
      <trkpt lat="43.02648" lon="-0.08023">
        <ele>410.60000610352</ele>
        <time>2019-05-16T09:24:13Z</time>
      </trkpt>
      <trkpt lat="43.02663" lon="-0.08001">
        <ele>410.60000610352</ele>
        <time>2019-05-16T09:24:18Z</time>
      </trkpt>
      <trkpt lat="43.02666" lon="-0.07997">
        <ele>410.60000610352</ele>
        <time>2019-05-16T09:24:19Z</time>
      </trkpt>
      <trkpt lat="43.02673" lon="-0.07984">
        <ele>410.60000610352</ele>
        <time>2019-05-16T09:24:22Z</time>
      </trkpt>
      <trkpt lat="43.02683" lon="-0.07966">
        <ele>410.60000610352</ele>
        <time>2019-05-16T09:24:27Z</time>
      </trkpt>
      <trkpt lat="43.02694" lon="-0.07952">
        <ele>410.60000610352</ele>
        <time>2019-05-16T09:24:31Z</time>
      </trkpt>
      <trkpt lat="43.02697" lon="-0.07949">
        <ele>410.60000610352</ele>
        <time>2019-05-16T09:24:32Z</time>
      </trkpt>
      <trkpt lat="43.0272" lon="-0.07931">
        <ele>410.60000610352</ele>
        <time>2019-05-16T09:24:39Z</time>
      </trkpt>
      <trkpt lat="43.02724" lon="-0.07925">
        <ele>410.60000610352</ele>
        <time>2019-05-16T09:24:42Z</time>
      </trkpt>
      <trkpt lat="43.02725" lon="-0.07923">
        <ele>410.60000610352</ele>
        <time>2019-05-16T09:24:43Z</time>
      </trkpt>
      <trkpt lat="43.02727" lon="-0.07911">
        <ele>410.60000610352</ele>
        <time>2019-05-16T09:24:47Z</time>
      </trkpt>
      <trkpt lat="43.02729" lon="-0.07908">
        <ele>410.60000610352</ele>
        <time>2019-05-16T09:24:48Z</time>
      </trkpt>
      <trkpt lat="43.0274" lon="-0.07888">
        <ele>410.60000610352</ele>
        <time>2019-05-16T09:24:54Z</time>
      </trkpt>
      <trkpt lat="43.02758" lon="-0.07856">
        <ele>410.60000610352</ele>
        <time>2019-05-16T09:25:02Z</time>
      </trkpt>
      <trkpt lat="43.02767" lon="-0.07838">
        <ele>410.60000610352</ele>
        <time>2019-05-16T09:25:07Z</time>
      </trkpt>
      <trkpt lat="43.02775" lon="-0.07825">
        <ele>410.60000610352</ele>
        <time>2019-05-16T09:25:11Z</time>
      </trkpt>
      <trkpt lat="43.02781" lon="-0.07822">
        <ele>410.60000610352</ele>
        <time>2019-05-16T09:25:13Z</time>
      </trkpt>
      <trkpt lat="43.02788" lon="-0.07823">
        <ele>410.60000610352</ele>
        <time>2019-05-16T09:25:15Z</time>
      </trkpt>
      <trkpt lat="43.02792" lon="-0.07827">
        <ele>410.60000610352</ele>
        <time>2019-05-16T09:25:17Z</time>
      </trkpt>
      <trkpt lat="43.02803" lon="-0.07848">
        <ele>410.60000610352</ele>
        <time>2019-05-16T09:25:24Z</time>
      </trkpt>
      <trkpt lat="43.02813" lon="-0.07861">
        <ele>410.60000610352</ele>
        <time>2019-05-16T09:25:29Z</time>
      </trkpt>
      <trkpt lat="43.0282" lon="-0.07867">
        <ele>410.60000610352</ele>
        <time>2019-05-16T09:25:31Z</time>
      </trkpt>
      <trkpt lat="43.02824" lon="-0.07873">
        <ele>410.60000610352</ele>
        <time>2019-05-16T09:25:33Z</time>
      </trkpt>
      <trkpt lat="43.02825" lon="-0.07877">
        <ele>410.60000610352</ele>
        <time>2019-05-16T09:25:34Z</time>
      </trkpt>
      <trkpt lat="43.02825" lon="-0.07885">
        <ele>410.60000610352</ele>
        <time>2019-05-16T09:25:36Z</time>
      </trkpt>
      <trkpt lat="43.02819" lon="-0.07908">
        <ele>410.60000610352</ele>
        <time>2019-05-16T09:25:42Z</time>
      </trkpt>
      <trkpt lat="43.02815" lon="-0.07929">
        <ele>410.60000610352</ele>
        <time>2019-05-16T09:25:47Z</time>
      </trkpt>
      <trkpt lat="43.02809" lon="-0.0795">
        <ele>410.60000610352</ele>
        <time>2019-05-16T09:25:52Z</time>
      </trkpt>
      <trkpt lat="43.028" lon="-0.07984">
        <ele>410.60000610352</ele>
        <time>2019-05-16T09:25:59Z</time>
      </trkpt>
      <trkpt lat="43.02787" lon="-0.08018">
        <ele>410.60000610352</ele>
        <time>2019-05-16T09:26:07Z</time>
      </trkpt>
      <trkpt lat="43.02783" lon="-0.08033">
        <ele>410.60000610352</ele>
        <time>2019-05-16T09:26:11Z</time>
      </trkpt>
      <trkpt lat="43.02786" lon="-0.08034">
        <ele>410.60000610352</ele>
        <time>2019-05-16T09:26:12Z</time>
      </trkpt>
      <trkpt lat="43.02797" lon="-0.08034">
        <ele>410.60000610352</ele>
        <time>2019-05-16T09:26:15Z</time>
      </trkpt>
      <trkpt lat="43.028" lon="-0.08034">
        <ele>410.60000610352</ele>
        <time>2019-05-16T09:26:16Z</time>
      </trkpt>
      <trkpt lat="43.02822" lon="-0.08032">
        <ele>410.60000610352</ele>
        <time>2019-05-16T09:26:22Z</time>
      </trkpt>
      <trkpt lat="43.02844" lon="-0.08028">
        <ele>410.60000610352</ele>
        <time>2019-05-16T09:26:28Z</time>
      </trkpt>
      <trkpt lat="43.02869" lon="-0.08022">
        <ele>410.60000610352</ele>
        <time>2019-05-16T09:26:35Z</time>
      </trkpt>
      <trkpt lat="43.02897" lon="-0.08017">
        <ele>410.60000610352</ele>
        <time>2019-05-16T09:26:43Z</time>
      </trkpt>
      <trkpt lat="43.02919" lon="-0.08012">
        <ele>410.60000610352</ele>
        <time>2019-05-16T09:26:49Z</time>
      </trkpt>
      <trkpt lat="43.02947" lon="-0.08003">
        <ele>410.60000610352</ele>
        <time>2019-05-16T09:26:57Z</time>
      </trkpt>
      <trkpt lat="43.0296" lon="-0.08001">
        <ele>411.20001220703</ele>
        <time>2019-05-16T09:27:01Z</time>
      </trkpt>
      <trkpt lat="43.02964" lon="-0.07999">
        <ele>411.60000610352</ele>
        <time>2019-05-16T09:27:02Z</time>
      </trkpt>
      <trkpt lat="43.02966" lon="-0.07999">
        <ele>412.39999389648</ele>
        <time>2019-05-16T09:27:03Z</time>
      </trkpt>
      <trkpt lat="43.02969" lon="-0.07997">
        <ele>413</ele>
        <time>2019-05-16T09:27:04Z</time>
      </trkpt>
      <trkpt lat="43.02976" lon="-0.07991">
        <ele>413.39999389648</ele>
        <time>2019-05-16T09:27:07Z</time>
      </trkpt>
      <trkpt lat="43.02978" lon="-0.07988">
        <ele>413.79998779297</ele>
        <time>2019-05-16T09:27:08Z</time>
      </trkpt>
      <trkpt lat="43.02979" lon="-0.07986">
        <ele>414.20001220703</ele>
        <time>2019-05-16T09:27:09Z</time>
      </trkpt>
      <trkpt lat="43.0298" lon="-0.07983">
        <ele>414.60000610352</ele>
        <time>2019-05-16T09:27:10Z</time>
      </trkpt>
      <trkpt lat="43.02982" lon="-0.0798">
        <ele>415</ele>
        <time>2019-05-16T09:27:11Z</time>
      </trkpt>
      <trkpt lat="43.02985" lon="-0.0797">
        <ele>415.39999389648</ele>
        <time>2019-05-16T09:27:15Z</time>
      </trkpt>
      <trkpt lat="43.02985" lon="-0.07966">
        <ele>415.79998779297</ele>
        <time>2019-05-16T09:27:16Z</time>
      </trkpt>
      <trkpt lat="43.02985" lon="-0.07964">
        <ele>416.20001220703</ele>
        <time>2019-05-16T09:27:17Z</time>
      </trkpt>
      <trkpt lat="43.02984" lon="-0.0796">
        <ele>416.60000610352</ele>
        <time>2019-05-16T09:27:18Z</time>
      </trkpt>
      <trkpt lat="43.02984" lon="-0.07957">
        <ele>417</ele>
        <time>2019-05-16T09:27:19Z</time>
      </trkpt>
      <trkpt lat="43.02981" lon="-0.07945">
        <ele>417</ele>
        <time>2019-05-16T09:27:22Z</time>
      </trkpt>
      <trkpt lat="43.02976" lon="-0.07927">
        <ele>417</ele>
        <time>2019-05-16T09:27:27Z</time>
      </trkpt>
      <trkpt lat="43.02972" lon="-0.07905">
        <ele>417</ele>
        <time>2019-05-16T09:27:33Z</time>
      </trkpt>
      <trkpt lat="43.02967" lon="-0.07881">
        <ele>417</ele>
        <time>2019-05-16T09:27:40Z</time>
      </trkpt>
      <trkpt lat="43.02963" lon="-0.07856">
        <ele>417</ele>
        <time>2019-05-16T09:27:47Z</time>
      </trkpt>
      <trkpt lat="43.02964" lon="-0.07839">
        <ele>417</ele>
        <time>2019-05-16T09:27:52Z</time>
      </trkpt>
      <trkpt lat="43.02962" lon="-0.07837">
        <ele>417</ele>
        <time>2019-05-16T09:27:53Z</time>
      </trkpt>
      <trkpt lat="43.02953" lon="-0.07833">
        <ele>417</ele>
        <time>2019-05-16T09:27:58Z</time>
      </trkpt>
      <trkpt lat="43.02947" lon="-0.0783">
        <ele>417.39999389648</ele>
        <time>2019-05-16T09:28:02Z</time>
      </trkpt>
      <trkpt lat="43.02946" lon="-0.07829">
        <ele>417.79998779297</ele>
        <time>2019-05-16T09:28:03Z</time>
      </trkpt>
      <trkpt lat="43.02944" lon="-0.07828">
        <ele>418.39999389648</ele>
        <time>2019-05-16T09:28:04Z</time>
      </trkpt>
      <trkpt lat="43.02943" lon="-0.07828">
        <ele>418.79998779297</ele>
        <time>2019-05-16T09:28:05Z</time>
      </trkpt>
      <trkpt lat="43.02942" lon="-0.07827">
        <ele>419.20001220703</ele>
        <time>2019-05-16T09:28:06Z</time>
      </trkpt>
      <trkpt lat="43.0294" lon="-0.07826">
        <ele>419.60000610352</ele>
        <time>2019-05-16T09:28:08Z</time>
      </trkpt>
      <trkpt lat="43.02939" lon="-0.07826">
        <ele>420.20001220703</ele>
        <time>2019-05-16T09:28:09Z</time>
      </trkpt>
      <trkpt lat="43.02937" lon="-0.07825">
        <ele>420.60000610352</ele>
        <time>2019-05-16T09:28:10Z</time>
      </trkpt>
      <trkpt lat="43.02937" lon="-0.07825">
        <ele>421</ele>
        <time>2019-05-16T09:28:11Z</time>
      </trkpt>
      <trkpt lat="43.02936" lon="-0.07825">
        <ele>421.39999389648</ele>
        <time>2019-05-16T09:28:12Z</time>
      </trkpt>
      <trkpt lat="43.02933" lon="-0.07824">
        <ele>422</ele>
        <time>2019-05-16T09:28:15Z</time>
      </trkpt>
      <trkpt lat="43.02932" lon="-0.07823">
        <ele>422.39999389648</ele>
        <time>2019-05-16T09:28:16Z</time>
      </trkpt>
      <trkpt lat="43.02932" lon="-0.07822">
        <ele>423.39999389648</ele>
        <time>2019-05-16T09:28:17Z</time>
      </trkpt>
      <trkpt lat="43.02932" lon="-0.07822">
        <ele>423.79998779297</ele>
        <time>2019-05-16T09:28:18Z</time>
      </trkpt>
      <trkpt lat="43.0293" lon="-0.07822">
        <ele>424.39999389648</ele>
        <time>2019-05-16T09:28:21Z</time>
      </trkpt>
      <trkpt lat="43.02929" lon="-0.07822">
        <ele>424.79998779297</ele>
        <time>2019-05-16T09:28:22Z</time>
      </trkpt>
      <trkpt lat="43.02928" lon="-0.07822">
        <ele>425.20001220703</ele>
        <time>2019-05-16T09:28:23Z</time>
      </trkpt>
      <trkpt lat="43.02926" lon="-0.07822">
        <ele>425.60000610352</ele>
        <time>2019-05-16T09:28:24Z</time>
      </trkpt>
      <trkpt lat="43.02925" lon="-0.07822">
        <ele>426</ele>
        <time>2019-05-16T09:28:25Z</time>
      </trkpt>
      <trkpt lat="43.02924" lon="-0.07821">
        <ele>426.39999389648</ele>
        <time>2019-05-16T09:28:27Z</time>
      </trkpt>
      <trkpt lat="43.02923" lon="-0.07821">
        <ele>426.79998779297</ele>
        <time>2019-05-16T09:28:28Z</time>
      </trkpt>
      <trkpt lat="43.02922" lon="-0.07821">
        <ele>427.20001220703</ele>
        <time>2019-05-16T09:28:29Z</time>
      </trkpt>
      <trkpt lat="43.02921" lon="-0.07821">
        <ele>427.60000610352</ele>
        <time>2019-05-16T09:28:30Z</time>
      </trkpt>
      <trkpt lat="43.0292" lon="-0.0782">
        <ele>428</ele>
        <time>2019-05-16T09:28:31Z</time>
      </trkpt>
      <trkpt lat="43.02916" lon="-0.07818">
        <ele>428</ele>
        <time>2019-05-16T09:28:34Z</time>
      </trkpt>
      <trkpt lat="43.02908" lon="-0.07815">
        <ele>428</ele>
        <time>2019-05-16T09:28:40Z</time>
      </trkpt>
      <trkpt lat="43.02907" lon="-0.07815">
        <ele>428.79998779297</ele>
        <time>2019-05-16T09:28:41Z</time>
      </trkpt>
      <trkpt lat="43.02906" lon="-0.07814">
        <ele>429.20001220703</ele>
        <time>2019-05-16T09:28:42Z</time>
      </trkpt>
      <trkpt lat="43.02906" lon="-0.07814">
        <ele>429.60000610352</ele>
        <time>2019-05-16T09:28:43Z</time>
      </trkpt>
      <trkpt lat="43.02905" lon="-0.07813">
        <ele>430</ele>
        <time>2019-05-16T09:28:44Z</time>
      </trkpt>
      <trkpt lat="43.02902" lon="-0.0781">
        <ele>430</ele>
        <time>2019-05-16T09:28:46Z</time>
      </trkpt>
      <trkpt lat="43.02893" lon="-0.07806">
        <ele>430</ele>
        <time>2019-05-16T09:28:51Z</time>
      </trkpt>
      <trkpt lat="43.02888" lon="-0.07803">
        <ele>430</ele>
        <time>2019-05-16T09:28:54Z</time>
      </trkpt>
      <trkpt lat="43.02884" lon="-0.078">
        <ele>430.39999389648</ele>
        <time>2019-05-16T09:28:56Z</time>
      </trkpt>
      <trkpt lat="43.02882" lon="-0.078">
        <ele>430.79998779297</ele>
        <time>2019-05-16T09:28:57Z</time>
      </trkpt>
      <trkpt lat="43.02881" lon="-0.07798">
        <ele>431.20001220703</ele>
        <time>2019-05-16T09:28:58Z</time>
      </trkpt>
      <trkpt lat="43.0288" lon="-0.07797">
        <ele>431.60000610352</ele>
        <time>2019-05-16T09:28:59Z</time>
      </trkpt>
      <trkpt lat="43.02879" lon="-0.07796">
        <ele>432.20001220703</ele>
        <time>2019-05-16T09:29:00Z</time>
      </trkpt>
      <trkpt lat="43.02876" lon="-0.07791">
        <ele>432.20001220703</ele>
        <time>2019-05-16T09:29:03Z</time>
      </trkpt>
      <trkpt lat="43.02875" lon="-0.07789">
        <ele>432.20001220703</ele>
        <time>2019-05-16T09:29:05Z</time>
      </trkpt>
      <trkpt lat="43.02874" lon="-0.07786">
        <ele>432.20001220703</ele>
        <time>2019-05-16T09:29:07Z</time>
      </trkpt>
      <trkpt lat="43.0287" lon="-0.07776">
        <ele>432.60000610352</ele>
        <time>2019-05-16T09:29:13Z</time>
      </trkpt>
      <trkpt lat="43.0287" lon="-0.07774">
        <ele>433</ele>
        <time>2019-05-16T09:29:14Z</time>
      </trkpt>
      <trkpt lat="43.02869" lon="-0.07772">
        <ele>433.39999389648</ele>
        <time>2019-05-16T09:29:15Z</time>
      </trkpt>
      <trkpt lat="43.02869" lon="-0.07771">
        <ele>433.79998779297</ele>
        <time>2019-05-16T09:29:16Z</time>
      </trkpt>
      <trkpt lat="43.02868" lon="-0.07768">
        <ele>434.20001220703</ele>
        <time>2019-05-16T09:29:17Z</time>
      </trkpt>
      <trkpt lat="43.02867" lon="-0.07764">
        <ele>434.20001220703</ele>
        <time>2019-05-16T09:29:19Z</time>
      </trkpt>
      <trkpt lat="43.02866" lon="-0.07757">
        <ele>434.60000610352</ele>
        <time>2019-05-16T09:29:23Z</time>
      </trkpt>
      <trkpt lat="43.02865" lon="-0.07756">
        <ele>435</ele>
        <time>2019-05-16T09:29:24Z</time>
      </trkpt>
      <trkpt lat="43.02865" lon="-0.07754">
        <ele>435.39999389648</ele>
        <time>2019-05-16T09:29:25Z</time>
      </trkpt>
      <trkpt lat="43.02865" lon="-0.07753">
        <ele>435.79998779297</ele>
        <time>2019-05-16T09:29:26Z</time>
      </trkpt>
      <trkpt lat="43.02865" lon="-0.07752">
        <ele>436.20001220703</ele>
        <time>2019-05-16T09:29:27Z</time>
      </trkpt>
      <trkpt lat="43.02864" lon="-0.07746">
        <ele>436.60000610352</ele>
        <time>2019-05-16T09:29:31Z</time>
      </trkpt>
      <trkpt lat="43.02863" lon="-0.07743">
        <ele>437.20001220703</ele>
        <time>2019-05-16T09:29:32Z</time>
      </trkpt>
      <trkpt lat="43.02863" lon="-0.07741">
        <ele>437.60000610352</ele>
        <time>2019-05-16T09:29:33Z</time>
      </trkpt>
      <trkpt lat="43.02863" lon="-0.0774">
        <ele>438</ele>
        <time>2019-05-16T09:29:34Z</time>
      </trkpt>
      <trkpt lat="43.02863" lon="-0.07738">
        <ele>438.60000610352</ele>
        <time>2019-05-16T09:29:35Z</time>
      </trkpt>
      <trkpt lat="43.02863" lon="-0.0773">
        <ele>439</ele>
        <time>2019-05-16T09:29:39Z</time>
      </trkpt>
      <trkpt lat="43.02863" lon="-0.07728">
        <ele>439.39999389648</ele>
        <time>2019-05-16T09:29:40Z</time>
      </trkpt>
      <trkpt lat="43.02863" lon="-0.07726">
        <ele>439.79998779297</ele>
        <time>2019-05-16T09:29:41Z</time>
      </trkpt>
      <trkpt lat="43.02864" lon="-0.07724">
        <ele>440.39999389648</ele>
        <time>2019-05-16T09:29:42Z</time>
      </trkpt>
      <trkpt lat="43.02864" lon="-0.07722">
        <ele>440.79998779297</ele>
        <time>2019-05-16T09:29:43Z</time>
      </trkpt>
      <trkpt lat="43.02865" lon="-0.07717">
        <ele>441.20001220703</ele>
        <time>2019-05-16T09:29:46Z</time>
      </trkpt>
      <trkpt lat="43.02865" lon="-0.07715">
        <ele>441.60000610352</ele>
        <time>2019-05-16T09:29:47Z</time>
      </trkpt>
      <trkpt lat="43.02866" lon="-0.07714">
        <ele>442</ele>
        <time>2019-05-16T09:29:48Z</time>
      </trkpt>
      <trkpt lat="43.02866" lon="-0.07712">
        <ele>442.60000610352</ele>
        <time>2019-05-16T09:29:49Z</time>
      </trkpt>
      <trkpt lat="43.02866" lon="-0.07711">
        <ele>443</ele>
        <time>2019-05-16T09:29:50Z</time>
      </trkpt>
      <trkpt lat="43.02866" lon="-0.07709">
        <ele>443</ele>
        <time>2019-05-16T09:29:51Z</time>
      </trkpt>
      <trkpt lat="43.02867" lon="-0.07707">
        <ele>443.39999389648</ele>
        <time>2019-05-16T09:29:52Z</time>
      </trkpt>
      <trkpt lat="43.02867" lon="-0.07705">
        <ele>443.79998779297</ele>
        <time>2019-05-16T09:29:53Z</time>
      </trkpt>
      <trkpt lat="43.02868" lon="-0.07703">
        <ele>444.20001220703</ele>
        <time>2019-05-16T09:29:54Z</time>
      </trkpt>
      <trkpt lat="43.02868" lon="-0.07701">
        <ele>445</ele>
        <time>2019-05-16T09:29:55Z</time>
      </trkpt>
      <trkpt lat="43.02869" lon="-0.07698">
        <ele>445.39999389648</ele>
        <time>2019-05-16T09:29:57Z</time>
      </trkpt>
      <trkpt lat="43.0287" lon="-0.07696">
        <ele>446</ele>
        <time>2019-05-16T09:29:58Z</time>
      </trkpt>
      <trkpt lat="43.02872" lon="-0.07695">
        <ele>446.39999389648</ele>
        <time>2019-05-16T09:29:59Z</time>
      </trkpt>
      <trkpt lat="43.02873" lon="-0.07693">
        <ele>446.79998779297</ele>
        <time>2019-05-16T09:30:00Z</time>
      </trkpt>
      <trkpt lat="43.02874" lon="-0.07692">
        <ele>447.20001220703</ele>
        <time>2019-05-16T09:30:01Z</time>
      </trkpt>
      <trkpt lat="43.02876" lon="-0.07691">
        <ele>447.20001220703</ele>
        <time>2019-05-16T09:30:03Z</time>
      </trkpt>
      <trkpt lat="43.0288" lon="-0.0769">
        <ele>447.79998779297</ele>
        <time>2019-05-16T09:30:06Z</time>
      </trkpt>
      <trkpt lat="43.02881" lon="-0.07689">
        <ele>448.20001220703</ele>
        <time>2019-05-16T09:30:07Z</time>
      </trkpt>
      <trkpt lat="43.02882" lon="-0.07688">
        <ele>448.60000610352</ele>
        <time>2019-05-16T09:30:08Z</time>
      </trkpt>
      <trkpt lat="43.02883" lon="-0.07687">
        <ele>449.20001220703</ele>
        <time>2019-05-16T09:30:09Z</time>
      </trkpt>
      <trkpt lat="43.02884" lon="-0.07687">
        <ele>449.60000610352</ele>
        <time>2019-05-16T09:30:10Z</time>
      </trkpt>
      <trkpt lat="43.02885" lon="-0.07681">
        <ele>450</ele>
        <time>2019-05-16T09:30:14Z</time>
      </trkpt>
      <trkpt lat="43.02885" lon="-0.0768">
        <ele>450.39999389648</ele>
        <time>2019-05-16T09:30:15Z</time>
      </trkpt>
      <trkpt lat="43.02884" lon="-0.07678">
        <ele>450.79998779297</ele>
        <time>2019-05-16T09:30:16Z</time>
      </trkpt>
      <trkpt lat="43.02884" lon="-0.07677">
        <ele>451.39999389648</ele>
        <time>2019-05-16T09:30:17Z</time>
      </trkpt>
      <trkpt lat="43.02885" lon="-0.07676">
        <ele>451.79998779297</ele>
        <time>2019-05-16T09:30:18Z</time>
      </trkpt>
      <trkpt lat="43.02885" lon="-0.07675">
        <ele>451.79998779297</ele>
        <time>2019-05-16T09:30:19Z</time>
      </trkpt>
      <trkpt lat="43.02885" lon="-0.07673">
        <ele>451.79998779297</ele>
        <time>2019-05-16T09:30:24Z</time>
      </trkpt>
      <trkpt lat="43.02885" lon="-0.07673">
        <ele>451.79998779297</ele>
        <time>2019-05-16T09:30:33Z</time>
      </trkpt>
      <trkpt lat="43.02885" lon="-0.07673">
        <ele>451.79998779297</ele>
        <time>2019-05-16T09:30:46Z</time>
      </trkpt>
      <trkpt lat="43.02885" lon="-0.07673">
        <ele>451.79998779297</ele>
        <time>2019-05-16T09:30:55Z</time>
      </trkpt>
      <trkpt lat="43.02884" lon="-0.07672">
        <ele>451.79998779297</ele>
        <time>2019-05-16T09:31:03Z</time>
      </trkpt>
      <trkpt lat="43.02883" lon="-0.07671">
        <ele>451.79998779297</ele>
        <time>2019-05-16T09:31:04Z</time>
      </trkpt>
      <trkpt lat="43.02883" lon="-0.07668">
        <ele>451.79998779297</ele>
        <time>2019-05-16T09:31:08Z</time>
      </trkpt>
      <trkpt lat="43.02883" lon="-0.07668">
        <ele>451.79998779297</ele>
        <time>2019-05-16T09:31:21Z</time>
      </trkpt>
      <trkpt lat="43.02883" lon="-0.07668">
        <ele>451.79998779297</ele>
        <time>2019-05-16T09:31:38Z</time>
      </trkpt>
      <trkpt lat="43.02883" lon="-0.07668">
        <ele>451.79998779297</ele>
        <time>2019-05-16T09:31:53Z</time>
      </trkpt>
      <trkpt lat="43.02883" lon="-0.07668">
        <ele>451.79998779297</ele>
        <time>2019-05-16T09:32:11Z</time>
      </trkpt>
      <trkpt lat="43.02883" lon="-0.07668">
        <ele>451.79998779297</ele>
        <time>2019-05-16T09:32:32Z</time>
      </trkpt>
      <trkpt lat="43.02883" lon="-0.07668">
        <ele>451.79998779297</ele>
        <time>2019-05-16T09:32:53Z</time>
      </trkpt>
      <trkpt lat="43.02883" lon="-0.07667">
        <ele>451.79998779297</ele>
        <time>2019-05-16T09:33:12Z</time>
      </trkpt>
      <trkpt lat="43.02883" lon="-0.07667">
        <ele>451.79998779297</ele>
        <time>2019-05-16T09:33:32Z</time>
      </trkpt>
      <trkpt lat="43.02883" lon="-0.07667">
        <ele>451.79998779297</ele>
        <time>2019-05-16T09:33:49Z</time>
      </trkpt>
      <trkpt lat="43.02883" lon="-0.07667">
        <ele>451.79998779297</ele>
        <time>2019-05-16T09:34:07Z</time>
      </trkpt>
      <trkpt lat="43.02883" lon="-0.07667">
        <ele>451.79998779297</ele>
        <time>2019-05-16T09:34:26Z</time>
      </trkpt>
      <trkpt lat="43.02883" lon="-0.07667">
        <ele>451.79998779297</ele>
        <time>2019-05-16T09:34:41Z</time>
      </trkpt>
      <trkpt lat="43.02883" lon="-0.07667">
        <ele>451.79998779297</ele>
        <time>2019-05-16T09:35:00Z</time>
      </trkpt>
      <trkpt lat="43.02883" lon="-0.07667">
        <ele>451.79998779297</ele>
        <time>2019-05-16T09:35:16Z</time>
      </trkpt>
      <trkpt lat="43.02883" lon="-0.07667">
        <ele>451.79998779297</ele>
        <time>2019-05-16T09:35:32Z</time>
      </trkpt>
      <trkpt lat="43.02883" lon="-0.07667">
        <ele>451.79998779297</ele>
        <time>2019-05-16T09:35:47Z</time>
      </trkpt>
      <trkpt lat="43.02883" lon="-0.07667">
        <ele>451.79998779297</ele>
        <time>2019-05-16T09:36:03Z</time>
      </trkpt>
      <trkpt lat="43.02883" lon="-0.07667">
        <ele>451.79998779297</ele>
        <time>2019-05-16T09:36:21Z</time>
      </trkpt>
      <trkpt lat="43.02883" lon="-0.07667">
        <ele>451.79998779297</ele>
        <time>2019-05-16T09:36:36Z</time>
      </trkpt>
      <trkpt lat="43.02883" lon="-0.07667">
        <ele>451.79998779297</ele>
        <time>2019-05-16T09:36:54Z</time>
      </trkpt>
      <trkpt lat="43.02883" lon="-0.07667">
        <ele>451.79998779297</ele>
        <time>2019-05-16T09:37:09Z</time>
      </trkpt>
      <trkpt lat="43.02883" lon="-0.07667">
        <ele>451.79998779297</ele>
        <time>2019-05-16T09:37:27Z</time>
      </trkpt>
      <trkpt lat="43.02883" lon="-0.07667">
        <ele>451.79998779297</ele>
        <time>2019-05-16T09:37:46Z</time>
      </trkpt>
      <trkpt lat="43.02883" lon="-0.07667">
        <ele>451.79998779297</ele>
        <time>2019-05-16T09:38:05Z</time>
      </trkpt>
      <trkpt lat="43.02883" lon="-0.07667">
        <ele>451.79998779297</ele>
        <time>2019-05-16T09:38:22Z</time>
      </trkpt>
      <trkpt lat="43.02884" lon="-0.07667">
        <ele>451.79998779297</ele>
        <time>2019-05-16T09:38:34Z</time>
      </trkpt>
      <trkpt lat="43.02884" lon="-0.07667">
        <ele>451.79998779297</ele>
        <time>2019-05-16T09:38:47Z</time>
      </trkpt>
      <trkpt lat="43.02884" lon="-0.07667">
        <ele>451.79998779297</ele>
        <time>2019-05-16T09:39:03Z</time>
      </trkpt>
      <trkpt lat="43.02883" lon="-0.07667">
        <ele>451.79998779297</ele>
        <time>2019-05-16T09:39:15Z</time>
      </trkpt>
      <trkpt lat="43.02883" lon="-0.07667">
        <ele>451.79998779297</ele>
        <time>2019-05-16T09:39:28Z</time>
      </trkpt>
      <trkpt lat="43.02883" lon="-0.07667">
        <ele>451.79998779297</ele>
        <time>2019-05-16T09:39:43Z</time>
      </trkpt>
      <trkpt lat="43.02884" lon="-0.07667">
        <ele>451.79998779297</ele>
        <time>2019-05-16T09:39:57Z</time>
      </trkpt>
      <trkpt lat="43.02884" lon="-0.07667">
        <ele>451.79998779297</ele>
        <time>2019-05-16T09:40:11Z</time>
      </trkpt>
      <trkpt lat="43.02883" lon="-0.07667">
        <ele>451.79998779297</ele>
        <time>2019-05-16T09:40:26Z</time>
      </trkpt>
      <trkpt lat="43.02883" lon="-0.07667">
        <ele>451.79998779297</ele>
        <time>2019-05-16T09:40:41Z</time>
      </trkpt>
      <trkpt lat="43.02883" lon="-0.07667">
        <ele>451.79998779297</ele>
        <time>2019-05-16T09:40:57Z</time>
      </trkpt>
      <trkpt lat="43.02884" lon="-0.07667">
        <ele>451.79998779297</ele>
        <time>2019-05-16T09:41:17Z</time>
      </trkpt>
      <trkpt lat="43.02884" lon="-0.07667">
        <ele>451.79998779297</ele>
        <time>2019-05-16T09:41:37Z</time>
      </trkpt>
      <trkpt lat="43.02883" lon="-0.07668">
        <ele>451.79998779297</ele>
        <time>2019-05-16T09:41:54Z</time>
      </trkpt>
      <trkpt lat="43.02883" lon="-0.07668">
        <ele>451.79998779297</ele>
        <time>2019-05-16T09:42:14Z</time>
      </trkpt>
      <trkpt lat="43.02884" lon="-0.07672">
        <ele>451.79998779297</ele>
        <time>2019-05-16T09:42:20Z</time>
      </trkpt>
      <trkpt lat="43.02885" lon="-0.07674">
        <ele>451.79998779297</ele>
        <time>2019-05-16T09:42:29Z</time>
      </trkpt>
      <trkpt lat="43.02885" lon="-0.07674">
        <ele>451.79998779297</ele>
        <time>2019-05-16T09:42:40Z</time>
      </trkpt>
      <trkpt lat="43.02885" lon="-0.07677">
        <ele>451.79998779297</ele>
        <time>2019-05-16T09:42:45Z</time>
      </trkpt>
      <trkpt lat="43.02886" lon="-0.07678">
        <ele>451.79998779297</ele>
        <time>2019-05-16T09:42:46Z</time>
      </trkpt>
      <trkpt lat="43.02885" lon="-0.07685">
        <ele>451.79998779297</ele>
        <time>2019-05-16T09:42:51Z</time>
      </trkpt>
      <trkpt lat="43.0288" lon="-0.07688">
        <ele>451.79998779297</ele>
        <time>2019-05-16T09:42:56Z</time>
      </trkpt>
      <trkpt lat="43.02879" lon="-0.07688">
        <ele>451.79998779297</ele>
        <time>2019-05-16T09:42:57Z</time>
      </trkpt>
      <trkpt lat="43.02873" lon="-0.07691">
        <ele>451.39999389648</ele>
        <time>2019-05-16T09:43:02Z</time>
      </trkpt>
      <trkpt lat="43.02872" lon="-0.07693">
        <ele>451</ele>
        <time>2019-05-16T09:43:03Z</time>
      </trkpt>
      <trkpt lat="43.02871" lon="-0.07694">
        <ele>450.39999389648</ele>
        <time>2019-05-16T09:43:04Z</time>
      </trkpt>
      <trkpt lat="43.0287" lon="-0.07696">
        <ele>449.60000610352</ele>
        <time>2019-05-16T09:43:05Z</time>
      </trkpt>
      <trkpt lat="43.02869" lon="-0.07697">
        <ele>449.20001220703</ele>
        <time>2019-05-16T09:43:07Z</time>
      </trkpt>
      <trkpt lat="43.02868" lon="-0.07698">
        <ele>448.79998779297</ele>
        <time>2019-05-16T09:43:08Z</time>
      </trkpt>
      <trkpt lat="43.02868" lon="-0.07699">
        <ele>448.39999389648</ele>
        <time>2019-05-16T09:43:09Z</time>
      </trkpt>
      <trkpt lat="43.02868" lon="-0.077">
        <ele>447.79998779297</ele>
        <time>2019-05-16T09:43:10Z</time>
      </trkpt>
      <trkpt lat="43.02868" lon="-0.07701">
        <ele>447.39999389648</ele>
        <time>2019-05-16T09:43:11Z</time>
      </trkpt>
      <trkpt lat="43.02867" lon="-0.07703">
        <ele>447.39999389648</ele>
        <time>2019-05-16T09:43:12Z</time>
      </trkpt>
      <trkpt lat="43.02867" lon="-0.07704">
        <ele>447</ele>
        <time>2019-05-16T09:43:13Z</time>
      </trkpt>
      <trkpt lat="43.02867" lon="-0.07705">
        <ele>446.60000610352</ele>
        <time>2019-05-16T09:43:14Z</time>
      </trkpt>
      <trkpt lat="43.02866" lon="-0.07707">
        <ele>446.20001220703</ele>
        <time>2019-05-16T09:43:15Z</time>
      </trkpt>
      <trkpt lat="43.02866" lon="-0.0771">
        <ele>445.60000610352</ele>
        <time>2019-05-16T09:43:16Z</time>
      </trkpt>
      <trkpt lat="43.02866" lon="-0.07713">
        <ele>445</ele>
        <time>2019-05-16T09:43:17Z</time>
      </trkpt>
      <trkpt lat="43.02865" lon="-0.07717">
        <ele>444.39999389648</ele>
        <time>2019-05-16T09:43:18Z</time>
      </trkpt>
      <trkpt lat="43.02865" lon="-0.07722">
        <ele>443.60000610352</ele>
        <time>2019-05-16T09:43:19Z</time>
      </trkpt>
      <trkpt lat="43.02865" lon="-0.07726">
        <ele>442.79998779297</ele>
        <time>2019-05-16T09:43:20Z</time>
      </trkpt>
      <trkpt lat="43.02865" lon="-0.07731">
        <ele>442.20001220703</ele>
        <time>2019-05-16T09:43:21Z</time>
      </trkpt>
      <trkpt lat="43.02865" lon="-0.07735">
        <ele>441.39999389648</ele>
        <time>2019-05-16T09:43:22Z</time>
      </trkpt>
      <trkpt lat="43.02865" lon="-0.07738">
        <ele>440.79998779297</ele>
        <time>2019-05-16T09:43:23Z</time>
      </trkpt>
      <trkpt lat="43.02865" lon="-0.07742">
        <ele>440.20001220703</ele>
        <time>2019-05-16T09:43:24Z</time>
      </trkpt>
      <trkpt lat="43.02865" lon="-0.07747">
        <ele>439.60000610352</ele>
        <time>2019-05-16T09:43:25Z</time>
      </trkpt>
      <trkpt lat="43.02865" lon="-0.07751">
        <ele>439</ele>
        <time>2019-05-16T09:43:26Z</time>
      </trkpt>
      <trkpt lat="43.02866" lon="-0.07756">
        <ele>438.39999389648</ele>
        <time>2019-05-16T09:43:27Z</time>
      </trkpt>
      <trkpt lat="43.02866" lon="-0.07761">
        <ele>437.79998779297</ele>
        <time>2019-05-16T09:43:28Z</time>
      </trkpt>
      <trkpt lat="43.02867" lon="-0.07766">
        <ele>437.20001220703</ele>
        <time>2019-05-16T09:43:29Z</time>
      </trkpt>
      <trkpt lat="43.02868" lon="-0.0777">
        <ele>436</ele>
        <time>2019-05-16T09:43:30Z</time>
      </trkpt>
      <trkpt lat="43.02869" lon="-0.07774">
        <ele>435.60000610352</ele>
        <time>2019-05-16T09:43:31Z</time>
      </trkpt>
      <trkpt lat="43.02869" lon="-0.07778">
        <ele>435</ele>
        <time>2019-05-16T09:43:32Z</time>
      </trkpt>
      <trkpt lat="43.0287" lon="-0.07783">
        <ele>434.39999389648</ele>
        <time>2019-05-16T09:43:33Z</time>
      </trkpt>
      <trkpt lat="43.02871" lon="-0.07786">
        <ele>434</ele>
        <time>2019-05-16T09:43:34Z</time>
      </trkpt>
      <trkpt lat="43.02878" lon="-0.07795">
        <ele>434</ele>
        <time>2019-05-16T09:43:37Z</time>
      </trkpt>
      <trkpt lat="43.02884" lon="-0.07801">
        <ele>433.60000610352</ele>
        <time>2019-05-16T09:43:40Z</time>
      </trkpt>
      <trkpt lat="43.02885" lon="-0.07802">
        <ele>433.20001220703</ele>
        <time>2019-05-16T09:43:41Z</time>
      </trkpt>
      <trkpt lat="43.02887" lon="-0.07804">
        <ele>432.79998779297</ele>
        <time>2019-05-16T09:43:42Z</time>
      </trkpt>
      <trkpt lat="43.0289" lon="-0.07806">
        <ele>432.39999389648</ele>
        <time>2019-05-16T09:43:43Z</time>
      </trkpt>
      <trkpt lat="43.02891" lon="-0.07808">
        <ele>432</ele>
        <time>2019-05-16T09:43:44Z</time>
      </trkpt>
      <trkpt lat="43.02899" lon="-0.07813">
        <ele>431.39999389648</ele>
        <time>2019-05-16T09:43:48Z</time>
      </trkpt>
      <trkpt lat="43.02902" lon="-0.07814">
        <ele>431</ele>
        <time>2019-05-16T09:43:49Z</time>
      </trkpt>
      <trkpt lat="43.02905" lon="-0.07816">
        <ele>430.60000610352</ele>
        <time>2019-05-16T09:43:50Z</time>
      </trkpt>
      <trkpt lat="43.02907" lon="-0.07816">
        <ele>430.20001220703</ele>
        <time>2019-05-16T09:43:51Z</time>
      </trkpt>
      <trkpt lat="43.0291" lon="-0.07817">
        <ele>429.60000610352</ele>
        <time>2019-05-16T09:43:52Z</time>
      </trkpt>
      <trkpt lat="43.02915" lon="-0.07819">
        <ele>429.20001220703</ele>
        <time>2019-05-16T09:43:54Z</time>
      </trkpt>
      <trkpt lat="43.02917" lon="-0.07821">
        <ele>428.79998779297</ele>
        <time>2019-05-16T09:43:55Z</time>
      </trkpt>
      <trkpt lat="43.0292" lon="-0.07821">
        <ele>428.39999389648</ele>
        <time>2019-05-16T09:43:56Z</time>
      </trkpt>
      <trkpt lat="43.02922" lon="-0.07822">
        <ele>428</ele>
        <time>2019-05-16T09:43:57Z</time>
      </trkpt>
      <trkpt lat="43.02925" lon="-0.07823">
        <ele>427.39999389648</ele>
        <time>2019-05-16T09:43:58Z</time>
      </trkpt>
      <trkpt lat="43.02928" lon="-0.07823">
        <ele>426.79998779297</ele>
        <time>2019-05-16T09:43:59Z</time>
      </trkpt>
      <trkpt lat="43.0293" lon="-0.07823">
        <ele>426.20001220703</ele>
        <time>2019-05-16T09:44:00Z</time>
      </trkpt>
      <trkpt lat="43.02934" lon="-0.07823">
        <ele>425.60000610352</ele>
        <time>2019-05-16T09:44:01Z</time>
      </trkpt>
      <trkpt lat="43.02939" lon="-0.07823">
        <ele>424.79998779297</ele>
        <time>2019-05-16T09:44:02Z</time>
      </trkpt>
      <trkpt lat="43.02945" lon="-0.07825">
        <ele>424.20001220703</ele>
        <time>2019-05-16T09:44:03Z</time>
      </trkpt>
      <trkpt lat="43.0295" lon="-0.07828">
        <ele>423.39999389648</ele>
        <time>2019-05-16T09:44:04Z</time>
      </trkpt>
      <trkpt lat="43.02955" lon="-0.0783">
        <ele>422.79998779297</ele>
        <time>2019-05-16T09:44:05Z</time>
      </trkpt>
      <trkpt lat="43.02959" lon="-0.07833">
        <ele>422</ele>
        <time>2019-05-16T09:44:06Z</time>
      </trkpt>
      <trkpt lat="43.02962" lon="-0.07836">
        <ele>421.20001220703</ele>
        <time>2019-05-16T09:44:07Z</time>
      </trkpt>
      <trkpt lat="43.02963" lon="-0.07839">
        <ele>420.39999389648</ele>
        <time>2019-05-16T09:44:08Z</time>
      </trkpt>
      <trkpt lat="43.02964" lon="-0.07843">
        <ele>419.60000610352</ele>
        <time>2019-05-16T09:44:09Z</time>
      </trkpt>
      <trkpt lat="43.02964" lon="-0.07847">
        <ele>418.79998779297</ele>
        <time>2019-05-16T09:44:10Z</time>
      </trkpt>
      <trkpt lat="43.02964" lon="-0.0785">
        <ele>418</ele>
        <time>2019-05-16T09:44:11Z</time>
      </trkpt>
      <trkpt lat="43.02963" lon="-0.07863">
        <ele>418</ele>
        <time>2019-05-16T09:44:17Z</time>
      </trkpt>
      <trkpt lat="43.02967" lon="-0.07883">
        <ele>418</ele>
        <time>2019-05-16T09:44:24Z</time>
      </trkpt>
      <trkpt lat="43.02972" lon="-0.079">
        <ele>418</ele>
        <time>2019-05-16T09:44:30Z</time>
      </trkpt>
      <trkpt lat="43.02977" lon="-0.0792">
        <ele>418</ele>
        <time>2019-05-16T09:44:37Z</time>
      </trkpt>
      <trkpt lat="43.02981" lon="-0.07937">
        <ele>418</ele>
        <time>2019-05-16T09:44:44Z</time>
      </trkpt>
      <trkpt lat="43.02984" lon="-0.07952">
        <ele>418</ele>
        <time>2019-05-16T09:44:50Z</time>
      </trkpt>
      <trkpt lat="43.02987" lon="-0.07971">
        <ele>418</ele>
        <time>2019-05-16T09:44:57Z</time>
      </trkpt>
      <trkpt lat="43.02988" lon="-0.07984">
        <ele>418</ele>
        <time>2019-05-16T09:45:02Z</time>
      </trkpt>
      <trkpt lat="43.02988" lon="-0.07985">
        <ele>418</ele>
        <time>2019-05-16T09:45:07Z</time>
      </trkpt>
      <trkpt lat="43.02985" lon="-0.07987">
        <ele>418</ele>
        <time>2019-05-16T09:45:14Z</time>
      </trkpt>
      <trkpt lat="43.02985" lon="-0.07989">
        <ele>418</ele>
        <time>2019-05-16T09:45:19Z</time>
      </trkpt>
      <trkpt lat="43.02985" lon="-0.07989">
        <ele>418</ele>
        <time>2019-05-16T09:45:30Z</time>
      </trkpt>
      <trkpt lat="43.02985" lon="-0.07989">
        <ele>418</ele>
        <time>2019-05-16T09:45:44Z</time>
      </trkpt>
      <trkpt lat="43.02986" lon="-0.07989">
        <ele>418</ele>
        <time>2019-05-16T09:45:58Z</time>
      </trkpt>
      <trkpt lat="43.02985" lon="-0.0799">
        <ele>418</ele>
        <time>2019-05-16T09:46:08Z</time>
      </trkpt>
      <trkpt lat="43.02983" lon="-0.07991">
        <ele>417.60000610352</ele>
        <time>2019-05-16T09:46:10Z</time>
      </trkpt>
      <trkpt lat="43.02982" lon="-0.07991">
        <ele>417.20001220703</ele>
        <time>2019-05-16T09:46:11Z</time>
      </trkpt>
      <trkpt lat="43.0298" lon="-0.0799">
        <ele>416.79998779297</ele>
        <time>2019-05-16T09:46:12Z</time>
      </trkpt>
      <trkpt lat="43.0298" lon="-0.07988">
        <ele>416.39999389648</ele>
        <time>2019-05-16T09:46:13Z</time>
      </trkpt>
      <trkpt lat="43.0298" lon="-0.07986">
        <ele>416</ele>
        <time>2019-05-16T09:46:14Z</time>
      </trkpt>
      <trkpt lat="43.02982" lon="-0.07981">
        <ele>416</ele>
        <time>2019-05-16T09:46:17Z</time>
      </trkpt>
      <trkpt lat="43.02984" lon="-0.0798">
        <ele>416</ele>
        <time>2019-05-16T09:46:19Z</time>
      </trkpt>
      <trkpt lat="43.02986" lon="-0.07982">
        <ele>416</ele>
        <time>2019-05-16T09:46:21Z</time>
      </trkpt>
      <trkpt lat="43.02986" lon="-0.07987">
        <ele>416</ele>
        <time>2019-05-16T09:46:26Z</time>
      </trkpt>
      <trkpt lat="43.02977" lon="-0.07994">
        <ele>416</ele>
        <time>2019-05-16T09:46:30Z</time>
      </trkpt>
      <trkpt lat="43.02974" lon="-0.07996">
        <ele>416</ele>
        <time>2019-05-16T09:46:31Z</time>
      </trkpt>
      <trkpt lat="43.02967" lon="-0.08">
        <ele>416</ele>
        <time>2019-05-16T09:46:33Z</time>
      </trkpt>
      <trkpt lat="43.02963" lon="-0.08001">
        <ele>415.60000610352</ele>
        <time>2019-05-16T09:46:34Z</time>
      </trkpt>
      <trkpt lat="43.02959" lon="-0.08002">
        <ele>415</ele>
        <time>2019-05-16T09:46:35Z</time>
      </trkpt>
      <trkpt lat="43.02954" lon="-0.08003">
        <ele>414.60000610352</ele>
        <time>2019-05-16T09:46:36Z</time>
      </trkpt>
      <trkpt lat="43.02949" lon="-0.08004">
        <ele>414.20001220703</ele>
        <time>2019-05-16T09:46:37Z</time>
      </trkpt>
      <trkpt lat="43.02944" lon="-0.08005">
        <ele>413.79998779297</ele>
        <time>2019-05-16T09:46:38Z</time>
      </trkpt>
      <trkpt lat="43.02939" lon="-0.08008">
        <ele>413.39999389648</ele>
        <time>2019-05-16T09:46:39Z</time>
      </trkpt>
      <trkpt lat="43.02934" lon="-0.0801">
        <ele>413</ele>
        <time>2019-05-16T09:46:40Z</time>
      </trkpt>
      <trkpt lat="43.02929" lon="-0.08011">
        <ele>412.60000610352</ele>
        <time>2019-05-16T09:46:41Z</time>
      </trkpt>
      <trkpt lat="43.02924" lon="-0.08012">
        <ele>412.20001220703</ele>
        <time>2019-05-16T09:46:42Z</time>
      </trkpt>
      <trkpt lat="43.02919" lon="-0.08014">
        <ele>411.60000610352</ele>
        <time>2019-05-16T09:46:43Z</time>
      </trkpt>
      <trkpt lat="43.029" lon="-0.08017">
        <ele>411.60000610352</ele>
        <time>2019-05-16T09:46:47Z</time>
      </trkpt>
      <trkpt lat="43.02891" lon="-0.08019">
        <ele>411.60000610352</ele>
        <time>2019-05-16T09:46:49Z</time>
      </trkpt>
      <trkpt lat="43.02879" lon="-0.08022">
        <ele>411.60000610352</ele>
        <time>2019-05-16T09:46:53Z</time>
      </trkpt>
      <trkpt lat="43.02856" lon="-0.08026">
        <ele>411.20001220703</ele>
        <time>2019-05-16T09:46:59Z</time>
      </trkpt>
      <trkpt lat="43.02852" lon="-0.08027">
        <ele>410.79998779297</ele>
        <time>2019-05-16T09:47:00Z</time>
      </trkpt>
      <trkpt lat="43.02848" lon="-0.08028">
        <ele>410.39999389648</ele>
        <time>2019-05-16T09:47:01Z</time>
      </trkpt>
      <trkpt lat="43.02845" lon="-0.08029">
        <ele>410</ele>
        <time>2019-05-16T09:47:02Z</time>
      </trkpt>
      <trkpt lat="43.02841" lon="-0.08029">
        <ele>409.39999389648</ele>
        <time>2019-05-16T09:47:03Z</time>
      </trkpt>
      <trkpt lat="43.02826" lon="-0.08032">
        <ele>409.39999389648</ele>
        <time>2019-05-16T09:47:07Z</time>
      </trkpt>
      <trkpt lat="43.02798" lon="-0.08035">
        <ele>409.39999389648</ele>
        <time>2019-05-16T09:47:14Z</time>
      </trkpt>
      <trkpt lat="43.02781" lon="-0.08038">
        <ele>409.39999389648</ele>
        <time>2019-05-16T09:47:18Z</time>
      </trkpt>
      <trkpt lat="43.02775" lon="-0.08045">
        <ele>409.39999389648</ele>
        <time>2019-05-16T09:47:20Z</time>
      </trkpt>
      <trkpt lat="43.02772" lon="-0.08055">
        <ele>409.39999389648</ele>
        <time>2019-05-16T09:47:22Z</time>
      </trkpt>
      <trkpt lat="43.02765" lon="-0.08074">
        <ele>409.39999389648</ele>
        <time>2019-05-16T09:47:26Z</time>
      </trkpt>
      <trkpt lat="43.02748" lon="-0.08112">
        <ele>409.39999389648</ele>
        <time>2019-05-16T09:47:34Z</time>
      </trkpt>
      <trkpt lat="43.02735" lon="-0.08139">
        <ele>409.39999389648</ele>
        <time>2019-05-16T09:47:40Z</time>
      </trkpt>
      <trkpt lat="43.02732" lon="-0.08143">
        <ele>409.39999389648</ele>
        <time>2019-05-16T09:47:41Z</time>
      </trkpt>
      <trkpt lat="43.02714" lon="-0.08176">
        <ele>409.39999389648</ele>
        <time>2019-05-16T09:47:49Z</time>
      </trkpt>
      <trkpt lat="43.02695" lon="-0.08204">
        <ele>409.39999389648</ele>
        <time>2019-05-16T09:47:57Z</time>
      </trkpt>
      <trkpt lat="43.02673" lon="-0.08216">
        <ele>409.39999389648</ele>
        <time>2019-05-16T09:48:03Z</time>
      </trkpt>
      <trkpt lat="43.02669" lon="-0.08219">
        <ele>409.39999389648</ele>
        <time>2019-05-16T09:48:04Z</time>
      </trkpt>
      <trkpt lat="43.02652" lon="-0.08236">
        <ele>409.39999389648</ele>
        <time>2019-05-16T09:48:09Z</time>
      </trkpt>
      <trkpt lat="43.0263" lon="-0.08261">
        <ele>409.39999389648</ele>
        <time>2019-05-16T09:48:16Z</time>
      </trkpt>
      <trkpt lat="43.02605" lon="-0.08289">
        <ele>409.39999389648</ele>
        <time>2019-05-16T09:48:24Z</time>
      </trkpt>
      <trkpt lat="43.0258" lon="-0.08311">
        <ele>409.39999389648</ele>
        <time>2019-05-16T09:48:31Z</time>
      </trkpt>
      <trkpt lat="43.02567" lon="-0.08324">
        <ele>409.39999389648</ele>
        <time>2019-05-16T09:48:35Z</time>
      </trkpt>
      <trkpt lat="43.02564" lon="-0.08327">
        <ele>410</ele>
        <time>2019-05-16T09:48:36Z</time>
      </trkpt>
      <trkpt lat="43.02561" lon="-0.0833">
        <ele>410.39999389648</ele>
        <time>2019-05-16T09:48:37Z</time>
      </trkpt>
      <trkpt lat="43.02558" lon="-0.08333">
        <ele>410.79998779297</ele>
        <time>2019-05-16T09:48:38Z</time>
      </trkpt>
      <trkpt lat="43.02555" lon="-0.08336">
        <ele>411.20001220703</ele>
        <time>2019-05-16T09:48:39Z</time>
      </trkpt>
      <trkpt lat="43.02552" lon="-0.08339">
        <ele>411.60000610352</ele>
        <time>2019-05-16T09:48:40Z</time>
      </trkpt>
      <trkpt lat="43.02534" lon="-0.08353">
        <ele>411.60000610352</ele>
        <time>2019-05-16T09:48:45Z</time>
      </trkpt>
      <trkpt lat="43.02506" lon="-0.08369">
        <ele>411.60000610352</ele>
        <time>2019-05-16T09:48:52Z</time>
      </trkpt>
      <trkpt lat="43.02502" lon="-0.08371">
        <ele>411.60000610352</ele>
        <time>2019-05-16T09:48:53Z</time>
      </trkpt>
      <trkpt lat="43.02481" lon="-0.08384">
        <ele>411.60000610352</ele>
        <time>2019-05-16T09:48:59Z</time>
      </trkpt>
      <trkpt lat="43.02458" lon="-0.08401">
        <ele>411.60000610352</ele>
        <time>2019-05-16T09:49:06Z</time>
      </trkpt>
      <trkpt lat="43.02442" lon="-0.084">
        <ele>411.60000610352</ele>
        <time>2019-05-16T09:49:11Z</time>
      </trkpt>
      <trkpt lat="43.02434" lon="-0.08384">
        <ele>411.60000610352</ele>
        <time>2019-05-16T09:49:15Z</time>
      </trkpt>
      <trkpt lat="43.02425" lon="-0.08366">
        <ele>411.60000610352</ele>
        <time>2019-05-16T09:49:19Z</time>
      </trkpt>
      <trkpt lat="43.02422" lon="-0.08363">
        <ele>411.60000610352</ele>
        <time>2019-05-16T09:49:20Z</time>
      </trkpt>
      <trkpt lat="43.02408" lon="-0.08363">
        <ele>411.60000610352</ele>
        <time>2019-05-16T09:49:24Z</time>
      </trkpt>
      <trkpt lat="43.02396" lon="-0.0837">
        <ele>411.60000610352</ele>
        <time>2019-05-16T09:49:28Z</time>
      </trkpt>
      <trkpt lat="43.02393" lon="-0.08371">
        <ele>411.60000610352</ele>
        <time>2019-05-16T09:49:29Z</time>
      </trkpt>
      <trkpt lat="43.02383" lon="-0.08366">
        <ele>411.60000610352</ele>
        <time>2019-05-16T09:49:32Z</time>
      </trkpt>
      <trkpt lat="43.02366" lon="-0.08354">
        <ele>411.60000610352</ele>
        <time>2019-05-16T09:49:37Z</time>
      </trkpt>
      <trkpt lat="43.02343" lon="-0.0834">
        <ele>411.60000610352</ele>
        <time>2019-05-16T09:49:44Z</time>
      </trkpt>
      <trkpt lat="43.02324" lon="-0.08336">
        <ele>411.60000610352</ele>
        <time>2019-05-16T09:49:50Z</time>
      </trkpt>
      <trkpt lat="43.023" lon="-0.08329">
        <ele>411.60000610352</ele>
        <time>2019-05-16T09:49:57Z</time>
      </trkpt>
      <trkpt lat="43.0228" lon="-0.08323">
        <ele>411.60000610352</ele>
        <time>2019-05-16T09:50:03Z</time>
      </trkpt>
      <trkpt lat="43.02275" lon="-0.0832">
        <ele>411.60000610352</ele>
        <time>2019-05-16T09:50:05Z</time>
      </trkpt>
      <trkpt lat="43.02269" lon="-0.08319">
        <ele>411.60000610352</ele>
        <time>2019-05-16T09:50:07Z</time>
      </trkpt>
      <trkpt lat="43.02257" lon="-0.08317">
        <ele>412</ele>
        <time>2019-05-16T09:50:11Z</time>
      </trkpt>
      <trkpt lat="43.02254" lon="-0.08317">
        <ele>412.39999389648</ele>
        <time>2019-05-16T09:50:12Z</time>
      </trkpt>
      <trkpt lat="43.02251" lon="-0.08316">
        <ele>412.79998779297</ele>
        <time>2019-05-16T09:50:13Z</time>
      </trkpt>
      <trkpt lat="43.02248" lon="-0.08314">
        <ele>413.20001220703</ele>
        <time>2019-05-16T09:50:14Z</time>
      </trkpt>
      <trkpt lat="43.02245" lon="-0.08313">
        <ele>413.60000610352</ele>
        <time>2019-05-16T09:50:15Z</time>
      </trkpt>
      <trkpt lat="43.02226" lon="-0.0831">
        <ele>413.60000610352</ele>
        <time>2019-05-16T09:50:20Z</time>
      </trkpt>
      <trkpt lat="43.0221" lon="-0.08322">
        <ele>413.60000610352</ele>
        <time>2019-05-16T09:50:25Z</time>
      </trkpt>
      <trkpt lat="43.02194" lon="-0.08347">
        <ele>413.60000610352</ele>
        <time>2019-05-16T09:50:33Z</time>
      </trkpt>
      <trkpt lat="43.02183" lon="-0.08368">
        <ele>413.60000610352</ele>
        <time>2019-05-16T09:50:39Z</time>
      </trkpt>
      <trkpt lat="43.02175" lon="-0.08388">
        <ele>413.60000610352</ele>
        <time>2019-05-16T09:50:44Z</time>
      </trkpt>
      <trkpt lat="43.02171" lon="-0.08394">
        <ele>413.60000610352</ele>
        <time>2019-05-16T09:50:46Z</time>
      </trkpt>
      <trkpt lat="43.02167" lon="-0.08395">
        <ele>413.60000610352</ele>
        <time>2019-05-16T09:50:48Z</time>
      </trkpt>
      <trkpt lat="43.02163" lon="-0.08397">
        <ele>413.60000610352</ele>
        <time>2019-05-16T09:50:50Z</time>
      </trkpt>
      <trkpt lat="43.02157" lon="-0.08401">
        <ele>413.60000610352</ele>
        <time>2019-05-16T09:50:53Z</time>
      </trkpt>
      <trkpt lat="43.02156" lon="-0.08404">
        <ele>413.60000610352</ele>
        <time>2019-05-16T09:50:54Z</time>
      </trkpt>
      <trkpt lat="43.02151" lon="-0.08417">
        <ele>413.60000610352</ele>
        <time>2019-05-16T09:50:59Z</time>
      </trkpt>
      <trkpt lat="43.02142" lon="-0.0843">
        <ele>413.60000610352</ele>
        <time>2019-05-16T09:51:04Z</time>
      </trkpt>
      <trkpt lat="43.02123" lon="-0.08442">
        <ele>413.60000610352</ele>
        <time>2019-05-16T09:51:09Z</time>
      </trkpt>
      <trkpt lat="43.02108" lon="-0.08448">
        <ele>413.60000610352</ele>
        <time>2019-05-16T09:51:14Z</time>
      </trkpt>
      <trkpt lat="43.02097" lon="-0.08453">
        <ele>413.60000610352</ele>
        <time>2019-05-16T09:51:18Z</time>
      </trkpt>
      <trkpt lat="43.02078" lon="-0.08457">
        <ele>413.60000610352</ele>
        <time>2019-05-16T09:51:24Z</time>
      </trkpt>
      <trkpt lat="43.02061" lon="-0.08467">
        <ele>413.60000610352</ele>
        <time>2019-05-16T09:51:29Z</time>
      </trkpt>
      <trkpt lat="43.02053" lon="-0.08478">
        <ele>413.60000610352</ele>
        <time>2019-05-16T09:51:33Z</time>
      </trkpt>
      <trkpt lat="43.02041" lon="-0.08503">
        <ele>413.60000610352</ele>
        <time>2019-05-16T09:51:40Z</time>
      </trkpt>
      <trkpt lat="43.02031" lon="-0.08525">
        <ele>413.60000610352</ele>
        <time>2019-05-16T09:51:45Z</time>
      </trkpt>
      <trkpt lat="43.02019" lon="-0.0855">
        <ele>413.60000610352</ele>
        <time>2019-05-16T09:51:51Z</time>
      </trkpt>
      <trkpt lat="43.02001" lon="-0.08557">
        <ele>413.60000610352</ele>
        <time>2019-05-16T09:51:55Z</time>
      </trkpt>
      <trkpt lat="43.01986" lon="-0.08551">
        <ele>413.60000610352</ele>
        <time>2019-05-16T09:51:59Z</time>
      </trkpt>
      <trkpt lat="43.01983" lon="-0.08551">
        <ele>413.60000610352</ele>
        <time>2019-05-16T09:52:00Z</time>
      </trkpt>
      <trkpt lat="43.01971" lon="-0.08545">
        <ele>413.60000610352</ele>
        <time>2019-05-16T09:52:04Z</time>
      </trkpt>
      <trkpt lat="43.01958" lon="-0.08532">
        <ele>413.60000610352</ele>
        <time>2019-05-16T09:52:08Z</time>
      </trkpt>
      <trkpt lat="43.01946" lon="-0.08518">
        <ele>413.60000610352</ele>
        <time>2019-05-16T09:52:13Z</time>
      </trkpt>
      <trkpt lat="43.01939" lon="-0.08504">
        <ele>413.60000610352</ele>
        <time>2019-05-16T09:52:17Z</time>
      </trkpt>
      <trkpt lat="43.01935" lon="-0.0849">
        <ele>413.60000610352</ele>
        <time>2019-05-16T09:52:21Z</time>
      </trkpt>
      <trkpt lat="43.0193" lon="-0.08478">
        <ele>413.60000610352</ele>
        <time>2019-05-16T09:52:25Z</time>
      </trkpt>
      <trkpt lat="43.01924" lon="-0.08483">
        <ele>413.60000610352</ele>
        <time>2019-05-16T09:52:28Z</time>
      </trkpt>
      <trkpt lat="43.01923" lon="-0.08484">
        <ele>413.60000610352</ele>
        <time>2019-05-16T09:52:29Z</time>
      </trkpt>
      <trkpt lat="43.01915" lon="-0.08489">
        <ele>413.60000610352</ele>
        <time>2019-05-16T09:52:33Z</time>
      </trkpt>
      <trkpt lat="43.019" lon="-0.08497">
        <ele>413.60000610352</ele>
        <time>2019-05-16T09:52:38Z</time>
      </trkpt>
      <trkpt lat="43.01889" lon="-0.085">
        <ele>413.60000610352</ele>
        <time>2019-05-16T09:52:41Z</time>
      </trkpt>
      <trkpt lat="43.01866" lon="-0.08511">
        <ele>413.60000610352</ele>
        <time>2019-05-16T09:52:47Z</time>
      </trkpt>
      <trkpt lat="43.01847" lon="-0.08524">
        <ele>413.60000610352</ele>
        <time>2019-05-16T09:52:52Z</time>
      </trkpt>
      <trkpt lat="43.01829" lon="-0.08534">
        <ele>413.60000610352</ele>
        <time>2019-05-16T09:52:57Z</time>
      </trkpt>
      <trkpt lat="43.01808" lon="-0.08544">
        <ele>413.60000610352</ele>
        <time>2019-05-16T09:53:04Z</time>
      </trkpt>
      <trkpt lat="43.01806" lon="-0.08545">
        <ele>413.60000610352</ele>
        <time>2019-05-16T09:53:05Z</time>
      </trkpt>
      <trkpt lat="43.01796" lon="-0.08553">
        <ele>413.60000610352</ele>
        <time>2019-05-16T09:53:09Z</time>
      </trkpt>
      <trkpt lat="43.01781" lon="-0.08571">
        <ele>413.60000610352</ele>
        <time>2019-05-16T09:53:15Z</time>
      </trkpt>
      <trkpt lat="43.01768" lon="-0.08578">
        <ele>413.60000610352</ele>
        <time>2019-05-16T09:53:19Z</time>
      </trkpt>
      <trkpt lat="43.01754" lon="-0.0859">
        <ele>413.60000610352</ele>
        <time>2019-05-16T09:53:24Z</time>
      </trkpt>
      <trkpt lat="43.0174" lon="-0.08603">
        <ele>413.60000610352</ele>
        <time>2019-05-16T09:53:29Z</time>
      </trkpt>
      <trkpt lat="43.01727" lon="-0.08606">
        <ele>413.60000610352</ele>
        <time>2019-05-16T09:53:33Z</time>
      </trkpt>
      <trkpt lat="43.0171" lon="-0.08612">
        <ele>413.60000610352</ele>
        <time>2019-05-16T09:53:37Z</time>
      </trkpt>
      <trkpt lat="43.01685" lon="-0.08623">
        <ele>413.60000610352</ele>
        <time>2019-05-16T09:53:43Z</time>
      </trkpt>
      <trkpt lat="43.01675" lon="-0.08623">
        <ele>413.60000610352</ele>
        <time>2019-05-16T09:53:46Z</time>
      </trkpt>
      <trkpt lat="43.0167" lon="-0.08618">
        <ele>413.60000610352</ele>
        <time>2019-05-16T09:53:47Z</time>
      </trkpt>
      <trkpt lat="43.01664" lon="-0.08614">
        <ele>413.60000610352</ele>
        <time>2019-05-16T09:53:50Z</time>
      </trkpt>
      <trkpt lat="43.01654" lon="-0.08616">
        <ele>413.60000610352</ele>
        <time>2019-05-16T09:53:53Z</time>
      </trkpt>
      <trkpt lat="43.01643" lon="-0.08626">
        <ele>413.60000610352</ele>
        <time>2019-05-16T09:53:57Z</time>
      </trkpt>
      <trkpt lat="43.01638" lon="-0.08629">
        <ele>413.60000610352</ele>
        <time>2019-05-16T09:53:59Z</time>
      </trkpt>
      <trkpt lat="43.01635" lon="-0.08629">
        <ele>413.60000610352</ele>
        <time>2019-05-16T09:54:00Z</time>
      </trkpt>
      <trkpt lat="43.01623" lon="-0.08628">
        <ele>413.60000610352</ele>
        <time>2019-05-16T09:54:03Z</time>
      </trkpt>
      <trkpt lat="43.01619" lon="-0.08628">
        <ele>413.60000610352</ele>
        <time>2019-05-16T09:54:04Z</time>
      </trkpt>
      <trkpt lat="43.01602" lon="-0.08633">
        <ele>413.60000610352</ele>
        <time>2019-05-16T09:54:09Z</time>
      </trkpt>
      <trkpt lat="43.01592" lon="-0.08648">
        <ele>413.60000610352</ele>
        <time>2019-05-16T09:54:14Z</time>
      </trkpt>
      <trkpt lat="43.01579" lon="-0.08664">
        <ele>413.60000610352</ele>
        <time>2019-05-16T09:54:19Z</time>
      </trkpt>
      <trkpt lat="43.01572" lon="-0.08669">
        <ele>414</ele>
        <time>2019-05-16T09:54:21Z</time>
      </trkpt>
      <trkpt lat="43.01569" lon="-0.08673">
        <ele>414.39999389648</ele>
        <time>2019-05-16T09:54:22Z</time>
      </trkpt>
      <trkpt lat="43.01566" lon="-0.08675">
        <ele>414.79998779297</ele>
        <time>2019-05-16T09:54:23Z</time>
      </trkpt>
      <trkpt lat="43.01561" lon="-0.08678">
        <ele>415.20001220703</ele>
        <time>2019-05-16T09:54:24Z</time>
      </trkpt>
      <trkpt lat="43.01556" lon="-0.08679">
        <ele>415.60000610352</ele>
        <time>2019-05-16T09:54:25Z</time>
      </trkpt>
      <trkpt lat="43.01535" lon="-0.08676">
        <ele>415.60000610352</ele>
        <time>2019-05-16T09:54:30Z</time>
      </trkpt>
      <trkpt lat="43.01519" lon="-0.08672">
        <ele>415.60000610352</ele>
        <time>2019-05-16T09:54:34Z</time>
      </trkpt>
      <trkpt lat="43.01514" lon="-0.08665">
        <ele>415.60000610352</ele>
        <time>2019-05-16T09:54:36Z</time>
      </trkpt>
      <trkpt lat="43.01503" lon="-0.0866">
        <ele>415.60000610352</ele>
        <time>2019-05-16T09:54:39Z</time>
      </trkpt>
      <trkpt lat="43.01499" lon="-0.08659">
        <ele>415.60000610352</ele>
        <time>2019-05-16T09:54:40Z</time>
      </trkpt>
      <trkpt lat="43.01472" lon="-0.08654">
        <ele>415.60000610352</ele>
        <time>2019-05-16T09:54:47Z</time>
      </trkpt>
      <trkpt lat="43.01435" lon="-0.08647">
        <ele>415.60000610352</ele>
        <time>2019-05-16T09:54:56Z</time>
      </trkpt>
      <trkpt lat="43.01411" lon="-0.08643">
        <ele>415.60000610352</ele>
        <time>2019-05-16T09:55:02Z</time>
      </trkpt>
      <trkpt lat="43.01408" lon="-0.08645">
        <ele>415.60000610352</ele>
        <time>2019-05-16T09:55:03Z</time>
      </trkpt>
      <trkpt lat="43.01395" lon="-0.08646">
        <ele>415.60000610352</ele>
        <time>2019-05-16T09:55:06Z</time>
      </trkpt>
      <trkpt lat="43.01383" lon="-0.08645">
        <ele>415.60000610352</ele>
        <time>2019-05-16T09:55:09Z</time>
      </trkpt>
      <trkpt lat="43.01358" lon="-0.08641">
        <ele>415.60000610352</ele>
        <time>2019-05-16T09:55:15Z</time>
      </trkpt>
      <trkpt lat="43.01334" lon="-0.08634">
        <ele>415.60000610352</ele>
        <time>2019-05-16T09:55:21Z</time>
      </trkpt>
      <trkpt lat="43.01324" lon="-0.08625">
        <ele>415.60000610352</ele>
        <time>2019-05-16T09:55:24Z</time>
      </trkpt>
      <trkpt lat="43.01318" lon="-0.08618">
        <ele>415.60000610352</ele>
        <time>2019-05-16T09:55:26Z</time>
      </trkpt>
      <trkpt lat="43.01308" lon="-0.08608">
        <ele>415.60000610352</ele>
        <time>2019-05-16T09:55:29Z</time>
      </trkpt>
      <trkpt lat="43.01299" lon="-0.08595">
        <ele>415.60000610352</ele>
        <time>2019-05-16T09:55:32Z</time>
      </trkpt>
      <trkpt lat="43.01294" lon="-0.08589">
        <ele>415.60000610352</ele>
        <time>2019-05-16T09:55:34Z</time>
      </trkpt>
      <trkpt lat="43.01291" lon="-0.08575">
        <ele>415.60000610352</ele>
        <time>2019-05-16T09:55:37Z</time>
      </trkpt>
      <trkpt lat="43.01287" lon="-0.08558">
        <ele>415.60000610352</ele>
        <time>2019-05-16T09:55:41Z</time>
      </trkpt>
      <trkpt lat="43.01284" lon="-0.08555">
        <ele>415.60000610352</ele>
        <time>2019-05-16T09:55:42Z</time>
      </trkpt>
      <trkpt lat="43.01275" lon="-0.08544">
        <ele>415.60000610352</ele>
        <time>2019-05-16T09:55:45Z</time>
      </trkpt>
      <trkpt lat="43.01272" lon="-0.08542">
        <ele>415.60000610352</ele>
        <time>2019-05-16T09:55:46Z</time>
      </trkpt>
      <trkpt lat="43.0125" lon="-0.08521">
        <ele>415.60000610352</ele>
        <time>2019-05-16T09:55:54Z</time>
      </trkpt>
      <trkpt lat="43.01235" lon="-0.08509">
        <ele>415.60000610352</ele>
        <time>2019-05-16T09:55:59Z</time>
      </trkpt>
      <trkpt lat="43.01219" lon="-0.085">
        <ele>415.60000610352</ele>
        <time>2019-05-16T09:56:04Z</time>
      </trkpt>
      <trkpt lat="43.01203" lon="-0.08483">
        <ele>415.60000610352</ele>
        <time>2019-05-16T09:56:09Z</time>
      </trkpt>
      <trkpt lat="43.0119" lon="-0.08475">
        <ele>415.60000610352</ele>
        <time>2019-05-16T09:56:13Z</time>
      </trkpt>
      <trkpt lat="43.01177" lon="-0.08466">
        <ele>415.60000610352</ele>
        <time>2019-05-16T09:56:17Z</time>
      </trkpt>
      <trkpt lat="43.01174" lon="-0.08462">
        <ele>416.20001220703</ele>
        <time>2019-05-16T09:56:18Z</time>
      </trkpt>
      <trkpt lat="43.0117" lon="-0.08459">
        <ele>416.60000610352</ele>
        <time>2019-05-16T09:56:19Z</time>
      </trkpt>
      <trkpt lat="43.01167" lon="-0.08456">
        <ele>417</ele>
        <time>2019-05-16T09:56:20Z</time>
      </trkpt>
      <trkpt lat="43.01164" lon="-0.08454">
        <ele>417.39999389648</ele>
        <time>2019-05-16T09:56:21Z</time>
      </trkpt>
      <trkpt lat="43.01161" lon="-0.08451">
        <ele>417.79998779297</ele>
        <time>2019-05-16T09:56:22Z</time>
      </trkpt>
      <trkpt lat="43.01141" lon="-0.08437">
        <ele>417.79998779297</ele>
        <time>2019-05-16T09:56:28Z</time>
      </trkpt>
      <trkpt lat="43.01124" lon="-0.08417">
        <ele>418.20001220703</ele>
        <time>2019-05-16T09:56:34Z</time>
      </trkpt>
      <trkpt lat="43.01121" lon="-0.08413">
        <ele>418.60000610352</ele>
        <time>2019-05-16T09:56:35Z</time>
      </trkpt>
      <trkpt lat="43.01119" lon="-0.0841">
        <ele>419.39999389648</ele>
        <time>2019-05-16T09:56:36Z</time>
      </trkpt>
      <trkpt lat="43.01117" lon="-0.08407">
        <ele>419.79998779297</ele>
        <time>2019-05-16T09:56:37Z</time>
      </trkpt>
      <trkpt lat="43.01114" lon="-0.08404">
        <ele>419.79998779297</ele>
        <time>2019-05-16T09:56:38Z</time>
      </trkpt>
      <trkpt lat="43.01099" lon="-0.08387">
        <ele>419.79998779297</ele>
        <time>2019-05-16T09:56:44Z</time>
      </trkpt>
      <trkpt lat="43.01087" lon="-0.0838">
        <ele>419.79998779297</ele>
        <time>2019-05-16T09:56:48Z</time>
      </trkpt>
      <trkpt lat="43.01083" lon="-0.08381">
        <ele>419.79998779297</ele>
        <time>2019-05-16T09:56:49Z</time>
      </trkpt>
      <trkpt lat="43.0107" lon="-0.08375">
        <ele>419.79998779297</ele>
        <time>2019-05-16T09:56:53Z</time>
      </trkpt>
      <trkpt lat="43.01067" lon="-0.08373">
        <ele>420.20001220703</ele>
        <time>2019-05-16T09:56:54Z</time>
      </trkpt>
      <trkpt lat="43.01065" lon="-0.0837">
        <ele>420.60000610352</ele>
        <time>2019-05-16T09:56:55Z</time>
      </trkpt>
      <trkpt lat="43.01063" lon="-0.08369">
        <ele>421</ele>
        <time>2019-05-16T09:56:56Z</time>
      </trkpt>
      <trkpt lat="43.01061" lon="-0.08366">
        <ele>421.39999389648</ele>
        <time>2019-05-16T09:56:57Z</time>
      </trkpt>
      <trkpt lat="43.01058" lon="-0.08365">
        <ele>421.79998779297</ele>
        <time>2019-05-16T09:56:58Z</time>
      </trkpt>
      <trkpt lat="43.01055" lon="-0.08363">
        <ele>421.79998779297</ele>
        <time>2019-05-16T09:56:59Z</time>
      </trkpt>
      <trkpt lat="43.01039" lon="-0.08357">
        <ele>421.79998779297</ele>
        <time>2019-05-16T09:57:04Z</time>
      </trkpt>
      <trkpt lat="43.01021" lon="-0.08354">
        <ele>421.79998779297</ele>
        <time>2019-05-16T09:57:09Z</time>
      </trkpt>
      <trkpt lat="43.01006" lon="-0.08343">
        <ele>421.79998779297</ele>
        <time>2019-05-16T09:57:14Z</time>
      </trkpt>
      <trkpt lat="43.00998" lon="-0.08341">
        <ele>421.79998779297</ele>
        <time>2019-05-16T09:57:16Z</time>
      </trkpt>
      <trkpt lat="43.00989" lon="-0.08338">
        <ele>421.79998779297</ele>
        <time>2019-05-16T09:57:18Z</time>
      </trkpt>
      <trkpt lat="43.00976" lon="-0.08337">
        <ele>421.39999389648</ele>
        <time>2019-05-16T09:57:21Z</time>
      </trkpt>
      <trkpt lat="43.00972" lon="-0.08337">
        <ele>421</ele>
        <time>2019-05-16T09:57:22Z</time>
      </trkpt>
      <trkpt lat="43.00969" lon="-0.08337">
        <ele>420.60000610352</ele>
        <time>2019-05-16T09:57:23Z</time>
      </trkpt>
      <trkpt lat="43.00966" lon="-0.08337">
        <ele>420.20001220703</ele>
        <time>2019-05-16T09:57:24Z</time>
      </trkpt>
      <trkpt lat="43.00962" lon="-0.08337">
        <ele>419.79998779297</ele>
        <time>2019-05-16T09:57:25Z</time>
      </trkpt>
      <trkpt lat="43.00955" lon="-0.08338">
        <ele>419.79998779297</ele>
        <time>2019-05-16T09:57:27Z</time>
      </trkpt>
      <trkpt lat="43.00945" lon="-0.08336">
        <ele>420.20001220703</ele>
        <time>2019-05-16T09:57:30Z</time>
      </trkpt>
      <trkpt lat="43.00941" lon="-0.08336">
        <ele>420.60000610352</ele>
        <time>2019-05-16T09:57:31Z</time>
      </trkpt>
      <trkpt lat="43.00938" lon="-0.08335">
        <ele>421</ele>
        <time>2019-05-16T09:57:32Z</time>
      </trkpt>
      <trkpt lat="43.00935" lon="-0.08335">
        <ele>421.39999389648</ele>
        <time>2019-05-16T09:57:33Z</time>
      </trkpt>
      <trkpt lat="43.0093" lon="-0.08335">
        <ele>421.79998779297</ele>
        <time>2019-05-16T09:57:34Z</time>
      </trkpt>
      <trkpt lat="43.00921" lon="-0.08336">
        <ele>421.79998779297</ele>
        <time>2019-05-16T09:57:36Z</time>
      </trkpt>
      <trkpt lat="43.00914" lon="-0.08334">
        <ele>421.79998779297</ele>
        <time>2019-05-16T09:57:38Z</time>
      </trkpt>
      <trkpt lat="43.00908" lon="-0.08332">
        <ele>421.79998779297</ele>
        <time>2019-05-16T09:57:40Z</time>
      </trkpt>
      <trkpt lat="43.00887" lon="-0.08331">
        <ele>421.79998779297</ele>
        <time>2019-05-16T09:57:46Z</time>
      </trkpt>
      <trkpt lat="43.00864" lon="-0.08327">
        <ele>421.79998779297</ele>
        <time>2019-05-16T09:57:52Z</time>
      </trkpt>
      <trkpt lat="43.00844" lon="-0.08318">
        <ele>421.79998779297</ele>
        <time>2019-05-16T09:57:57Z</time>
      </trkpt>
      <trkpt lat="43.0082" lon="-0.08312">
        <ele>421.79998779297</ele>
        <time>2019-05-16T09:58:03Z</time>
      </trkpt>
      <trkpt lat="43.008" lon="-0.08312">
        <ele>421.79998779297</ele>
        <time>2019-05-16T09:58:08Z</time>
      </trkpt>
      <trkpt lat="43.00778" lon="-0.08308">
        <ele>421.79998779297</ele>
        <time>2019-05-16T09:58:14Z</time>
      </trkpt>
      <trkpt lat="43.00756" lon="-0.08301">
        <ele>421.79998779297</ele>
        <time>2019-05-16T09:58:20Z</time>
      </trkpt>
      <trkpt lat="43.00734" lon="-0.08297">
        <ele>421.79998779297</ele>
        <time>2019-05-16T09:58:26Z</time>
      </trkpt>
      <trkpt lat="43.00703" lon="-0.08289">
        <ele>421.79998779297</ele>
        <time>2019-05-16T09:58:34Z</time>
      </trkpt>
      <trkpt lat="43.00679" lon="-0.08282">
        <ele>421.79998779297</ele>
        <time>2019-05-16T09:58:40Z</time>
      </trkpt>
      <trkpt lat="43.00675" lon="-0.08282">
        <ele>421.79998779297</ele>
        <time>2019-05-16T09:58:41Z</time>
      </trkpt>
      <trkpt lat="43.00665" lon="-0.08278">
        <ele>421.79998779297</ele>
        <time>2019-05-16T09:58:44Z</time>
      </trkpt>
      <trkpt lat="43.00653" lon="-0.08272">
        <ele>421.79998779297</ele>
        <time>2019-05-16T09:58:47Z</time>
      </trkpt>
      <trkpt lat="43.00646" lon="-0.08269">
        <ele>421.79998779297</ele>
        <time>2019-05-16T09:58:49Z</time>
      </trkpt>
      <trkpt lat="43.00616" lon="-0.08257">
        <ele>421.79998779297</ele>
        <time>2019-05-16T09:58:57Z</time>
      </trkpt>
      <trkpt lat="43.00612" lon="-0.08257">
        <ele>421.79998779297</ele>
        <time>2019-05-16T09:58:58Z</time>
      </trkpt>
      <trkpt lat="43.0059" lon="-0.0826">
        <ele>421.79998779297</ele>
        <time>2019-05-16T09:59:04Z</time>
      </trkpt>
      <trkpt lat="43.00576" lon="-0.08266">
        <ele>421.79998779297</ele>
        <time>2019-05-16T09:59:10Z</time>
      </trkpt>
      <trkpt lat="43.00571" lon="-0.08271">
        <ele>421.79998779297</ele>
        <time>2019-05-16T09:59:13Z</time>
      </trkpt>
      <trkpt lat="43.00566" lon="-0.08271">
        <ele>421.79998779297</ele>
        <time>2019-05-16T09:59:15Z</time>
      </trkpt>
      <trkpt lat="43.00552" lon="-0.08278">
        <ele>421.79998779297</ele>
        <time>2019-05-16T09:59:20Z</time>
      </trkpt>
      <trkpt lat="43.00547" lon="-0.08285">
        <ele>421.79998779297</ele>
        <time>2019-05-16T09:59:22Z</time>
      </trkpt>
      <trkpt lat="43.00534" lon="-0.08297">
        <ele>421.79998779297</ele>
        <time>2019-05-16T09:59:26Z</time>
      </trkpt>
      <trkpt lat="43.00517" lon="-0.08295">
        <ele>421.79998779297</ele>
        <time>2019-05-16T09:59:30Z</time>
      </trkpt>
      <trkpt lat="43.00509" lon="-0.08281">
        <ele>421.79998779297</ele>
        <time>2019-05-16T09:59:33Z</time>
      </trkpt>
      <trkpt lat="43.00509" lon="-0.08258">
        <ele>421.79998779297</ele>
        <time>2019-05-16T09:59:37Z</time>
      </trkpt>
      <trkpt lat="43.00514" lon="-0.08249">
        <ele>422.20001220703</ele>
        <time>2019-05-16T09:59:39Z</time>
      </trkpt>
      <trkpt lat="43.00517" lon="-0.08245">
        <ele>422.79998779297</ele>
        <time>2019-05-16T09:59:40Z</time>
      </trkpt>
      <trkpt lat="43.00521" lon="-0.08242">
        <ele>423.20001220703</ele>
        <time>2019-05-16T09:59:41Z</time>
      </trkpt>
      <trkpt lat="43.00526" lon="-0.0824">
        <ele>423.60000610352</ele>
        <time>2019-05-16T09:59:42Z</time>
      </trkpt>
      <trkpt lat="43.0053" lon="-0.08238">
        <ele>424</ele>
        <time>2019-05-16T09:59:43Z</time>
      </trkpt>
      <trkpt lat="43.00534" lon="-0.08236">
        <ele>424</ele>
        <time>2019-05-16T09:59:44Z</time>
      </trkpt>
      <trkpt lat="43.00538" lon="-0.08235">
        <ele>424</ele>
        <time>2019-05-16T09:59:45Z</time>
      </trkpt>
      <trkpt lat="43.00542" lon="-0.0823">
        <ele>424</ele>
        <time>2019-05-16T09:59:46Z</time>
      </trkpt>
      <trkpt lat="43.00545" lon="-0.08218">
        <ele>424</ele>
        <time>2019-05-16T09:59:48Z</time>
      </trkpt>
      <trkpt lat="43.00544" lon="-0.08195">
        <ele>424</ele>
        <time>2019-05-16T09:59:52Z</time>
      </trkpt>
      <trkpt lat="43.00543" lon="-0.08183">
        <ele>424</ele>
        <time>2019-05-16T09:59:54Z</time>
      </trkpt>
      <trkpt lat="43.00542" lon="-0.08152">
        <ele>424</ele>
        <time>2019-05-16T09:59:59Z</time>
      </trkpt>
      <trkpt lat="43.00541" lon="-0.08141">
        <ele>424.39999389648</ele>
        <time>2019-05-16T10:00:01Z</time>
      </trkpt>
      <trkpt lat="43.00541" lon="-0.08135">
        <ele>424.79998779297</ele>
        <time>2019-05-16T10:00:02Z</time>
      </trkpt>
      <trkpt lat="43.0054" lon="-0.08129">
        <ele>425.20001220703</ele>
        <time>2019-05-16T10:00:03Z</time>
      </trkpt>
      <trkpt lat="43.0054" lon="-0.08123">
        <ele>425.60000610352</ele>
        <time>2019-05-16T10:00:04Z</time>
      </trkpt>
      <trkpt lat="43.00539" lon="-0.08117">
        <ele>426.20001220703</ele>
        <time>2019-05-16T10:00:05Z</time>
      </trkpt>
      <trkpt lat="43.00539" lon="-0.08106">
        <ele>426.20001220703</ele>
        <time>2019-05-16T10:00:07Z</time>
      </trkpt>
      <trkpt lat="43.00537" lon="-0.08095">
        <ele>426.20001220703</ele>
        <time>2019-05-16T10:00:09Z</time>
      </trkpt>
      <trkpt lat="43.00532" lon="-0.08085">
        <ele>426.20001220703</ele>
        <time>2019-05-16T10:00:11Z</time>
      </trkpt>
      <trkpt lat="43.00526" lon="-0.08076">
        <ele>426.20001220703</ele>
        <time>2019-05-16T10:00:13Z</time>
      </trkpt>
      <trkpt lat="43.00515" lon="-0.08057">
        <ele>426.20001220703</ele>
        <time>2019-05-16T10:00:17Z</time>
      </trkpt>
      <trkpt lat="43.00497" lon="-0.08025">
        <ele>426.20001220703</ele>
        <time>2019-05-16T10:00:24Z</time>
      </trkpt>
      <trkpt lat="43.00491" lon="-0.08016">
        <ele>426.20001220703</ele>
        <time>2019-05-16T10:00:26Z</time>
      </trkpt>
      <trkpt lat="43.00469" lon="-0.07983">
        <ele>426.20001220703</ele>
        <time>2019-05-16T10:00:33Z</time>
      </trkpt>
      <trkpt lat="43.00439" lon="-0.07958">
        <ele>426.20001220703</ele>
        <time>2019-05-16T10:00:40Z</time>
      </trkpt>
      <trkpt lat="43.00426" lon="-0.07949">
        <ele>426.20001220703</ele>
        <time>2019-05-16T10:00:43Z</time>
      </trkpt>
      <trkpt lat="43.00416" lon="-0.07943">
        <ele>425.60000610352</ele>
        <time>2019-05-16T10:00:45Z</time>
      </trkpt>
      <trkpt lat="43.0041" lon="-0.07941">
        <ele>425.20001220703</ele>
        <time>2019-05-16T10:00:46Z</time>
      </trkpt>
      <trkpt lat="43.00405" lon="-0.07939">
        <ele>424.79998779297</ele>
        <time>2019-05-16T10:00:47Z</time>
      </trkpt>
      <trkpt lat="43.004" lon="-0.07937">
        <ele>424.39999389648</ele>
        <time>2019-05-16T10:00:48Z</time>
      </trkpt>
      <trkpt lat="43.00394" lon="-0.07935">
        <ele>424</ele>
        <time>2019-05-16T10:00:49Z</time>
      </trkpt>
      <trkpt lat="43.00372" lon="-0.0793">
        <ele>424</ele>
        <time>2019-05-16T10:00:53Z</time>
      </trkpt>
      <trkpt lat="43.00338" lon="-0.07923">
        <ele>424</ele>
        <time>2019-05-16T10:00:59Z</time>
      </trkpt>
      <trkpt lat="43.00294" lon="-0.07915">
        <ele>424</ele>
        <time>2019-05-16T10:01:07Z</time>
      </trkpt>
      <trkpt lat="43.00278" lon="-0.07913">
        <ele>424</ele>
        <time>2019-05-16T10:01:10Z</time>
      </trkpt>
      <trkpt lat="43.00267" lon="-0.07912">
        <ele>424</ele>
        <time>2019-05-16T10:01:12Z</time>
      </trkpt>
      <trkpt lat="43.00232" lon="-0.07904">
        <ele>424</ele>
        <time>2019-05-16T10:01:18Z</time>
      </trkpt>
      <trkpt lat="43.00198" lon="-0.07897">
        <ele>424</ele>
        <time>2019-05-16T10:01:24Z</time>
      </trkpt>
      <trkpt lat="43.00192" lon="-0.07895">
        <ele>424</ele>
        <time>2019-05-16T10:01:25Z</time>
      </trkpt>
      <trkpt lat="43.00158" lon="-0.07885">
        <ele>424</ele>
        <time>2019-05-16T10:01:31Z</time>
      </trkpt>
      <trkpt lat="43.00124" lon="-0.0787">
        <ele>424</ele>
        <time>2019-05-16T10:01:37Z</time>
      </trkpt>
      <trkpt lat="43.00091" lon="-0.07852">
        <ele>424</ele>
        <time>2019-05-16T10:01:43Z</time>
      </trkpt>
      <trkpt lat="43.00052" lon="-0.07828">
        <ele>424</ele>
        <time>2019-05-16T10:01:50Z</time>
      </trkpt>
      <trkpt lat="43.00009" lon="-0.07802">
        <ele>424</ele>
        <time>2019-05-16T10:01:58Z</time>
      </trkpt>
      <trkpt lat="42.99958" lon="-0.07778">
        <ele>424</ele>
        <time>2019-05-16T10:02:07Z</time>
      </trkpt>
      <trkpt lat="42.99907" lon="-0.07762">
        <ele>424</ele>
        <time>2019-05-16T10:02:16Z</time>
      </trkpt>
      <trkpt lat="42.99868" lon="-0.07757">
        <ele>424</ele>
        <time>2019-05-16T10:02:23Z</time>
      </trkpt>
      <trkpt lat="42.99833" lon="-0.07757">
        <ele>424</ele>
        <time>2019-05-16T10:02:29Z</time>
      </trkpt>
      <trkpt lat="42.99793" lon="-0.07758">
        <ele>424</ele>
        <time>2019-05-16T10:02:36Z</time>
      </trkpt>
      <trkpt lat="42.9977" lon="-0.07758">
        <ele>424.79998779297</ele>
        <time>2019-05-16T10:02:40Z</time>
      </trkpt>
      <trkpt lat="42.99764" lon="-0.07757">
        <ele>425.20001220703</ele>
        <time>2019-05-16T10:02:41Z</time>
      </trkpt>
      <trkpt lat="42.99759" lon="-0.07757">
        <ele>425.60000610352</ele>
        <time>2019-05-16T10:02:42Z</time>
      </trkpt>
      <trkpt lat="42.99753" lon="-0.07757">
        <ele>426</ele>
        <time>2019-05-16T10:02:43Z</time>
      </trkpt>
      <trkpt lat="42.99708" lon="-0.07757">
        <ele>426</ele>
        <time>2019-05-16T10:02:51Z</time>
      </trkpt>
      <trkpt lat="42.99664" lon="-0.07759">
        <ele>426</ele>
        <time>2019-05-16T10:02:59Z</time>
      </trkpt>
      <trkpt lat="42.99607" lon="-0.07759">
        <ele>426</ele>
        <time>2019-05-16T10:03:09Z</time>
      </trkpt>
      <trkpt lat="42.99568" lon="-0.07754">
        <ele>426</ele>
        <time>2019-05-16T10:03:16Z</time>
      </trkpt>
      <trkpt lat="42.99557" lon="-0.07752">
        <ele>426.39999389648</ele>
        <time>2019-05-16T10:03:18Z</time>
      </trkpt>
      <trkpt lat="42.99552" lon="-0.07751">
        <ele>426.79998779297</ele>
        <time>2019-05-16T10:03:19Z</time>
      </trkpt>
      <trkpt lat="42.99546" lon="-0.07749">
        <ele>427.20001220703</ele>
        <time>2019-05-16T10:03:20Z</time>
      </trkpt>
      <trkpt lat="42.99541" lon="-0.07748">
        <ele>427.79998779297</ele>
        <time>2019-05-16T10:03:21Z</time>
      </trkpt>
      <trkpt lat="42.99535" lon="-0.07746">
        <ele>428.20001220703</ele>
        <time>2019-05-16T10:03:22Z</time>
      </trkpt>
      <trkpt lat="42.99524" lon="-0.07743">
        <ele>428.20001220703</ele>
        <time>2019-05-16T10:03:24Z</time>
      </trkpt>
      <trkpt lat="42.9947" lon="-0.07719">
        <ele>428.20001220703</ele>
        <time>2019-05-16T10:03:34Z</time>
      </trkpt>
      <trkpt lat="42.99424" lon="-0.07695">
        <ele>428.20001220703</ele>
        <time>2019-05-16T10:03:43Z</time>
      </trkpt>
      <trkpt lat="42.99387" lon="-0.07674">
        <ele>428.20001220703</ele>
        <time>2019-05-16T10:03:51Z</time>
      </trkpt>
      <trkpt lat="42.99375" lon="-0.07669">
        <ele>428.20001220703</ele>
        <time>2019-05-16T10:03:54Z</time>
      </trkpt>
      <trkpt lat="42.99367" lon="-0.07672">
        <ele>428.20001220703</ele>
        <time>2019-05-16T10:03:56Z</time>
      </trkpt>
      <trkpt lat="42.9936" lon="-0.0768">
        <ele>428.20001220703</ele>
        <time>2019-05-16T10:03:58Z</time>
      </trkpt>
      <trkpt lat="42.99356" lon="-0.07683">
        <ele>428.20001220703</ele>
        <time>2019-05-16T10:03:59Z</time>
      </trkpt>
      <trkpt lat="42.99352" lon="-0.07684">
        <ele>428.20001220703</ele>
        <time>2019-05-16T10:04:00Z</time>
      </trkpt>
      <trkpt lat="42.99335" lon="-0.07681">
        <ele>428.20001220703</ele>
        <time>2019-05-16T10:04:04Z</time>
      </trkpt>
      <trkpt lat="42.99312" lon="-0.07667">
        <ele>428.20001220703</ele>
        <time>2019-05-16T10:04:10Z</time>
      </trkpt>
      <trkpt lat="42.99289" lon="-0.07652">
        <ele>428.20001220703</ele>
        <time>2019-05-16T10:04:17Z</time>
      </trkpt>
      <trkpt lat="42.99279" lon="-0.07647">
        <ele>428.20001220703</ele>
        <time>2019-05-16T10:04:20Z</time>
      </trkpt>
      <trkpt lat="42.99272" lon="-0.07642">
        <ele>428.20001220703</ele>
        <time>2019-05-16T10:04:22Z</time>
      </trkpt>
      <trkpt lat="42.99254" lon="-0.07628">
        <ele>428.20001220703</ele>
        <time>2019-05-16T10:04:27Z</time>
      </trkpt>
      <trkpt lat="42.99246" lon="-0.07624">
        <ele>428.20001220703</ele>
        <time>2019-05-16T10:04:29Z</time>
      </trkpt>
      <trkpt lat="42.99231" lon="-0.07614">
        <ele>428.20001220703</ele>
        <time>2019-05-16T10:04:33Z</time>
      </trkpt>
      <trkpt lat="42.99206" lon="-0.07599">
        <ele>428.20001220703</ele>
        <time>2019-05-16T10:04:39Z</time>
      </trkpt>
      <trkpt lat="42.99178" lon="-0.07582">
        <ele>428.20001220703</ele>
        <time>2019-05-16T10:04:45Z</time>
      </trkpt>
      <trkpt lat="42.99158" lon="-0.07564">
        <ele>428.20001220703</ele>
        <time>2019-05-16T10:04:50Z</time>
      </trkpt>
      <trkpt lat="42.99124" lon="-0.07533">
        <ele>428.20001220703</ele>
        <time>2019-05-16T10:04:58Z</time>
      </trkpt>
      <trkpt lat="42.9912" lon="-0.0753">
        <ele>428.20001220703</ele>
        <time>2019-05-16T10:04:59Z</time>
      </trkpt>
      <trkpt lat="42.99095" lon="-0.07512">
        <ele>428.20001220703</ele>
        <time>2019-05-16T10:05:05Z</time>
      </trkpt>
      <trkpt lat="42.99066" lon="-0.07484">
        <ele>428.20001220703</ele>
        <time>2019-05-16T10:05:12Z</time>
      </trkpt>
      <trkpt lat="42.9904" lon="-0.07461">
        <ele>428.20001220703</ele>
        <time>2019-05-16T10:05:18Z</time>
      </trkpt>
      <trkpt lat="42.99036" lon="-0.07457">
        <ele>428.20001220703</ele>
        <time>2019-05-16T10:05:19Z</time>
      </trkpt>
      <trkpt lat="42.99024" lon="-0.07443">
        <ele>428.20001220703</ele>
        <time>2019-05-16T10:05:22Z</time>
      </trkpt>
      <trkpt lat="42.99011" lon="-0.0743">
        <ele>428.20001220703</ele>
        <time>2019-05-16T10:05:25Z</time>
      </trkpt>
      <trkpt lat="42.98982" lon="-0.07402">
        <ele>428.20001220703</ele>
        <time>2019-05-16T10:05:32Z</time>
      </trkpt>
      <trkpt lat="42.98959" lon="-0.07388">
        <ele>428.60000610352</ele>
        <time>2019-05-16T10:05:38Z</time>
      </trkpt>
      <trkpt lat="42.98955" lon="-0.07387">
        <ele>429</ele>
        <time>2019-05-16T10:05:39Z</time>
      </trkpt>
      <trkpt lat="42.98952" lon="-0.07386">
        <ele>429.39999389648</ele>
        <time>2019-05-16T10:05:40Z</time>
      </trkpt>
      <trkpt lat="42.98948" lon="-0.07385">
        <ele>430</ele>
        <time>2019-05-16T10:05:41Z</time>
      </trkpt>
      <trkpt lat="42.98944" lon="-0.07384">
        <ele>430.39999389648</ele>
        <time>2019-05-16T10:05:42Z</time>
      </trkpt>
      <trkpt lat="42.98936" lon="-0.0738">
        <ele>430.39999389648</ele>
        <time>2019-05-16T10:05:44Z</time>
      </trkpt>
      <trkpt lat="42.98917" lon="-0.07362">
        <ele>430.39999389648</ele>
        <time>2019-05-16T10:05:49Z</time>
      </trkpt>
      <trkpt lat="42.98886" lon="-0.07344">
        <ele>430.39999389648</ele>
        <time>2019-05-16T10:05:56Z</time>
      </trkpt>
      <trkpt lat="42.98855" lon="-0.07329">
        <ele>430.39999389648</ele>
        <time>2019-05-16T10:06:03Z</time>
      </trkpt>
      <trkpt lat="42.98828" lon="-0.07319">
        <ele>430.79998779297</ele>
        <time>2019-05-16T10:06:09Z</time>
      </trkpt>
      <trkpt lat="42.98824" lon="-0.07318">
        <ele>431.20001220703</ele>
        <time>2019-05-16T10:06:10Z</time>
      </trkpt>
      <trkpt lat="42.9882" lon="-0.07317">
        <ele>431.60000610352</ele>
        <time>2019-05-16T10:06:11Z</time>
      </trkpt>
      <trkpt lat="42.98815" lon="-0.07316">
        <ele>432</ele>
        <time>2019-05-16T10:06:12Z</time>
      </trkpt>
      <trkpt lat="42.98811" lon="-0.07315">
        <ele>432.60000610352</ele>
        <time>2019-05-16T10:06:13Z</time>
      </trkpt>
      <trkpt lat="42.98788" lon="-0.07308">
        <ele>432.60000610352</ele>
        <time>2019-05-16T10:06:18Z</time>
      </trkpt>
      <trkpt lat="42.98755" lon="-0.07294">
        <ele>432.60000610352</ele>
        <time>2019-05-16T10:06:25Z</time>
      </trkpt>
      <trkpt lat="42.98705" lon="-0.07278">
        <ele>432.60000610352</ele>
        <time>2019-05-16T10:06:35Z</time>
      </trkpt>
      <trkpt lat="42.98677" lon="-0.07271">
        <ele>433</ele>
        <time>2019-05-16T10:06:41Z</time>
      </trkpt>
      <trkpt lat="42.98672" lon="-0.07269">
        <ele>433.39999389648</ele>
        <time>2019-05-16T10:06:42Z</time>
      </trkpt>
      <trkpt lat="42.98667" lon="-0.07268">
        <ele>433.79998779297</ele>
        <time>2019-05-16T10:06:43Z</time>
      </trkpt>
      <trkpt lat="42.98662" lon="-0.07266">
        <ele>434.20001220703</ele>
        <time>2019-05-16T10:06:44Z</time>
      </trkpt>
      <trkpt lat="42.98657" lon="-0.07265">
        <ele>434.60000610352</ele>
        <time>2019-05-16T10:06:45Z</time>
      </trkpt>
      <trkpt lat="42.98627" lon="-0.07256">
        <ele>434.60000610352</ele>
        <time>2019-05-16T10:06:52Z</time>
      </trkpt>
      <trkpt lat="42.98614" lon="-0.07252">
        <ele>434.60000610352</ele>
        <time>2019-05-16T10:06:56Z</time>
      </trkpt>
      <trkpt lat="42.98599" lon="-0.07249">
        <ele>434.60000610352</ele>
        <time>2019-05-16T10:06:59Z</time>
      </trkpt>
      <trkpt lat="42.9859" lon="-0.07247">
        <ele>434.60000610352</ele>
        <time>2019-05-16T10:07:01Z</time>
      </trkpt>
      <trkpt lat="42.98553" lon="-0.07236">
        <ele>434.60000610352</ele>
        <time>2019-05-16T10:07:09Z</time>
      </trkpt>
      <trkpt lat="42.98544" lon="-0.07234">
        <ele>434.60000610352</ele>
        <time>2019-05-16T10:07:11Z</time>
      </trkpt>
      <trkpt lat="42.98528" lon="-0.07234">
        <ele>434.60000610352</ele>
        <time>2019-05-16T10:07:14Z</time>
      </trkpt>
      <trkpt lat="42.98512" lon="-0.07229">
        <ele>434.60000610352</ele>
        <time>2019-05-16T10:07:17Z</time>
      </trkpt>
      <trkpt lat="42.98502" lon="-0.07228">
        <ele>434.60000610352</ele>
        <time>2019-05-16T10:07:19Z</time>
      </trkpt>
      <trkpt lat="42.98497" lon="-0.07228">
        <ele>434.60000610352</ele>
        <time>2019-05-16T10:07:20Z</time>
      </trkpt>
      <trkpt lat="42.98478" lon="-0.0723">
        <ele>434.60000610352</ele>
        <time>2019-05-16T10:07:24Z</time>
      </trkpt>
      <trkpt lat="42.98462" lon="-0.07225">
        <ele>434.60000610352</ele>
        <time>2019-05-16T10:07:28Z</time>
      </trkpt>
      <trkpt lat="42.98458" lon="-0.07223">
        <ele>435</ele>
        <time>2019-05-16T10:07:29Z</time>
      </trkpt>
      <trkpt lat="42.98453" lon="-0.07221">
        <ele>435.39999389648</ele>
        <time>2019-05-16T10:07:30Z</time>
      </trkpt>
      <trkpt lat="42.98449" lon="-0.07219">
        <ele>435.79998779297</ele>
        <time>2019-05-16T10:07:31Z</time>
      </trkpt>
      <trkpt lat="42.98445" lon="-0.07218">
        <ele>436.20001220703</ele>
        <time>2019-05-16T10:07:32Z</time>
      </trkpt>
      <trkpt lat="42.98441" lon="-0.07216">
        <ele>436.60000610352</ele>
        <time>2019-05-16T10:07:33Z</time>
      </trkpt>
      <trkpt lat="42.98429" lon="-0.07213">
        <ele>436.60000610352</ele>
        <time>2019-05-16T10:07:36Z</time>
      </trkpt>
      <trkpt lat="42.98411" lon="-0.07205">
        <ele>436.60000610352</ele>
        <time>2019-05-16T10:07:42Z</time>
      </trkpt>
      <trkpt lat="42.98408" lon="-0.07204">
        <ele>436.60000610352</ele>
        <time>2019-05-16T10:07:46Z</time>
      </trkpt>
      <trkpt lat="42.98403" lon="-0.07205">
        <ele>436.60000610352</ele>
        <time>2019-05-16T10:07:51Z</time>
      </trkpt>
      <trkpt lat="42.98401" lon="-0.07205">
        <ele>436.60000610352</ele>
        <time>2019-05-16T10:07:52Z</time>
      </trkpt>
      <trkpt lat="42.98388" lon="-0.07199">
        <ele>436.60000610352</ele>
        <time>2019-05-16T10:07:58Z</time>
      </trkpt>
      <trkpt lat="42.98376" lon="-0.07193">
        <ele>436.60000610352</ele>
        <time>2019-05-16T10:08:03Z</time>
      </trkpt>
      <trkpt lat="42.98358" lon="-0.07185">
        <ele>436.60000610352</ele>
        <time>2019-05-16T10:08:09Z</time>
      </trkpt>
      <trkpt lat="42.98339" lon="-0.07175">
        <ele>436.60000610352</ele>
        <time>2019-05-16T10:08:15Z</time>
      </trkpt>
      <trkpt lat="42.98319" lon="-0.07157">
        <ele>436.60000610352</ele>
        <time>2019-05-16T10:08:22Z</time>
      </trkpt>
      <trkpt lat="42.983" lon="-0.07141">
        <ele>436.60000610352</ele>
        <time>2019-05-16T10:08:28Z</time>
      </trkpt>
      <trkpt lat="42.98279" lon="-0.07128">
        <ele>436.60000610352</ele>
        <time>2019-05-16T10:08:34Z</time>
      </trkpt>
      <trkpt lat="42.98271" lon="-0.07123">
        <ele>436.60000610352</ele>
        <time>2019-05-16T10:08:36Z</time>
      </trkpt>
      <trkpt lat="42.98263" lon="-0.07118">
        <ele>436.60000610352</ele>
        <time>2019-05-16T10:08:38Z</time>
      </trkpt>
      <trkpt lat="42.98258" lon="-0.07116">
        <ele>436.60000610352</ele>
        <time>2019-05-16T10:08:39Z</time>
      </trkpt>
      <trkpt lat="42.98254" lon="-0.07115">
        <ele>436.60000610352</ele>
        <time>2019-05-16T10:08:40Z</time>
      </trkpt>
      <trkpt lat="42.98233" lon="-0.07107">
        <ele>436.60000610352</ele>
        <time>2019-05-16T10:08:45Z</time>
      </trkpt>
      <trkpt lat="42.98217" lon="-0.07102">
        <ele>437.60000610352</ele>
        <time>2019-05-16T10:08:49Z</time>
      </trkpt>
      <trkpt lat="42.98213" lon="-0.071">
        <ele>438</ele>
        <time>2019-05-16T10:08:50Z</time>
      </trkpt>
      <trkpt lat="42.98209" lon="-0.07097">
        <ele>438.39999389648</ele>
        <time>2019-05-16T10:08:51Z</time>
      </trkpt>
      <trkpt lat="42.98205" lon="-0.07095">
        <ele>438.79998779297</ele>
        <time>2019-05-16T10:08:52Z</time>
      </trkpt>
      <trkpt lat="42.98185" lon="-0.07084">
        <ele>438.79998779297</ele>
        <time>2019-05-16T10:08:58Z</time>
      </trkpt>
      <trkpt lat="42.98163" lon="-0.07073">
        <ele>438.79998779297</ele>
        <time>2019-05-16T10:09:04Z</time>
      </trkpt>
      <trkpt lat="42.9816" lon="-0.0707">
        <ele>438.79998779297</ele>
        <time>2019-05-16T10:09:05Z</time>
      </trkpt>
      <trkpt lat="42.98147" lon="-0.07065">
        <ele>438.79998779297</ele>
        <time>2019-05-16T10:09:08Z</time>
      </trkpt>
      <trkpt lat="42.98143" lon="-0.07064">
        <ele>438.79998779297</ele>
        <time>2019-05-16T10:09:09Z</time>
      </trkpt>
      <trkpt lat="42.98124" lon="-0.07062">
        <ele>438.79998779297</ele>
        <time>2019-05-16T10:09:14Z</time>
      </trkpt>
      <trkpt lat="42.98119" lon="-0.07062">
        <ele>438.79998779297</ele>
        <time>2019-05-16T10:09:15Z</time>
      </trkpt>
      <trkpt lat="42.98104" lon="-0.07052">
        <ele>438.79998779297</ele>
        <time>2019-05-16T10:09:19Z</time>
      </trkpt>
      <trkpt lat="42.981" lon="-0.07049">
        <ele>439.20001220703</ele>
        <time>2019-05-16T10:09:20Z</time>
      </trkpt>
      <trkpt lat="42.98096" lon="-0.07045">
        <ele>439.60000610352</ele>
        <time>2019-05-16T10:09:21Z</time>
      </trkpt>
      <trkpt lat="42.98092" lon="-0.07042">
        <ele>440</ele>
        <time>2019-05-16T10:09:22Z</time>
      </trkpt>
      <trkpt lat="42.98087" lon="-0.07041">
        <ele>440.39999389648</ele>
        <time>2019-05-16T10:09:23Z</time>
      </trkpt>
      <trkpt lat="42.98083" lon="-0.0704">
        <ele>440.79998779297</ele>
        <time>2019-05-16T10:09:24Z</time>
      </trkpt>
      <trkpt lat="42.9807" lon="-0.07036">
        <ele>440.79998779297</ele>
        <time>2019-05-16T10:09:27Z</time>
      </trkpt>
      <trkpt lat="42.98066" lon="-0.07035">
        <ele>440.79998779297</ele>
        <time>2019-05-16T10:09:28Z</time>
      </trkpt>
      <trkpt lat="42.98062" lon="-0.07034">
        <ele>440.79998779297</ele>
        <time>2019-05-16T10:09:29Z</time>
      </trkpt>
      <trkpt lat="42.98045" lon="-0.07025">
        <ele>440.79998779297</ele>
        <time>2019-05-16T10:09:34Z</time>
      </trkpt>
      <trkpt lat="42.98036" lon="-0.07013">
        <ele>440.79998779297</ele>
        <time>2019-05-16T10:09:37Z</time>
      </trkpt>
      <trkpt lat="42.98033" lon="-0.07009">
        <ele>440.79998779297</ele>
        <time>2019-05-16T10:09:38Z</time>
      </trkpt>
      <trkpt lat="42.98018" lon="-0.07001">
        <ele>440.79998779297</ele>
        <time>2019-05-16T10:09:42Z</time>
      </trkpt>
      <trkpt lat="42.97998" lon="-0.06993">
        <ele>440.79998779297</ele>
        <time>2019-05-16T10:09:48Z</time>
      </trkpt>
      <trkpt lat="42.97986" lon="-0.06987">
        <ele>440.79998779297</ele>
        <time>2019-05-16T10:09:53Z</time>
      </trkpt>
      <trkpt lat="42.97985" lon="-0.06985">
        <ele>440.79998779297</ele>
        <time>2019-05-16T10:09:54Z</time>
      </trkpt>
      <trkpt lat="42.97984" lon="-0.06982">
        <ele>440.79998779297</ele>
        <time>2019-05-16T10:09:59Z</time>
      </trkpt>
      <trkpt lat="42.97984" lon="-0.06982">
        <ele>440.79998779297</ele>
        <time>2019-05-16T10:10:12Z</time>
      </trkpt>
      <trkpt lat="42.97984" lon="-0.06982">
        <ele>440.79998779297</ele>
        <time>2019-05-16T10:10:26Z</time>
      </trkpt>
      <trkpt lat="42.97984" lon="-0.06981">
        <ele>440.79998779297</ele>
        <time>2019-05-16T10:10:37Z</time>
      </trkpt>
      <trkpt lat="42.97984" lon="-0.06981">
        <ele>440.79998779297</ele>
        <time>2019-05-16T10:10:46Z</time>
      </trkpt>
      <trkpt lat="42.97984" lon="-0.0698">
        <ele>440.79998779297</ele>
        <time>2019-05-16T10:10:53Z</time>
      </trkpt>
      <trkpt lat="42.97982" lon="-0.06976">
        <ele>440.79998779297</ele>
        <time>2019-05-16T10:10:56Z</time>
      </trkpt>
      <trkpt lat="42.97981" lon="-0.06974">
        <ele>440.79998779297</ele>
        <time>2019-05-16T10:10:57Z</time>
      </trkpt>
      <trkpt lat="42.97967" lon="-0.0696">
        <ele>440.79998779297</ele>
        <time>2019-05-16T10:11:03Z</time>
      </trkpt>
      <trkpt lat="42.9795" lon="-0.06943">
        <ele>440.79998779297</ele>
        <time>2019-05-16T10:11:09Z</time>
      </trkpt>
      <trkpt lat="42.9795" lon="-0.06924">
        <ele>440.79998779297</ele>
        <time>2019-05-16T10:11:13Z</time>
      </trkpt>
      <trkpt lat="42.9795" lon="-0.0692">
        <ele>441.20001220703</ele>
        <time>2019-05-16T10:11:14Z</time>
      </trkpt>
      <trkpt lat="42.97951" lon="-0.06915">
        <ele>441.60000610352</ele>
        <time>2019-05-16T10:11:15Z</time>
      </trkpt>
      <trkpt lat="42.97952" lon="-0.0691">
        <ele>442</ele>
        <time>2019-05-16T10:11:16Z</time>
      </trkpt>
      <trkpt lat="42.97952" lon="-0.06905">
        <ele>442.79998779297</ele>
        <time>2019-05-16T10:11:17Z</time>
      </trkpt>
      <trkpt lat="42.97954" lon="-0.06891">
        <ele>442.79998779297</ele>
        <time>2019-05-16T10:11:20Z</time>
      </trkpt>
      <trkpt lat="42.97955" lon="-0.06857">
        <ele>442.79998779297</ele>
        <time>2019-05-16T10:11:27Z</time>
      </trkpt>
      <trkpt lat="42.97956" lon="-0.06829">
        <ele>442.79998779297</ele>
        <time>2019-05-16T10:11:33Z</time>
      </trkpt>
      <trkpt lat="42.97956" lon="-0.06801">
        <ele>443.20001220703</ele>
        <time>2019-05-16T10:11:39Z</time>
      </trkpt>
      <trkpt lat="42.97956" lon="-0.06797">
        <ele>443.60000610352</ele>
        <time>2019-05-16T10:11:40Z</time>
      </trkpt>
      <trkpt lat="42.97956" lon="-0.06793">
        <ele>444.39999389648</ele>
        <time>2019-05-16T10:11:41Z</time>
      </trkpt>
      <trkpt lat="42.97957" lon="-0.06788">
        <ele>444.79998779297</ele>
        <time>2019-05-16T10:11:42Z</time>
      </trkpt>
      <trkpt lat="42.97958" lon="-0.06762">
        <ele>445.20001220703</ele>
        <time>2019-05-16T10:11:48Z</time>
      </trkpt>
      <trkpt lat="42.97958" lon="-0.06759">
        <ele>445.79998779297</ele>
        <time>2019-05-16T10:11:49Z</time>
      </trkpt>
      <trkpt lat="42.97958" lon="-0.06756">
        <ele>446.20001220703</ele>
        <time>2019-05-16T10:11:50Z</time>
      </trkpt>
      <trkpt lat="42.97959" lon="-0.06753">
        <ele>446.60000610352</ele>
        <time>2019-05-16T10:11:51Z</time>
      </trkpt>
      <trkpt lat="42.97959" lon="-0.06749">
        <ele>447</ele>
        <time>2019-05-16T10:11:52Z</time>
      </trkpt>
      <trkpt lat="42.97959" lon="-0.06734">
        <ele>447</ele>
        <time>2019-05-16T10:11:56Z</time>
      </trkpt>
      <trkpt lat="42.97952" lon="-0.0671">
        <ele>447</ele>
        <time>2019-05-16T10:12:02Z</time>
      </trkpt>
      <trkpt lat="42.97943" lon="-0.06698">
        <ele>447.39999389648</ele>
        <time>2019-05-16T10:12:06Z</time>
      </trkpt>
      <trkpt lat="42.97941" lon="-0.06695">
        <ele>447.79998779297</ele>
        <time>2019-05-16T10:12:07Z</time>
      </trkpt>
      <trkpt lat="42.97938" lon="-0.06693">
        <ele>448.20001220703</ele>
        <time>2019-05-16T10:12:08Z</time>
      </trkpt>
      <trkpt lat="42.97936" lon="-0.06689">
        <ele>448.60000610352</ele>
        <time>2019-05-16T10:12:09Z</time>
      </trkpt>
      <trkpt lat="42.97933" lon="-0.06687">
        <ele>449</ele>
        <time>2019-05-16T10:12:10Z</time>
      </trkpt>
      <trkpt lat="42.9793" lon="-0.06684">
        <ele>449</ele>
        <time>2019-05-16T10:12:11Z</time>
      </trkpt>
      <trkpt lat="42.97918" lon="-0.0667">
        <ele>449</ele>
        <time>2019-05-16T10:12:16Z</time>
      </trkpt>
      <trkpt lat="42.97901" lon="-0.06649">
        <ele>449</ele>
        <time>2019-05-16T10:12:23Z</time>
      </trkpt>
      <trkpt lat="42.97893" lon="-0.0664">
        <ele>449.39999389648</ele>
        <time>2019-05-16T10:12:26Z</time>
      </trkpt>
      <trkpt lat="42.97891" lon="-0.06637">
        <ele>449.79998779297</ele>
        <time>2019-05-16T10:12:27Z</time>
      </trkpt>
      <trkpt lat="42.97889" lon="-0.06633">
        <ele>450.20001220703</ele>
        <time>2019-05-16T10:12:28Z</time>
      </trkpt>
      <trkpt lat="42.97886" lon="-0.0663">
        <ele>450.79998779297</ele>
        <time>2019-05-16T10:12:29Z</time>
      </trkpt>
      <trkpt lat="42.97884" lon="-0.06627">
        <ele>451.20001220703</ele>
        <time>2019-05-16T10:12:30Z</time>
      </trkpt>
      <trkpt lat="42.97869" lon="-0.06609">
        <ele>451.20001220703</ele>
        <time>2019-05-16T10:12:36Z</time>
      </trkpt>
      <trkpt lat="42.97864" lon="-0.06604">
        <ele>451.60000610352</ele>
        <time>2019-05-16T10:12:38Z</time>
      </trkpt>
      <trkpt lat="42.97861" lon="-0.06601">
        <ele>452</ele>
        <time>2019-05-16T10:12:39Z</time>
      </trkpt>
      <trkpt lat="42.97859" lon="-0.06598">
        <ele>452.60000610352</ele>
        <time>2019-05-16T10:12:40Z</time>
      </trkpt>
      <trkpt lat="42.97856" lon="-0.06595">
        <ele>453</ele>
        <time>2019-05-16T10:12:41Z</time>
      </trkpt>
      <trkpt lat="42.97854" lon="-0.06592">
        <ele>453.39999389648</ele>
        <time>2019-05-16T10:12:42Z</time>
      </trkpt>
      <trkpt lat="42.97849" lon="-0.06586">
        <ele>453.39999389648</ele>
        <time>2019-05-16T10:12:44Z</time>
      </trkpt>
      <trkpt lat="42.97832" lon="-0.06564">
        <ele>453.39999389648</ele>
        <time>2019-05-16T10:12:51Z</time>
      </trkpt>
      <trkpt lat="42.97829" lon="-0.06561">
        <ele>453.79998779297</ele>
        <time>2019-05-16T10:12:52Z</time>
      </trkpt>
      <trkpt lat="42.97827" lon="-0.06558">
        <ele>454.20001220703</ele>
        <time>2019-05-16T10:12:53Z</time>
      </trkpt>
      <trkpt lat="42.97824" lon="-0.06555">
        <ele>454.60000610352</ele>
        <time>2019-05-16T10:12:54Z</time>
      </trkpt>
      <trkpt lat="42.97822" lon="-0.06552">
        <ele>455</ele>
        <time>2019-05-16T10:12:55Z</time>
      </trkpt>
      <trkpt lat="42.97819" lon="-0.06549">
        <ele>455.39999389648</ele>
        <time>2019-05-16T10:12:57Z</time>
      </trkpt>
      <trkpt lat="42.97814" lon="-0.06543">
        <ele>455.39999389648</ele>
        <time>2019-05-16T10:12:59Z</time>
      </trkpt>
      <trkpt lat="42.97799" lon="-0.06523">
        <ele>455.39999389648</ele>
        <time>2019-05-16T10:13:05Z</time>
      </trkpt>
      <trkpt lat="42.97797" lon="-0.0652">
        <ele>455.79998779297</ele>
        <time>2019-05-16T10:13:06Z</time>
      </trkpt>
      <trkpt lat="42.97794" lon="-0.06517">
        <ele>456.20001220703</ele>
        <time>2019-05-16T10:13:07Z</time>
      </trkpt>
      <trkpt lat="42.97792" lon="-0.06514">
        <ele>456.60000610352</ele>
        <time>2019-05-16T10:13:08Z</time>
      </trkpt>
      <trkpt lat="42.9779" lon="-0.06511">
        <ele>457.20001220703</ele>
        <time>2019-05-16T10:13:09Z</time>
      </trkpt>
      <trkpt lat="42.97787" lon="-0.06507">
        <ele>457.60000610352</ele>
        <time>2019-05-16T10:13:10Z</time>
      </trkpt>
      <trkpt lat="42.97776" lon="-0.06495">
        <ele>457.60000610352</ele>
        <time>2019-05-16T10:13:14Z</time>
      </trkpt>
      <trkpt lat="42.97761" lon="-0.06476">
        <ele>458</ele>
        <time>2019-05-16T10:13:20Z</time>
      </trkpt>
      <trkpt lat="42.97759" lon="-0.06473">
        <ele>458.79998779297</ele>
        <time>2019-05-16T10:13:21Z</time>
      </trkpt>
      <trkpt lat="42.97756" lon="-0.0647">
        <ele>459.20001220703</ele>
        <time>2019-05-16T10:13:22Z</time>
      </trkpt>
      <trkpt lat="42.97753" lon="-0.06467">
        <ele>459.60000610352</ele>
        <time>2019-05-16T10:13:23Z</time>
      </trkpt>
      <trkpt lat="42.97733" lon="-0.0644">
        <ele>459.60000610352</ele>
        <time>2019-05-16T10:13:31Z</time>
      </trkpt>
      <trkpt lat="42.97728" lon="-0.06434">
        <ele>460</ele>
        <time>2019-05-16T10:13:33Z</time>
      </trkpt>
      <trkpt lat="42.97725" lon="-0.06431">
        <ele>460.39999389648</ele>
        <time>2019-05-16T10:13:34Z</time>
      </trkpt>
      <trkpt lat="42.97723" lon="-0.06427">
        <ele>460.79998779297</ele>
        <time>2019-05-16T10:13:35Z</time>
      </trkpt>
      <trkpt lat="42.9772" lon="-0.06424">
        <ele>461.20001220703</ele>
        <time>2019-05-16T10:13:36Z</time>
      </trkpt>
      <trkpt lat="42.97718" lon="-0.06421">
        <ele>461.60000610352</ele>
        <time>2019-05-16T10:13:37Z</time>
      </trkpt>
      <trkpt lat="42.97716" lon="-0.06418">
        <ele>461.60000610352</ele>
        <time>2019-05-16T10:13:38Z</time>
      </trkpt>
      <trkpt lat="42.97701" lon="-0.06401">
        <ele>462</ele>
        <time>2019-05-16T10:13:44Z</time>
      </trkpt>
      <trkpt lat="42.97699" lon="-0.06398">
        <ele>462.39999389648</ele>
        <time>2019-05-16T10:13:45Z</time>
      </trkpt>
      <trkpt lat="42.97697" lon="-0.06396">
        <ele>463.20001220703</ele>
        <time>2019-05-16T10:13:46Z</time>
      </trkpt>
      <trkpt lat="42.97694" lon="-0.06393">
        <ele>463.60000610352</ele>
        <time>2019-05-16T10:13:47Z</time>
      </trkpt>
      <trkpt lat="42.97692" lon="-0.06391">
        <ele>463.60000610352</ele>
        <time>2019-05-16T10:13:48Z</time>
      </trkpt>
      <trkpt lat="42.97676" lon="-0.06373">
        <ele>464</ele>
        <time>2019-05-16T10:13:55Z</time>
      </trkpt>
      <trkpt lat="42.97674" lon="-0.0637">
        <ele>464.60000610352</ele>
        <time>2019-05-16T10:13:56Z</time>
      </trkpt>
      <trkpt lat="42.97672" lon="-0.06367">
        <ele>465</ele>
        <time>2019-05-16T10:13:57Z</time>
      </trkpt>
      <trkpt lat="42.9767" lon="-0.06363">
        <ele>465.39999389648</ele>
        <time>2019-05-16T10:13:58Z</time>
      </trkpt>
      <trkpt lat="42.97667" lon="-0.06361">
        <ele>465.79998779297</ele>
        <time>2019-05-16T10:13:59Z</time>
      </trkpt>
      <trkpt lat="42.9766" lon="-0.06353">
        <ele>465.79998779297</ele>
        <time>2019-05-16T10:14:02Z</time>
      </trkpt>
      <trkpt lat="42.97656" lon="-0.06348">
        <ele>466.39999389648</ele>
        <time>2019-05-16T10:14:04Z</time>
      </trkpt>
      <trkpt lat="42.97653" lon="-0.06346">
        <ele>466.79998779297</ele>
        <time>2019-05-16T10:14:05Z</time>
      </trkpt>
      <trkpt lat="42.97651" lon="-0.06343">
        <ele>467.20001220703</ele>
        <time>2019-05-16T10:14:06Z</time>
      </trkpt>
      <trkpt lat="42.97649" lon="-0.0634">
        <ele>467.60000610352</ele>
        <time>2019-05-16T10:14:07Z</time>
      </trkpt>
      <trkpt lat="42.97647" lon="-0.06336">
        <ele>468.20001220703</ele>
        <time>2019-05-16T10:14:08Z</time>
      </trkpt>
      <trkpt lat="42.97646" lon="-0.06332">
        <ele>468.20001220703</ele>
        <time>2019-05-16T10:14:09Z</time>
      </trkpt>
      <trkpt lat="42.97647" lon="-0.06317">
        <ele>468.60000610352</ele>
        <time>2019-05-16T10:14:13Z</time>
      </trkpt>
      <trkpt lat="42.97647" lon="-0.06314">
        <ele>469</ele>
        <time>2019-05-16T10:14:14Z</time>
      </trkpt>
      <trkpt lat="42.97648" lon="-0.0631">
        <ele>469.39999389648</ele>
        <time>2019-05-16T10:14:15Z</time>
      </trkpt>
      <trkpt lat="42.97648" lon="-0.06307">
        <ele>469.79998779297</ele>
        <time>2019-05-16T10:14:16Z</time>
      </trkpt>
      <trkpt lat="42.97648" lon="-0.06303">
        <ele>470.39999389648</ele>
        <time>2019-05-16T10:14:17Z</time>
      </trkpt>
      <trkpt lat="42.9765" lon="-0.06289">
        <ele>470.79998779297</ele>
        <time>2019-05-16T10:14:21Z</time>
      </trkpt>
      <trkpt lat="42.9765" lon="-0.06286">
        <ele>471.20001220703</ele>
        <time>2019-05-16T10:14:22Z</time>
      </trkpt>
      <trkpt lat="42.9765" lon="-0.06282">
        <ele>471.60000610352</ele>
        <time>2019-05-16T10:14:23Z</time>
      </trkpt>
      <trkpt lat="42.97651" lon="-0.06279">
        <ele>472</ele>
        <time>2019-05-16T10:14:24Z</time>
      </trkpt>
      <trkpt lat="42.97651" lon="-0.06276">
        <ele>472.39999389648</ele>
        <time>2019-05-16T10:14:25Z</time>
      </trkpt>
      <trkpt lat="42.97653" lon="-0.06263">
        <ele>472.79998779297</ele>
        <time>2019-05-16T10:14:29Z</time>
      </trkpt>
      <trkpt lat="42.97653" lon="-0.0626">
        <ele>473.20001220703</ele>
        <time>2019-05-16T10:14:30Z</time>
      </trkpt>
      <trkpt lat="42.97654" lon="-0.06256">
        <ele>473.60000610352</ele>
        <time>2019-05-16T10:14:31Z</time>
      </trkpt>
      <trkpt lat="42.97654" lon="-0.06253">
        <ele>474</ele>
        <time>2019-05-16T10:14:32Z</time>
      </trkpt>
      <trkpt lat="42.97654" lon="-0.06249">
        <ele>474.60000610352</ele>
        <time>2019-05-16T10:14:33Z</time>
      </trkpt>
      <trkpt lat="42.97656" lon="-0.06236">
        <ele>475</ele>
        <time>2019-05-16T10:14:37Z</time>
      </trkpt>
      <trkpt lat="42.97656" lon="-0.06233">
        <ele>475.39999389648</ele>
        <time>2019-05-16T10:14:38Z</time>
      </trkpt>
      <trkpt lat="42.97656" lon="-0.06229">
        <ele>475.79998779297</ele>
        <time>2019-05-16T10:14:39Z</time>
      </trkpt>
      <trkpt lat="42.97657" lon="-0.06226">
        <ele>476.20001220703</ele>
        <time>2019-05-16T10:14:40Z</time>
      </trkpt>
      <trkpt lat="42.97657" lon="-0.06223">
        <ele>476.60000610352</ele>
        <time>2019-05-16T10:14:41Z</time>
      </trkpt>
      <trkpt lat="42.97658" lon="-0.06214">
        <ele>476.60000610352</ele>
        <time>2019-05-16T10:14:44Z</time>
      </trkpt>
      <trkpt lat="42.97659" lon="-0.06207">
        <ele>477</ele>
        <time>2019-05-16T10:14:46Z</time>
      </trkpt>
      <trkpt lat="42.9766" lon="-0.06204">
        <ele>477.39999389648</ele>
        <time>2019-05-16T10:14:47Z</time>
      </trkpt>
      <trkpt lat="42.9766" lon="-0.062">
        <ele>477.79998779297</ele>
        <time>2019-05-16T10:14:48Z</time>
      </trkpt>
      <trkpt lat="42.97661" lon="-0.06197">
        <ele>478.39999389648</ele>
        <time>2019-05-16T10:14:49Z</time>
      </trkpt>
      <trkpt lat="42.97661" lon="-0.06193">
        <ele>478.79998779297</ele>
        <time>2019-05-16T10:14:50Z</time>
      </trkpt>
      <trkpt lat="42.97663" lon="-0.06179">
        <ele>479.20001220703</ele>
        <time>2019-05-16T10:14:55Z</time>
      </trkpt>
      <trkpt lat="42.97664" lon="-0.06175">
        <ele>479.60000610352</ele>
        <time>2019-05-16T10:14:56Z</time>
      </trkpt>
      <trkpt lat="42.97664" lon="-0.06172">
        <ele>480.20001220703</ele>
        <time>2019-05-16T10:14:57Z</time>
      </trkpt>
      <trkpt lat="42.97664" lon="-0.06169">
        <ele>480.60000610352</ele>
        <time>2019-05-16T10:14:58Z</time>
      </trkpt>
      <trkpt lat="42.97665" lon="-0.06166">
        <ele>481</ele>
        <time>2019-05-16T10:14:59Z</time>
      </trkpt>
      <trkpt lat="42.97666" lon="-0.06155">
        <ele>481</ele>
        <time>2019-05-16T10:15:03Z</time>
      </trkpt>
      <trkpt lat="42.97667" lon="-0.06152">
        <ele>481.39999389648</ele>
        <time>2019-05-16T10:15:04Z</time>
      </trkpt>
      <trkpt lat="42.97668" lon="-0.06149">
        <ele>481.79998779297</ele>
        <time>2019-05-16T10:15:05Z</time>
      </trkpt>
      <trkpt lat="42.97668" lon="-0.06147">
        <ele>482.20001220703</ele>
        <time>2019-05-16T10:15:06Z</time>
      </trkpt>
      <trkpt lat="42.97669" lon="-0.06144">
        <ele>482.60000610352</ele>
        <time>2019-05-16T10:15:07Z</time>
      </trkpt>
      <trkpt lat="42.97669" lon="-0.06141">
        <ele>483</ele>
        <time>2019-05-16T10:15:08Z</time>
      </trkpt>
      <trkpt lat="42.97671" lon="-0.06135">
        <ele>483</ele>
        <time>2019-05-16T10:15:10Z</time>
      </trkpt>
      <trkpt lat="42.97672" lon="-0.06123">
        <ele>483.60000610352</ele>
        <time>2019-05-16T10:15:14Z</time>
      </trkpt>
      <trkpt lat="42.97673" lon="-0.0612">
        <ele>484</ele>
        <time>2019-05-16T10:15:15Z</time>
      </trkpt>
      <trkpt lat="42.97673" lon="-0.06117">
        <ele>484.39999389648</ele>
        <time>2019-05-16T10:15:16Z</time>
      </trkpt>
      <trkpt lat="42.97674" lon="-0.06115">
        <ele>484.79998779297</ele>
        <time>2019-05-16T10:15:17Z</time>
      </trkpt>
      <trkpt lat="42.97674" lon="-0.06112">
        <ele>485.20001220703</ele>
        <time>2019-05-16T10:15:18Z</time>
      </trkpt>
      <trkpt lat="42.97675" lon="-0.06094">
        <ele>486</ele>
        <time>2019-05-16T10:15:25Z</time>
      </trkpt>
      <trkpt lat="42.97676" lon="-0.06092">
        <ele>486.39999389648</ele>
        <time>2019-05-16T10:15:26Z</time>
      </trkpt>
      <trkpt lat="42.97677" lon="-0.0609">
        <ele>486.79998779297</ele>
        <time>2019-05-16T10:15:27Z</time>
      </trkpt>
      <trkpt lat="42.97679" lon="-0.06088">
        <ele>487.20001220703</ele>
        <time>2019-05-16T10:15:28Z</time>
      </trkpt>
      <trkpt lat="42.97684" lon="-0.06086">
        <ele>487.20001220703</ele>
        <time>2019-05-16T10:15:31Z</time>
      </trkpt>
      <trkpt lat="42.97699" lon="-0.06086">
        <ele>487.20001220703</ele>
        <time>2019-05-16T10:15:36Z</time>
      </trkpt>
      <trkpt lat="42.97701" lon="-0.06077">
        <ele>487.20001220703</ele>
        <time>2019-05-16T10:15:39Z</time>
      </trkpt>
      <trkpt lat="42.97697" lon="-0.06061">
        <ele>487.60000610352</ele>
        <time>2019-05-16T10:15:44Z</time>
      </trkpt>
      <trkpt lat="42.97698" lon="-0.06058">
        <ele>488</ele>
        <time>2019-05-16T10:15:45Z</time>
      </trkpt>
      <trkpt lat="42.97698" lon="-0.06055">
        <ele>488.39999389648</ele>
        <time>2019-05-16T10:15:46Z</time>
      </trkpt>
      <trkpt lat="42.97699" lon="-0.06051">
        <ele>488.79998779297</ele>
        <time>2019-05-16T10:15:47Z</time>
      </trkpt>
      <trkpt lat="42.977" lon="-0.06048">
        <ele>489.20001220703</ele>
        <time>2019-05-16T10:15:48Z</time>
      </trkpt>
      <trkpt lat="42.97704" lon="-0.06043">
        <ele>489.20001220703</ele>
        <time>2019-05-16T10:15:50Z</time>
      </trkpt>
      <trkpt lat="42.97712" lon="-0.06032">
        <ele>489.79998779297</ele>
        <time>2019-05-16T10:15:55Z</time>
      </trkpt>
      <trkpt lat="42.97714" lon="-0.0603">
        <ele>490.20001220703</ele>
        <time>2019-05-16T10:15:56Z</time>
      </trkpt>
      <trkpt lat="42.97716" lon="-0.06028">
        <ele>490.60000610352</ele>
        <time>2019-05-16T10:15:57Z</time>
      </trkpt>
      <trkpt lat="42.97718" lon="-0.06026">
        <ele>491.20001220703</ele>
        <time>2019-05-16T10:15:58Z</time>
      </trkpt>
      <trkpt lat="42.9772" lon="-0.06023">
        <ele>491.60000610352</ele>
        <time>2019-05-16T10:15:59Z</time>
      </trkpt>
      <trkpt lat="42.97729" lon="-0.06013">
        <ele>491.60000610352</ele>
        <time>2019-05-16T10:16:04Z</time>
      </trkpt>
      <trkpt lat="42.9774" lon="-0.06002">
        <ele>492</ele>
        <time>2019-05-16T10:16:09Z</time>
      </trkpt>
      <trkpt lat="42.97743" lon="-0.06">
        <ele>492.39999389648</ele>
        <time>2019-05-16T10:16:10Z</time>
      </trkpt>
      <trkpt lat="42.97745" lon="-0.05998">
        <ele>492.79998779297</ele>
        <time>2019-05-16T10:16:11Z</time>
      </trkpt>
      <trkpt lat="42.97747" lon="-0.05997">
        <ele>493.20001220703</ele>
        <time>2019-05-16T10:16:12Z</time>
      </trkpt>
      <trkpt lat="42.97749" lon="-0.05994">
        <ele>493.60000610352</ele>
        <time>2019-05-16T10:16:13Z</time>
      </trkpt>
      <trkpt lat="42.97757" lon="-0.05984">
        <ele>493.60000610352</ele>
        <time>2019-05-16T10:16:17Z</time>
      </trkpt>
      <trkpt lat="42.9777" lon="-0.05963">
        <ele>494</ele>
        <time>2019-05-16T10:16:24Z</time>
      </trkpt>
      <trkpt lat="42.97772" lon="-0.0596">
        <ele>494.39999389648</ele>
        <time>2019-05-16T10:16:25Z</time>
      </trkpt>
      <trkpt lat="42.97774" lon="-0.05956">
        <ele>494.79998779297</ele>
        <time>2019-05-16T10:16:26Z</time>
      </trkpt>
      <trkpt lat="42.97775" lon="-0.05953">
        <ele>495.20001220703</ele>
        <time>2019-05-16T10:16:27Z</time>
      </trkpt>
      <trkpt lat="42.97777" lon="-0.0595">
        <ele>495.60000610352</ele>
        <time>2019-05-16T10:16:28Z</time>
      </trkpt>
      <trkpt lat="42.97782" lon="-0.05936">
        <ele>495.60000610352</ele>
        <time>2019-05-16T10:16:32Z</time>
      </trkpt>
      <trkpt lat="42.97792" lon="-0.05912">
        <ele>496.39999389648</ele>
        <time>2019-05-16T10:16:39Z</time>
      </trkpt>
      <trkpt lat="42.97793" lon="-0.05909">
        <ele>497</ele>
        <time>2019-05-16T10:16:40Z</time>
      </trkpt>
      <trkpt lat="42.97794" lon="-0.05905">
        <ele>497.39999389648</ele>
        <time>2019-05-16T10:16:41Z</time>
      </trkpt>
      <trkpt lat="42.97795" lon="-0.05902">
        <ele>497.79998779297</ele>
        <time>2019-05-16T10:16:42Z</time>
      </trkpt>
      <trkpt lat="42.97802" lon="-0.0589">
        <ele>497.79998779297</ele>
        <time>2019-05-16T10:16:46Z</time>
      </trkpt>
      <trkpt lat="42.97814" lon="-0.05875">
        <ele>498.20001220703</ele>
        <time>2019-05-16T10:16:52Z</time>
      </trkpt>
      <trkpt lat="42.97816" lon="-0.05872">
        <ele>498.60000610352</ele>
        <time>2019-05-16T10:16:53Z</time>
      </trkpt>
      <trkpt lat="42.97818" lon="-0.0587">
        <ele>499</ele>
        <time>2019-05-16T10:16:54Z</time>
      </trkpt>
      <trkpt lat="42.9782" lon="-0.05868">
        <ele>499.39999389648</ele>
        <time>2019-05-16T10:16:55Z</time>
      </trkpt>
      <trkpt lat="42.97822" lon="-0.05866">
        <ele>499.79998779297</ele>
        <time>2019-05-16T10:16:56Z</time>
      </trkpt>
      <trkpt lat="42.9783" lon="-0.05857">
        <ele>499.79998779297</ele>
        <time>2019-05-16T10:17:00Z</time>
      </trkpt>
      <trkpt lat="42.97832" lon="-0.05855">
        <ele>500.20001220703</ele>
        <time>2019-05-16T10:17:01Z</time>
      </trkpt>
      <trkpt lat="42.97835" lon="-0.05853">
        <ele>500.60000610352</ele>
        <time>2019-05-16T10:17:02Z</time>
      </trkpt>
      <trkpt lat="42.97837" lon="-0.05851">
        <ele>501.39999389648</ele>
        <time>2019-05-16T10:17:03Z</time>
      </trkpt>
      <trkpt lat="42.97839" lon="-0.0585">
        <ele>502</ele>
        <time>2019-05-16T10:17:04Z</time>
      </trkpt>
      <trkpt lat="42.97845" lon="-0.05845">
        <ele>502</ele>
        <time>2019-05-16T10:17:07Z</time>
      </trkpt>
      <trkpt lat="42.97848" lon="-0.05842">
        <ele>502.39999389648</ele>
        <time>2019-05-16T10:17:09Z</time>
      </trkpt>
      <trkpt lat="42.97849" lon="-0.05841">
        <ele>502.79998779297</ele>
        <time>2019-05-16T10:17:10Z</time>
      </trkpt>
      <trkpt lat="42.97851" lon="-0.05839">
        <ele>503.20001220703</ele>
        <time>2019-05-16T10:17:11Z</time>
      </trkpt>
      <trkpt lat="42.97853" lon="-0.05838">
        <ele>503.60000610352</ele>
        <time>2019-05-16T10:17:12Z</time>
      </trkpt>
      <trkpt lat="42.97855" lon="-0.05837">
        <ele>504</ele>
        <time>2019-05-16T10:17:13Z</time>
      </trkpt>
      <trkpt lat="42.97859" lon="-0.05835">
        <ele>504</ele>
        <time>2019-05-16T10:17:15Z</time>
      </trkpt>
      <trkpt lat="42.97863" lon="-0.05833">
        <ele>504.60000610352</ele>
        <time>2019-05-16T10:17:17Z</time>
      </trkpt>
      <trkpt lat="42.97865" lon="-0.05832">
        <ele>505</ele>
        <time>2019-05-16T10:17:18Z</time>
      </trkpt>
      <trkpt lat="42.97867" lon="-0.0583">
        <ele>505.39999389648</ele>
        <time>2019-05-16T10:17:19Z</time>
      </trkpt>
      <trkpt lat="42.97869" lon="-0.05829">
        <ele>505.79998779297</ele>
        <time>2019-05-16T10:17:20Z</time>
      </trkpt>
      <trkpt lat="42.97871" lon="-0.05828">
        <ele>506.20001220703</ele>
        <time>2019-05-16T10:17:21Z</time>
      </trkpt>
      <trkpt lat="42.97878" lon="-0.05824">
        <ele>506.20001220703</ele>
        <time>2019-05-16T10:17:24Z</time>
      </trkpt>
      <trkpt lat="42.97884" lon="-0.05821">
        <ele>506.60000610352</ele>
        <time>2019-05-16T10:17:27Z</time>
      </trkpt>
      <trkpt lat="42.97886" lon="-0.0582">
        <ele>507.39999389648</ele>
        <time>2019-05-16T10:17:28Z</time>
      </trkpt>
      <trkpt lat="42.97888" lon="-0.0582">
        <ele>508</ele>
        <time>2019-05-16T10:17:29Z</time>
      </trkpt>
      <trkpt lat="42.9789" lon="-0.05819">
        <ele>508.39999389648</ele>
        <time>2019-05-16T10:17:30Z</time>
      </trkpt>
      <trkpt lat="42.97901" lon="-0.05815">
        <ele>508.79998779297</ele>
        <time>2019-05-16T10:17:35Z</time>
      </trkpt>
      <trkpt lat="42.97903" lon="-0.05813">
        <ele>509.20001220703</ele>
        <time>2019-05-16T10:17:36Z</time>
      </trkpt>
      <trkpt lat="42.97905" lon="-0.05813">
        <ele>509.60000610352</ele>
        <time>2019-05-16T10:17:37Z</time>
      </trkpt>
      <trkpt lat="42.97907" lon="-0.05813">
        <ele>510</ele>
        <time>2019-05-16T10:17:38Z</time>
      </trkpt>
      <trkpt lat="42.9791" lon="-0.05812">
        <ele>510.39999389648</ele>
        <time>2019-05-16T10:17:39Z</time>
      </trkpt>
      <trkpt lat="42.97916" lon="-0.05811">
        <ele>510.39999389648</ele>
        <time>2019-05-16T10:17:42Z</time>
      </trkpt>
      <trkpt lat="42.97924" lon="-0.05812">
        <ele>510.79998779297</ele>
        <time>2019-05-16T10:17:46Z</time>
      </trkpt>
      <trkpt lat="42.97925" lon="-0.05813">
        <ele>511.39999389648</ele>
        <time>2019-05-16T10:17:47Z</time>
      </trkpt>
      <trkpt lat="42.97927" lon="-0.05814">
        <ele>511.79998779297</ele>
        <time>2019-05-16T10:17:48Z</time>
      </trkpt>
      <trkpt lat="42.97929" lon="-0.05815">
        <ele>512.20001220703</ele>
        <time>2019-05-16T10:17:49Z</time>
      </trkpt>
      <trkpt lat="42.97931" lon="-0.05816">
        <ele>512.79998779297</ele>
        <time>2019-05-16T10:17:50Z</time>
      </trkpt>
      <trkpt lat="42.97941" lon="-0.05819">
        <ele>512.79998779297</ele>
        <time>2019-05-16T10:17:55Z</time>
      </trkpt>
      <trkpt lat="42.97943" lon="-0.0582">
        <ele>513.20001220703</ele>
        <time>2019-05-16T10:17:56Z</time>
      </trkpt>
      <trkpt lat="42.97945" lon="-0.05821">
        <ele>513.59997558594</ele>
        <time>2019-05-16T10:17:57Z</time>
      </trkpt>
      <trkpt lat="42.97947" lon="-0.05823">
        <ele>514</ele>
        <time>2019-05-16T10:17:58Z</time>
      </trkpt>
      <trkpt lat="42.97948" lon="-0.05824">
        <ele>514.59997558594</ele>
        <time>2019-05-16T10:17:59Z</time>
      </trkpt>
      <trkpt lat="42.9795" lon="-0.05825">
        <ele>515</ele>
        <time>2019-05-16T10:18:00Z</time>
      </trkpt>
      <trkpt lat="42.97953" lon="-0.05828">
        <ele>515</ele>
        <time>2019-05-16T10:18:02Z</time>
      </trkpt>
      <trkpt lat="42.97961" lon="-0.05834">
        <ele>515.40002441406</ele>
        <time>2019-05-16T10:18:07Z</time>
      </trkpt>
      <trkpt lat="42.97963" lon="-0.05835">
        <ele>515.79998779297</ele>
        <time>2019-05-16T10:18:08Z</time>
      </trkpt>
      <trkpt lat="42.97964" lon="-0.05836">
        <ele>516.40002441406</ele>
        <time>2019-05-16T10:18:09Z</time>
      </trkpt>
      <trkpt lat="42.97966" lon="-0.05837">
        <ele>516.79998779297</ele>
        <time>2019-05-16T10:18:10Z</time>
      </trkpt>
      <trkpt lat="42.97968" lon="-0.05839">
        <ele>517.20001220703</ele>
        <time>2019-05-16T10:18:11Z</time>
      </trkpt>
      <trkpt lat="42.9797" lon="-0.0584">
        <ele>517.20001220703</ele>
        <time>2019-05-16T10:18:12Z</time>
      </trkpt>
      <trkpt lat="42.97973" lon="-0.05842">
        <ele>517.20001220703</ele>
        <time>2019-05-16T10:18:14Z</time>
      </trkpt>
      <trkpt lat="42.97976" lon="-0.05845">
        <ele>517.59997558594</ele>
        <time>2019-05-16T10:18:16Z</time>
      </trkpt>
      <trkpt lat="42.97978" lon="-0.05846">
        <ele>518.59997558594</ele>
        <time>2019-05-16T10:18:17Z</time>
      </trkpt>
      <trkpt lat="42.97979" lon="-0.05846">
        <ele>519</ele>
        <time>2019-05-16T10:18:18Z</time>
      </trkpt>
      <trkpt lat="42.97981" lon="-0.05847">
        <ele>519.40002441406</ele>
        <time>2019-05-16T10:18:19Z</time>
      </trkpt>
      <trkpt lat="42.97987" lon="-0.0585">
        <ele>519.79998779297</ele>
        <time>2019-05-16T10:18:23Z</time>
      </trkpt>
      <trkpt lat="42.97988" lon="-0.0585">
        <ele>520.20001220703</ele>
        <time>2019-05-16T10:18:24Z</time>
      </trkpt>
      <trkpt lat="42.97989" lon="-0.05851">
        <ele>520.59997558594</ele>
        <time>2019-05-16T10:18:25Z</time>
      </trkpt>
      <trkpt lat="42.97991" lon="-0.05851">
        <ele>521.20001220703</ele>
        <time>2019-05-16T10:18:26Z</time>
      </trkpt>
      <trkpt lat="42.97992" lon="-0.0585">
        <ele>521.59997558594</ele>
        <time>2019-05-16T10:18:27Z</time>
      </trkpt>
      <trkpt lat="42.97996" lon="-0.05851">
        <ele>521.59997558594</ele>
        <time>2019-05-16T10:18:30Z</time>
      </trkpt>
      <trkpt lat="42.97997" lon="-0.05851">
        <ele>522</ele>
        <time>2019-05-16T10:18:31Z</time>
      </trkpt>
      <trkpt lat="42.97999" lon="-0.05851">
        <ele>522.40002441406</ele>
        <time>2019-05-16T10:18:32Z</time>
      </trkpt>
      <trkpt lat="42.98" lon="-0.05852">
        <ele>523</ele>
        <time>2019-05-16T10:18:33Z</time>
      </trkpt>
      <trkpt lat="42.98002" lon="-0.05853">
        <ele>523.40002441406</ele>
        <time>2019-05-16T10:18:34Z</time>
      </trkpt>
      <trkpt lat="42.98003" lon="-0.05854">
        <ele>523.79998779297</ele>
        <time>2019-05-16T10:18:35Z</time>
      </trkpt>
      <trkpt lat="42.98005" lon="-0.05855">
        <ele>523.79998779297</ele>
        <time>2019-05-16T10:18:36Z</time>
      </trkpt>
      <trkpt lat="42.98006" lon="-0.05856">
        <ele>523.79998779297</ele>
        <time>2019-05-16T10:18:37Z</time>
      </trkpt>
      <trkpt lat="42.9801" lon="-0.0586">
        <ele>524.20001220703</ele>
        <time>2019-05-16T10:18:40Z</time>
      </trkpt>
      <trkpt lat="42.98012" lon="-0.05862">
        <ele>524.59997558594</ele>
        <time>2019-05-16T10:18:41Z</time>
      </trkpt>
      <trkpt lat="42.98013" lon="-0.05863">
        <ele>525.40002441406</ele>
        <time>2019-05-16T10:18:42Z</time>
      </trkpt>
      <trkpt lat="42.98015" lon="-0.05864">
        <ele>525.79998779297</ele>
        <time>2019-05-16T10:18:43Z</time>
      </trkpt>
      <trkpt lat="42.98023" lon="-0.05876">
        <ele>525.79998779297</ele>
        <time>2019-05-16T10:18:49Z</time>
      </trkpt>
      <trkpt lat="42.98032" lon="-0.05887">
        <ele>525.79998779297</ele>
        <time>2019-05-16T10:18:55Z</time>
      </trkpt>
      <trkpt lat="42.98047" lon="-0.05899">
        <ele>525.79998779297</ele>
        <time>2019-05-16T10:19:04Z</time>
      </trkpt>
      <trkpt lat="42.98051" lon="-0.059">
        <ele>526.20001220703</ele>
        <time>2019-05-16T10:19:06Z</time>
      </trkpt>
      <trkpt lat="42.98052" lon="-0.05899">
        <ele>527.20001220703</ele>
        <time>2019-05-16T10:19:07Z</time>
      </trkpt>
      <trkpt lat="42.98054" lon="-0.05899">
        <ele>527.59997558594</ele>
        <time>2019-05-16T10:19:08Z</time>
      </trkpt>
      <trkpt lat="42.98056" lon="-0.05899">
        <ele>528</ele>
        <time>2019-05-16T10:19:09Z</time>
      </trkpt>
      <trkpt lat="42.98058" lon="-0.05898">
        <ele>528</ele>
        <time>2019-05-16T10:19:10Z</time>
      </trkpt>
      <trkpt lat="42.98063" lon="-0.05897">
        <ele>528.40002441406</ele>
        <time>2019-05-16T10:19:13Z</time>
      </trkpt>
      <trkpt lat="42.98064" lon="-0.05897">
        <ele>528.79998779297</ele>
        <time>2019-05-16T10:19:14Z</time>
      </trkpt>
      <trkpt lat="42.98066" lon="-0.05897">
        <ele>529.40002441406</ele>
        <time>2019-05-16T10:19:15Z</time>
      </trkpt>
      <trkpt lat="42.98067" lon="-0.05897">
        <ele>529.79998779297</ele>
        <time>2019-05-16T10:19:16Z</time>
      </trkpt>
      <trkpt lat="42.98069" lon="-0.05896">
        <ele>530.20001220703</ele>
        <time>2019-05-16T10:19:17Z</time>
      </trkpt>
      <trkpt lat="42.98077" lon="-0.05895">
        <ele>530.20001220703</ele>
        <time>2019-05-16T10:19:21Z</time>
      </trkpt>
      <trkpt lat="42.98079" lon="-0.05893">
        <ele>530.20001220703</ele>
        <time>2019-05-16T10:19:22Z</time>
      </trkpt>
      <trkpt lat="42.98082" lon="-0.0589">
        <ele>530.20001220703</ele>
        <time>2019-05-16T10:19:24Z</time>
      </trkpt>
      <trkpt lat="42.98087" lon="-0.05884">
        <ele>530.20001220703</ele>
        <time>2019-05-16T10:19:27Z</time>
      </trkpt>
      <trkpt lat="42.98087" lon="-0.05871">
        <ele>530.20001220703</ele>
        <time>2019-05-16T10:19:32Z</time>
      </trkpt>
      <trkpt lat="42.98086" lon="-0.05872">
        <ele>530.20001220703</ele>
        <time>2019-05-16T10:19:35Z</time>
      </trkpt>
      <trkpt lat="42.98086" lon="-0.05872">
        <ele>530.59997558594</ele>
        <time>2019-05-16T10:19:37Z</time>
      </trkpt>
      <trkpt lat="42.98086" lon="-0.05872">
        <ele>531</ele>
        <time>2019-05-16T10:19:38Z</time>
      </trkpt>
      <trkpt lat="42.98086" lon="-0.05872">
        <ele>531.40002441406</ele>
        <time>2019-05-16T10:19:39Z</time>
      </trkpt>
      <trkpt lat="42.98086" lon="-0.05872">
        <ele>531.79998779297</ele>
        <time>2019-05-16T10:19:40Z</time>
      </trkpt>
      <trkpt lat="42.98086" lon="-0.05872">
        <ele>532.20001220703</ele>
        <time>2019-05-16T10:19:41Z</time>
      </trkpt>
      <trkpt lat="42.98086" lon="-0.05872">
        <ele>532.20001220703</ele>
        <time>2019-05-16T10:19:43Z</time>
      </trkpt>
      <trkpt lat="42.98086" lon="-0.05871">
        <ele>532.20001220703</ele>
        <time>2019-05-16T10:19:50Z</time>
      </trkpt>
      <trkpt lat="42.98086" lon="-0.05871">
        <ele>532.20001220703</ele>
        <time>2019-05-16T10:20:00Z</time>
      </trkpt>
      <trkpt lat="42.98086" lon="-0.05871">
        <ele>532.20001220703</ele>
        <time>2019-05-16T10:20:10Z</time>
      </trkpt>
      <trkpt lat="42.98087" lon="-0.0587">
        <ele>532.20001220703</ele>
        <time>2019-05-16T10:20:17Z</time>
      </trkpt>
      <trkpt lat="42.98086" lon="-0.0587">
        <ele>532.20001220703</ele>
        <time>2019-05-16T10:20:24Z</time>
      </trkpt>
      <trkpt lat="42.98086" lon="-0.0587">
        <ele>532.20001220703</ele>
        <time>2019-05-16T10:20:34Z</time>
      </trkpt>
      <trkpt lat="42.98086" lon="-0.05871">
        <ele>532.20001220703</ele>
        <time>2019-05-16T10:20:40Z</time>
      </trkpt>
      <trkpt lat="42.98086" lon="-0.05871">
        <ele>532.20001220703</ele>
        <time>2019-05-16T10:20:45Z</time>
      </trkpt>
      <trkpt lat="42.98086" lon="-0.05871">
        <ele>532.20001220703</ele>
        <time>2019-05-16T10:20:46Z</time>
      </trkpt>
      <trkpt lat="42.98085" lon="-0.0587">
        <ele>532.20001220703</ele>
        <time>2019-05-16T10:20:50Z</time>
      </trkpt>
      <trkpt lat="42.98085" lon="-0.0587">
        <ele>532.20001220703</ele>
        <time>2019-05-16T10:20:58Z</time>
      </trkpt>
      <trkpt lat="42.98086" lon="-0.0587">
        <ele>532.20001220703</ele>
        <time>2019-05-16T10:21:05Z</time>
      </trkpt>
      <trkpt lat="42.98086" lon="-0.0587">
        <ele>532.20001220703</ele>
        <time>2019-05-16T10:21:12Z</time>
      </trkpt>
      <trkpt lat="42.98086" lon="-0.0587">
        <ele>532.20001220703</ele>
        <time>2019-05-16T10:21:19Z</time>
      </trkpt>
      <trkpt lat="42.98086" lon="-0.0587">
        <ele>532.20001220703</ele>
        <time>2019-05-16T10:21:29Z</time>
      </trkpt>
      <trkpt lat="42.98086" lon="-0.0587">
        <ele>532.20001220703</ele>
        <time>2019-05-16T10:21:38Z</time>
      </trkpt>
      <trkpt lat="42.98086" lon="-0.0587">
        <ele>532.20001220703</ele>
        <time>2019-05-16T10:21:56Z</time>
      </trkpt>
      <trkpt lat="42.98086" lon="-0.0587">
        <ele>532.20001220703</ele>
        <time>2019-05-16T10:22:07Z</time>
      </trkpt>
    </trkseg>
  </trk>
</gpx>